<?xml version="1.0" encoding="UTF-8" standalone="no" ?>
<gpx xmlns="http://www.topografix.com/GPX/1/1" xmlns:xsi="http://www.w3.org/2001/XMLSchema-instance" xsi:schemaLocation="http://www.topografix.com/GPX/1/1 http://www.topografix.com/GPX/1/1/gpx.xsd" version="1.1" creator="VisuGPX - https://www.visugpx.com">
  <metadata>
    <name>Lans-en-Vercors &gt; Les Merciers &gt; Engins &gt; Sassenage</name>
    <desc><![CDATA[Rapide mais pas très technique comme descente...]]></desc>
  </metadata>
  <trk>
    <name><![CDATA[Lans-Engins-Sassenage]]></name>
    <desc><![CDATA[]]></desc>
    <trkseg>
      <trkpt lat="45.12814" lon="5.59182">
        <ele>1059</ele>
        <time>2011-06-30T05:42:03Z</time>
      </trkpt>
      <trkpt lat="45.12814" lon="5.59182">
        <ele>1059</ele>
        <time>2011-06-30T05:42:03Z</time>
      </trkpt>
      <trkpt lat="45.12814" lon="5.59182">
        <ele>1059</ele>
        <time>2011-06-30T05:42:14Z</time>
      </trkpt>
      <trkpt lat="45.1281" lon="5.59189">
        <ele>1044</ele>
        <time>2011-06-30T05:42:15Z</time>
      </trkpt>
      <trkpt lat="45.12811" lon="5.59183">
        <ele>1035</ele>
        <time>2011-06-30T05:42:20Z</time>
      </trkpt>
      <trkpt lat="45.12806" lon="5.59178">
        <ele>1041</ele>
        <time>2011-06-30T05:42:22Z</time>
      </trkpt>
      <trkpt lat="45.12801" lon="5.59175">
        <ele>1045</ele>
        <time>2011-06-30T05:42:23Z</time>
      </trkpt>
      <trkpt lat="45.12796" lon="5.59174">
        <ele>1045</ele>
        <time>2011-06-30T05:42:25Z</time>
      </trkpt>
      <trkpt lat="45.12787" lon="5.59166">
        <ele>1051</ele>
        <time>2011-06-30T05:42:28Z</time>
      </trkpt>
      <trkpt lat="45.12783" lon="5.59163">
        <ele>1051</ele>
        <time>2011-06-30T05:42:29Z</time>
      </trkpt>
      <trkpt lat="45.12779" lon="5.5916">
        <ele>1048</ele>
        <time>2011-06-30T05:42:30Z</time>
      </trkpt>
      <trkpt lat="45.12775" lon="5.59154">
        <ele>1045</ele>
        <time>2011-06-30T05:42:32Z</time>
      </trkpt>
      <trkpt lat="45.12776" lon="5.59146">
        <ele>1048</ele>
        <time>2011-06-30T05:42:34Z</time>
      </trkpt>
      <trkpt lat="45.12779" lon="5.59136">
        <ele>1053</ele>
        <time>2011-06-30T05:42:36Z</time>
      </trkpt>
      <trkpt lat="45.12782" lon="5.59125">
        <ele>1055</ele>
        <time>2011-06-30T05:42:38Z</time>
      </trkpt>
      <trkpt lat="45.12784" lon="5.59119">
        <ele>1055</ele>
        <time>2011-06-30T05:42:39Z</time>
      </trkpt>
      <trkpt lat="45.12785" lon="5.59112">
        <ele>1055</ele>
        <time>2011-06-30T05:42:40Z</time>
      </trkpt>
      <trkpt lat="45.12787" lon="5.59105">
        <ele>1055</ele>
        <time>2011-06-30T05:42:41Z</time>
      </trkpt>
      <trkpt lat="45.12789" lon="5.59098">
        <ele>1055</ele>
        <time>2011-06-30T05:42:42Z</time>
      </trkpt>
      <trkpt lat="45.12791" lon="5.59091">
        <ele>1056</ele>
        <time>2011-06-30T05:42:43Z</time>
      </trkpt>
      <trkpt lat="45.12794" lon="5.59086">
        <ele>1056</ele>
        <time>2011-06-30T05:42:44Z</time>
      </trkpt>
      <trkpt lat="45.12795" lon="5.59078">
        <ele>1056</ele>
        <time>2011-06-30T05:42:45Z</time>
      </trkpt>
      <trkpt lat="45.12797" lon="5.5907">
        <ele>1056</ele>
        <time>2011-06-30T05:42:46Z</time>
      </trkpt>
      <trkpt lat="45.12799" lon="5.59064">
        <ele>1056</ele>
        <time>2011-06-30T05:42:47Z</time>
      </trkpt>
      <trkpt lat="45.12802" lon="5.59058">
        <ele>1056</ele>
        <time>2011-06-30T05:42:48Z</time>
      </trkpt>
      <trkpt lat="45.12807" lon="5.59054">
        <ele>1056</ele>
        <time>2011-06-30T05:42:50Z</time>
      </trkpt>
      <trkpt lat="45.12814" lon="5.5906">
        <ele>1055</ele>
        <time>2011-06-30T05:42:52Z</time>
      </trkpt>
      <trkpt lat="45.12818" lon="5.59064">
        <ele>1056</ele>
        <time>2011-06-30T05:42:53Z</time>
      </trkpt>
      <trkpt lat="45.12823" lon="5.59073">
        <ele>1056</ele>
        <time>2011-06-30T05:42:55Z</time>
      </trkpt>
      <trkpt lat="45.12831" lon="5.5908">
        <ele>1055</ele>
        <time>2011-06-30T05:42:57Z</time>
      </trkpt>
      <trkpt lat="45.12834" lon="5.59084">
        <ele>1056</ele>
        <time>2011-06-30T05:42:58Z</time>
      </trkpt>
      <trkpt lat="45.12839" lon="5.59091">
        <ele>1056</ele>
        <time>2011-06-30T05:42:59Z</time>
      </trkpt>
      <trkpt lat="45.12843" lon="5.59095">
        <ele>1057</ele>
        <time>2011-06-30T05:43:00Z</time>
      </trkpt>
      <trkpt lat="45.12848" lon="5.591">
        <ele>1057</ele>
        <time>2011-06-30T05:43:01Z</time>
      </trkpt>
      <trkpt lat="45.12851" lon="5.59105">
        <ele>1057</ele>
        <time>2011-06-30T05:43:02Z</time>
      </trkpt>
      <trkpt lat="45.12855" lon="5.59112">
        <ele>1057</ele>
        <time>2011-06-30T05:43:03Z</time>
      </trkpt>
      <trkpt lat="45.12859" lon="5.59116">
        <ele>1057</ele>
        <time>2011-06-30T05:43:04Z</time>
      </trkpt>
      <trkpt lat="45.12865" lon="5.59126">
        <ele>1058</ele>
        <time>2011-06-30T05:43:06Z</time>
      </trkpt>
      <trkpt lat="45.12869" lon="5.5913">
        <ele>1059</ele>
        <time>2011-06-30T05:43:07Z</time>
      </trkpt>
      <trkpt lat="45.12873" lon="5.59141">
        <ele>1059</ele>
        <time>2011-06-30T05:43:09Z</time>
      </trkpt>
      <trkpt lat="45.12876" lon="5.59148">
        <ele>1060</ele>
        <time>2011-06-30T05:43:10Z</time>
      </trkpt>
      <trkpt lat="45.1288" lon="5.5916">
        <ele>1059</ele>
        <time>2011-06-30T05:43:12Z</time>
      </trkpt>
      <trkpt lat="45.12884" lon="5.59168">
        <ele>1058</ele>
        <time>2011-06-30T05:43:13Z</time>
      </trkpt>
      <trkpt lat="45.12885" lon="5.59177">
        <ele>1058</ele>
        <time>2011-06-30T05:43:14Z</time>
      </trkpt>
      <trkpt lat="45.12886" lon="5.59185">
        <ele>1058</ele>
        <time>2011-06-30T05:43:15Z</time>
      </trkpt>
      <trkpt lat="45.12886" lon="5.59193">
        <ele>1058</ele>
        <time>2011-06-30T05:43:16Z</time>
      </trkpt>
      <trkpt lat="45.12886" lon="5.59202">
        <ele>1058</ele>
        <time>2011-06-30T05:43:17Z</time>
      </trkpt>
      <trkpt lat="45.12887" lon="5.59211">
        <ele>1058</ele>
        <time>2011-06-30T05:43:18Z</time>
      </trkpt>
      <trkpt lat="45.1289" lon="5.5922">
        <ele>1058</ele>
        <time>2011-06-30T05:43:19Z</time>
      </trkpt>
      <trkpt lat="45.12893" lon="5.59229">
        <ele>1058</ele>
        <time>2011-06-30T05:43:20Z</time>
      </trkpt>
      <trkpt lat="45.12896" lon="5.59238">
        <ele>1057</ele>
        <time>2011-06-30T05:43:21Z</time>
      </trkpt>
      <trkpt lat="45.12898" lon="5.59248">
        <ele>1056</ele>
        <time>2011-06-30T05:43:22Z</time>
      </trkpt>
      <trkpt lat="45.12902" lon="5.59259">
        <ele>1054</ele>
        <time>2011-06-30T05:43:23Z</time>
      </trkpt>
      <trkpt lat="45.12907" lon="5.59268">
        <ele>1054</ele>
        <time>2011-06-30T05:43:24Z</time>
      </trkpt>
      <trkpt lat="45.12913" lon="5.59274">
        <ele>1054</ele>
        <time>2011-06-30T05:43:25Z</time>
      </trkpt>
      <trkpt lat="45.12921" lon="5.5928">
        <ele>1053</ele>
        <time>2011-06-30T05:43:26Z</time>
      </trkpt>
      <trkpt lat="45.12924" lon="5.59286">
        <ele>1054</ele>
        <time>2011-06-30T05:43:27Z</time>
      </trkpt>
      <trkpt lat="45.12929" lon="5.59292">
        <ele>1054</ele>
        <time>2011-06-30T05:43:28Z</time>
      </trkpt>
      <trkpt lat="45.12931" lon="5.59297">
        <ele>1053</ele>
        <time>2011-06-30T05:43:30Z</time>
      </trkpt>
      <trkpt lat="45.12935" lon="5.59302">
        <ele>1054</ele>
        <time>2011-06-30T05:43:32Z</time>
      </trkpt>
      <trkpt lat="45.12941" lon="5.59302">
        <ele>1057</ele>
        <time>2011-06-30T05:43:37Z</time>
      </trkpt>
      <trkpt lat="45.12943" lon="5.59296">
        <ele>1058</ele>
        <time>2011-06-30T05:43:42Z</time>
      </trkpt>
      <trkpt lat="45.12949" lon="5.59293">
        <ele>1058</ele>
        <time>2011-06-30T05:43:47Z</time>
      </trkpt>
      <trkpt lat="45.12952" lon="5.59287">
        <ele>1057</ele>
        <time>2011-06-30T05:43:51Z</time>
      </trkpt>
      <trkpt lat="45.12956" lon="5.59282">
        <ele>1056</ele>
        <time>2011-06-30T05:43:55Z</time>
      </trkpt>
      <trkpt lat="45.1296" lon="5.59279">
        <ele>1060</ele>
        <time>2011-06-30T05:44:00Z</time>
      </trkpt>
      <trkpt lat="45.12964" lon="5.59281">
        <ele>1060</ele>
        <time>2011-06-30T05:44:09Z</time>
      </trkpt>
      <trkpt lat="45.12964" lon="5.59287">
        <ele>1059</ele>
        <time>2011-06-30T05:44:18Z</time>
      </trkpt>
      <trkpt lat="45.12962" lon="5.59295">
        <ele>1058</ele>
        <time>2011-06-30T05:44:23Z</time>
      </trkpt>
      <trkpt lat="45.12965" lon="5.59301">
        <ele>1060</ele>
        <time>2011-06-30T05:44:28Z</time>
      </trkpt>
      <trkpt lat="45.12964" lon="5.59307">
        <ele>1061</ele>
        <time>2011-06-30T05:44:33Z</time>
      </trkpt>
      <trkpt lat="45.12966" lon="5.59314">
        <ele>1063</ele>
        <time>2011-06-30T05:44:41Z</time>
      </trkpt>
      <trkpt lat="45.12971" lon="5.59317">
        <ele>1064</ele>
        <time>2011-06-30T05:44:54Z</time>
      </trkpt>
      <trkpt lat="45.12973" lon="5.59309">
        <ele>1064</ele>
        <time>2011-06-30T05:44:57Z</time>
      </trkpt>
      <trkpt lat="45.12976" lon="5.59301">
        <ele>1063</ele>
        <time>2011-06-30T05:45:00Z</time>
      </trkpt>
      <trkpt lat="45.1298" lon="5.59294">
        <ele>1062</ele>
        <time>2011-06-30T05:45:02Z</time>
      </trkpt>
      <trkpt lat="45.12986" lon="5.59287">
        <ele>1063</ele>
        <time>2011-06-30T05:45:04Z</time>
      </trkpt>
      <trkpt lat="45.12994" lon="5.59282">
        <ele>1062</ele>
        <time>2011-06-30T05:45:06Z</time>
      </trkpt>
      <trkpt lat="45.13002" lon="5.59282">
        <ele>1061</ele>
        <time>2011-06-30T05:45:08Z</time>
      </trkpt>
      <trkpt lat="45.13011" lon="5.59284">
        <ele>1061</ele>
        <time>2011-06-30T05:45:10Z</time>
      </trkpt>
      <trkpt lat="45.13016" lon="5.59286">
        <ele>1061</ele>
        <time>2011-06-30T05:45:11Z</time>
      </trkpt>
      <trkpt lat="45.1302" lon="5.59287">
        <ele>1061</ele>
        <time>2011-06-30T05:45:12Z</time>
      </trkpt>
      <trkpt lat="45.13026" lon="5.59288">
        <ele>1061</ele>
        <time>2011-06-30T05:45:13Z</time>
      </trkpt>
      <trkpt lat="45.13033" lon="5.59289">
        <ele>1061</ele>
        <time>2011-06-30T05:45:14Z</time>
      </trkpt>
      <trkpt lat="45.1304" lon="5.59288">
        <ele>1061</ele>
        <time>2011-06-30T05:45:15Z</time>
      </trkpt>
      <trkpt lat="45.13047" lon="5.59287">
        <ele>1060</ele>
        <time>2011-06-30T05:45:16Z</time>
      </trkpt>
      <trkpt lat="45.13055" lon="5.59284">
        <ele>1060</ele>
        <time>2011-06-30T05:45:17Z</time>
      </trkpt>
      <trkpt lat="45.13062" lon="5.59281">
        <ele>1060</ele>
        <time>2011-06-30T05:45:18Z</time>
      </trkpt>
      <trkpt lat="45.1307" lon="5.59274">
        <ele>1059</ele>
        <time>2011-06-30T05:45:19Z</time>
      </trkpt>
      <trkpt lat="45.13077" lon="5.59266">
        <ele>1059</ele>
        <time>2011-06-30T05:45:20Z</time>
      </trkpt>
      <trkpt lat="45.13083" lon="5.59255">
        <ele>1059</ele>
        <time>2011-06-30T05:45:21Z</time>
      </trkpt>
      <trkpt lat="45.13089" lon="5.59243">
        <ele>1058</ele>
        <time>2011-06-30T05:45:22Z</time>
      </trkpt>
      <trkpt lat="45.13095" lon="5.5923">
        <ele>1058</ele>
        <time>2011-06-30T05:45:23Z</time>
      </trkpt>
      <trkpt lat="45.13101" lon="5.59218">
        <ele>1058</ele>
        <time>2011-06-30T05:45:24Z</time>
      </trkpt>
      <trkpt lat="45.13107" lon="5.59207">
        <ele>1058</ele>
        <time>2011-06-30T05:45:25Z</time>
      </trkpt>
      <trkpt lat="45.13114" lon="5.59196">
        <ele>1058</ele>
        <time>2011-06-30T05:45:26Z</time>
      </trkpt>
      <trkpt lat="45.1312" lon="5.59182">
        <ele>1058</ele>
        <time>2011-06-30T05:45:27Z</time>
      </trkpt>
      <trkpt lat="45.13125" lon="5.5917">
        <ele>1058</ele>
        <time>2011-06-30T05:45:28Z</time>
      </trkpt>
      <trkpt lat="45.13131" lon="5.59157">
        <ele>1058</ele>
        <time>2011-06-30T05:45:29Z</time>
      </trkpt>
      <trkpt lat="45.13137" lon="5.59145">
        <ele>1058</ele>
        <time>2011-06-30T05:45:30Z</time>
      </trkpt>
      <trkpt lat="45.13143" lon="5.59134">
        <ele>1058</ele>
        <time>2011-06-30T05:45:31Z</time>
      </trkpt>
      <trkpt lat="45.1315" lon="5.5912">
        <ele>1058</ele>
        <time>2011-06-30T05:45:32Z</time>
      </trkpt>
      <trkpt lat="45.13156" lon="5.59107">
        <ele>1058</ele>
        <time>2011-06-30T05:45:33Z</time>
      </trkpt>
      <trkpt lat="45.13162" lon="5.59095">
        <ele>1057</ele>
        <time>2011-06-30T05:45:34Z</time>
      </trkpt>
      <trkpt lat="45.13166" lon="5.59086">
        <ele>1057</ele>
        <time>2011-06-30T05:45:35Z</time>
      </trkpt>
      <trkpt lat="45.13171" lon="5.59079">
        <ele>1057</ele>
        <time>2011-06-30T05:45:36Z</time>
      </trkpt>
      <trkpt lat="45.13175" lon="5.59073">
        <ele>1057</ele>
        <time>2011-06-30T05:45:37Z</time>
      </trkpt>
      <trkpt lat="45.13179" lon="5.59067">
        <ele>1057</ele>
        <time>2011-06-30T05:45:38Z</time>
      </trkpt>
      <trkpt lat="45.13184" lon="5.5906">
        <ele>1057</ele>
        <time>2011-06-30T05:45:39Z</time>
      </trkpt>
      <trkpt lat="45.13189" lon="5.59054">
        <ele>1057</ele>
        <time>2011-06-30T05:45:40Z</time>
      </trkpt>
      <trkpt lat="45.13195" lon="5.59048">
        <ele>1057</ele>
        <time>2011-06-30T05:45:41Z</time>
      </trkpt>
      <trkpt lat="45.13201" lon="5.5904">
        <ele>1057</ele>
        <time>2011-06-30T05:45:42Z</time>
      </trkpt>
      <trkpt lat="45.13206" lon="5.59031">
        <ele>1057</ele>
        <time>2011-06-30T05:45:43Z</time>
      </trkpt>
      <trkpt lat="45.13213" lon="5.59018">
        <ele>1056</ele>
        <time>2011-06-30T05:45:44Z</time>
      </trkpt>
      <trkpt lat="45.13218" lon="5.59004">
        <ele>1055</ele>
        <time>2011-06-30T05:45:45Z</time>
      </trkpt>
      <trkpt lat="45.13222" lon="5.58993">
        <ele>1055</ele>
        <time>2011-06-30T05:45:46Z</time>
      </trkpt>
      <trkpt lat="45.13225" lon="5.58981">
        <ele>1054</ele>
        <time>2011-06-30T05:45:47Z</time>
      </trkpt>
      <trkpt lat="45.13226" lon="5.58971">
        <ele>1054</ele>
        <time>2011-06-30T05:45:48Z</time>
      </trkpt>
      <trkpt lat="45.13226" lon="5.58959">
        <ele>1053</ele>
        <time>2011-06-30T05:45:49Z</time>
      </trkpt>
      <trkpt lat="45.13226" lon="5.58947">
        <ele>1052</ele>
        <time>2011-06-30T05:45:50Z</time>
      </trkpt>
      <trkpt lat="45.13224" lon="5.58934">
        <ele>1051</ele>
        <time>2011-06-30T05:45:51Z</time>
      </trkpt>
      <trkpt lat="45.13219" lon="5.58923">
        <ele>1049</ele>
        <time>2011-06-30T05:45:52Z</time>
      </trkpt>
      <trkpt lat="45.13213" lon="5.58911">
        <ele>1049</ele>
        <time>2011-06-30T05:45:53Z</time>
      </trkpt>
      <trkpt lat="45.13208" lon="5.58903">
        <ele>1047</ele>
        <time>2011-06-30T05:45:54Z</time>
      </trkpt>
      <trkpt lat="45.132" lon="5.58894">
        <ele>1047</ele>
        <time>2011-06-30T05:45:55Z</time>
      </trkpt>
      <trkpt lat="45.13191" lon="5.58885">
        <ele>1047</ele>
        <time>2011-06-30T05:45:56Z</time>
      </trkpt>
      <trkpt lat="45.13181" lon="5.58877">
        <ele>1047</ele>
        <time>2011-06-30T05:45:57Z</time>
      </trkpt>
      <trkpt lat="45.13172" lon="5.58869">
        <ele>1047</ele>
        <time>2011-06-30T05:45:58Z</time>
      </trkpt>
      <trkpt lat="45.13164" lon="5.5886">
        <ele>1046</ele>
        <time>2011-06-30T05:45:59Z</time>
      </trkpt>
      <trkpt lat="45.13159" lon="5.5885">
        <ele>1045</ele>
        <time>2011-06-30T05:46:00Z</time>
      </trkpt>
      <trkpt lat="45.13155" lon="5.5884">
        <ele>1045</ele>
        <time>2011-06-30T05:46:01Z</time>
      </trkpt>
      <trkpt lat="45.13149" lon="5.5883">
        <ele>1044</ele>
        <time>2011-06-30T05:46:02Z</time>
      </trkpt>
      <trkpt lat="45.13146" lon="5.58819">
        <ele>1044</ele>
        <time>2011-06-30T05:46:03Z</time>
      </trkpt>
      <trkpt lat="45.13145" lon="5.58808">
        <ele>1044</ele>
        <time>2011-06-30T05:46:04Z</time>
      </trkpt>
      <trkpt lat="45.13147" lon="5.58794">
        <ele>1044</ele>
        <time>2011-06-30T05:46:05Z</time>
      </trkpt>
      <trkpt lat="45.13152" lon="5.58785">
        <ele>1043</ele>
        <time>2011-06-30T05:46:06Z</time>
      </trkpt>
      <trkpt lat="45.13156" lon="5.58776">
        <ele>1043</ele>
        <time>2011-06-30T05:46:07Z</time>
      </trkpt>
      <trkpt lat="45.13157" lon="5.58767">
        <ele>1043</ele>
        <time>2011-06-30T05:46:08Z</time>
      </trkpt>
      <trkpt lat="45.13159" lon="5.58758">
        <ele>1043</ele>
        <time>2011-06-30T05:46:09Z</time>
      </trkpt>
      <trkpt lat="45.1316" lon="5.58749">
        <ele>1043</ele>
        <time>2011-06-30T05:46:10Z</time>
      </trkpt>
      <trkpt lat="45.13163" lon="5.58738">
        <ele>1043</ele>
        <time>2011-06-30T05:46:11Z</time>
      </trkpt>
      <trkpt lat="45.13165" lon="5.58728">
        <ele>1042</ele>
        <time>2011-06-30T05:46:12Z</time>
      </trkpt>
      <trkpt lat="45.13167" lon="5.58717">
        <ele>1040</ele>
        <time>2011-06-30T05:46:13Z</time>
      </trkpt>
      <trkpt lat="45.13168" lon="5.5871">
        <ele>1038</ele>
        <time>2011-06-30T05:46:14Z</time>
      </trkpt>
      <trkpt lat="45.13167" lon="5.58699">
        <ele>1037</ele>
        <time>2011-06-30T05:46:15Z</time>
      </trkpt>
      <trkpt lat="45.13164" lon="5.5869">
        <ele>1038</ele>
        <time>2011-06-30T05:46:16Z</time>
      </trkpt>
      <trkpt lat="45.1316" lon="5.5868">
        <ele>1037</ele>
        <time>2011-06-30T05:46:17Z</time>
      </trkpt>
      <trkpt lat="45.13161" lon="5.58674">
        <ele>1036</ele>
        <time>2011-06-30T05:46:18Z</time>
      </trkpt>
      <trkpt lat="45.1316" lon="5.58668">
        <ele>1035</ele>
        <time>2011-06-30T05:46:19Z</time>
      </trkpt>
      <trkpt lat="45.1316" lon="5.58661">
        <ele>1035</ele>
        <time>2011-06-30T05:46:20Z</time>
      </trkpt>
      <trkpt lat="45.13163" lon="5.58654">
        <ele>1035</ele>
        <time>2011-06-30T05:46:21Z</time>
      </trkpt>
      <trkpt lat="45.13167" lon="5.58649">
        <ele>1035</ele>
        <time>2011-06-30T05:46:22Z</time>
      </trkpt>
      <trkpt lat="45.13173" lon="5.58644">
        <ele>1034</ele>
        <time>2011-06-30T05:46:23Z</time>
      </trkpt>
      <trkpt lat="45.13181" lon="5.58644">
        <ele>1034</ele>
        <time>2011-06-30T05:46:24Z</time>
      </trkpt>
      <trkpt lat="45.13189" lon="5.58647">
        <ele>1034</ele>
        <time>2011-06-30T05:46:25Z</time>
      </trkpt>
      <trkpt lat="45.13196" lon="5.58646">
        <ele>1034</ele>
        <time>2011-06-30T05:46:26Z</time>
      </trkpt>
      <trkpt lat="45.13204" lon="5.58647">
        <ele>1034</ele>
        <time>2011-06-30T05:46:27Z</time>
      </trkpt>
      <trkpt lat="45.13212" lon="5.58648">
        <ele>1034</ele>
        <time>2011-06-30T05:46:28Z</time>
      </trkpt>
      <trkpt lat="45.13221" lon="5.58648">
        <ele>1034</ele>
        <time>2011-06-30T05:46:29Z</time>
      </trkpt>
      <trkpt lat="45.13228" lon="5.58648">
        <ele>1034</ele>
        <time>2011-06-30T05:46:30Z</time>
      </trkpt>
      <trkpt lat="45.13236" lon="5.58646">
        <ele>1034</ele>
        <time>2011-06-30T05:46:31Z</time>
      </trkpt>
      <trkpt lat="45.13243" lon="5.58644">
        <ele>1034</ele>
        <time>2011-06-30T05:46:32Z</time>
      </trkpt>
      <trkpt lat="45.13251" lon="5.58641">
        <ele>1034</ele>
        <time>2011-06-30T05:46:33Z</time>
      </trkpt>
      <trkpt lat="45.13259" lon="5.58638">
        <ele>1035</ele>
        <time>2011-06-30T05:46:34Z</time>
      </trkpt>
      <trkpt lat="45.13266" lon="5.58638">
        <ele>1035</ele>
        <time>2011-06-30T05:46:35Z</time>
      </trkpt>
      <trkpt lat="45.13273" lon="5.58636">
        <ele>1035</ele>
        <time>2011-06-30T05:46:36Z</time>
      </trkpt>
      <trkpt lat="45.1328" lon="5.58636">
        <ele>1036</ele>
        <time>2011-06-30T05:46:37Z</time>
      </trkpt>
      <trkpt lat="45.13287" lon="5.58635">
        <ele>1036</ele>
        <time>2011-06-30T05:46:38Z</time>
      </trkpt>
      <trkpt lat="45.13295" lon="5.58634">
        <ele>1036</ele>
        <time>2011-06-30T05:46:39Z</time>
      </trkpt>
      <trkpt lat="45.13302" lon="5.58633">
        <ele>1036</ele>
        <time>2011-06-30T05:46:40Z</time>
      </trkpt>
      <trkpt lat="45.13308" lon="5.58632">
        <ele>1035</ele>
        <time>2011-06-30T05:46:41Z</time>
      </trkpt>
      <trkpt lat="45.13317" lon="5.5863">
        <ele>1035</ele>
        <time>2011-06-30T05:46:42Z</time>
      </trkpt>
      <trkpt lat="45.13324" lon="5.58629">
        <ele>1035</ele>
        <time>2011-06-30T05:46:43Z</time>
      </trkpt>
      <trkpt lat="45.1333" lon="5.58629">
        <ele>1035</ele>
        <time>2011-06-30T05:46:44Z</time>
      </trkpt>
      <trkpt lat="45.13338" lon="5.58628">
        <ele>1035</ele>
        <time>2011-06-30T05:46:45Z</time>
      </trkpt>
      <trkpt lat="45.13345" lon="5.58629">
        <ele>1034</ele>
        <time>2011-06-30T05:46:46Z</time>
      </trkpt>
      <trkpt lat="45.13352" lon="5.58629">
        <ele>1033</ele>
        <time>2011-06-30T05:46:47Z</time>
      </trkpt>
      <trkpt lat="45.1336" lon="5.58629">
        <ele>1033</ele>
        <time>2011-06-30T05:46:48Z</time>
      </trkpt>
      <trkpt lat="45.13367" lon="5.5863">
        <ele>1032</ele>
        <time>2011-06-30T05:46:49Z</time>
      </trkpt>
      <trkpt lat="45.13373" lon="5.58632">
        <ele>1032</ele>
        <time>2011-06-30T05:46:50Z</time>
      </trkpt>
      <trkpt lat="45.1338" lon="5.58632">
        <ele>1031</ele>
        <time>2011-06-30T05:46:51Z</time>
      </trkpt>
      <trkpt lat="45.13387" lon="5.58634">
        <ele>1032</ele>
        <time>2011-06-30T05:46:52Z</time>
      </trkpt>
      <trkpt lat="45.13394" lon="5.58634">
        <ele>1031</ele>
        <time>2011-06-30T05:46:53Z</time>
      </trkpt>
      <trkpt lat="45.13402" lon="5.58635">
        <ele>1031</ele>
        <time>2011-06-30T05:46:54Z</time>
      </trkpt>
      <trkpt lat="45.13409" lon="5.58637">
        <ele>1032</ele>
        <time>2011-06-30T05:46:55Z</time>
      </trkpt>
      <trkpt lat="45.13417" lon="5.58638">
        <ele>1032</ele>
        <time>2011-06-30T05:46:56Z</time>
      </trkpt>
      <trkpt lat="45.13424" lon="5.58638">
        <ele>1031</ele>
        <time>2011-06-30T05:46:57Z</time>
      </trkpt>
      <trkpt lat="45.13431" lon="5.58638">
        <ele>1032</ele>
        <time>2011-06-30T05:46:58Z</time>
      </trkpt>
      <trkpt lat="45.13439" lon="5.58637">
        <ele>1032</ele>
        <time>2011-06-30T05:46:59Z</time>
      </trkpt>
      <trkpt lat="45.13448" lon="5.58637">
        <ele>1032</ele>
        <time>2011-06-30T05:47:00Z</time>
      </trkpt>
      <trkpt lat="45.13455" lon="5.58636">
        <ele>1032</ele>
        <time>2011-06-30T05:47:01Z</time>
      </trkpt>
      <trkpt lat="45.13464" lon="5.58636">
        <ele>1033</ele>
        <time>2011-06-30T05:47:02Z</time>
      </trkpt>
      <trkpt lat="45.13478" lon="5.58634">
        <ele>1032</ele>
        <time>2011-06-30T05:47:04Z</time>
      </trkpt>
      <trkpt lat="45.13485" lon="5.58633">
        <ele>1032</ele>
        <time>2011-06-30T05:47:05Z</time>
      </trkpt>
      <trkpt lat="45.13492" lon="5.58633">
        <ele>1031</ele>
        <time>2011-06-30T05:47:06Z</time>
      </trkpt>
      <trkpt lat="45.13499" lon="5.58634">
        <ele>1031</ele>
        <time>2011-06-30T05:47:07Z</time>
      </trkpt>
      <trkpt lat="45.13505" lon="5.58634">
        <ele>1031</ele>
        <time>2011-06-30T05:47:08Z</time>
      </trkpt>
      <trkpt lat="45.13511" lon="5.58633">
        <ele>1031</ele>
        <time>2011-06-30T05:47:09Z</time>
      </trkpt>
      <trkpt lat="45.13518" lon="5.58634">
        <ele>1031</ele>
        <time>2011-06-30T05:47:10Z</time>
      </trkpt>
      <trkpt lat="45.13524" lon="5.58635">
        <ele>1032</ele>
        <time>2011-06-30T05:47:11Z</time>
      </trkpt>
      <trkpt lat="45.1353" lon="5.58635">
        <ele>1031</ele>
        <time>2011-06-30T05:47:12Z</time>
      </trkpt>
      <trkpt lat="45.13536" lon="5.58635">
        <ele>1031</ele>
        <time>2011-06-30T05:47:13Z</time>
      </trkpt>
      <trkpt lat="45.13542" lon="5.58634">
        <ele>1030</ele>
        <time>2011-06-30T05:47:14Z</time>
      </trkpt>
      <trkpt lat="45.13548" lon="5.58634">
        <ele>1030</ele>
        <time>2011-06-30T05:47:15Z</time>
      </trkpt>
      <trkpt lat="45.13555" lon="5.58634">
        <ele>1030</ele>
        <time>2011-06-30T05:47:16Z</time>
      </trkpt>
      <trkpt lat="45.13561" lon="5.58634">
        <ele>1030</ele>
        <time>2011-06-30T05:47:17Z</time>
      </trkpt>
      <trkpt lat="45.13568" lon="5.58632">
        <ele>1030</ele>
        <time>2011-06-30T05:47:18Z</time>
      </trkpt>
      <trkpt lat="45.13575" lon="5.5863">
        <ele>1029</ele>
        <time>2011-06-30T05:47:19Z</time>
      </trkpt>
      <trkpt lat="45.13581" lon="5.58629">
        <ele>1029</ele>
        <time>2011-06-30T05:47:20Z</time>
      </trkpt>
      <trkpt lat="45.13587" lon="5.58628">
        <ele>1028</ele>
        <time>2011-06-30T05:47:21Z</time>
      </trkpt>
      <trkpt lat="45.13593" lon="5.58628">
        <ele>1029</ele>
        <time>2011-06-30T05:47:22Z</time>
      </trkpt>
      <trkpt lat="45.13599" lon="5.58627">
        <ele>1028</ele>
        <time>2011-06-30T05:47:23Z</time>
      </trkpt>
      <trkpt lat="45.13605" lon="5.58625">
        <ele>1028</ele>
        <time>2011-06-30T05:47:24Z</time>
      </trkpt>
      <trkpt lat="45.13611" lon="5.58623">
        <ele>1028</ele>
        <time>2011-06-30T05:47:25Z</time>
      </trkpt>
      <trkpt lat="45.13617" lon="5.58622">
        <ele>1028</ele>
        <time>2011-06-30T05:47:26Z</time>
      </trkpt>
      <trkpt lat="45.13622" lon="5.58622">
        <ele>1028</ele>
        <time>2011-06-30T05:47:27Z</time>
      </trkpt>
      <trkpt lat="45.13628" lon="5.58621">
        <ele>1028</ele>
        <time>2011-06-30T05:47:28Z</time>
      </trkpt>
      <trkpt lat="45.13633" lon="5.58621">
        <ele>1028</ele>
        <time>2011-06-30T05:47:29Z</time>
      </trkpt>
      <trkpt lat="45.13638" lon="5.5862">
        <ele>1027</ele>
        <time>2011-06-30T05:47:30Z</time>
      </trkpt>
      <trkpt lat="45.13644" lon="5.58619">
        <ele>1027</ele>
        <time>2011-06-30T05:47:31Z</time>
      </trkpt>
      <trkpt lat="45.13649" lon="5.58619">
        <ele>1027</ele>
        <time>2011-06-30T05:47:32Z</time>
      </trkpt>
      <trkpt lat="45.13654" lon="5.58618">
        <ele>1027</ele>
        <time>2011-06-30T05:47:33Z</time>
      </trkpt>
      <trkpt lat="45.13659" lon="5.58618">
        <ele>1027</ele>
        <time>2011-06-30T05:47:34Z</time>
      </trkpt>
      <trkpt lat="45.13667" lon="5.58618">
        <ele>1027</ele>
        <time>2011-06-30T05:47:36Z</time>
      </trkpt>
      <trkpt lat="45.13672" lon="5.5862">
        <ele>1027</ele>
        <time>2011-06-30T05:47:37Z</time>
      </trkpt>
      <trkpt lat="45.13681" lon="5.58623">
        <ele>1027</ele>
        <time>2011-06-30T05:47:39Z</time>
      </trkpt>
      <trkpt lat="45.13685" lon="5.58625">
        <ele>1028</ele>
        <time>2011-06-30T05:47:40Z</time>
      </trkpt>
      <trkpt lat="45.13693" lon="5.58627">
        <ele>1029</ele>
        <time>2011-06-30T05:47:42Z</time>
      </trkpt>
      <trkpt lat="45.13701" lon="5.58625">
        <ele>1029</ele>
        <time>2011-06-30T05:47:44Z</time>
      </trkpt>
      <trkpt lat="45.13706" lon="5.58622">
        <ele>1029</ele>
        <time>2011-06-30T05:47:46Z</time>
      </trkpt>
      <trkpt lat="45.13711" lon="5.58615">
        <ele>1029</ele>
        <time>2011-06-30T05:47:49Z</time>
      </trkpt>
      <trkpt lat="45.13715" lon="5.58608">
        <ele>1029</ele>
        <time>2011-06-30T05:47:51Z</time>
      </trkpt>
      <trkpt lat="45.13722" lon="5.58603">
        <ele>1029</ele>
        <time>2011-06-30T05:47:53Z</time>
      </trkpt>
      <trkpt lat="45.1373" lon="5.58606">
        <ele>1028</ele>
        <time>2011-06-30T05:47:55Z</time>
      </trkpt>
      <trkpt lat="45.13734" lon="5.5861">
        <ele>1028</ele>
        <time>2011-06-30T05:47:56Z</time>
      </trkpt>
      <trkpt lat="45.13739" lon="5.58612">
        <ele>1028</ele>
        <time>2011-06-30T05:47:57Z</time>
      </trkpt>
      <trkpt lat="45.13744" lon="5.58614">
        <ele>1028</ele>
        <time>2011-06-30T05:47:58Z</time>
      </trkpt>
      <trkpt lat="45.13748" lon="5.58615">
        <ele>1028</ele>
        <time>2011-06-30T05:47:59Z</time>
      </trkpt>
      <trkpt lat="45.13753" lon="5.58617">
        <ele>1028</ele>
        <time>2011-06-30T05:48:00Z</time>
      </trkpt>
      <trkpt lat="45.13762" lon="5.58618">
        <ele>1028</ele>
        <time>2011-06-30T05:48:02Z</time>
      </trkpt>
      <trkpt lat="45.13771" lon="5.58619">
        <ele>1029</ele>
        <time>2011-06-30T05:48:04Z</time>
      </trkpt>
      <trkpt lat="45.1378" lon="5.5862">
        <ele>1028</ele>
        <time>2011-06-30T05:48:06Z</time>
      </trkpt>
      <trkpt lat="45.13788" lon="5.5862">
        <ele>1028</ele>
        <time>2011-06-30T05:48:08Z</time>
      </trkpt>
      <trkpt lat="45.13797" lon="5.58621">
        <ele>1028</ele>
        <time>2011-06-30T05:48:10Z</time>
      </trkpt>
      <trkpt lat="45.13805" lon="5.58622">
        <ele>1028</ele>
        <time>2011-06-30T05:48:12Z</time>
      </trkpt>
      <trkpt lat="45.1381" lon="5.58624">
        <ele>1027</ele>
        <time>2011-06-30T05:48:13Z</time>
      </trkpt>
      <trkpt lat="45.13814" lon="5.58625">
        <ele>1027</ele>
        <time>2011-06-30T05:48:14Z</time>
      </trkpt>
      <trkpt lat="45.13822" lon="5.58627">
        <ele>1028</ele>
        <time>2011-06-30T05:48:16Z</time>
      </trkpt>
      <trkpt lat="45.13827" lon="5.58627">
        <ele>1028</ele>
        <time>2011-06-30T05:48:17Z</time>
      </trkpt>
      <trkpt lat="45.13836" lon="5.5863">
        <ele>1028</ele>
        <time>2011-06-30T05:48:19Z</time>
      </trkpt>
      <trkpt lat="45.13841" lon="5.5863">
        <ele>1028</ele>
        <time>2011-06-30T05:48:20Z</time>
      </trkpt>
      <trkpt lat="45.1385" lon="5.58634">
        <ele>1029</ele>
        <time>2011-06-30T05:48:22Z</time>
      </trkpt>
      <trkpt lat="45.13855" lon="5.58635">
        <ele>1029</ele>
        <time>2011-06-30T05:48:23Z</time>
      </trkpt>
      <trkpt lat="45.1386" lon="5.58638">
        <ele>1029</ele>
        <time>2011-06-30T05:48:24Z</time>
      </trkpt>
      <trkpt lat="45.13865" lon="5.5864">
        <ele>1028</ele>
        <time>2011-06-30T05:48:25Z</time>
      </trkpt>
      <trkpt lat="45.1387" lon="5.58642">
        <ele>1028</ele>
        <time>2011-06-30T05:48:26Z</time>
      </trkpt>
      <trkpt lat="45.13875" lon="5.58644">
        <ele>1028</ele>
        <time>2011-06-30T05:48:27Z</time>
      </trkpt>
      <trkpt lat="45.13881" lon="5.58647">
        <ele>1028</ele>
        <time>2011-06-30T05:48:28Z</time>
      </trkpt>
      <trkpt lat="45.13886" lon="5.58649">
        <ele>1028</ele>
        <time>2011-06-30T05:48:29Z</time>
      </trkpt>
      <trkpt lat="45.13891" lon="5.58653">
        <ele>1028</ele>
        <time>2011-06-30T05:48:30Z</time>
      </trkpt>
      <trkpt lat="45.13896" lon="5.58655">
        <ele>1028</ele>
        <time>2011-06-30T05:48:31Z</time>
      </trkpt>
      <trkpt lat="45.13902" lon="5.58658">
        <ele>1028</ele>
        <time>2011-06-30T05:48:32Z</time>
      </trkpt>
      <trkpt lat="45.13908" lon="5.58661">
        <ele>1028</ele>
        <time>2011-06-30T05:48:33Z</time>
      </trkpt>
      <trkpt lat="45.13913" lon="5.58664">
        <ele>1028</ele>
        <time>2011-06-30T05:48:34Z</time>
      </trkpt>
      <trkpt lat="45.13919" lon="5.58666">
        <ele>1028</ele>
        <time>2011-06-30T05:48:35Z</time>
      </trkpt>
      <trkpt lat="45.13925" lon="5.58669">
        <ele>1028</ele>
        <time>2011-06-30T05:48:36Z</time>
      </trkpt>
      <trkpt lat="45.1393" lon="5.58673">
        <ele>1028</ele>
        <time>2011-06-30T05:48:37Z</time>
      </trkpt>
      <trkpt lat="45.13935" lon="5.58677">
        <ele>1028</ele>
        <time>2011-06-30T05:48:38Z</time>
      </trkpt>
      <trkpt lat="45.1394" lon="5.5868">
        <ele>1028</ele>
        <time>2011-06-30T05:48:39Z</time>
      </trkpt>
      <trkpt lat="45.13947" lon="5.58683">
        <ele>1028</ele>
        <time>2011-06-30T05:48:40Z</time>
      </trkpt>
      <trkpt lat="45.13953" lon="5.58686">
        <ele>1028</ele>
        <time>2011-06-30T05:48:41Z</time>
      </trkpt>
      <trkpt lat="45.13958" lon="5.5869">
        <ele>1028</ele>
        <time>2011-06-30T05:48:42Z</time>
      </trkpt>
      <trkpt lat="45.13964" lon="5.58694">
        <ele>1028</ele>
        <time>2011-06-30T05:48:43Z</time>
      </trkpt>
      <trkpt lat="45.13968" lon="5.58698">
        <ele>1027</ele>
        <time>2011-06-30T05:48:44Z</time>
      </trkpt>
      <trkpt lat="45.13974" lon="5.58701">
        <ele>1027</ele>
        <time>2011-06-30T05:48:45Z</time>
      </trkpt>
      <trkpt lat="45.13979" lon="5.58704">
        <ele>1027</ele>
        <time>2011-06-30T05:48:46Z</time>
      </trkpt>
      <trkpt lat="45.13984" lon="5.58707">
        <ele>1026</ele>
        <time>2011-06-30T05:48:47Z</time>
      </trkpt>
      <trkpt lat="45.13989" lon="5.5871">
        <ele>1026</ele>
        <time>2011-06-30T05:48:48Z</time>
      </trkpt>
      <trkpt lat="45.13994" lon="5.58714">
        <ele>1025</ele>
        <time>2011-06-30T05:48:49Z</time>
      </trkpt>
      <trkpt lat="45.13999" lon="5.58718">
        <ele>1025</ele>
        <time>2011-06-30T05:48:50Z</time>
      </trkpt>
      <trkpt lat="45.14004" lon="5.58721">
        <ele>1025</ele>
        <time>2011-06-30T05:48:51Z</time>
      </trkpt>
      <trkpt lat="45.14009" lon="5.58723">
        <ele>1025</ele>
        <time>2011-06-30T05:48:52Z</time>
      </trkpt>
      <trkpt lat="45.14013" lon="5.58725">
        <ele>1025</ele>
        <time>2011-06-30T05:48:53Z</time>
      </trkpt>
      <trkpt lat="45.14019" lon="5.58728">
        <ele>1025</ele>
        <time>2011-06-30T05:48:54Z</time>
      </trkpt>
      <trkpt lat="45.14024" lon="5.58731">
        <ele>1025</ele>
        <time>2011-06-30T05:48:55Z</time>
      </trkpt>
      <trkpt lat="45.14032" lon="5.58738">
        <ele>1025</ele>
        <time>2011-06-30T05:48:57Z</time>
      </trkpt>
      <trkpt lat="45.14036" lon="5.5874">
        <ele>1025</ele>
        <time>2011-06-30T05:48:58Z</time>
      </trkpt>
      <trkpt lat="45.14041" lon="5.58743">
        <ele>1025</ele>
        <time>2011-06-30T05:48:59Z</time>
      </trkpt>
      <trkpt lat="45.14046" lon="5.58746">
        <ele>1026</ele>
        <time>2011-06-30T05:49:00Z</time>
      </trkpt>
      <trkpt lat="45.14053" lon="5.58752">
        <ele>1026</ele>
        <time>2011-06-30T05:49:02Z</time>
      </trkpt>
      <trkpt lat="45.14058" lon="5.58757">
        <ele>1026</ele>
        <time>2011-06-30T05:49:04Z</time>
      </trkpt>
      <trkpt lat="45.14064" lon="5.58763">
        <ele>1027</ele>
        <time>2011-06-30T05:49:06Z</time>
      </trkpt>
      <trkpt lat="45.1407" lon="5.58768">
        <ele>1027</ele>
        <time>2011-06-30T05:49:08Z</time>
      </trkpt>
      <trkpt lat="45.14076" lon="5.58773">
        <ele>1027</ele>
        <time>2011-06-30T05:49:10Z</time>
      </trkpt>
      <trkpt lat="45.14082" lon="5.58777">
        <ele>1028</ele>
        <time>2011-06-30T05:49:12Z</time>
      </trkpt>
      <trkpt lat="45.14088" lon="5.58782">
        <ele>1027</ele>
        <time>2011-06-30T05:49:14Z</time>
      </trkpt>
      <trkpt lat="45.14094" lon="5.58787">
        <ele>1027</ele>
        <time>2011-06-30T05:49:16Z</time>
      </trkpt>
      <trkpt lat="45.141" lon="5.58792">
        <ele>1028</ele>
        <time>2011-06-30T05:49:18Z</time>
      </trkpt>
      <trkpt lat="45.14106" lon="5.58797">
        <ele>1028</ele>
        <time>2011-06-30T05:49:20Z</time>
      </trkpt>
      <trkpt lat="45.14112" lon="5.58802">
        <ele>1028</ele>
        <time>2011-06-30T05:49:22Z</time>
      </trkpt>
      <trkpt lat="45.14118" lon="5.58808">
        <ele>1028</ele>
        <time>2011-06-30T05:49:24Z</time>
      </trkpt>
      <trkpt lat="45.14123" lon="5.58812">
        <ele>1028</ele>
        <time>2011-06-30T05:49:26Z</time>
      </trkpt>
      <trkpt lat="45.14128" lon="5.58817">
        <ele>1026</ele>
        <time>2011-06-30T05:49:28Z</time>
      </trkpt>
      <trkpt lat="45.14135" lon="5.5882">
        <ele>1025</ele>
        <time>2011-06-30T05:49:30Z</time>
      </trkpt>
      <trkpt lat="45.1414" lon="5.58824">
        <ele>1023</ele>
        <time>2011-06-30T05:49:32Z</time>
      </trkpt>
      <trkpt lat="45.14145" lon="5.58828">
        <ele>1023</ele>
        <time>2011-06-30T05:49:34Z</time>
      </trkpt>
      <trkpt lat="45.1415" lon="5.58833">
        <ele>1023</ele>
        <time>2011-06-30T05:49:36Z</time>
      </trkpt>
      <trkpt lat="45.14158" lon="5.58838">
        <ele>1023</ele>
        <time>2011-06-30T05:49:38Z</time>
      </trkpt>
      <trkpt lat="45.14164" lon="5.58841">
        <ele>1024</ele>
        <time>2011-06-30T05:49:40Z</time>
      </trkpt>
      <trkpt lat="45.1417" lon="5.58846">
        <ele>1025</ele>
        <time>2011-06-30T05:49:42Z</time>
      </trkpt>
      <trkpt lat="45.14176" lon="5.58848">
        <ele>1026</ele>
        <time>2011-06-30T05:49:44Z</time>
      </trkpt>
      <trkpt lat="45.14182" lon="5.5885">
        <ele>1025</ele>
        <time>2011-06-30T05:49:46Z</time>
      </trkpt>
      <trkpt lat="45.14188" lon="5.58853">
        <ele>1026</ele>
        <time>2011-06-30T05:49:48Z</time>
      </trkpt>
      <trkpt lat="45.14194" lon="5.58854">
        <ele>1027</ele>
        <time>2011-06-30T05:49:50Z</time>
      </trkpt>
      <trkpt lat="45.14199" lon="5.58855">
        <ele>1027</ele>
        <time>2011-06-30T05:49:52Z</time>
      </trkpt>
      <trkpt lat="45.14204" lon="5.58856">
        <ele>1027</ele>
        <time>2011-06-30T05:49:54Z</time>
      </trkpt>
      <trkpt lat="45.1421" lon="5.58861">
        <ele>1027</ele>
        <time>2011-06-30T05:49:56Z</time>
      </trkpt>
      <trkpt lat="45.14215" lon="5.58865">
        <ele>1027</ele>
        <time>2011-06-30T05:49:58Z</time>
      </trkpt>
      <trkpt lat="45.1422" lon="5.58869">
        <ele>1026</ele>
        <time>2011-06-30T05:50:00Z</time>
      </trkpt>
      <trkpt lat="45.14225" lon="5.58872">
        <ele>1026</ele>
        <time>2011-06-30T05:50:02Z</time>
      </trkpt>
      <trkpt lat="45.1423" lon="5.58878">
        <ele>1027</ele>
        <time>2011-06-30T05:50:05Z</time>
      </trkpt>
      <trkpt lat="45.14233" lon="5.58883">
        <ele>1027</ele>
        <time>2011-06-30T05:50:07Z</time>
      </trkpt>
      <trkpt lat="45.14237" lon="5.58888">
        <ele>1028</ele>
        <time>2011-06-30T05:50:09Z</time>
      </trkpt>
      <trkpt lat="45.1424" lon="5.58894">
        <ele>1029</ele>
        <time>2011-06-30T05:50:11Z</time>
      </trkpt>
      <trkpt lat="45.14244" lon="5.589">
        <ele>1028</ele>
        <time>2011-06-30T05:50:14Z</time>
      </trkpt>
      <trkpt lat="45.14248" lon="5.58907">
        <ele>1028</ele>
        <time>2011-06-30T05:50:17Z</time>
      </trkpt>
      <trkpt lat="45.14254" lon="5.58914">
        <ele>1028</ele>
        <time>2011-06-30T05:50:20Z</time>
      </trkpt>
      <trkpt lat="45.14258" lon="5.58918">
        <ele>1029</ele>
        <time>2011-06-30T05:50:22Z</time>
      </trkpt>
      <trkpt lat="45.14262" lon="5.58924">
        <ele>1030</ele>
        <time>2011-06-30T05:50:24Z</time>
      </trkpt>
      <trkpt lat="45.14266" lon="5.58931">
        <ele>1030</ele>
        <time>2011-06-30T05:50:27Z</time>
      </trkpt>
      <trkpt lat="45.14269" lon="5.58935">
        <ele>1031</ele>
        <time>2011-06-30T05:50:29Z</time>
      </trkpt>
      <trkpt lat="45.14286" lon="5.5895">
        <ele>1033</ele>
        <time>2011-06-30T05:51:50Z</time>
      </trkpt>
      <trkpt lat="45.14296" lon="5.58955">
        <ele>1032</ele>
        <time>2011-06-30T05:51:52Z</time>
      </trkpt>
      <trkpt lat="45.14308" lon="5.58962">
        <ele>1033</ele>
        <time>2011-06-30T05:51:55Z</time>
      </trkpt>
      <trkpt lat="45.14314" lon="5.58966">
        <ele>1034</ele>
        <time>2011-06-30T05:51:58Z</time>
      </trkpt>
      <trkpt lat="45.14319" lon="5.58976">
        <ele>1035</ele>
        <time>2011-06-30T05:52:01Z</time>
      </trkpt>
      <trkpt lat="45.1433" lon="5.58986">
        <ele>1039</ele>
        <time>2011-06-30T05:52:07Z</time>
      </trkpt>
      <trkpt lat="45.14334" lon="5.58984">
        <ele>1041</ele>
        <time>2011-06-30T05:52:09Z</time>
      </trkpt>
      <trkpt lat="45.1434" lon="5.58987">
        <ele>1044</ele>
        <time>2011-06-30T05:52:11Z</time>
      </trkpt>
      <trkpt lat="45.14344" lon="5.58989">
        <ele>1046</ele>
        <time>2011-06-30T05:52:13Z</time>
      </trkpt>
      <trkpt lat="45.1435" lon="5.58991">
        <ele>1047</ele>
        <time>2011-06-30T05:52:15Z</time>
      </trkpt>
      <trkpt lat="45.14356" lon="5.58994">
        <ele>1047</ele>
        <time>2011-06-30T05:52:18Z</time>
      </trkpt>
      <trkpt lat="45.14361" lon="5.58996">
        <ele>1047</ele>
        <time>2011-06-30T05:52:21Z</time>
      </trkpt>
      <trkpt lat="45.14365" lon="5.58999">
        <ele>1048</ele>
        <time>2011-06-30T05:52:23Z</time>
      </trkpt>
      <trkpt lat="45.14372" lon="5.59001">
        <ele>1048</ele>
        <time>2011-06-30T05:52:26Z</time>
      </trkpt>
      <trkpt lat="45.14376" lon="5.59003">
        <ele>1049</ele>
        <time>2011-06-30T05:52:28Z</time>
      </trkpt>
      <trkpt lat="45.14382" lon="5.59005">
        <ele>1049</ele>
        <time>2011-06-30T05:52:31Z</time>
      </trkpt>
      <trkpt lat="45.14389" lon="5.59006">
        <ele>1048</ele>
        <time>2011-06-30T05:52:34Z</time>
      </trkpt>
      <trkpt lat="45.14395" lon="5.59009">
        <ele>1049</ele>
        <time>2011-06-30T05:52:37Z</time>
      </trkpt>
      <trkpt lat="45.14401" lon="5.5901">
        <ele>1050</ele>
        <time>2011-06-30T05:52:40Z</time>
      </trkpt>
      <trkpt lat="45.14405" lon="5.59012">
        <ele>1051</ele>
        <time>2011-06-30T05:52:42Z</time>
      </trkpt>
      <trkpt lat="45.14411" lon="5.59012">
        <ele>1050</ele>
        <time>2011-06-30T05:52:45Z</time>
      </trkpt>
      <trkpt lat="45.14417" lon="5.59013">
        <ele>1052</ele>
        <time>2011-06-30T05:52:48Z</time>
      </trkpt>
      <trkpt lat="45.14422" lon="5.59015">
        <ele>1053</ele>
        <time>2011-06-30T05:52:50Z</time>
      </trkpt>
      <trkpt lat="45.14428" lon="5.59016">
        <ele>1055</ele>
        <time>2011-06-30T05:52:53Z</time>
      </trkpt>
      <trkpt lat="45.14434" lon="5.5902">
        <ele>1056</ele>
        <time>2011-06-30T05:52:56Z</time>
      </trkpt>
      <trkpt lat="45.14439" lon="5.59021">
        <ele>1056</ele>
        <time>2011-06-30T05:52:59Z</time>
      </trkpt>
      <trkpt lat="45.14445" lon="5.59023">
        <ele>1057</ele>
        <time>2011-06-30T05:53:02Z</time>
      </trkpt>
      <trkpt lat="45.14452" lon="5.59026">
        <ele>1058</ele>
        <time>2011-06-30T05:53:05Z</time>
      </trkpt>
      <trkpt lat="45.14458" lon="5.59029">
        <ele>1058</ele>
        <time>2011-06-30T05:53:08Z</time>
      </trkpt>
      <trkpt lat="45.14463" lon="5.59034">
        <ele>1058</ele>
        <time>2011-06-30T05:53:11Z</time>
      </trkpt>
      <trkpt lat="45.14469" lon="5.59038">
        <ele>1058</ele>
        <time>2011-06-30T05:53:14Z</time>
      </trkpt>
      <trkpt lat="45.14473" lon="5.59041">
        <ele>1058</ele>
        <time>2011-06-30T05:53:16Z</time>
      </trkpt>
      <trkpt lat="45.14479" lon="5.59045">
        <ele>1058</ele>
        <time>2011-06-30T05:53:19Z</time>
      </trkpt>
      <trkpt lat="45.14484" lon="5.5905">
        <ele>1058</ele>
        <time>2011-06-30T05:53:22Z</time>
      </trkpt>
      <trkpt lat="45.1449" lon="5.59056">
        <ele>1058</ele>
        <time>2011-06-30T05:53:25Z</time>
      </trkpt>
      <trkpt lat="45.14494" lon="5.59059">
        <ele>1059</ele>
        <time>2011-06-30T05:53:27Z</time>
      </trkpt>
      <trkpt lat="45.14499" lon="5.59065">
        <ele>1060</ele>
        <time>2011-06-30T05:53:30Z</time>
      </trkpt>
      <trkpt lat="45.14504" lon="5.59071">
        <ele>1061</ele>
        <time>2011-06-30T05:53:33Z</time>
      </trkpt>
      <trkpt lat="45.14508" lon="5.59077">
        <ele>1061</ele>
        <time>2011-06-30T05:53:36Z</time>
      </trkpt>
      <trkpt lat="45.14511" lon="5.59081">
        <ele>1061</ele>
        <time>2011-06-30T05:53:38Z</time>
      </trkpt>
      <trkpt lat="45.14516" lon="5.59087">
        <ele>1060</ele>
        <time>2011-06-30T05:53:41Z</time>
      </trkpt>
      <trkpt lat="45.1452" lon="5.59093">
        <ele>1060</ele>
        <time>2011-06-30T05:53:44Z</time>
      </trkpt>
      <trkpt lat="45.14525" lon="5.59098">
        <ele>1060</ele>
        <time>2011-06-30T05:53:47Z</time>
      </trkpt>
      <trkpt lat="45.14529" lon="5.59104">
        <ele>1059</ele>
        <time>2011-06-30T05:53:50Z</time>
      </trkpt>
      <trkpt lat="45.14534" lon="5.59109">
        <ele>1061</ele>
        <time>2011-06-30T05:53:53Z</time>
      </trkpt>
      <trkpt lat="45.14539" lon="5.59113">
        <ele>1062</ele>
        <time>2011-06-30T05:53:56Z</time>
      </trkpt>
      <trkpt lat="45.14544" lon="5.59116">
        <ele>1065</ele>
        <time>2011-06-30T05:53:59Z</time>
      </trkpt>
      <trkpt lat="45.1455" lon="5.59118">
        <ele>1066</ele>
        <time>2011-06-30T05:54:02Z</time>
      </trkpt>
      <trkpt lat="45.14555" lon="5.5912">
        <ele>1068</ele>
        <time>2011-06-30T05:54:05Z</time>
      </trkpt>
      <trkpt lat="45.14561" lon="5.5912">
        <ele>1069</ele>
        <time>2011-06-30T05:54:08Z</time>
      </trkpt>
      <trkpt lat="45.14566" lon="5.59121">
        <ele>1070</ele>
        <time>2011-06-30T05:54:11Z</time>
      </trkpt>
      <trkpt lat="45.14571" lon="5.5912">
        <ele>1070</ele>
        <time>2011-06-30T05:54:13Z</time>
      </trkpt>
      <trkpt lat="45.14577" lon="5.5912">
        <ele>1070</ele>
        <time>2011-06-30T05:54:15Z</time>
      </trkpt>
      <trkpt lat="45.14582" lon="5.59121">
        <ele>1070</ele>
        <time>2011-06-30T05:54:17Z</time>
      </trkpt>
      <trkpt lat="45.14588" lon="5.59124">
        <ele>1071</ele>
        <time>2011-06-30T05:54:19Z</time>
      </trkpt>
      <trkpt lat="45.14594" lon="5.59126">
        <ele>1072</ele>
        <time>2011-06-30T05:54:21Z</time>
      </trkpt>
      <trkpt lat="45.14599" lon="5.59131">
        <ele>1072</ele>
        <time>2011-06-30T05:54:23Z</time>
      </trkpt>
      <trkpt lat="45.14603" lon="5.59136">
        <ele>1072</ele>
        <time>2011-06-30T05:54:25Z</time>
      </trkpt>
      <trkpt lat="45.14608" lon="5.59141">
        <ele>1072</ele>
        <time>2011-06-30T05:54:27Z</time>
      </trkpt>
      <trkpt lat="45.14612" lon="5.59148">
        <ele>1072</ele>
        <time>2011-06-30T05:54:29Z</time>
      </trkpt>
      <trkpt lat="45.14617" lon="5.59154">
        <ele>1073</ele>
        <time>2011-06-30T05:54:31Z</time>
      </trkpt>
      <trkpt lat="45.14622" lon="5.59159">
        <ele>1073</ele>
        <time>2011-06-30T05:54:33Z</time>
      </trkpt>
      <trkpt lat="45.14626" lon="5.59164">
        <ele>1073</ele>
        <time>2011-06-30T05:54:35Z</time>
      </trkpt>
      <trkpt lat="45.14631" lon="5.59168">
        <ele>1073</ele>
        <time>2011-06-30T05:54:37Z</time>
      </trkpt>
      <trkpt lat="45.14636" lon="5.59172">
        <ele>1074</ele>
        <time>2011-06-30T05:54:39Z</time>
      </trkpt>
      <trkpt lat="45.1464" lon="5.59176">
        <ele>1074</ele>
        <time>2011-06-30T05:54:41Z</time>
      </trkpt>
      <trkpt lat="45.14645" lon="5.59179">
        <ele>1074</ele>
        <time>2011-06-30T05:54:43Z</time>
      </trkpt>
      <trkpt lat="45.14649" lon="5.59182">
        <ele>1074</ele>
        <time>2011-06-30T05:54:45Z</time>
      </trkpt>
      <trkpt lat="45.14654" lon="5.59185">
        <ele>1077</ele>
        <time>2011-06-30T05:54:47Z</time>
      </trkpt>
      <trkpt lat="45.14659" lon="5.59188">
        <ele>1078</ele>
        <time>2011-06-30T05:54:49Z</time>
      </trkpt>
      <trkpt lat="45.14663" lon="5.5919">
        <ele>1078</ele>
        <time>2011-06-30T05:54:51Z</time>
      </trkpt>
      <trkpt lat="45.14668" lon="5.59192">
        <ele>1078</ele>
        <time>2011-06-30T05:54:53Z</time>
      </trkpt>
      <trkpt lat="45.14672" lon="5.59195">
        <ele>1078</ele>
        <time>2011-06-30T05:54:55Z</time>
      </trkpt>
      <trkpt lat="45.14678" lon="5.59198">
        <ele>1078</ele>
        <time>2011-06-30T05:54:57Z</time>
      </trkpt>
      <trkpt lat="45.14686" lon="5.59205">
        <ele>1078</ele>
        <time>2011-06-30T05:55:00Z</time>
      </trkpt>
      <trkpt lat="45.14692" lon="5.5921">
        <ele>1078</ele>
        <time>2011-06-30T05:55:02Z</time>
      </trkpt>
      <trkpt lat="45.14696" lon="5.59215">
        <ele>1078</ele>
        <time>2011-06-30T05:55:04Z</time>
      </trkpt>
      <trkpt lat="45.14702" lon="5.59221">
        <ele>1078</ele>
        <time>2011-06-30T05:55:07Z</time>
      </trkpt>
      <trkpt lat="45.14706" lon="5.59224">
        <ele>1078</ele>
        <time>2011-06-30T05:55:09Z</time>
      </trkpt>
      <trkpt lat="45.14711" lon="5.59228">
        <ele>1079</ele>
        <time>2011-06-30T05:55:11Z</time>
      </trkpt>
      <trkpt lat="45.14716" lon="5.5923">
        <ele>1079</ele>
        <time>2011-06-30T05:55:13Z</time>
      </trkpt>
      <trkpt lat="45.1472" lon="5.59234">
        <ele>1080</ele>
        <time>2011-06-30T05:55:15Z</time>
      </trkpt>
      <trkpt lat="45.14725" lon="5.59237">
        <ele>1081</ele>
        <time>2011-06-30T05:55:17Z</time>
      </trkpt>
      <trkpt lat="45.14731" lon="5.59241">
        <ele>1082</ele>
        <time>2011-06-30T05:55:19Z</time>
      </trkpt>
      <trkpt lat="45.14734" lon="5.59245">
        <ele>1082</ele>
        <time>2011-06-30T05:55:21Z</time>
      </trkpt>
      <trkpt lat="45.14739" lon="5.5925">
        <ele>1083</ele>
        <time>2011-06-30T05:55:23Z</time>
      </trkpt>
      <trkpt lat="45.14744" lon="5.59254">
        <ele>1084</ele>
        <time>2011-06-30T05:55:25Z</time>
      </trkpt>
      <trkpt lat="45.14748" lon="5.59259">
        <ele>1084</ele>
        <time>2011-06-30T05:55:27Z</time>
      </trkpt>
      <trkpt lat="45.14754" lon="5.59263">
        <ele>1084</ele>
        <time>2011-06-30T05:55:29Z</time>
      </trkpt>
      <trkpt lat="45.1476" lon="5.59268">
        <ele>1084</ele>
        <time>2011-06-30T05:55:31Z</time>
      </trkpt>
      <trkpt lat="45.14764" lon="5.59273">
        <ele>1085</ele>
        <time>2011-06-30T05:55:33Z</time>
      </trkpt>
      <trkpt lat="45.1477" lon="5.59276">
        <ele>1086</ele>
        <time>2011-06-30T05:55:35Z</time>
      </trkpt>
      <trkpt lat="45.14775" lon="5.59281">
        <ele>1088</ele>
        <time>2011-06-30T05:55:37Z</time>
      </trkpt>
      <trkpt lat="45.14779" lon="5.59286">
        <ele>1089</ele>
        <time>2011-06-30T05:55:39Z</time>
      </trkpt>
      <trkpt lat="45.14783" lon="5.5929">
        <ele>1089</ele>
        <time>2011-06-30T05:55:41Z</time>
      </trkpt>
      <trkpt lat="45.14788" lon="5.59295">
        <ele>1089</ele>
        <time>2011-06-30T05:55:43Z</time>
      </trkpt>
      <trkpt lat="45.14792" lon="5.59298">
        <ele>1090</ele>
        <time>2011-06-30T05:55:45Z</time>
      </trkpt>
      <trkpt lat="45.14797" lon="5.59302">
        <ele>1090</ele>
        <time>2011-06-30T05:55:47Z</time>
      </trkpt>
      <trkpt lat="45.14802" lon="5.59307">
        <ele>1091</ele>
        <time>2011-06-30T05:55:49Z</time>
      </trkpt>
      <trkpt lat="45.14806" lon="5.59312">
        <ele>1091</ele>
        <time>2011-06-30T05:55:51Z</time>
      </trkpt>
      <trkpt lat="45.14811" lon="5.59317">
        <ele>1091</ele>
        <time>2011-06-30T05:55:53Z</time>
      </trkpt>
      <trkpt lat="45.14816" lon="5.59322">
        <ele>1091</ele>
        <time>2011-06-30T05:55:55Z</time>
      </trkpt>
      <trkpt lat="45.14821" lon="5.59325">
        <ele>1091</ele>
        <time>2011-06-30T05:55:57Z</time>
      </trkpt>
      <trkpt lat="45.14826" lon="5.59328">
        <ele>1091</ele>
        <time>2011-06-30T05:55:59Z</time>
      </trkpt>
      <trkpt lat="45.1483" lon="5.59331">
        <ele>1090</ele>
        <time>2011-06-30T05:56:01Z</time>
      </trkpt>
      <trkpt lat="45.14836" lon="5.59337">
        <ele>1091</ele>
        <time>2011-06-30T05:56:04Z</time>
      </trkpt>
      <trkpt lat="45.1484" lon="5.59344">
        <ele>1090</ele>
        <time>2011-06-30T05:56:06Z</time>
      </trkpt>
      <trkpt lat="45.14844" lon="5.59348">
        <ele>1090</ele>
        <time>2011-06-30T05:56:08Z</time>
      </trkpt>
      <trkpt lat="45.14846" lon="5.59356">
        <ele>1090</ele>
        <time>2011-06-30T05:56:10Z</time>
      </trkpt>
      <trkpt lat="45.1485" lon="5.59364">
        <ele>1090</ele>
        <time>2011-06-30T05:56:13Z</time>
      </trkpt>
      <trkpt lat="45.14855" lon="5.59369">
        <ele>1089</ele>
        <time>2011-06-30T05:56:15Z</time>
      </trkpt>
      <trkpt lat="45.14859" lon="5.59374">
        <ele>1092</ele>
        <time>2011-06-30T05:56:17Z</time>
      </trkpt>
      <trkpt lat="45.14864" lon="5.59382">
        <ele>1092</ele>
        <time>2011-06-30T05:56:19Z</time>
      </trkpt>
      <trkpt lat="45.14869" lon="5.59388">
        <ele>1092</ele>
        <time>2011-06-30T05:56:21Z</time>
      </trkpt>
      <trkpt lat="45.14872" lon="5.59394">
        <ele>1093</ele>
        <time>2011-06-30T05:56:23Z</time>
      </trkpt>
      <trkpt lat="45.14875" lon="5.59399">
        <ele>1094</ele>
        <time>2011-06-30T05:56:25Z</time>
      </trkpt>
      <trkpt lat="45.1488" lon="5.59407">
        <ele>1095</ele>
        <time>2011-06-30T05:56:27Z</time>
      </trkpt>
      <trkpt lat="45.14884" lon="5.59412">
        <ele>1095</ele>
        <time>2011-06-30T05:56:29Z</time>
      </trkpt>
      <trkpt lat="45.14887" lon="5.59418">
        <ele>1095</ele>
        <time>2011-06-30T05:56:31Z</time>
      </trkpt>
      <trkpt lat="45.1489" lon="5.59422">
        <ele>1095</ele>
        <time>2011-06-30T05:56:33Z</time>
      </trkpt>
      <trkpt lat="45.14894" lon="5.59428">
        <ele>1095</ele>
        <time>2011-06-30T05:56:35Z</time>
      </trkpt>
      <trkpt lat="45.14898" lon="5.59432">
        <ele>1096</ele>
        <time>2011-06-30T05:56:37Z</time>
      </trkpt>
      <trkpt lat="45.14903" lon="5.59437">
        <ele>1098</ele>
        <time>2011-06-30T05:56:39Z</time>
      </trkpt>
      <trkpt lat="45.14909" lon="5.59442">
        <ele>1098</ele>
        <time>2011-06-30T05:56:41Z</time>
      </trkpt>
      <trkpt lat="45.14914" lon="5.59447">
        <ele>1098</ele>
        <time>2011-06-30T05:56:43Z</time>
      </trkpt>
      <trkpt lat="45.1492" lon="5.59451">
        <ele>1098</ele>
        <time>2011-06-30T05:56:45Z</time>
      </trkpt>
      <trkpt lat="45.14925" lon="5.59455">
        <ele>1099</ele>
        <time>2011-06-30T05:56:47Z</time>
      </trkpt>
      <trkpt lat="45.1493" lon="5.59459">
        <ele>1100</ele>
        <time>2011-06-30T05:56:49Z</time>
      </trkpt>
      <trkpt lat="45.14937" lon="5.59463">
        <ele>1099</ele>
        <time>2011-06-30T05:56:51Z</time>
      </trkpt>
      <trkpt lat="45.14945" lon="5.59467">
        <ele>1099</ele>
        <time>2011-06-30T05:56:53Z</time>
      </trkpt>
      <trkpt lat="45.14951" lon="5.59471">
        <ele>1099</ele>
        <time>2011-06-30T05:56:55Z</time>
      </trkpt>
      <trkpt lat="45.14957" lon="5.59473">
        <ele>1098</ele>
        <time>2011-06-30T05:56:57Z</time>
      </trkpt>
      <trkpt lat="45.14962" lon="5.59477">
        <ele>1096</ele>
        <time>2011-06-30T05:56:59Z</time>
      </trkpt>
      <trkpt lat="45.1497" lon="5.59478">
        <ele>1097</ele>
        <time>2011-06-30T05:57:01Z</time>
      </trkpt>
      <trkpt lat="45.1498" lon="5.59479">
        <ele>1098</ele>
        <time>2011-06-30T05:57:04Z</time>
      </trkpt>
      <trkpt lat="45.14986" lon="5.59478">
        <ele>1099</ele>
        <time>2011-06-30T05:57:06Z</time>
      </trkpt>
      <trkpt lat="45.14991" lon="5.59476">
        <ele>1099</ele>
        <time>2011-06-30T05:57:08Z</time>
      </trkpt>
      <trkpt lat="45.14997" lon="5.59474">
        <ele>1100</ele>
        <time>2011-06-30T05:57:10Z</time>
      </trkpt>
      <trkpt lat="45.15002" lon="5.59473">
        <ele>1101</ele>
        <time>2011-06-30T05:57:12Z</time>
      </trkpt>
      <trkpt lat="45.15007" lon="5.59472">
        <ele>1102</ele>
        <time>2011-06-30T05:57:14Z</time>
      </trkpt>
      <trkpt lat="45.15012" lon="5.59471">
        <ele>1102</ele>
        <time>2011-06-30T05:57:16Z</time>
      </trkpt>
      <trkpt lat="45.15017" lon="5.5947">
        <ele>1103</ele>
        <time>2011-06-30T05:57:18Z</time>
      </trkpt>
      <trkpt lat="45.15022" lon="5.59468">
        <ele>1103</ele>
        <time>2011-06-30T05:57:20Z</time>
      </trkpt>
      <trkpt lat="45.15027" lon="5.59467">
        <ele>1104</ele>
        <time>2011-06-30T05:57:22Z</time>
      </trkpt>
      <trkpt lat="45.15032" lon="5.59466">
        <ele>1105</ele>
        <time>2011-06-30T05:57:24Z</time>
      </trkpt>
      <trkpt lat="45.15038" lon="5.59464">
        <ele>1106</ele>
        <time>2011-06-30T05:57:26Z</time>
      </trkpt>
      <trkpt lat="45.15043" lon="5.59462">
        <ele>1107</ele>
        <time>2011-06-30T05:57:28Z</time>
      </trkpt>
      <trkpt lat="45.15048" lon="5.59461">
        <ele>1108</ele>
        <time>2011-06-30T05:57:30Z</time>
      </trkpt>
      <trkpt lat="45.15052" lon="5.5946">
        <ele>1109</ele>
        <time>2011-06-30T05:57:32Z</time>
      </trkpt>
      <trkpt lat="45.15058" lon="5.59459">
        <ele>1109</ele>
        <time>2011-06-30T05:57:34Z</time>
      </trkpt>
      <trkpt lat="45.15063" lon="5.59459">
        <ele>1110</ele>
        <time>2011-06-30T05:57:36Z</time>
      </trkpt>
      <trkpt lat="45.15068" lon="5.5946">
        <ele>1110</ele>
        <time>2011-06-30T05:57:38Z</time>
      </trkpt>
      <trkpt lat="45.15072" lon="5.59462">
        <ele>1111</ele>
        <time>2011-06-30T05:57:40Z</time>
      </trkpt>
      <trkpt lat="45.15077" lon="5.59464">
        <ele>1111</ele>
        <time>2011-06-30T05:57:42Z</time>
      </trkpt>
      <trkpt lat="45.15082" lon="5.59467">
        <ele>1112</ele>
        <time>2011-06-30T05:57:44Z</time>
      </trkpt>
      <trkpt lat="45.15087" lon="5.59473">
        <ele>1113</ele>
        <time>2011-06-30T05:57:47Z</time>
      </trkpt>
      <trkpt lat="45.15091" lon="5.59478">
        <ele>1113</ele>
        <time>2011-06-30T05:57:50Z</time>
      </trkpt>
      <trkpt lat="45.15094" lon="5.59483">
        <ele>1113</ele>
        <time>2011-06-30T05:57:53Z</time>
      </trkpt>
      <trkpt lat="45.15098" lon="5.59488">
        <ele>1113</ele>
        <time>2011-06-30T05:57:56Z</time>
      </trkpt>
      <trkpt lat="45.15102" lon="5.59493">
        <ele>1113</ele>
        <time>2011-06-30T05:57:59Z</time>
      </trkpt>
      <trkpt lat="45.15108" lon="5.59498">
        <ele>1114</ele>
        <time>2011-06-30T05:58:02Z</time>
      </trkpt>
      <trkpt lat="45.15113" lon="5.59503">
        <ele>1116</ele>
        <time>2011-06-30T05:58:05Z</time>
      </trkpt>
      <trkpt lat="45.15116" lon="5.59507">
        <ele>1117</ele>
        <time>2011-06-30T05:58:07Z</time>
      </trkpt>
      <trkpt lat="45.1512" lon="5.59512">
        <ele>1117</ele>
        <time>2011-06-30T05:58:09Z</time>
      </trkpt>
      <trkpt lat="45.15125" lon="5.59514">
        <ele>1116</ele>
        <time>2011-06-30T05:58:12Z</time>
      </trkpt>
      <trkpt lat="45.1513" lon="5.59517">
        <ele>1117</ele>
        <time>2011-06-30T05:58:15Z</time>
      </trkpt>
      <trkpt lat="45.15135" lon="5.5952">
        <ele>1116</ele>
        <time>2011-06-30T05:58:17Z</time>
      </trkpt>
      <trkpt lat="45.15141" lon="5.59523">
        <ele>1116</ele>
        <time>2011-06-30T05:58:20Z</time>
      </trkpt>
      <trkpt lat="45.15146" lon="5.59526">
        <ele>1117</ele>
        <time>2011-06-30T05:58:23Z</time>
      </trkpt>
      <trkpt lat="45.15152" lon="5.59529">
        <ele>1118</ele>
        <time>2011-06-30T05:58:26Z</time>
      </trkpt>
      <trkpt lat="45.15157" lon="5.5953">
        <ele>1118</ele>
        <time>2011-06-30T05:58:29Z</time>
      </trkpt>
      <trkpt lat="45.15161" lon="5.59532">
        <ele>1119</ele>
        <time>2011-06-30T05:58:31Z</time>
      </trkpt>
      <trkpt lat="45.15166" lon="5.59534">
        <ele>1120</ele>
        <time>2011-06-30T05:58:33Z</time>
      </trkpt>
      <trkpt lat="45.15171" lon="5.59536">
        <ele>1121</ele>
        <time>2011-06-30T05:58:36Z</time>
      </trkpt>
      <trkpt lat="45.15177" lon="5.5954">
        <ele>1121</ele>
        <time>2011-06-30T05:58:39Z</time>
      </trkpt>
      <trkpt lat="45.15183" lon="5.59542">
        <ele>1121</ele>
        <time>2011-06-30T05:58:42Z</time>
      </trkpt>
      <trkpt lat="45.15188" lon="5.59545">
        <ele>1123</ele>
        <time>2011-06-30T05:58:45Z</time>
      </trkpt>
      <trkpt lat="45.15194" lon="5.59548">
        <ele>1123</ele>
        <time>2011-06-30T05:58:48Z</time>
      </trkpt>
      <trkpt lat="45.152" lon="5.5955">
        <ele>1124</ele>
        <time>2011-06-30T05:58:51Z</time>
      </trkpt>
      <trkpt lat="45.15205" lon="5.59551">
        <ele>1124</ele>
        <time>2011-06-30T05:58:54Z</time>
      </trkpt>
      <trkpt lat="45.15211" lon="5.59552">
        <ele>1125</ele>
        <time>2011-06-30T05:58:57Z</time>
      </trkpt>
      <trkpt lat="45.15216" lon="5.59552">
        <ele>1126</ele>
        <time>2011-06-30T05:59:00Z</time>
      </trkpt>
      <trkpt lat="45.15224" lon="5.59552">
        <ele>1126</ele>
        <time>2011-06-30T05:59:04Z</time>
      </trkpt>
      <trkpt lat="45.15231" lon="5.5955">
        <ele>1127</ele>
        <time>2011-06-30T05:59:07Z</time>
      </trkpt>
      <trkpt lat="45.15236" lon="5.5955">
        <ele>1129</ele>
        <time>2011-06-30T05:59:10Z</time>
      </trkpt>
      <trkpt lat="45.15242" lon="5.59552">
        <ele>1129</ele>
        <time>2011-06-30T05:59:13Z</time>
      </trkpt>
      <trkpt lat="45.15246" lon="5.59555">
        <ele>1129</ele>
        <time>2011-06-30T05:59:16Z</time>
      </trkpt>
      <trkpt lat="45.1525" lon="5.59561">
        <ele>1129</ele>
        <time>2011-06-30T05:59:19Z</time>
      </trkpt>
      <trkpt lat="45.15252" lon="5.59569">
        <ele>1130</ele>
        <time>2011-06-30T05:59:22Z</time>
      </trkpt>
      <trkpt lat="45.15253" lon="5.59576">
        <ele>1129</ele>
        <time>2011-06-30T05:59:25Z</time>
      </trkpt>
      <trkpt lat="45.15254" lon="5.59584">
        <ele>1128</ele>
        <time>2011-06-30T05:59:28Z</time>
      </trkpt>
      <trkpt lat="45.15257" lon="5.59591">
        <ele>1129</ele>
        <time>2011-06-30T05:59:31Z</time>
      </trkpt>
      <trkpt lat="45.15261" lon="5.59596">
        <ele>1129</ele>
        <time>2011-06-30T05:59:33Z</time>
      </trkpt>
      <trkpt lat="45.15264" lon="5.59602">
        <ele>1130</ele>
        <time>2011-06-30T05:59:36Z</time>
      </trkpt>
      <trkpt lat="45.15268" lon="5.59607">
        <ele>1131</ele>
        <time>2011-06-30T05:59:38Z</time>
      </trkpt>
      <trkpt lat="45.15271" lon="5.59612">
        <ele>1132</ele>
        <time>2011-06-30T05:59:40Z</time>
      </trkpt>
      <trkpt lat="45.15276" lon="5.59617">
        <ele>1131</ele>
        <time>2011-06-30T05:59:42Z</time>
      </trkpt>
      <trkpt lat="45.15281" lon="5.59622">
        <ele>1131</ele>
        <time>2011-06-30T05:59:45Z</time>
      </trkpt>
      <trkpt lat="45.15285" lon="5.59627">
        <ele>1130</ele>
        <time>2011-06-30T05:59:47Z</time>
      </trkpt>
      <trkpt lat="45.1529" lon="5.59631">
        <ele>1131</ele>
        <time>2011-06-30T05:59:50Z</time>
      </trkpt>
      <trkpt lat="45.15294" lon="5.59634">
        <ele>1131</ele>
        <time>2011-06-30T05:59:52Z</time>
      </trkpt>
      <trkpt lat="45.15299" lon="5.59637">
        <ele>1132</ele>
        <time>2011-06-30T05:59:54Z</time>
      </trkpt>
      <trkpt lat="45.15303" lon="5.5964">
        <ele>1132</ele>
        <time>2011-06-30T05:59:56Z</time>
      </trkpt>
      <trkpt lat="45.15308" lon="5.59644">
        <ele>1133</ele>
        <time>2011-06-30T05:59:59Z</time>
      </trkpt>
      <trkpt lat="45.15313" lon="5.59647">
        <ele>1134</ele>
        <time>2011-06-30T06:00:01Z</time>
      </trkpt>
      <trkpt lat="45.15319" lon="5.59651">
        <ele>1134</ele>
        <time>2011-06-30T06:00:04Z</time>
      </trkpt>
      <trkpt lat="45.15324" lon="5.59656">
        <ele>1136</ele>
        <time>2011-06-30T06:00:07Z</time>
      </trkpt>
      <trkpt lat="45.15328" lon="5.59658">
        <ele>1137</ele>
        <time>2011-06-30T06:00:09Z</time>
      </trkpt>
      <trkpt lat="45.15333" lon="5.59661">
        <ele>1136</ele>
        <time>2011-06-30T06:00:12Z</time>
      </trkpt>
      <trkpt lat="45.15338" lon="5.59664">
        <ele>1135</ele>
        <time>2011-06-30T06:00:15Z</time>
      </trkpt>
      <trkpt lat="45.15344" lon="5.59668">
        <ele>1136</ele>
        <time>2011-06-30T06:00:18Z</time>
      </trkpt>
      <trkpt lat="45.15348" lon="5.5967">
        <ele>1137</ele>
        <time>2011-06-30T06:00:20Z</time>
      </trkpt>
      <trkpt lat="45.15354" lon="5.59672">
        <ele>1137</ele>
        <time>2011-06-30T06:00:23Z</time>
      </trkpt>
      <trkpt lat="45.1536" lon="5.59676">
        <ele>1136</ele>
        <time>2011-06-30T06:00:26Z</time>
      </trkpt>
      <trkpt lat="45.15366" lon="5.59678">
        <ele>1137</ele>
        <time>2011-06-30T06:00:29Z</time>
      </trkpt>
      <trkpt lat="45.15372" lon="5.59682">
        <ele>1138</ele>
        <time>2011-06-30T06:00:32Z</time>
      </trkpt>
      <trkpt lat="45.15376" lon="5.59684">
        <ele>1138</ele>
        <time>2011-06-30T06:00:34Z</time>
      </trkpt>
      <trkpt lat="45.15395" lon="5.59696">
        <ele>1142</ele>
        <time>2011-06-30T06:00:44Z</time>
      </trkpt>
      <trkpt lat="45.154" lon="5.59696">
        <ele>1142</ele>
        <time>2011-06-30T06:00:46Z</time>
      </trkpt>
      <trkpt lat="45.15405" lon="5.59701">
        <ele>1142</ele>
        <time>2011-06-30T06:00:49Z</time>
      </trkpt>
      <trkpt lat="45.15411" lon="5.59704">
        <ele>1142</ele>
        <time>2011-06-30T06:00:53Z</time>
      </trkpt>
      <trkpt lat="45.15417" lon="5.59702">
        <ele>1142</ele>
        <time>2011-06-30T06:00:56Z</time>
      </trkpt>
      <trkpt lat="45.15422" lon="5.59702">
        <ele>1141</ele>
        <time>2011-06-30T06:00:59Z</time>
      </trkpt>
      <trkpt lat="45.15428" lon="5.597">
        <ele>1141</ele>
        <time>2011-06-30T06:01:02Z</time>
      </trkpt>
      <trkpt lat="45.15431" lon="5.59695">
        <ele>1141</ele>
        <time>2011-06-30T06:01:05Z</time>
      </trkpt>
      <trkpt lat="45.15437" lon="5.59696">
        <ele>1141</ele>
        <time>2011-06-30T06:01:07Z</time>
      </trkpt>
      <trkpt lat="45.15441" lon="5.59693">
        <ele>1141</ele>
        <time>2011-06-30T06:01:09Z</time>
      </trkpt>
      <trkpt lat="45.15452" lon="5.59685">
        <ele>1141</ele>
        <time>2011-06-30T06:01:12Z</time>
      </trkpt>
      <trkpt lat="45.1546" lon="5.59684">
        <ele>1142</ele>
        <time>2011-06-30T06:01:14Z</time>
      </trkpt>
      <trkpt lat="45.15469" lon="5.59683">
        <ele>1141</ele>
        <time>2011-06-30T06:01:15Z</time>
      </trkpt>
      <trkpt lat="45.15476" lon="5.59684">
        <ele>1141</ele>
        <time>2011-06-30T06:01:17Z</time>
      </trkpt>
      <trkpt lat="45.15478" lon="5.59691">
        <ele>1141</ele>
        <time>2011-06-30T06:01:18Z</time>
      </trkpt>
      <trkpt lat="45.1548" lon="5.59701">
        <ele>1141</ele>
        <time>2011-06-30T06:01:20Z</time>
      </trkpt>
      <trkpt lat="45.15481" lon="5.59709">
        <ele>1141</ele>
        <time>2011-06-30T06:01:23Z</time>
      </trkpt>
      <trkpt lat="45.15479" lon="5.59716">
        <ele>1140</ele>
        <time>2011-06-30T06:01:25Z</time>
      </trkpt>
      <trkpt lat="45.15476" lon="5.59723">
        <ele>1141</ele>
        <time>2011-06-30T06:01:27Z</time>
      </trkpt>
      <trkpt lat="45.15475" lon="5.59732">
        <ele>1141</ele>
        <time>2011-06-30T06:01:30Z</time>
      </trkpt>
      <trkpt lat="45.15472" lon="5.59742">
        <ele>1142</ele>
        <time>2011-06-30T06:01:35Z</time>
      </trkpt>
      <trkpt lat="45.15474" lon="5.59752">
        <ele>1141</ele>
        <time>2011-06-30T06:01:37Z</time>
      </trkpt>
      <trkpt lat="45.15474" lon="5.59761">
        <ele>1143</ele>
        <time>2011-06-30T06:01:40Z</time>
      </trkpt>
      <trkpt lat="45.15478" lon="5.59769">
        <ele>1143</ele>
        <time>2011-06-30T06:01:43Z</time>
      </trkpt>
      <trkpt lat="45.1548" lon="5.59775">
        <ele>1144</ele>
        <time>2011-06-30T06:01:45Z</time>
      </trkpt>
      <trkpt lat="45.15482" lon="5.59784">
        <ele>1144</ele>
        <time>2011-06-30T06:01:49Z</time>
      </trkpt>
      <trkpt lat="45.15484" lon="5.59792">
        <ele>1143</ele>
        <time>2011-06-30T06:01:51Z</time>
      </trkpt>
      <trkpt lat="45.15486" lon="5.59799">
        <ele>1144</ele>
        <time>2011-06-30T06:01:54Z</time>
      </trkpt>
      <trkpt lat="45.15491" lon="5.59805">
        <ele>1146</ele>
        <time>2011-06-30T06:01:57Z</time>
      </trkpt>
      <trkpt lat="45.15496" lon="5.59811">
        <ele>1146</ele>
        <time>2011-06-30T06:02:01Z</time>
      </trkpt>
      <trkpt lat="45.155" lon="5.59816">
        <ele>1149</ele>
        <time>2011-06-30T06:02:04Z</time>
      </trkpt>
      <trkpt lat="45.15504" lon="5.59819">
        <ele>1150</ele>
        <time>2011-06-30T06:02:07Z</time>
      </trkpt>
      <trkpt lat="45.1551" lon="5.59824">
        <ele>1151</ele>
        <time>2011-06-30T06:02:10Z</time>
      </trkpt>
      <trkpt lat="45.15516" lon="5.59823">
        <ele>1151</ele>
        <time>2011-06-30T06:02:12Z</time>
      </trkpt>
      <trkpt lat="45.15522" lon="5.59823">
        <ele>1153</ele>
        <time>2011-06-30T06:02:15Z</time>
      </trkpt>
      <trkpt lat="45.15527" lon="5.59818">
        <ele>1153</ele>
        <time>2011-06-30T06:02:18Z</time>
      </trkpt>
      <trkpt lat="45.1553" lon="5.59811">
        <ele>1154</ele>
        <time>2011-06-30T06:02:23Z</time>
      </trkpt>
      <trkpt lat="45.1553" lon="5.59804">
        <ele>1155</ele>
        <time>2011-06-30T06:02:26Z</time>
      </trkpt>
      <trkpt lat="45.15529" lon="5.59797">
        <ele>1157</ele>
        <time>2011-06-30T06:02:29Z</time>
      </trkpt>
      <trkpt lat="45.15529" lon="5.5979">
        <ele>1157</ele>
        <time>2011-06-30T06:02:31Z</time>
      </trkpt>
      <trkpt lat="45.15528" lon="5.59783">
        <ele>1159</ele>
        <time>2011-06-30T06:02:33Z</time>
      </trkpt>
      <trkpt lat="45.15526" lon="5.59775">
        <ele>1160</ele>
        <time>2011-06-30T06:02:36Z</time>
      </trkpt>
      <trkpt lat="45.15525" lon="5.59768">
        <ele>1160</ele>
        <time>2011-06-30T06:02:39Z</time>
      </trkpt>
      <trkpt lat="45.15522" lon="5.59759">
        <ele>1159</ele>
        <time>2011-06-30T06:02:43Z</time>
      </trkpt>
      <trkpt lat="45.15519" lon="5.59753">
        <ele>1159</ele>
        <time>2011-06-30T06:02:46Z</time>
      </trkpt>
      <trkpt lat="45.15519" lon="5.59744">
        <ele>1159</ele>
        <time>2011-06-30T06:02:50Z</time>
      </trkpt>
      <trkpt lat="45.15519" lon="5.59736">
        <ele>1162</ele>
        <time>2011-06-30T06:02:53Z</time>
      </trkpt>
      <trkpt lat="45.15519" lon="5.59729">
        <ele>1162</ele>
        <time>2011-06-30T06:02:56Z</time>
      </trkpt>
      <trkpt lat="45.15522" lon="5.59723">
        <ele>1162</ele>
        <time>2011-06-30T06:02:58Z</time>
      </trkpt>
      <trkpt lat="45.15525" lon="5.59717">
        <ele>1162</ele>
        <time>2011-06-30T06:03:00Z</time>
      </trkpt>
      <trkpt lat="45.15529" lon="5.59714">
        <ele>1163</ele>
        <time>2011-06-30T06:03:04Z</time>
      </trkpt>
      <trkpt lat="45.15533" lon="5.59718">
        <ele>1163</ele>
        <time>2011-06-30T06:03:15Z</time>
      </trkpt>
      <trkpt lat="45.15533" lon="5.59718">
        <ele>1163</ele>
        <time>2011-06-30T06:03:15Z</time>
      </trkpt>
      <trkpt lat="45.15533" lon="5.59718">
        <ele>1163</ele>
        <time>2011-06-30T06:03:21Z</time>
      </trkpt>
      <trkpt lat="45.15558" lon="5.59762">
        <ele>1170</ele>
        <time>2011-06-30T06:04:57Z</time>
      </trkpt>
      <trkpt lat="45.15562" lon="5.59766">
        <ele>1168</ele>
        <time>2011-06-30T06:04:59Z</time>
      </trkpt>
      <trkpt lat="45.15577" lon="5.59778">
        <ele>1168</ele>
        <time>2011-06-30T06:05:06Z</time>
      </trkpt>
      <trkpt lat="45.15577" lon="5.59778">
        <ele>1168</ele>
        <time>2011-06-30T06:05:06Z</time>
      </trkpt>
      <trkpt lat="45.15577" lon="5.59778">
        <ele>1168</ele>
        <time>2011-06-30T06:05:07Z</time>
      </trkpt>
      <trkpt lat="45.15581" lon="5.59777">
        <ele>1170</ele>
        <time>2011-06-30T06:05:10Z</time>
      </trkpt>
      <trkpt lat="45.1559" lon="5.59778">
        <ele>1172</ele>
        <time>2011-06-30T06:05:13Z</time>
      </trkpt>
      <trkpt lat="45.15594" lon="5.59781">
        <ele>1174</ele>
        <time>2011-06-30T06:05:16Z</time>
      </trkpt>
      <trkpt lat="45.15601" lon="5.59782">
        <ele>1174</ele>
        <time>2011-06-30T06:05:19Z</time>
      </trkpt>
      <trkpt lat="45.15607" lon="5.59778">
        <ele>1177</ele>
        <time>2011-06-30T06:05:22Z</time>
      </trkpt>
      <trkpt lat="45.15611" lon="5.59774">
        <ele>1177</ele>
        <time>2011-06-30T06:05:25Z</time>
      </trkpt>
      <trkpt lat="45.15615" lon="5.59772">
        <ele>1178</ele>
        <time>2011-06-30T06:05:28Z</time>
      </trkpt>
      <trkpt lat="45.15621" lon="5.59767">
        <ele>1178</ele>
        <time>2011-06-30T06:05:32Z</time>
      </trkpt>
      <trkpt lat="45.15626" lon="5.59765">
        <ele>1178</ele>
        <time>2011-06-30T06:05:35Z</time>
      </trkpt>
      <trkpt lat="45.1563" lon="5.59761">
        <ele>1179</ele>
        <time>2011-06-30T06:05:38Z</time>
      </trkpt>
      <trkpt lat="45.15637" lon="5.59757">
        <ele>1179</ele>
        <time>2011-06-30T06:05:41Z</time>
      </trkpt>
      <trkpt lat="45.15643" lon="5.59754">
        <ele>1179</ele>
        <time>2011-06-30T06:05:43Z</time>
      </trkpt>
      <trkpt lat="45.15648" lon="5.5975">
        <ele>1179</ele>
        <time>2011-06-30T06:05:45Z</time>
      </trkpt>
      <trkpt lat="45.15653" lon="5.59752">
        <ele>1180</ele>
        <time>2011-06-30T06:05:48Z</time>
      </trkpt>
      <trkpt lat="45.15659" lon="5.59748">
        <ele>1179</ele>
        <time>2011-06-30T06:05:50Z</time>
      </trkpt>
      <trkpt lat="45.15664" lon="5.59744">
        <ele>1180</ele>
        <time>2011-06-30T06:05:52Z</time>
      </trkpt>
      <trkpt lat="45.1567" lon="5.5974">
        <ele>1182</ele>
        <time>2011-06-30T06:05:55Z</time>
      </trkpt>
      <trkpt lat="45.15674" lon="5.59743">
        <ele>1183</ele>
        <time>2011-06-30T06:05:57Z</time>
      </trkpt>
      <trkpt lat="45.15681" lon="5.59748">
        <ele>1185</ele>
        <time>2011-06-30T06:06:00Z</time>
      </trkpt>
      <trkpt lat="45.15684" lon="5.59752">
        <ele>1186</ele>
        <time>2011-06-30T06:06:02Z</time>
      </trkpt>
      <trkpt lat="45.15689" lon="5.59756">
        <ele>1188</ele>
        <time>2011-06-30T06:06:05Z</time>
      </trkpt>
      <trkpt lat="45.15694" lon="5.59759">
        <ele>1188</ele>
        <time>2011-06-30T06:06:08Z</time>
      </trkpt>
      <trkpt lat="45.15697" lon="5.59765">
        <ele>1190</ele>
        <time>2011-06-30T06:06:11Z</time>
      </trkpt>
      <trkpt lat="45.15702" lon="5.5977">
        <ele>1192</ele>
        <time>2011-06-30T06:06:14Z</time>
      </trkpt>
      <trkpt lat="45.15706" lon="5.59772">
        <ele>1192</ele>
        <time>2011-06-30T06:06:17Z</time>
      </trkpt>
      <trkpt lat="45.15709" lon="5.59778">
        <ele>1193</ele>
        <time>2011-06-30T06:06:20Z</time>
      </trkpt>
      <trkpt lat="45.15711" lon="5.59786">
        <ele>1194</ele>
        <time>2011-06-30T06:06:24Z</time>
      </trkpt>
      <trkpt lat="45.15708" lon="5.5979">
        <ele>1193</ele>
        <time>2011-06-30T06:06:27Z</time>
      </trkpt>
      <trkpt lat="45.15702" lon="5.59794">
        <ele>1193</ele>
        <time>2011-06-30T06:06:30Z</time>
      </trkpt>
      <trkpt lat="45.15697" lon="5.59795">
        <ele>1190</ele>
        <time>2011-06-30T06:06:33Z</time>
      </trkpt>
      <trkpt lat="45.1569" lon="5.59797">
        <ele>1186</ele>
        <time>2011-06-30T06:06:37Z</time>
      </trkpt>
      <trkpt lat="45.15685" lon="5.59797">
        <ele>1187</ele>
        <time>2011-06-30T06:06:39Z</time>
      </trkpt>
      <trkpt lat="45.1568" lon="5.59804">
        <ele>1191</ele>
        <time>2011-06-30T06:06:42Z</time>
      </trkpt>
      <trkpt lat="45.15677" lon="5.5981">
        <ele>1193</ele>
        <time>2011-06-30T06:06:44Z</time>
      </trkpt>
      <trkpt lat="45.15678" lon="5.59817">
        <ele>1192</ele>
        <time>2011-06-30T06:06:46Z</time>
      </trkpt>
      <trkpt lat="45.15681" lon="5.59823">
        <ele>1191</ele>
        <time>2011-06-30T06:06:48Z</time>
      </trkpt>
      <trkpt lat="45.15685" lon="5.59828">
        <ele>1193</ele>
        <time>2011-06-30T06:06:51Z</time>
      </trkpt>
      <trkpt lat="45.15689" lon="5.59834">
        <ele>1197</ele>
        <time>2011-06-30T06:06:54Z</time>
      </trkpt>
      <trkpt lat="45.15694" lon="5.59839">
        <ele>1199</ele>
        <time>2011-06-30T06:06:57Z</time>
      </trkpt>
      <trkpt lat="45.15697" lon="5.59845">
        <ele>1198</ele>
        <time>2011-06-30T06:06:59Z</time>
      </trkpt>
      <trkpt lat="45.157" lon="5.5985">
        <ele>1198</ele>
        <time>2011-06-30T06:07:01Z</time>
      </trkpt>
      <trkpt lat="45.15706" lon="5.59855">
        <ele>1198</ele>
        <time>2011-06-30T06:07:04Z</time>
      </trkpt>
      <trkpt lat="45.15712" lon="5.59861">
        <ele>1198</ele>
        <time>2011-06-30T06:07:07Z</time>
      </trkpt>
      <trkpt lat="45.15717" lon="5.59865">
        <ele>1197</ele>
        <time>2011-06-30T06:07:10Z</time>
      </trkpt>
      <trkpt lat="45.15722" lon="5.59869">
        <ele>1196</ele>
        <time>2011-06-30T06:07:13Z</time>
      </trkpt>
      <trkpt lat="45.15727" lon="5.59874">
        <ele>1198</ele>
        <time>2011-06-30T06:07:16Z</time>
      </trkpt>
      <trkpt lat="45.15732" lon="5.59879">
        <ele>1199</ele>
        <time>2011-06-30T06:07:19Z</time>
      </trkpt>
      <trkpt lat="45.15736" lon="5.59884">
        <ele>1199</ele>
        <time>2011-06-30T06:07:22Z</time>
      </trkpt>
      <trkpt lat="45.15741" lon="5.59887">
        <ele>1200</ele>
        <time>2011-06-30T06:07:24Z</time>
      </trkpt>
      <trkpt lat="45.15745" lon="5.59891">
        <ele>1201</ele>
        <time>2011-06-30T06:07:27Z</time>
      </trkpt>
      <trkpt lat="45.15749" lon="5.59896">
        <ele>1203</ele>
        <time>2011-06-30T06:07:30Z</time>
      </trkpt>
      <trkpt lat="45.15755" lon="5.59899">
        <ele>1203</ele>
        <time>2011-06-30T06:07:33Z</time>
      </trkpt>
      <trkpt lat="45.15759" lon="5.59902">
        <ele>1202</ele>
        <time>2011-06-30T06:07:35Z</time>
      </trkpt>
      <trkpt lat="45.15764" lon="5.59904">
        <ele>1204</ele>
        <time>2011-06-30T06:07:38Z</time>
      </trkpt>
      <trkpt lat="45.1577" lon="5.59907">
        <ele>1206</ele>
        <time>2011-06-30T06:07:41Z</time>
      </trkpt>
      <trkpt lat="45.15775" lon="5.59909">
        <ele>1208</ele>
        <time>2011-06-30T06:07:44Z</time>
      </trkpt>
      <trkpt lat="45.15779" lon="5.59912">
        <ele>1212</ele>
        <time>2011-06-30T06:07:48Z</time>
      </trkpt>
      <trkpt lat="45.15785" lon="5.59916">
        <ele>1210</ele>
        <time>2011-06-30T06:07:51Z</time>
      </trkpt>
      <trkpt lat="45.1579" lon="5.59921">
        <ele>1208</ele>
        <time>2011-06-30T06:07:54Z</time>
      </trkpt>
      <trkpt lat="45.15796" lon="5.59923">
        <ele>1208</ele>
        <time>2011-06-30T06:07:57Z</time>
      </trkpt>
      <trkpt lat="45.158" lon="5.59927">
        <ele>1208</ele>
        <time>2011-06-30T06:08:00Z</time>
      </trkpt>
      <trkpt lat="45.15807" lon="5.5993">
        <ele>1211</ele>
        <time>2011-06-30T06:08:04Z</time>
      </trkpt>
      <trkpt lat="45.15813" lon="5.59933">
        <ele>1211</ele>
        <time>2011-06-30T06:08:07Z</time>
      </trkpt>
      <trkpt lat="45.15818" lon="5.59937">
        <ele>1211</ele>
        <time>2011-06-30T06:08:10Z</time>
      </trkpt>
      <trkpt lat="45.15823" lon="5.59939">
        <ele>1212</ele>
        <time>2011-06-30T06:08:12Z</time>
      </trkpt>
      <trkpt lat="45.15829" lon="5.59941">
        <ele>1212</ele>
        <time>2011-06-30T06:08:15Z</time>
      </trkpt>
      <trkpt lat="45.15834" lon="5.59944">
        <ele>1212</ele>
        <time>2011-06-30T06:08:18Z</time>
      </trkpt>
      <trkpt lat="45.15839" lon="5.59947">
        <ele>1212</ele>
        <time>2011-06-30T06:08:21Z</time>
      </trkpt>
      <trkpt lat="45.15843" lon="5.5995">
        <ele>1211</ele>
        <time>2011-06-30T06:08:24Z</time>
      </trkpt>
      <trkpt lat="45.15848" lon="5.59951">
        <ele>1212</ele>
        <time>2011-06-30T06:08:26Z</time>
      </trkpt>
      <trkpt lat="45.15853" lon="5.59951">
        <ele>1212</ele>
        <time>2011-06-30T06:08:29Z</time>
      </trkpt>
      <trkpt lat="45.15858" lon="5.59953">
        <ele>1213</ele>
        <time>2011-06-30T06:08:32Z</time>
      </trkpt>
      <trkpt lat="45.15863" lon="5.59956">
        <ele>1216</ele>
        <time>2011-06-30T06:08:35Z</time>
      </trkpt>
      <trkpt lat="45.15868" lon="5.59958">
        <ele>1219</ele>
        <time>2011-06-30T06:08:38Z</time>
      </trkpt>
      <trkpt lat="45.15873" lon="5.5996">
        <ele>1221</ele>
        <time>2011-06-30T06:08:40Z</time>
      </trkpt>
      <trkpt lat="45.1588" lon="5.5996">
        <ele>1222</ele>
        <time>2011-06-30T06:08:43Z</time>
      </trkpt>
      <trkpt lat="45.15886" lon="5.59962">
        <ele>1223</ele>
        <time>2011-06-30T06:08:46Z</time>
      </trkpt>
      <trkpt lat="45.15891" lon="5.59963">
        <ele>1223</ele>
        <time>2011-06-30T06:08:49Z</time>
      </trkpt>
      <trkpt lat="45.15897" lon="5.59965">
        <ele>1221</ele>
        <time>2011-06-30T06:08:52Z</time>
      </trkpt>
      <trkpt lat="45.15902" lon="5.59966">
        <ele>1221</ele>
        <time>2011-06-30T06:08:55Z</time>
      </trkpt>
      <trkpt lat="45.15908" lon="5.59967">
        <ele>1219</ele>
        <time>2011-06-30T06:08:58Z</time>
      </trkpt>
      <trkpt lat="45.15913" lon="5.5997">
        <ele>1220</ele>
        <time>2011-06-30T06:09:01Z</time>
      </trkpt>
      <trkpt lat="45.15919" lon="5.59971">
        <ele>1222</ele>
        <time>2011-06-30T06:09:04Z</time>
      </trkpt>
      <trkpt lat="45.15925" lon="5.59971">
        <ele>1223</ele>
        <time>2011-06-30T06:09:07Z</time>
      </trkpt>
      <trkpt lat="45.1593" lon="5.59973">
        <ele>1225</ele>
        <time>2011-06-30T06:09:10Z</time>
      </trkpt>
      <trkpt lat="45.15936" lon="5.59973">
        <ele>1226</ele>
        <time>2011-06-30T06:09:13Z</time>
      </trkpt>
      <trkpt lat="45.15941" lon="5.59975">
        <ele>1228</ele>
        <time>2011-06-30T06:09:16Z</time>
      </trkpt>
      <trkpt lat="45.15947" lon="5.59975">
        <ele>1229</ele>
        <time>2011-06-30T06:09:19Z</time>
      </trkpt>
      <trkpt lat="45.15952" lon="5.59976">
        <ele>1230</ele>
        <time>2011-06-30T06:09:22Z</time>
      </trkpt>
      <trkpt lat="45.15957" lon="5.59976">
        <ele>1230</ele>
        <time>2011-06-30T06:09:25Z</time>
      </trkpt>
      <trkpt lat="45.15963" lon="5.59976">
        <ele>1230</ele>
        <time>2011-06-30T06:09:28Z</time>
      </trkpt>
      <trkpt lat="45.15969" lon="5.59977">
        <ele>1233</ele>
        <time>2011-06-30T06:09:32Z</time>
      </trkpt>
      <trkpt lat="45.15975" lon="5.59977">
        <ele>1234</ele>
        <time>2011-06-30T06:09:35Z</time>
      </trkpt>
      <trkpt lat="45.1598" lon="5.59979">
        <ele>1234</ele>
        <time>2011-06-30T06:09:38Z</time>
      </trkpt>
      <trkpt lat="45.15985" lon="5.59982">
        <ele>1235</ele>
        <time>2011-06-30T06:09:42Z</time>
      </trkpt>
      <trkpt lat="45.15989" lon="5.59987">
        <ele>1235</ele>
        <time>2011-06-30T06:09:45Z</time>
      </trkpt>
      <trkpt lat="45.15993" lon="5.59992">
        <ele>1236</ele>
        <time>2011-06-30T06:09:48Z</time>
      </trkpt>
      <trkpt lat="45.15996" lon="5.59997">
        <ele>1236</ele>
        <time>2011-06-30T06:09:51Z</time>
      </trkpt>
      <trkpt lat="45.16" lon="5.60002">
        <ele>1236</ele>
        <time>2011-06-30T06:09:54Z</time>
      </trkpt>
      <trkpt lat="45.16004" lon="5.60004">
        <ele>1236</ele>
        <time>2011-06-30T06:09:57Z</time>
      </trkpt>
      <trkpt lat="45.16009" lon="5.60009">
        <ele>1237</ele>
        <time>2011-06-30T06:10:00Z</time>
      </trkpt>
      <trkpt lat="45.16016" lon="5.60016">
        <ele>1238</ele>
        <time>2011-06-30T06:10:04Z</time>
      </trkpt>
      <trkpt lat="45.16022" lon="5.60018">
        <ele>1238</ele>
        <time>2011-06-30T06:10:07Z</time>
      </trkpt>
      <trkpt lat="45.16027" lon="5.6002">
        <ele>1238</ele>
        <time>2011-06-30T06:10:10Z</time>
      </trkpt>
      <trkpt lat="45.16033" lon="5.6002">
        <ele>1239</ele>
        <time>2011-06-30T06:10:13Z</time>
      </trkpt>
      <trkpt lat="45.16038" lon="5.60022">
        <ele>1241</ele>
        <time>2011-06-30T06:10:17Z</time>
      </trkpt>
      <trkpt lat="45.16043" lon="5.60019">
        <ele>1241</ele>
        <time>2011-06-30T06:10:20Z</time>
      </trkpt>
      <trkpt lat="45.16048" lon="5.60015">
        <ele>1242</ele>
        <time>2011-06-30T06:10:23Z</time>
      </trkpt>
      <trkpt lat="45.16054" lon="5.6001">
        <ele>1243</ele>
        <time>2011-06-30T06:10:26Z</time>
      </trkpt>
      <trkpt lat="45.16058" lon="5.60006">
        <ele>1243</ele>
        <time>2011-06-30T06:10:29Z</time>
      </trkpt>
      <trkpt lat="45.16063" lon="5.60001">
        <ele>1243</ele>
        <time>2011-06-30T06:10:32Z</time>
      </trkpt>
      <trkpt lat="45.16066" lon="5.59996">
        <ele>1243</ele>
        <time>2011-06-30T06:10:34Z</time>
      </trkpt>
      <trkpt lat="45.16071" lon="5.59991">
        <ele>1245</ele>
        <time>2011-06-30T06:10:37Z</time>
      </trkpt>
      <trkpt lat="45.16074" lon="5.59986">
        <ele>1246</ele>
        <time>2011-06-30T06:10:40Z</time>
      </trkpt>
      <trkpt lat="45.16078" lon="5.5998">
        <ele>1248</ele>
        <time>2011-06-30T06:10:43Z</time>
      </trkpt>
      <trkpt lat="45.16081" lon="5.59976">
        <ele>1247</ele>
        <time>2011-06-30T06:10:45Z</time>
      </trkpt>
      <trkpt lat="45.16084" lon="5.5997">
        <ele>1247</ele>
        <time>2011-06-30T06:10:47Z</time>
      </trkpt>
      <trkpt lat="45.16086" lon="5.59963">
        <ele>1248</ele>
        <time>2011-06-30T06:10:51Z</time>
      </trkpt>
      <trkpt lat="45.16089" lon="5.59955">
        <ele>1250</ele>
        <time>2011-06-30T06:10:55Z</time>
      </trkpt>
      <trkpt lat="45.16089" lon="5.59947">
        <ele>1250</ele>
        <time>2011-06-30T06:10:58Z</time>
      </trkpt>
      <trkpt lat="45.16092" lon="5.59939">
        <ele>1250</ele>
        <time>2011-06-30T06:11:02Z</time>
      </trkpt>
      <trkpt lat="45.16094" lon="5.59932">
        <ele>1250</ele>
        <time>2011-06-30T06:11:05Z</time>
      </trkpt>
      <trkpt lat="45.16096" lon="5.59924">
        <ele>1250</ele>
        <time>2011-06-30T06:11:08Z</time>
      </trkpt>
      <trkpt lat="45.16101" lon="5.59923">
        <ele>1250</ele>
        <time>2011-06-30T06:11:11Z</time>
      </trkpt>
      <trkpt lat="45.16104" lon="5.59914">
        <ele>1254</ele>
        <time>2011-06-30T06:11:14Z</time>
      </trkpt>
      <trkpt lat="45.16109" lon="5.5991">
        <ele>1255</ele>
        <time>2011-06-30T06:11:17Z</time>
      </trkpt>
      <trkpt lat="45.16114" lon="5.59907">
        <ele>1256</ele>
        <time>2011-06-30T06:11:21Z</time>
      </trkpt>
      <trkpt lat="45.16119" lon="5.59907">
        <ele>1258</ele>
        <time>2011-06-30T06:11:24Z</time>
      </trkpt>
      <trkpt lat="45.16124" lon="5.59908">
        <ele>1257</ele>
        <time>2011-06-30T06:11:27Z</time>
      </trkpt>
      <trkpt lat="45.16129" lon="5.59909">
        <ele>1258</ele>
        <time>2011-06-30T06:11:30Z</time>
      </trkpt>
      <trkpt lat="45.16135" lon="5.59907">
        <ele>1259</ele>
        <time>2011-06-30T06:11:34Z</time>
      </trkpt>
      <trkpt lat="45.1614" lon="5.59907">
        <ele>1260</ele>
        <time>2011-06-30T06:11:38Z</time>
      </trkpt>
      <trkpt lat="45.16145" lon="5.59905">
        <ele>1260</ele>
        <time>2011-06-30T06:11:42Z</time>
      </trkpt>
      <trkpt lat="45.16151" lon="5.599">
        <ele>1260</ele>
        <time>2011-06-30T06:11:46Z</time>
      </trkpt>
      <trkpt lat="45.16156" lon="5.59898">
        <ele>1260</ele>
        <time>2011-06-30T06:11:48Z</time>
      </trkpt>
      <trkpt lat="45.1616" lon="5.59896">
        <ele>1260</ele>
        <time>2011-06-30T06:11:50Z</time>
      </trkpt>
      <trkpt lat="45.16166" lon="5.59891">
        <ele>1262</ele>
        <time>2011-06-30T06:11:53Z</time>
      </trkpt>
      <trkpt lat="45.1617" lon="5.59885">
        <ele>1262</ele>
        <time>2011-06-30T06:11:56Z</time>
      </trkpt>
      <trkpt lat="45.16173" lon="5.59879">
        <ele>1263</ele>
        <time>2011-06-30T06:11:59Z</time>
      </trkpt>
      <trkpt lat="45.16173" lon="5.59872">
        <ele>1263</ele>
        <time>2011-06-30T06:12:01Z</time>
      </trkpt>
      <trkpt lat="45.16174" lon="5.59864">
        <ele>1265</ele>
        <time>2011-06-30T06:12:04Z</time>
      </trkpt>
      <trkpt lat="45.16173" lon="5.59856">
        <ele>1266</ele>
        <time>2011-06-30T06:12:07Z</time>
      </trkpt>
      <trkpt lat="45.16172" lon="5.59848">
        <ele>1266</ele>
        <time>2011-06-30T06:12:10Z</time>
      </trkpt>
      <trkpt lat="45.1617" lon="5.5984">
        <ele>1267</ele>
        <time>2011-06-30T06:12:13Z</time>
      </trkpt>
      <trkpt lat="45.16167" lon="5.59832">
        <ele>1270</ele>
        <time>2011-06-30T06:12:17Z</time>
      </trkpt>
      <trkpt lat="45.16167" lon="5.59825">
        <ele>1271</ele>
        <time>2011-06-30T06:12:20Z</time>
      </trkpt>
      <trkpt lat="45.16166" lon="5.59818">
        <ele>1271</ele>
        <time>2011-06-30T06:12:23Z</time>
      </trkpt>
      <trkpt lat="45.16168" lon="5.5981">
        <ele>1271</ele>
        <time>2011-06-30T06:12:27Z</time>
      </trkpt>
      <trkpt lat="45.16167" lon="5.59802">
        <ele>1272</ele>
        <time>2011-06-30T06:12:31Z</time>
      </trkpt>
      <trkpt lat="45.16167" lon="5.59795">
        <ele>1272</ele>
        <time>2011-06-30T06:12:34Z</time>
      </trkpt>
      <trkpt lat="45.16169" lon="5.59788">
        <ele>1275</ele>
        <time>2011-06-30T06:12:40Z</time>
      </trkpt>
      <trkpt lat="45.16172" lon="5.59782">
        <ele>1274</ele>
        <time>2011-06-30T06:12:43Z</time>
      </trkpt>
      <trkpt lat="45.16175" lon="5.59777">
        <ele>1275</ele>
        <time>2011-06-30T06:12:46Z</time>
      </trkpt>
      <trkpt lat="45.16181" lon="5.59774">
        <ele>1277</ele>
        <time>2011-06-30T06:12:50Z</time>
      </trkpt>
      <trkpt lat="45.16186" lon="5.59773">
        <ele>1277</ele>
        <time>2011-06-30T06:12:53Z</time>
      </trkpt>
      <trkpt lat="45.16191" lon="5.59773">
        <ele>1279</ele>
        <time>2011-06-30T06:12:57Z</time>
      </trkpt>
      <trkpt lat="45.16197" lon="5.59772">
        <ele>1279</ele>
        <time>2011-06-30T06:13:01Z</time>
      </trkpt>
      <trkpt lat="45.16203" lon="5.59772">
        <ele>1280</ele>
        <time>2011-06-30T06:13:05Z</time>
      </trkpt>
      <trkpt lat="45.16209" lon="5.59771">
        <ele>1283</ele>
        <time>2011-06-30T06:13:09Z</time>
      </trkpt>
      <trkpt lat="45.16214" lon="5.59769">
        <ele>1284</ele>
        <time>2011-06-30T06:13:12Z</time>
      </trkpt>
      <trkpt lat="45.16219" lon="5.59766">
        <ele>1283</ele>
        <time>2011-06-30T06:13:15Z</time>
      </trkpt>
      <trkpt lat="45.16224" lon="5.59763">
        <ele>1283</ele>
        <time>2011-06-30T06:13:18Z</time>
      </trkpt>
      <trkpt lat="45.16228" lon="5.59759">
        <ele>1283</ele>
        <time>2011-06-30T06:13:21Z</time>
      </trkpt>
      <trkpt lat="45.16233" lon="5.59756">
        <ele>1282</ele>
        <time>2011-06-30T06:13:24Z</time>
      </trkpt>
      <trkpt lat="45.16237" lon="5.59752">
        <ele>1283</ele>
        <time>2011-06-30T06:13:27Z</time>
      </trkpt>
      <trkpt lat="45.1624" lon="5.59746">
        <ele>1284</ele>
        <time>2011-06-30T06:13:30Z</time>
      </trkpt>
      <trkpt lat="45.16243" lon="5.5974">
        <ele>1284</ele>
        <time>2011-06-30T06:13:33Z</time>
      </trkpt>
      <trkpt lat="45.16248" lon="5.59736">
        <ele>1286</ele>
        <time>2011-06-30T06:13:36Z</time>
      </trkpt>
      <trkpt lat="45.16252" lon="5.5973">
        <ele>1287</ele>
        <time>2011-06-30T06:13:39Z</time>
      </trkpt>
      <trkpt lat="45.16256" lon="5.59726">
        <ele>1288</ele>
        <time>2011-06-30T06:13:42Z</time>
      </trkpt>
      <trkpt lat="45.1626" lon="5.59722">
        <ele>1287</ele>
        <time>2011-06-30T06:13:45Z</time>
      </trkpt>
      <trkpt lat="45.16264" lon="5.59718">
        <ele>1288</ele>
        <time>2011-06-30T06:13:48Z</time>
      </trkpt>
      <trkpt lat="45.16269" lon="5.59714">
        <ele>1288</ele>
        <time>2011-06-30T06:13:51Z</time>
      </trkpt>
      <trkpt lat="45.16273" lon="5.59711">
        <ele>1288</ele>
        <time>2011-06-30T06:13:54Z</time>
      </trkpt>
      <trkpt lat="45.16278" lon="5.5971">
        <ele>1290</ele>
        <time>2011-06-30T06:13:58Z</time>
      </trkpt>
      <trkpt lat="45.16284" lon="5.59709">
        <ele>1290</ele>
        <time>2011-06-30T06:14:01Z</time>
      </trkpt>
      <trkpt lat="45.1629" lon="5.59714">
        <ele>1289</ele>
        <time>2011-06-30T06:14:06Z</time>
      </trkpt>
      <trkpt lat="45.16293" lon="5.5972">
        <ele>1289</ele>
        <time>2011-06-30T06:14:09Z</time>
      </trkpt>
      <trkpt lat="45.16297" lon="5.59724">
        <ele>1289</ele>
        <time>2011-06-30T06:14:12Z</time>
      </trkpt>
      <trkpt lat="45.16302" lon="5.59728">
        <ele>1290</ele>
        <time>2011-06-30T06:14:15Z</time>
      </trkpt>
      <trkpt lat="45.16308" lon="5.5973">
        <ele>1290</ele>
        <time>2011-06-30T06:14:19Z</time>
      </trkpt>
      <trkpt lat="45.16312" lon="5.59733">
        <ele>1290</ele>
        <time>2011-06-30T06:14:22Z</time>
      </trkpt>
      <trkpt lat="45.16317" lon="5.59736">
        <ele>1292</ele>
        <time>2011-06-30T06:14:25Z</time>
      </trkpt>
      <trkpt lat="45.16322" lon="5.5974">
        <ele>1292</ele>
        <time>2011-06-30T06:14:29Z</time>
      </trkpt>
      <trkpt lat="45.16328" lon="5.59741">
        <ele>1293</ele>
        <time>2011-06-30T06:14:33Z</time>
      </trkpt>
      <trkpt lat="45.16334" lon="5.59742">
        <ele>1294</ele>
        <time>2011-06-30T06:14:36Z</time>
      </trkpt>
      <trkpt lat="45.16339" lon="5.59743">
        <ele>1295</ele>
        <time>2011-06-30T06:14:40Z</time>
      </trkpt>
      <trkpt lat="45.16344" lon="5.59741">
        <ele>1296</ele>
        <time>2011-06-30T06:14:44Z</time>
      </trkpt>
      <trkpt lat="45.1635" lon="5.59743">
        <ele>1297</ele>
        <time>2011-06-30T06:14:48Z</time>
      </trkpt>
      <trkpt lat="45.16355" lon="5.59744">
        <ele>1298</ele>
        <time>2011-06-30T06:14:52Z</time>
      </trkpt>
      <trkpt lat="45.16361" lon="5.59743">
        <ele>1301</ele>
        <time>2011-06-30T06:14:56Z</time>
      </trkpt>
      <trkpt lat="45.16366" lon="5.59744">
        <ele>1301</ele>
        <time>2011-06-30T06:14:59Z</time>
      </trkpt>
      <trkpt lat="45.16373" lon="5.59744">
        <ele>1303</ele>
        <time>2011-06-30T06:15:04Z</time>
      </trkpt>
      <trkpt lat="45.16378" lon="5.59742">
        <ele>1303</ele>
        <time>2011-06-30T06:15:07Z</time>
      </trkpt>
      <trkpt lat="45.16383" lon="5.59738">
        <ele>1304</ele>
        <time>2011-06-30T06:15:10Z</time>
      </trkpt>
      <trkpt lat="45.16386" lon="5.59732">
        <ele>1305</ele>
        <time>2011-06-30T06:15:13Z</time>
      </trkpt>
      <trkpt lat="45.16389" lon="5.59726">
        <ele>1305</ele>
        <time>2011-06-30T06:15:16Z</time>
      </trkpt>
      <trkpt lat="45.1639" lon="5.5972">
        <ele>1306</ele>
        <time>2011-06-30T06:15:19Z</time>
      </trkpt>
      <trkpt lat="45.16392" lon="5.59713">
        <ele>1306</ele>
        <time>2011-06-30T06:15:22Z</time>
      </trkpt>
      <trkpt lat="45.16392" lon="5.59706">
        <ele>1306</ele>
        <time>2011-06-30T06:15:25Z</time>
      </trkpt>
      <trkpt lat="45.16392" lon="5.59699">
        <ele>1307</ele>
        <time>2011-06-30T06:15:28Z</time>
      </trkpt>
      <trkpt lat="45.16393" lon="5.59691">
        <ele>1306</ele>
        <time>2011-06-30T06:15:30Z</time>
      </trkpt>
      <trkpt lat="45.16394" lon="5.59685">
        <ele>1305</ele>
        <time>2011-06-30T06:15:32Z</time>
      </trkpt>
      <trkpt lat="45.16397" lon="5.59677">
        <ele>1305</ele>
        <time>2011-06-30T06:15:34Z</time>
      </trkpt>
      <trkpt lat="45.164" lon="5.5967">
        <ele>1305</ele>
        <time>2011-06-30T06:15:36Z</time>
      </trkpt>
      <trkpt lat="45.16406" lon="5.59665">
        <ele>1305</ele>
        <time>2011-06-30T06:15:38Z</time>
      </trkpt>
      <trkpt lat="45.16414" lon="5.59668">
        <ele>1305</ele>
        <time>2011-06-30T06:15:40Z</time>
      </trkpt>
      <trkpt lat="45.16418" lon="5.59672">
        <ele>1306</ele>
        <time>2011-06-30T06:15:43Z</time>
      </trkpt>
      <trkpt lat="45.16418" lon="5.59679">
        <ele>1306</ele>
        <time>2011-06-30T06:15:46Z</time>
      </trkpt>
      <trkpt lat="45.16418" lon="5.5969">
        <ele>1307</ele>
        <time>2011-06-30T06:15:48Z</time>
      </trkpt>
      <trkpt lat="45.16418" lon="5.59698">
        <ele>1307</ele>
        <time>2011-06-30T06:15:50Z</time>
      </trkpt>
      <trkpt lat="45.16423" lon="5.59709">
        <ele>1306</ele>
        <time>2011-06-30T06:15:52Z</time>
      </trkpt>
      <trkpt lat="45.16427" lon="5.59718">
        <ele>1305</ele>
        <time>2011-06-30T06:15:54Z</time>
      </trkpt>
      <trkpt lat="45.16432" lon="5.59729">
        <ele>1305</ele>
        <time>2011-06-30T06:15:56Z</time>
      </trkpt>
      <trkpt lat="45.16436" lon="5.59739">
        <ele>1306</ele>
        <time>2011-06-30T06:15:58Z</time>
      </trkpt>
      <trkpt lat="45.16438" lon="5.59746">
        <ele>1306</ele>
        <time>2011-06-30T06:15:59Z</time>
      </trkpt>
      <trkpt lat="45.1644" lon="5.59753">
        <ele>1306</ele>
        <time>2011-06-30T06:16:00Z</time>
      </trkpt>
      <trkpt lat="45.16444" lon="5.59758">
        <ele>1308</ele>
        <time>2011-06-30T06:16:01Z</time>
      </trkpt>
      <trkpt lat="45.16447" lon="5.59764">
        <ele>1308</ele>
        <time>2011-06-30T06:16:02Z</time>
      </trkpt>
      <trkpt lat="45.16454" lon="5.59773">
        <ele>1307</ele>
        <time>2011-06-30T06:16:04Z</time>
      </trkpt>
      <trkpt lat="45.1646" lon="5.59782">
        <ele>1306</ele>
        <time>2011-06-30T06:16:06Z</time>
      </trkpt>
      <trkpt lat="45.16466" lon="5.59789">
        <ele>1307</ele>
        <time>2011-06-30T06:16:08Z</time>
      </trkpt>
      <trkpt lat="45.16469" lon="5.59793">
        <ele>1307</ele>
        <time>2011-06-30T06:16:09Z</time>
      </trkpt>
      <trkpt lat="45.16476" lon="5.598">
        <ele>1307</ele>
        <time>2011-06-30T06:16:11Z</time>
      </trkpt>
      <trkpt lat="45.16482" lon="5.59806">
        <ele>1307</ele>
        <time>2011-06-30T06:16:13Z</time>
      </trkpt>
      <trkpt lat="45.16489" lon="5.5981">
        <ele>1307</ele>
        <time>2011-06-30T06:16:15Z</time>
      </trkpt>
      <trkpt lat="45.16496" lon="5.59814">
        <ele>1307</ele>
        <time>2011-06-30T06:16:17Z</time>
      </trkpt>
      <trkpt lat="45.16503" lon="5.59818">
        <ele>1307</ele>
        <time>2011-06-30T06:16:19Z</time>
      </trkpt>
      <trkpt lat="45.1651" lon="5.59821">
        <ele>1307</ele>
        <time>2011-06-30T06:16:21Z</time>
      </trkpt>
      <trkpt lat="45.16514" lon="5.59823">
        <ele>1306</ele>
        <time>2011-06-30T06:16:22Z</time>
      </trkpt>
      <trkpt lat="45.16522" lon="5.59826">
        <ele>1306</ele>
        <time>2011-06-30T06:16:24Z</time>
      </trkpt>
      <trkpt lat="45.1653" lon="5.59831">
        <ele>1307</ele>
        <time>2011-06-30T06:16:26Z</time>
      </trkpt>
      <trkpt lat="45.16538" lon="5.59835">
        <ele>1307</ele>
        <time>2011-06-30T06:16:28Z</time>
      </trkpt>
      <trkpt lat="45.16543" lon="5.59838">
        <ele>1307</ele>
        <time>2011-06-30T06:16:30Z</time>
      </trkpt>
      <trkpt lat="45.16549" lon="5.59841">
        <ele>1308</ele>
        <time>2011-06-30T06:16:32Z</time>
      </trkpt>
      <trkpt lat="45.16554" lon="5.59844">
        <ele>1310</ele>
        <time>2011-06-30T06:16:34Z</time>
      </trkpt>
      <trkpt lat="45.16558" lon="5.59847">
        <ele>1312</ele>
        <time>2011-06-30T06:16:36Z</time>
      </trkpt>
      <trkpt lat="45.16563" lon="5.5985">
        <ele>1312</ele>
        <time>2011-06-30T06:16:38Z</time>
      </trkpt>
      <trkpt lat="45.16567" lon="5.59853">
        <ele>1313</ele>
        <time>2011-06-30T06:16:40Z</time>
      </trkpt>
      <trkpt lat="45.16573" lon="5.59853">
        <ele>1312</ele>
        <time>2011-06-30T06:16:42Z</time>
      </trkpt>
      <trkpt lat="45.16578" lon="5.59854">
        <ele>1312</ele>
        <time>2011-06-30T06:16:44Z</time>
      </trkpt>
      <trkpt lat="45.16585" lon="5.59853">
        <ele>1315</ele>
        <time>2011-06-30T06:16:47Z</time>
      </trkpt>
      <trkpt lat="45.1659" lon="5.59853">
        <ele>1315</ele>
        <time>2011-06-30T06:16:49Z</time>
      </trkpt>
      <trkpt lat="45.16597" lon="5.59853">
        <ele>1315</ele>
        <time>2011-06-30T06:16:52Z</time>
      </trkpt>
      <trkpt lat="45.16602" lon="5.59853">
        <ele>1315</ele>
        <time>2011-06-30T06:16:54Z</time>
      </trkpt>
      <trkpt lat="45.16607" lon="5.59852">
        <ele>1316</ele>
        <time>2011-06-30T06:16:56Z</time>
      </trkpt>
      <trkpt lat="45.16612" lon="5.59852">
        <ele>1316</ele>
        <time>2011-06-30T06:16:58Z</time>
      </trkpt>
      <trkpt lat="45.16617" lon="5.59851">
        <ele>1316</ele>
        <time>2011-06-30T06:17:00Z</time>
      </trkpt>
      <trkpt lat="45.16622" lon="5.5985">
        <ele>1316</ele>
        <time>2011-06-30T06:17:02Z</time>
      </trkpt>
      <trkpt lat="45.16628" lon="5.5985">
        <ele>1316</ele>
        <time>2011-06-30T06:17:04Z</time>
      </trkpt>
      <trkpt lat="45.16634" lon="5.59848">
        <ele>1314</ele>
        <time>2011-06-30T06:17:05Z</time>
      </trkpt>
      <trkpt lat="45.16639" lon="5.59847">
        <ele>1314</ele>
        <time>2011-06-30T06:17:06Z</time>
      </trkpt>
      <trkpt lat="45.16644" lon="5.59846">
        <ele>1314</ele>
        <time>2011-06-30T06:17:07Z</time>
      </trkpt>
      <trkpt lat="45.16649" lon="5.59844">
        <ele>1314</ele>
        <time>2011-06-30T06:17:08Z</time>
      </trkpt>
      <trkpt lat="45.16655" lon="5.59842">
        <ele>1314</ele>
        <time>2011-06-30T06:17:09Z</time>
      </trkpt>
      <trkpt lat="45.16662" lon="5.59841">
        <ele>1314</ele>
        <time>2011-06-30T06:17:10Z</time>
      </trkpt>
      <trkpt lat="45.16669" lon="5.59842">
        <ele>1314</ele>
        <time>2011-06-30T06:17:11Z</time>
      </trkpt>
      <trkpt lat="45.16676" lon="5.59844">
        <ele>1314</ele>
        <time>2011-06-30T06:17:12Z</time>
      </trkpt>
      <trkpt lat="45.16683" lon="5.59843">
        <ele>1313</ele>
        <time>2011-06-30T06:17:13Z</time>
      </trkpt>
      <trkpt lat="45.16689" lon="5.59847">
        <ele>1313</ele>
        <time>2011-06-30T06:17:14Z</time>
      </trkpt>
      <trkpt lat="45.16693" lon="5.59853">
        <ele>1312</ele>
        <time>2011-06-30T06:17:15Z</time>
      </trkpt>
      <trkpt lat="45.16696" lon="5.5986">
        <ele>1312</ele>
        <time>2011-06-30T06:17:16Z</time>
      </trkpt>
      <trkpt lat="45.16699" lon="5.59868">
        <ele>1312</ele>
        <time>2011-06-30T06:17:17Z</time>
      </trkpt>
      <trkpt lat="45.16704" lon="5.59873">
        <ele>1312</ele>
        <time>2011-06-30T06:17:18Z</time>
      </trkpt>
      <trkpt lat="45.16709" lon="5.59878">
        <ele>1312</ele>
        <time>2011-06-30T06:17:19Z</time>
      </trkpt>
      <trkpt lat="45.16715" lon="5.59885">
        <ele>1313</ele>
        <time>2011-06-30T06:17:20Z</time>
      </trkpt>
      <trkpt lat="45.1672" lon="5.5989">
        <ele>1313</ele>
        <time>2011-06-30T06:17:21Z</time>
      </trkpt>
      <trkpt lat="45.16725" lon="5.59896">
        <ele>1311</ele>
        <time>2011-06-30T06:17:22Z</time>
      </trkpt>
      <trkpt lat="45.16731" lon="5.59899">
        <ele>1310</ele>
        <time>2011-06-30T06:17:23Z</time>
      </trkpt>
      <trkpt lat="45.16738" lon="5.59902">
        <ele>1308</ele>
        <time>2011-06-30T06:17:24Z</time>
      </trkpt>
      <trkpt lat="45.16742" lon="5.59904">
        <ele>1307</ele>
        <time>2011-06-30T06:17:25Z</time>
      </trkpt>
      <trkpt lat="45.16746" lon="5.59906">
        <ele>1308</ele>
        <time>2011-06-30T06:17:26Z</time>
      </trkpt>
      <trkpt lat="45.16752" lon="5.59909">
        <ele>1307</ele>
        <time>2011-06-30T06:17:28Z</time>
      </trkpt>
      <trkpt lat="45.16756" lon="5.59914">
        <ele>1306</ele>
        <time>2011-06-30T06:17:31Z</time>
      </trkpt>
      <trkpt lat="45.16761" lon="5.59918">
        <ele>1305</ele>
        <time>2011-06-30T06:17:34Z</time>
      </trkpt>
      <trkpt lat="45.16767" lon="5.59927">
        <ele>1304</ele>
        <time>2011-06-30T06:17:36Z</time>
      </trkpt>
      <trkpt lat="45.16772" lon="5.5993">
        <ele>1304</ele>
        <time>2011-06-30T06:17:37Z</time>
      </trkpt>
      <trkpt lat="45.16776" lon="5.59934">
        <ele>1303</ele>
        <time>2011-06-30T06:17:38Z</time>
      </trkpt>
      <trkpt lat="45.16784" lon="5.59938">
        <ele>1303</ele>
        <time>2011-06-30T06:17:39Z</time>
      </trkpt>
      <trkpt lat="45.16793" lon="5.59943">
        <ele>1302</ele>
        <time>2011-06-30T06:17:40Z</time>
      </trkpt>
      <trkpt lat="45.16802" lon="5.59947">
        <ele>1301</ele>
        <time>2011-06-30T06:17:41Z</time>
      </trkpt>
      <trkpt lat="45.16812" lon="5.59949">
        <ele>1301</ele>
        <time>2011-06-30T06:17:42Z</time>
      </trkpt>
      <trkpt lat="45.1682" lon="5.5995">
        <ele>1300</ele>
        <time>2011-06-30T06:17:43Z</time>
      </trkpt>
      <trkpt lat="45.16828" lon="5.5995">
        <ele>1299</ele>
        <time>2011-06-30T06:17:44Z</time>
      </trkpt>
      <trkpt lat="45.16837" lon="5.59948">
        <ele>1299</ele>
        <time>2011-06-30T06:17:45Z</time>
      </trkpt>
      <trkpt lat="45.16846" lon="5.59946">
        <ele>1299</ele>
        <time>2011-06-30T06:17:46Z</time>
      </trkpt>
      <trkpt lat="45.16855" lon="5.59944">
        <ele>1299</ele>
        <time>2011-06-30T06:17:47Z</time>
      </trkpt>
      <trkpt lat="45.16865" lon="5.5994">
        <ele>1299</ele>
        <time>2011-06-30T06:17:48Z</time>
      </trkpt>
      <trkpt lat="45.16872" lon="5.59937">
        <ele>1299</ele>
        <time>2011-06-30T06:17:49Z</time>
      </trkpt>
      <trkpt lat="45.16877" lon="5.59935">
        <ele>1299</ele>
        <time>2011-06-30T06:17:50Z</time>
      </trkpt>
      <trkpt lat="45.16885" lon="5.59921">
        <ele>1298</ele>
        <time>2011-06-30T06:17:51Z</time>
      </trkpt>
      <trkpt lat="45.16889" lon="5.59918">
        <ele>1297</ele>
        <time>2011-06-30T06:17:52Z</time>
      </trkpt>
      <trkpt lat="45.16887" lon="5.5993">
        <ele>1297</ele>
        <time>2011-06-30T06:17:55Z</time>
      </trkpt>
      <trkpt lat="45.16882" lon="5.5994">
        <ele>1297</ele>
        <time>2011-06-30T06:17:57Z</time>
      </trkpt>
      <trkpt lat="45.16879" lon="5.59948">
        <ele>1297</ele>
        <time>2011-06-30T06:17:58Z</time>
      </trkpt>
      <trkpt lat="45.16875" lon="5.59952">
        <ele>1296</ele>
        <time>2011-06-30T06:17:59Z</time>
      </trkpt>
      <trkpt lat="45.16868" lon="5.59959">
        <ele>1295</ele>
        <time>2011-06-30T06:18:00Z</time>
      </trkpt>
      <trkpt lat="45.16863" lon="5.59967">
        <ele>1295</ele>
        <time>2011-06-30T06:18:01Z</time>
      </trkpt>
      <trkpt lat="45.16861" lon="5.59973">
        <ele>1294</ele>
        <time>2011-06-30T06:18:02Z</time>
      </trkpt>
      <trkpt lat="45.16859" lon="5.59987">
        <ele>1294</ele>
        <time>2011-06-30T06:18:04Z</time>
      </trkpt>
      <trkpt lat="45.16856" lon="5.59994">
        <ele>1294</ele>
        <time>2011-06-30T06:18:06Z</time>
      </trkpt>
      <trkpt lat="45.16852" lon="5.6">
        <ele>1294</ele>
        <time>2011-06-30T06:18:09Z</time>
      </trkpt>
      <trkpt lat="45.16851" lon="5.60007">
        <ele>1293</ele>
        <time>2011-06-30T06:18:11Z</time>
      </trkpt>
      <trkpt lat="45.16848" lon="5.60015">
        <ele>1293</ele>
        <time>2011-06-30T06:18:14Z</time>
      </trkpt>
      <trkpt lat="45.16847" lon="5.60023">
        <ele>1293</ele>
        <time>2011-06-30T06:18:17Z</time>
      </trkpt>
      <trkpt lat="45.16845" lon="5.60031">
        <ele>1292</ele>
        <time>2011-06-30T06:18:20Z</time>
      </trkpt>
      <trkpt lat="45.16843" lon="5.60037">
        <ele>1291</ele>
        <time>2011-06-30T06:18:23Z</time>
      </trkpt>
      <trkpt lat="45.16839" lon="5.60044">
        <ele>1290</ele>
        <time>2011-06-30T06:18:27Z</time>
      </trkpt>
      <trkpt lat="45.16835" lon="5.6005">
        <ele>1290</ele>
        <time>2011-06-30T06:18:30Z</time>
      </trkpt>
      <trkpt lat="45.16831" lon="5.60056">
        <ele>1289</ele>
        <time>2011-06-30T06:18:33Z</time>
      </trkpt>
      <trkpt lat="45.16828" lon="5.60063">
        <ele>1290</ele>
        <time>2011-06-30T06:18:36Z</time>
      </trkpt>
      <trkpt lat="45.16825" lon="5.6007">
        <ele>1289</ele>
        <time>2011-06-30T06:18:39Z</time>
      </trkpt>
      <trkpt lat="45.16821" lon="5.60076">
        <ele>1289</ele>
        <time>2011-06-30T06:18:42Z</time>
      </trkpt>
      <trkpt lat="45.16817" lon="5.60082">
        <ele>1288</ele>
        <time>2011-06-30T06:18:45Z</time>
      </trkpt>
      <trkpt lat="45.16813" lon="5.60088">
        <ele>1288</ele>
        <time>2011-06-30T06:18:48Z</time>
      </trkpt>
      <trkpt lat="45.16814" lon="5.60094">
        <ele>1287</ele>
        <time>2011-06-30T06:18:50Z</time>
      </trkpt>
      <trkpt lat="45.16816" lon="5.60102">
        <ele>1286</ele>
        <time>2011-06-30T06:18:53Z</time>
      </trkpt>
      <trkpt lat="45.1682" lon="5.60106">
        <ele>1286</ele>
        <time>2011-06-30T06:18:55Z</time>
      </trkpt>
      <trkpt lat="45.16825" lon="5.60111">
        <ele>1287</ele>
        <time>2011-06-30T06:18:58Z</time>
      </trkpt>
      <trkpt lat="45.16829" lon="5.60117">
        <ele>1287</ele>
        <time>2011-06-30T06:19:01Z</time>
      </trkpt>
      <trkpt lat="45.16835" lon="5.60127">
        <ele>1288</ele>
        <time>2011-06-30T06:19:04Z</time>
      </trkpt>
      <trkpt lat="45.1684" lon="5.60131">
        <ele>1289</ele>
        <time>2011-06-30T06:19:06Z</time>
      </trkpt>
      <trkpt lat="45.16846" lon="5.60136">
        <ele>1290</ele>
        <time>2011-06-30T06:19:09Z</time>
      </trkpt>
      <trkpt lat="45.16852" lon="5.60141">
        <ele>1291</ele>
        <time>2011-06-30T06:19:12Z</time>
      </trkpt>
      <trkpt lat="45.16858" lon="5.60146">
        <ele>1293</ele>
        <time>2011-06-30T06:19:15Z</time>
      </trkpt>
      <trkpt lat="45.16861" lon="5.6015">
        <ele>1294</ele>
        <time>2011-06-30T06:19:17Z</time>
      </trkpt>
      <trkpt lat="45.16866" lon="5.60152">
        <ele>1295</ele>
        <time>2011-06-30T06:19:19Z</time>
      </trkpt>
      <trkpt lat="45.16873" lon="5.60155">
        <ele>1296</ele>
        <time>2011-06-30T06:19:22Z</time>
      </trkpt>
      <trkpt lat="45.16878" lon="5.60154">
        <ele>1296</ele>
        <time>2011-06-30T06:19:24Z</time>
      </trkpt>
      <trkpt lat="45.16884" lon="5.60154">
        <ele>1297</ele>
        <time>2011-06-30T06:19:27Z</time>
      </trkpt>
      <trkpt lat="45.1689" lon="5.60152">
        <ele>1297</ele>
        <time>2011-06-30T06:19:30Z</time>
      </trkpt>
      <trkpt lat="45.16896" lon="5.60151">
        <ele>1298</ele>
        <time>2011-06-30T06:19:33Z</time>
      </trkpt>
      <trkpt lat="45.16902" lon="5.60152">
        <ele>1299</ele>
        <time>2011-06-30T06:19:36Z</time>
      </trkpt>
      <trkpt lat="45.16909" lon="5.60152">
        <ele>1301</ele>
        <time>2011-06-30T06:19:39Z</time>
      </trkpt>
      <trkpt lat="45.16914" lon="5.60152">
        <ele>1299</ele>
        <time>2011-06-30T06:19:42Z</time>
      </trkpt>
      <trkpt lat="45.16919" lon="5.60154">
        <ele>1299</ele>
        <time>2011-06-30T06:19:45Z</time>
      </trkpt>
      <trkpt lat="45.16925" lon="5.60155">
        <ele>1300</ele>
        <time>2011-06-30T06:19:48Z</time>
      </trkpt>
      <trkpt lat="45.16931" lon="5.60155">
        <ele>1301</ele>
        <time>2011-06-30T06:19:51Z</time>
      </trkpt>
      <trkpt lat="45.16936" lon="5.60156">
        <ele>1303</ele>
        <time>2011-06-30T06:19:54Z</time>
      </trkpt>
      <trkpt lat="45.16941" lon="5.60157">
        <ele>1303</ele>
        <time>2011-06-30T06:19:57Z</time>
      </trkpt>
      <trkpt lat="45.1695" lon="5.60163">
        <ele>1302</ele>
        <time>2011-06-30T06:20:36Z</time>
      </trkpt>
      <trkpt lat="45.16957" lon="5.60174">
        <ele>1301</ele>
        <time>2011-06-30T06:20:38Z</time>
      </trkpt>
      <trkpt lat="45.16969" lon="5.60187">
        <ele>1301</ele>
        <time>2011-06-30T06:20:40Z</time>
      </trkpt>
      <trkpt lat="45.16978" lon="5.60199">
        <ele>1300</ele>
        <time>2011-06-30T06:20:42Z</time>
      </trkpt>
      <trkpt lat="45.16984" lon="5.60208">
        <ele>1299</ele>
        <time>2011-06-30T06:20:44Z</time>
      </trkpt>
      <trkpt lat="45.1699" lon="5.6022">
        <ele>1298</ele>
        <time>2011-06-30T06:20:46Z</time>
      </trkpt>
      <trkpt lat="45.16992" lon="5.6023">
        <ele>1297</ele>
        <time>2011-06-30T06:20:48Z</time>
      </trkpt>
      <trkpt lat="45.16994" lon="5.60236">
        <ele>1295</ele>
        <time>2011-06-30T06:20:50Z</time>
      </trkpt>
      <trkpt lat="45.17" lon="5.60245">
        <ele>1296</ele>
        <time>2011-06-30T06:20:52Z</time>
      </trkpt>
      <trkpt lat="45.17002" lon="5.60257">
        <ele>1297</ele>
        <time>2011-06-30T06:20:54Z</time>
      </trkpt>
      <trkpt lat="45.17009" lon="5.60264">
        <ele>1296</ele>
        <time>2011-06-30T06:20:56Z</time>
      </trkpt>
      <trkpt lat="45.17011" lon="5.60269">
        <ele>1296</ele>
        <time>2011-06-30T06:20:58Z</time>
      </trkpt>
      <trkpt lat="45.17013" lon="5.60276">
        <ele>1296</ele>
        <time>2011-06-30T06:21:00Z</time>
      </trkpt>
      <trkpt lat="45.17016" lon="5.60286">
        <ele>1296</ele>
        <time>2011-06-30T06:21:02Z</time>
      </trkpt>
      <trkpt lat="45.1702" lon="5.60311">
        <ele>1294</ele>
        <time>2011-06-30T06:21:06Z</time>
      </trkpt>
      <trkpt lat="45.17016" lon="5.60323">
        <ele>1294</ele>
        <time>2011-06-30T06:21:07Z</time>
      </trkpt>
      <trkpt lat="45.17016" lon="5.60332">
        <ele>1294</ele>
        <time>2011-06-30T06:21:08Z</time>
      </trkpt>
      <trkpt lat="45.17018" lon="5.6034">
        <ele>1292</ele>
        <time>2011-06-30T06:21:09Z</time>
      </trkpt>
      <trkpt lat="45.17021" lon="5.60347">
        <ele>1291</ele>
        <time>2011-06-30T06:21:10Z</time>
      </trkpt>
      <trkpt lat="45.17024" lon="5.60354">
        <ele>1290</ele>
        <time>2011-06-30T06:21:11Z</time>
      </trkpt>
      <trkpt lat="45.17029" lon="5.60364">
        <ele>1286</ele>
        <time>2011-06-30T06:21:12Z</time>
      </trkpt>
      <trkpt lat="45.1703" lon="5.6037">
        <ele>1285</ele>
        <time>2011-06-30T06:21:13Z</time>
      </trkpt>
      <trkpt lat="45.17036" lon="5.60381">
        <ele>1284</ele>
        <time>2011-06-30T06:21:15Z</time>
      </trkpt>
      <trkpt lat="45.17038" lon="5.60387">
        <ele>1283</ele>
        <time>2011-06-30T06:21:16Z</time>
      </trkpt>
      <trkpt lat="45.17043" lon="5.60398">
        <ele>1283</ele>
        <time>2011-06-30T06:21:18Z</time>
      </trkpt>
      <trkpt lat="45.17046" lon="5.60402">
        <ele>1283</ele>
        <time>2011-06-30T06:21:19Z</time>
      </trkpt>
      <trkpt lat="45.17049" lon="5.60407">
        <ele>1283</ele>
        <time>2011-06-30T06:21:20Z</time>
      </trkpt>
      <trkpt lat="45.17053" lon="5.60412">
        <ele>1283</ele>
        <time>2011-06-30T06:21:21Z</time>
      </trkpt>
      <trkpt lat="45.17057" lon="5.60417">
        <ele>1282</ele>
        <time>2011-06-30T06:21:22Z</time>
      </trkpt>
      <trkpt lat="45.17061" lon="5.60422">
        <ele>1281</ele>
        <time>2011-06-30T06:21:23Z</time>
      </trkpt>
      <trkpt lat="45.17065" lon="5.60426">
        <ele>1282</ele>
        <time>2011-06-30T06:21:24Z</time>
      </trkpt>
      <trkpt lat="45.1707" lon="5.60432">
        <ele>1283</ele>
        <time>2011-06-30T06:21:26Z</time>
      </trkpt>
      <trkpt lat="45.17073" lon="5.60438">
        <ele>1282</ele>
        <time>2011-06-30T06:21:35Z</time>
      </trkpt>
      <trkpt lat="45.17073" lon="5.60438">
        <ele>1282</ele>
        <time>2011-06-30T06:21:35Z</time>
      </trkpt>
      <trkpt lat="45.17073" lon="5.60438">
        <ele>1283</ele>
        <time>2011-06-30T06:22:08Z</time>
      </trkpt>
      <trkpt lat="45.17084" lon="5.60457">
        <ele>1277</ele>
        <time>2011-06-30T06:22:12Z</time>
      </trkpt>
      <trkpt lat="45.17094" lon="5.60464">
        <ele>1276</ele>
        <time>2011-06-30T06:22:14Z</time>
      </trkpt>
      <trkpt lat="45.17108" lon="5.60468">
        <ele>1275</ele>
        <time>2011-06-30T06:22:16Z</time>
      </trkpt>
      <trkpt lat="45.17121" lon="5.60476">
        <ele>1274</ele>
        <time>2011-06-30T06:22:19Z</time>
      </trkpt>
      <trkpt lat="45.17134" lon="5.60482">
        <ele>1275</ele>
        <time>2011-06-30T06:22:22Z</time>
      </trkpt>
      <trkpt lat="45.17145" lon="5.60487">
        <ele>1275</ele>
        <time>2011-06-30T06:22:25Z</time>
      </trkpt>
      <trkpt lat="45.17157" lon="5.60491">
        <ele>1275</ele>
        <time>2011-06-30T06:22:28Z</time>
      </trkpt>
      <trkpt lat="45.17167" lon="5.60494">
        <ele>1274</ele>
        <time>2011-06-30T06:22:31Z</time>
      </trkpt>
      <trkpt lat="45.17191" lon="5.60488">
        <ele>1274</ele>
        <time>2011-06-30T06:22:36Z</time>
      </trkpt>
      <trkpt lat="45.17218" lon="5.60491">
        <ele>1268</ele>
        <time>2011-06-30T06:22:39Z</time>
      </trkpt>
      <trkpt lat="45.17231" lon="5.60484">
        <ele>1266</ele>
        <time>2011-06-30T06:22:42Z</time>
      </trkpt>
      <trkpt lat="45.17247" lon="5.60488">
        <ele>1264</ele>
        <time>2011-06-30T06:22:45Z</time>
      </trkpt>
      <trkpt lat="45.1726" lon="5.60491">
        <ele>1257</ele>
        <time>2011-06-30T06:22:48Z</time>
      </trkpt>
      <trkpt lat="45.17278" lon="5.60487">
        <ele>1255</ele>
        <time>2011-06-30T06:22:51Z</time>
      </trkpt>
      <trkpt lat="45.17295" lon="5.60486">
        <ele>1254</ele>
        <time>2011-06-30T06:22:54Z</time>
      </trkpt>
      <trkpt lat="45.17317" lon="5.60484">
        <ele>1250</ele>
        <time>2011-06-30T06:22:57Z</time>
      </trkpt>
      <trkpt lat="45.17334" lon="5.60484">
        <ele>1250</ele>
        <time>2011-06-30T06:23:00Z</time>
      </trkpt>
      <trkpt lat="45.17345" lon="5.60496">
        <ele>1246</ele>
        <time>2011-06-30T06:23:03Z</time>
      </trkpt>
      <trkpt lat="45.17368" lon="5.60509">
        <ele>1245</ele>
        <time>2011-06-30T06:23:07Z</time>
      </trkpt>
      <trkpt lat="45.17373" lon="5.60517">
        <ele>1241</ele>
        <time>2011-06-30T06:23:09Z</time>
      </trkpt>
      <trkpt lat="45.17376" lon="5.60528">
        <ele>1236</ele>
        <time>2011-06-30T06:23:12Z</time>
      </trkpt>
      <trkpt lat="45.17374" lon="5.60544">
        <ele>1236</ele>
        <time>2011-06-30T06:23:14Z</time>
      </trkpt>
      <trkpt lat="45.1738" lon="5.60552">
        <ele>1234</ele>
        <time>2011-06-30T06:23:16Z</time>
      </trkpt>
      <trkpt lat="45.17381" lon="5.60559">
        <ele>1231</ele>
        <time>2011-06-30T06:23:17Z</time>
      </trkpt>
      <trkpt lat="45.17382" lon="5.60566">
        <ele>1229</ele>
        <time>2011-06-30T06:23:18Z</time>
      </trkpt>
      <trkpt lat="45.17386" lon="5.60577">
        <ele>1227</ele>
        <time>2011-06-30T06:23:20Z</time>
      </trkpt>
      <trkpt lat="45.17387" lon="5.60584">
        <ele>1225</ele>
        <time>2011-06-30T06:23:21Z</time>
      </trkpt>
      <trkpt lat="45.17387" lon="5.60591">
        <ele>1223</ele>
        <time>2011-06-30T06:23:22Z</time>
      </trkpt>
      <trkpt lat="45.17389" lon="5.60599">
        <ele>1220</ele>
        <time>2011-06-30T06:23:24Z</time>
      </trkpt>
      <trkpt lat="45.17388" lon="5.60608">
        <ele>1218</ele>
        <time>2011-06-30T06:23:27Z</time>
      </trkpt>
      <trkpt lat="45.17387" lon="5.60616">
        <ele>1214</ele>
        <time>2011-06-30T06:23:30Z</time>
      </trkpt>
      <trkpt lat="45.17385" lon="5.60626">
        <ele>1211</ele>
        <time>2011-06-30T06:23:34Z</time>
      </trkpt>
      <trkpt lat="45.17383" lon="5.60632">
        <ele>1211</ele>
        <time>2011-06-30T06:23:37Z</time>
      </trkpt>
      <trkpt lat="45.17385" lon="5.60641">
        <ele>1208</ele>
        <time>2011-06-30T06:23:39Z</time>
      </trkpt>
      <trkpt lat="45.17387" lon="5.60649">
        <ele>1202</ele>
        <time>2011-06-30T06:23:42Z</time>
      </trkpt>
      <trkpt lat="45.17389" lon="5.60656">
        <ele>1199</ele>
        <time>2011-06-30T06:23:44Z</time>
      </trkpt>
      <trkpt lat="45.17392" lon="5.60661">
        <ele>1196</ele>
        <time>2011-06-30T06:23:46Z</time>
      </trkpt>
      <trkpt lat="45.17395" lon="5.60666">
        <ele>1194</ele>
        <time>2011-06-30T06:23:48Z</time>
      </trkpt>
      <trkpt lat="45.17397" lon="5.60673">
        <ele>1190</ele>
        <time>2011-06-30T06:23:51Z</time>
      </trkpt>
      <trkpt lat="45.17399" lon="5.60679">
        <ele>1188</ele>
        <time>2011-06-30T06:23:53Z</time>
      </trkpt>
      <trkpt lat="45.17401" lon="5.60687">
        <ele>1188</ele>
        <time>2011-06-30T06:23:56Z</time>
      </trkpt>
      <trkpt lat="45.17403" lon="5.60693">
        <ele>1186</ele>
        <time>2011-06-30T06:23:59Z</time>
      </trkpt>
      <trkpt lat="45.17405" lon="5.60701">
        <ele>1185</ele>
        <time>2011-06-30T06:24:03Z</time>
      </trkpt>
      <trkpt lat="45.17409" lon="5.60706">
        <ele>1184</ele>
        <time>2011-06-30T06:24:05Z</time>
      </trkpt>
      <trkpt lat="45.17412" lon="5.60714">
        <ele>1183</ele>
        <time>2011-06-30T06:24:08Z</time>
      </trkpt>
      <trkpt lat="45.17414" lon="5.60721">
        <ele>1182</ele>
        <time>2011-06-30T06:24:11Z</time>
      </trkpt>
      <trkpt lat="45.17416" lon="5.60728">
        <ele>1181</ele>
        <time>2011-06-30T06:24:13Z</time>
      </trkpt>
      <trkpt lat="45.17417" lon="5.60734">
        <ele>1180</ele>
        <time>2011-06-30T06:24:16Z</time>
      </trkpt>
      <trkpt lat="45.17418" lon="5.60742">
        <ele>1179</ele>
        <time>2011-06-30T06:24:18Z</time>
      </trkpt>
      <trkpt lat="45.17421" lon="5.60748">
        <ele>1180</ele>
        <time>2011-06-30T06:24:21Z</time>
      </trkpt>
      <trkpt lat="45.17423" lon="5.60755">
        <ele>1180</ele>
        <time>2011-06-30T06:24:23Z</time>
      </trkpt>
      <trkpt lat="45.17424" lon="5.60763">
        <ele>1178</ele>
        <time>2011-06-30T06:24:25Z</time>
      </trkpt>
      <trkpt lat="45.17426" lon="5.60773">
        <ele>1177</ele>
        <time>2011-06-30T06:24:28Z</time>
      </trkpt>
      <trkpt lat="45.17426" lon="5.6078">
        <ele>1177</ele>
        <time>2011-06-30T06:24:30Z</time>
      </trkpt>
      <trkpt lat="45.17428" lon="5.60786">
        <ele>1176</ele>
        <time>2011-06-30T06:24:32Z</time>
      </trkpt>
      <trkpt lat="45.17431" lon="5.60794">
        <ele>1174</ele>
        <time>2011-06-30T06:24:34Z</time>
      </trkpt>
      <trkpt lat="45.17435" lon="5.60797">
        <ele>1172</ele>
        <time>2011-06-30T06:24:35Z</time>
      </trkpt>
      <trkpt lat="45.17437" lon="5.60803">
        <ele>1171</ele>
        <time>2011-06-30T06:24:36Z</time>
      </trkpt>
      <trkpt lat="45.17439" lon="5.60816">
        <ele>1170</ele>
        <time>2011-06-30T06:24:38Z</time>
      </trkpt>
      <trkpt lat="45.17442" lon="5.60825">
        <ele>1170</ele>
        <time>2011-06-30T06:24:40Z</time>
      </trkpt>
      <trkpt lat="45.17444" lon="5.6083">
        <ele>1169</ele>
        <time>2011-06-30T06:24:42Z</time>
      </trkpt>
      <trkpt lat="45.17447" lon="5.60837">
        <ele>1166</ele>
        <time>2011-06-30T06:24:44Z</time>
      </trkpt>
      <trkpt lat="45.1745" lon="5.60846">
        <ele>1162</ele>
        <time>2011-06-30T06:24:47Z</time>
      </trkpt>
      <trkpt lat="45.17453" lon="5.60852">
        <ele>1161</ele>
        <time>2011-06-30T06:24:49Z</time>
      </trkpt>
      <trkpt lat="45.17455" lon="5.6086">
        <ele>1158</ele>
        <time>2011-06-30T06:24:52Z</time>
      </trkpt>
      <trkpt lat="45.17456" lon="5.60869">
        <ele>1155</ele>
        <time>2011-06-30T06:24:55Z</time>
      </trkpt>
      <trkpt lat="45.17456" lon="5.60878">
        <ele>1150</ele>
        <time>2011-06-30T06:24:58Z</time>
      </trkpt>
      <trkpt lat="45.1746" lon="5.60884">
        <ele>1149</ele>
        <time>2011-06-30T06:25:01Z</time>
      </trkpt>
      <trkpt lat="45.17463" lon="5.60889">
        <ele>1146</ele>
        <time>2011-06-30T06:25:03Z</time>
      </trkpt>
      <trkpt lat="45.17464" lon="5.60897">
        <ele>1144</ele>
        <time>2011-06-30T06:25:06Z</time>
      </trkpt>
      <trkpt lat="45.17465" lon="5.60904">
        <ele>1142</ele>
        <time>2011-06-30T06:25:09Z</time>
      </trkpt>
      <trkpt lat="45.17469" lon="5.60911">
        <ele>1141</ele>
        <time>2011-06-30T06:25:12Z</time>
      </trkpt>
      <trkpt lat="45.17469" lon="5.60918">
        <ele>1142</ele>
        <time>2011-06-30T06:25:14Z</time>
      </trkpt>
      <trkpt lat="45.17471" lon="5.60925">
        <ele>1141</ele>
        <time>2011-06-30T06:25:16Z</time>
      </trkpt>
      <trkpt lat="45.17473" lon="5.60931">
        <ele>1139</ele>
        <time>2011-06-30T06:25:17Z</time>
      </trkpt>
      <trkpt lat="45.17476" lon="5.60939">
        <ele>1136</ele>
        <time>2011-06-30T06:25:19Z</time>
      </trkpt>
      <trkpt lat="45.17479" lon="5.60945">
        <ele>1135</ele>
        <time>2011-06-30T06:25:21Z</time>
      </trkpt>
      <trkpt lat="45.17482" lon="5.6095">
        <ele>1133</ele>
        <time>2011-06-30T06:25:23Z</time>
      </trkpt>
      <trkpt lat="45.17483" lon="5.60958">
        <ele>1132</ele>
        <time>2011-06-30T06:25:25Z</time>
      </trkpt>
      <trkpt lat="45.17486" lon="5.60966">
        <ele>1130</ele>
        <time>2011-06-30T06:25:27Z</time>
      </trkpt>
      <trkpt lat="45.1749" lon="5.60973">
        <ele>1129</ele>
        <time>2011-06-30T06:25:29Z</time>
      </trkpt>
      <trkpt lat="45.17494" lon="5.60978">
        <ele>1129</ele>
        <time>2011-06-30T06:25:31Z</time>
      </trkpt>
      <trkpt lat="45.17499" lon="5.60989">
        <ele>1127</ele>
        <time>2011-06-30T06:25:33Z</time>
      </trkpt>
      <trkpt lat="45.17505" lon="5.60997">
        <ele>1126</ele>
        <time>2011-06-30T06:25:35Z</time>
      </trkpt>
      <trkpt lat="45.1751" lon="5.61007">
        <ele>1121</ele>
        <time>2011-06-30T06:25:37Z</time>
      </trkpt>
      <trkpt lat="45.17512" lon="5.61014">
        <ele>1118</ele>
        <time>2011-06-30T06:25:41Z</time>
      </trkpt>
      <trkpt lat="45.17512" lon="5.61024">
        <ele>1114</ele>
        <time>2011-06-30T06:25:47Z</time>
      </trkpt>
      <trkpt lat="45.17515" lon="5.61035">
        <ele>1111</ele>
        <time>2011-06-30T06:25:49Z</time>
      </trkpt>
      <trkpt lat="45.17519" lon="5.61044">
        <ele>1110</ele>
        <time>2011-06-30T06:25:51Z</time>
      </trkpt>
      <trkpt lat="45.17522" lon="5.61053">
        <ele>1109</ele>
        <time>2011-06-30T06:25:53Z</time>
      </trkpt>
      <trkpt lat="45.17523" lon="5.6106">
        <ele>1108</ele>
        <time>2011-06-30T06:25:55Z</time>
      </trkpt>
      <trkpt lat="45.17524" lon="5.61067">
        <ele>1108</ele>
        <time>2011-06-30T06:25:57Z</time>
      </trkpt>
      <trkpt lat="45.17524" lon="5.61075">
        <ele>1108</ele>
        <time>2011-06-30T06:25:59Z</time>
      </trkpt>
      <trkpt lat="45.17526" lon="5.61084">
        <ele>1107</ele>
        <time>2011-06-30T06:26:01Z</time>
      </trkpt>
      <trkpt lat="45.17531" lon="5.611">
        <ele>1100</ele>
        <time>2011-06-30T06:26:05Z</time>
      </trkpt>
      <trkpt lat="45.17532" lon="5.61109">
        <ele>1098</ele>
        <time>2011-06-30T06:26:07Z</time>
      </trkpt>
      <trkpt lat="45.17533" lon="5.61116">
        <ele>1097</ele>
        <time>2011-06-30T06:26:09Z</time>
      </trkpt>
      <trkpt lat="45.17534" lon="5.61126">
        <ele>1096</ele>
        <time>2011-06-30T06:26:11Z</time>
      </trkpt>
      <trkpt lat="45.17535" lon="5.61136">
        <ele>1094</ele>
        <time>2011-06-30T06:26:13Z</time>
      </trkpt>
      <trkpt lat="45.17534" lon="5.61142">
        <ele>1094</ele>
        <time>2011-06-30T06:26:14Z</time>
      </trkpt>
      <trkpt lat="45.17532" lon="5.61152">
        <ele>1093</ele>
        <time>2011-06-30T06:26:16Z</time>
      </trkpt>
      <trkpt lat="45.17529" lon="5.61159">
        <ele>1091</ele>
        <time>2011-06-30T06:26:18Z</time>
      </trkpt>
      <trkpt lat="45.17527" lon="5.61167">
        <ele>1090</ele>
        <time>2011-06-30T06:26:20Z</time>
      </trkpt>
      <trkpt lat="45.17524" lon="5.61176">
        <ele>1089</ele>
        <time>2011-06-30T06:26:22Z</time>
      </trkpt>
      <trkpt lat="45.17522" lon="5.61186">
        <ele>1087</ele>
        <time>2011-06-30T06:26:26Z</time>
      </trkpt>
      <trkpt lat="45.17521" lon="5.61193">
        <ele>1087</ele>
        <time>2011-06-30T06:26:28Z</time>
      </trkpt>
      <trkpt lat="45.17521" lon="5.61202">
        <ele>1085</ele>
        <time>2011-06-30T06:26:31Z</time>
      </trkpt>
      <trkpt lat="45.1752" lon="5.6121">
        <ele>1084</ele>
        <time>2011-06-30T06:26:33Z</time>
      </trkpt>
      <trkpt lat="45.17518" lon="5.61216">
        <ele>1084</ele>
        <time>2011-06-30T06:26:35Z</time>
      </trkpt>
      <trkpt lat="45.17518" lon="5.61224">
        <ele>1082</ele>
        <time>2011-06-30T06:26:39Z</time>
      </trkpt>
      <trkpt lat="45.17515" lon="5.6123">
        <ele>1081</ele>
        <time>2011-06-30T06:26:41Z</time>
      </trkpt>
      <trkpt lat="45.17515" lon="5.61238">
        <ele>1079</ele>
        <time>2011-06-30T06:26:44Z</time>
      </trkpt>
      <trkpt lat="45.17513" lon="5.61246">
        <ele>1078</ele>
        <time>2011-06-30T06:26:47Z</time>
      </trkpt>
      <trkpt lat="45.17513" lon="5.61253">
        <ele>1076</ele>
        <time>2011-06-30T06:26:50Z</time>
      </trkpt>
      <trkpt lat="45.17513" lon="5.6126">
        <ele>1074</ele>
        <time>2011-06-30T06:26:54Z</time>
      </trkpt>
      <trkpt lat="45.17509" lon="5.61268">
        <ele>1072</ele>
        <time>2011-06-30T06:26:57Z</time>
      </trkpt>
      <trkpt lat="45.17507" lon="5.61275">
        <ele>1071</ele>
        <time>2011-06-30T06:27:01Z</time>
      </trkpt>
      <trkpt lat="45.17509" lon="5.61282">
        <ele>1072</ele>
        <time>2011-06-30T06:27:03Z</time>
      </trkpt>
      <trkpt lat="45.17505" lon="5.61291">
        <ele>1072</ele>
        <time>2011-06-30T06:27:05Z</time>
      </trkpt>
      <trkpt lat="45.17504" lon="5.61298">
        <ele>1071</ele>
        <time>2011-06-30T06:27:07Z</time>
      </trkpt>
      <trkpt lat="45.17501" lon="5.61303">
        <ele>1070</ele>
        <time>2011-06-30T06:27:09Z</time>
      </trkpt>
      <trkpt lat="45.17498" lon="5.61309">
        <ele>1069</ele>
        <time>2011-06-30T06:27:11Z</time>
      </trkpt>
      <trkpt lat="45.17495" lon="5.61318">
        <ele>1068</ele>
        <time>2011-06-30T06:27:13Z</time>
      </trkpt>
      <trkpt lat="45.17496" lon="5.61325">
        <ele>1068</ele>
        <time>2011-06-30T06:27:15Z</time>
      </trkpt>
      <trkpt lat="45.17496" lon="5.61331">
        <ele>1066</ele>
        <time>2011-06-30T06:27:17Z</time>
      </trkpt>
      <trkpt lat="45.17496" lon="5.61338">
        <ele>1063</ele>
        <time>2011-06-30T06:27:19Z</time>
      </trkpt>
      <trkpt lat="45.17496" lon="5.61346">
        <ele>1060</ele>
        <time>2011-06-30T06:27:21Z</time>
      </trkpt>
      <trkpt lat="45.17502" lon="5.61343">
        <ele>1058</ele>
        <time>2011-06-30T06:27:50Z</time>
      </trkpt>
      <trkpt lat="45.17502" lon="5.61343">
        <ele>1058</ele>
        <time>2011-06-30T06:27:50Z</time>
      </trkpt>
      <trkpt lat="45.17502" lon="5.61343">
        <ele>1058</ele>
        <time>2011-06-30T06:27:51Z</time>
      </trkpt>
      <trkpt lat="45.17506" lon="5.61341">
        <ele>1057</ele>
        <time>2011-06-30T06:27:53Z</time>
      </trkpt>
      <trkpt lat="45.17512" lon="5.61334">
        <ele>1057</ele>
        <time>2011-06-30T06:27:55Z</time>
      </trkpt>
      <trkpt lat="45.17516" lon="5.61331">
        <ele>1056</ele>
        <time>2011-06-30T06:27:57Z</time>
      </trkpt>
      <trkpt lat="45.17521" lon="5.61322">
        <ele>1055</ele>
        <time>2011-06-30T06:27:59Z</time>
      </trkpt>
      <trkpt lat="45.17527" lon="5.61315">
        <ele>1055</ele>
        <time>2011-06-30T06:28:01Z</time>
      </trkpt>
      <trkpt lat="45.17534" lon="5.61308">
        <ele>1052</ele>
        <time>2011-06-30T06:28:03Z</time>
      </trkpt>
      <trkpt lat="45.17546" lon="5.61283">
        <ele>1048</ele>
        <time>2011-06-30T06:28:05Z</time>
      </trkpt>
      <trkpt lat="45.17553" lon="5.6127">
        <ele>1046</ele>
        <time>2011-06-30T06:28:06Z</time>
      </trkpt>
      <trkpt lat="45.17559" lon="5.61259">
        <ele>1044</ele>
        <time>2011-06-30T06:28:07Z</time>
      </trkpt>
      <trkpt lat="45.17565" lon="5.6125">
        <ele>1043</ele>
        <time>2011-06-30T06:28:08Z</time>
      </trkpt>
      <trkpt lat="45.1757" lon="5.61243">
        <ele>1042</ele>
        <time>2011-06-30T06:28:09Z</time>
      </trkpt>
      <trkpt lat="45.17572" lon="5.61238">
        <ele>1040</ele>
        <time>2011-06-30T06:28:10Z</time>
      </trkpt>
      <trkpt lat="45.17574" lon="5.61231">
        <ele>1039</ele>
        <time>2011-06-30T06:28:11Z</time>
      </trkpt>
      <trkpt lat="45.17576" lon="5.61225">
        <ele>1038</ele>
        <time>2011-06-30T06:28:12Z</time>
      </trkpt>
      <trkpt lat="45.17579" lon="5.61218">
        <ele>1037</ele>
        <time>2011-06-30T06:28:13Z</time>
      </trkpt>
      <trkpt lat="45.17579" lon="5.61211">
        <ele>1036</ele>
        <time>2011-06-30T06:28:14Z</time>
      </trkpt>
      <trkpt lat="45.1758" lon="5.61202">
        <ele>1034</ele>
        <time>2011-06-30T06:28:15Z</time>
      </trkpt>
      <trkpt lat="45.1758" lon="5.61195">
        <ele>1034</ele>
        <time>2011-06-30T06:28:16Z</time>
      </trkpt>
      <trkpt lat="45.1758" lon="5.61187">
        <ele>1033</ele>
        <time>2011-06-30T06:28:17Z</time>
      </trkpt>
      <trkpt lat="45.17581" lon="5.61179">
        <ele>1033</ele>
        <time>2011-06-30T06:28:18Z</time>
      </trkpt>
      <trkpt lat="45.17584" lon="5.6117">
        <ele>1032</ele>
        <time>2011-06-30T06:28:19Z</time>
      </trkpt>
      <trkpt lat="45.17587" lon="5.61159">
        <ele>1031</ele>
        <time>2011-06-30T06:28:20Z</time>
      </trkpt>
      <trkpt lat="45.1759" lon="5.6115">
        <ele>1030</ele>
        <time>2011-06-30T06:28:21Z</time>
      </trkpt>
      <trkpt lat="45.17592" lon="5.61141">
        <ele>1030</ele>
        <time>2011-06-30T06:28:22Z</time>
      </trkpt>
      <trkpt lat="45.17594" lon="5.61132">
        <ele>1030</ele>
        <time>2011-06-30T06:28:23Z</time>
      </trkpt>
      <trkpt lat="45.17596" lon="5.61122">
        <ele>1031</ele>
        <time>2011-06-30T06:28:24Z</time>
      </trkpt>
      <trkpt lat="45.17601" lon="5.61109">
        <ele>1030</ele>
        <time>2011-06-30T06:28:25Z</time>
      </trkpt>
      <trkpt lat="45.17605" lon="5.61096">
        <ele>1030</ele>
        <time>2011-06-30T06:28:26Z</time>
      </trkpt>
      <trkpt lat="45.17609" lon="5.61083">
        <ele>1029</ele>
        <time>2011-06-30T06:28:27Z</time>
      </trkpt>
      <trkpt lat="45.17614" lon="5.61074">
        <ele>1029</ele>
        <time>2011-06-30T06:28:28Z</time>
      </trkpt>
      <trkpt lat="45.17621" lon="5.61066">
        <ele>1028</ele>
        <time>2011-06-30T06:28:29Z</time>
      </trkpt>
      <trkpt lat="45.1762" lon="5.61057">
        <ele>1028</ele>
        <time>2011-06-30T06:28:30Z</time>
      </trkpt>
      <trkpt lat="45.17626" lon="5.6105">
        <ele>1027</ele>
        <time>2011-06-30T06:28:31Z</time>
      </trkpt>
      <trkpt lat="45.17631" lon="5.61046">
        <ele>1026</ele>
        <time>2011-06-30T06:28:32Z</time>
      </trkpt>
      <trkpt lat="45.17634" lon="5.6104">
        <ele>1026</ele>
        <time>2011-06-30T06:28:33Z</time>
      </trkpt>
      <trkpt lat="45.17639" lon="5.61036">
        <ele>1026</ele>
        <time>2011-06-30T06:28:34Z</time>
      </trkpt>
      <trkpt lat="45.17646" lon="5.61031">
        <ele>1025</ele>
        <time>2011-06-30T06:28:36Z</time>
      </trkpt>
      <trkpt lat="45.17648" lon="5.6104">
        <ele>1022</ele>
        <time>2011-06-30T06:28:37Z</time>
      </trkpt>
      <trkpt lat="45.17652" lon="5.61037">
        <ele>1021</ele>
        <time>2011-06-30T06:28:38Z</time>
      </trkpt>
      <trkpt lat="45.17653" lon="5.61046">
        <ele>1019</ele>
        <time>2011-06-30T06:28:40Z</time>
      </trkpt>
      <trkpt lat="45.17652" lon="5.61058">
        <ele>1017</ele>
        <time>2011-06-30T06:28:42Z</time>
      </trkpt>
      <trkpt lat="45.17653" lon="5.61066">
        <ele>1017</ele>
        <time>2011-06-30T06:28:43Z</time>
      </trkpt>
      <trkpt lat="45.17656" lon="5.61076">
        <ele>1012</ele>
        <time>2011-06-30T06:28:45Z</time>
      </trkpt>
      <trkpt lat="45.17657" lon="5.61083">
        <ele>1011</ele>
        <time>2011-06-30T06:28:46Z</time>
      </trkpt>
      <trkpt lat="45.17658" lon="5.61091">
        <ele>1010</ele>
        <time>2011-06-30T06:28:47Z</time>
      </trkpt>
      <trkpt lat="45.17658" lon="5.61099">
        <ele>1010</ele>
        <time>2011-06-30T06:28:48Z</time>
      </trkpt>
      <trkpt lat="45.1766" lon="5.61107">
        <ele>1010</ele>
        <time>2011-06-30T06:28:49Z</time>
      </trkpt>
      <trkpt lat="45.17661" lon="5.61116">
        <ele>1010</ele>
        <time>2011-06-30T06:28:50Z</time>
      </trkpt>
      <trkpt lat="45.17664" lon="5.61124">
        <ele>1008</ele>
        <time>2011-06-30T06:28:51Z</time>
      </trkpt>
      <trkpt lat="45.17666" lon="5.61133">
        <ele>1007</ele>
        <time>2011-06-30T06:28:52Z</time>
      </trkpt>
      <trkpt lat="45.17668" lon="5.61142">
        <ele>1007</ele>
        <time>2011-06-30T06:28:53Z</time>
      </trkpt>
      <trkpt lat="45.17669" lon="5.61151">
        <ele>1007</ele>
        <time>2011-06-30T06:28:54Z</time>
      </trkpt>
      <trkpt lat="45.1767" lon="5.61161">
        <ele>1007</ele>
        <time>2011-06-30T06:28:55Z</time>
      </trkpt>
      <trkpt lat="45.17672" lon="5.61173">
        <ele>1007</ele>
        <time>2011-06-30T06:28:56Z</time>
      </trkpt>
      <trkpt lat="45.17674" lon="5.61185">
        <ele>1006</ele>
        <time>2011-06-30T06:28:57Z</time>
      </trkpt>
      <trkpt lat="45.17676" lon="5.61196">
        <ele>1006</ele>
        <time>2011-06-30T06:28:58Z</time>
      </trkpt>
      <trkpt lat="45.17679" lon="5.61207">
        <ele>1005</ele>
        <time>2011-06-30T06:28:59Z</time>
      </trkpt>
      <trkpt lat="45.1768" lon="5.61218">
        <ele>1005</ele>
        <time>2011-06-30T06:29:00Z</time>
      </trkpt>
      <trkpt lat="45.1768" lon="5.61229">
        <ele>1005</ele>
        <time>2011-06-30T06:29:01Z</time>
      </trkpt>
      <trkpt lat="45.1768" lon="5.61239">
        <ele>1004</ele>
        <time>2011-06-30T06:29:02Z</time>
      </trkpt>
      <trkpt lat="45.1769" lon="5.61272">
        <ele>1003</ele>
        <time>2011-06-30T06:29:05Z</time>
      </trkpt>
      <trkpt lat="45.17694" lon="5.61284">
        <ele>1002</ele>
        <time>2011-06-30T06:29:06Z</time>
      </trkpt>
      <trkpt lat="45.17697" lon="5.61295">
        <ele>1000</ele>
        <time>2011-06-30T06:29:07Z</time>
      </trkpt>
      <trkpt lat="45.177" lon="5.61304">
        <ele>1000</ele>
        <time>2011-06-30T06:29:08Z</time>
      </trkpt>
      <trkpt lat="45.17705" lon="5.61316">
        <ele>1000</ele>
        <time>2011-06-30T06:29:09Z</time>
      </trkpt>
      <trkpt lat="45.17706" lon="5.61326">
        <ele>999</ele>
        <time>2011-06-30T06:29:10Z</time>
      </trkpt>
      <trkpt lat="45.17708" lon="5.61336">
        <ele>999</ele>
        <time>2011-06-30T06:29:11Z</time>
      </trkpt>
      <trkpt lat="45.1771" lon="5.61346">
        <ele>999</ele>
        <time>2011-06-30T06:29:12Z</time>
      </trkpt>
      <trkpt lat="45.17712" lon="5.61355">
        <ele>999</ele>
        <time>2011-06-30T06:29:13Z</time>
      </trkpt>
      <trkpt lat="45.17714" lon="5.61365">
        <ele>998</ele>
        <time>2011-06-30T06:29:14Z</time>
      </trkpt>
      <trkpt lat="45.17716" lon="5.61374">
        <ele>997</ele>
        <time>2011-06-30T06:29:15Z</time>
      </trkpt>
      <trkpt lat="45.17718" lon="5.61383">
        <ele>996</ele>
        <time>2011-06-30T06:29:16Z</time>
      </trkpt>
      <trkpt lat="45.17719" lon="5.61393">
        <ele>995</ele>
        <time>2011-06-30T06:29:17Z</time>
      </trkpt>
      <trkpt lat="45.1772" lon="5.61403">
        <ele>994</ele>
        <time>2011-06-30T06:29:18Z</time>
      </trkpt>
      <trkpt lat="45.17721" lon="5.61413">
        <ele>993</ele>
        <time>2011-06-30T06:29:19Z</time>
      </trkpt>
      <trkpt lat="45.17722" lon="5.61423">
        <ele>993</ele>
        <time>2011-06-30T06:29:20Z</time>
      </trkpt>
      <trkpt lat="45.17724" lon="5.61433">
        <ele>992</ele>
        <time>2011-06-30T06:29:21Z</time>
      </trkpt>
      <trkpt lat="45.17724" lon="5.61444">
        <ele>991</ele>
        <time>2011-06-30T06:29:22Z</time>
      </trkpt>
      <trkpt lat="45.17726" lon="5.61453">
        <ele>990</ele>
        <time>2011-06-30T06:29:23Z</time>
      </trkpt>
      <trkpt lat="45.17727" lon="5.61462">
        <ele>990</ele>
        <time>2011-06-30T06:29:24Z</time>
      </trkpt>
      <trkpt lat="45.1773" lon="5.61471">
        <ele>990</ele>
        <time>2011-06-30T06:29:25Z</time>
      </trkpt>
      <trkpt lat="45.17734" lon="5.61478">
        <ele>990</ele>
        <time>2011-06-30T06:29:26Z</time>
      </trkpt>
      <trkpt lat="45.17738" lon="5.61482">
        <ele>991</ele>
        <time>2011-06-30T06:29:27Z</time>
      </trkpt>
      <trkpt lat="45.17742" lon="5.61486">
        <ele>991</ele>
        <time>2011-06-30T06:29:28Z</time>
      </trkpt>
      <trkpt lat="45.17749" lon="5.61493">
        <ele>992</ele>
        <time>2011-06-30T06:29:30Z</time>
      </trkpt>
      <trkpt lat="45.17755" lon="5.615">
        <ele>992</ele>
        <time>2011-06-30T06:29:32Z</time>
      </trkpt>
      <trkpt lat="45.1776" lon="5.61507">
        <ele>993</ele>
        <time>2011-06-30T06:29:34Z</time>
      </trkpt>
      <trkpt lat="45.17764" lon="5.61513">
        <ele>993</ele>
        <time>2011-06-30T06:29:36Z</time>
      </trkpt>
      <trkpt lat="45.17769" lon="5.61517">
        <ele>993</ele>
        <time>2011-06-30T06:29:38Z</time>
      </trkpt>
      <trkpt lat="45.17773" lon="5.61523">
        <ele>993</ele>
        <time>2011-06-30T06:29:40Z</time>
      </trkpt>
      <trkpt lat="45.17776" lon="5.6153">
        <ele>995</ele>
        <time>2011-06-30T06:29:42Z</time>
      </trkpt>
      <trkpt lat="45.1778" lon="5.61534">
        <ele>995</ele>
        <time>2011-06-30T06:29:44Z</time>
      </trkpt>
      <trkpt lat="45.17786" lon="5.61539">
        <ele>995</ele>
        <time>2011-06-30T06:29:46Z</time>
      </trkpt>
      <trkpt lat="45.17794" lon="5.61544">
        <ele>994</ele>
        <time>2011-06-30T06:29:48Z</time>
      </trkpt>
      <trkpt lat="45.178" lon="5.61552">
        <ele>993</ele>
        <time>2011-06-30T06:29:50Z</time>
      </trkpt>
      <trkpt lat="45.17804" lon="5.61556">
        <ele>992</ele>
        <time>2011-06-30T06:29:51Z</time>
      </trkpt>
      <trkpt lat="45.17808" lon="5.61559">
        <ele>992</ele>
        <time>2011-06-30T06:29:52Z</time>
      </trkpt>
      <trkpt lat="45.17814" lon="5.61562">
        <ele>992</ele>
        <time>2011-06-30T06:29:53Z</time>
      </trkpt>
      <trkpt lat="45.17818" lon="5.61565">
        <ele>992</ele>
        <time>2011-06-30T06:29:54Z</time>
      </trkpt>
      <trkpt lat="45.17823" lon="5.61566">
        <ele>992</ele>
        <time>2011-06-30T06:29:55Z</time>
      </trkpt>
      <trkpt lat="45.17828" lon="5.61568">
        <ele>992</ele>
        <time>2011-06-30T06:29:56Z</time>
      </trkpt>
      <trkpt lat="45.17832" lon="5.6157">
        <ele>992</ele>
        <time>2011-06-30T06:29:57Z</time>
      </trkpt>
      <trkpt lat="45.17838" lon="5.61572">
        <ele>992</ele>
        <time>2011-06-30T06:29:58Z</time>
      </trkpt>
      <trkpt lat="45.17843" lon="5.61574">
        <ele>992</ele>
        <time>2011-06-30T06:29:59Z</time>
      </trkpt>
      <trkpt lat="45.1785" lon="5.61574">
        <ele>993</ele>
        <time>2011-06-30T06:30:00Z</time>
      </trkpt>
      <trkpt lat="45.17855" lon="5.61575">
        <ele>993</ele>
        <time>2011-06-30T06:30:01Z</time>
      </trkpt>
      <trkpt lat="45.17861" lon="5.61578">
        <ele>993</ele>
        <time>2011-06-30T06:30:02Z</time>
      </trkpt>
      <trkpt lat="45.17879" lon="5.6159">
        <ele>993</ele>
        <time>2011-06-30T06:30:05Z</time>
      </trkpt>
      <trkpt lat="45.17885" lon="5.61595">
        <ele>993</ele>
        <time>2011-06-30T06:30:06Z</time>
      </trkpt>
      <trkpt lat="45.1789" lon="5.61598">
        <ele>992</ele>
        <time>2011-06-30T06:30:07Z</time>
      </trkpt>
      <trkpt lat="45.17896" lon="5.61602">
        <ele>992</ele>
        <time>2011-06-30T06:30:08Z</time>
      </trkpt>
      <trkpt lat="45.17902" lon="5.61606">
        <ele>993</ele>
        <time>2011-06-30T06:30:09Z</time>
      </trkpt>
      <trkpt lat="45.17908" lon="5.6161">
        <ele>993</ele>
        <time>2011-06-30T06:30:10Z</time>
      </trkpt>
      <trkpt lat="45.17914" lon="5.61613">
        <ele>993</ele>
        <time>2011-06-30T06:30:11Z</time>
      </trkpt>
      <trkpt lat="45.1792" lon="5.61615">
        <ele>993</ele>
        <time>2011-06-30T06:30:12Z</time>
      </trkpt>
      <trkpt lat="45.17927" lon="5.61616">
        <ele>993</ele>
        <time>2011-06-30T06:30:13Z</time>
      </trkpt>
      <trkpt lat="45.17933" lon="5.61618">
        <ele>993</ele>
        <time>2011-06-30T06:30:14Z</time>
      </trkpt>
      <trkpt lat="45.17939" lon="5.61619">
        <ele>993</ele>
        <time>2011-06-30T06:30:15Z</time>
      </trkpt>
      <trkpt lat="45.17945" lon="5.61621">
        <ele>993</ele>
        <time>2011-06-30T06:30:16Z</time>
      </trkpt>
      <trkpt lat="45.17951" lon="5.61623">
        <ele>993</ele>
        <time>2011-06-30T06:30:17Z</time>
      </trkpt>
      <trkpt lat="45.17958" lon="5.61625">
        <ele>993</ele>
        <time>2011-06-30T06:30:18Z</time>
      </trkpt>
      <trkpt lat="45.17963" lon="5.61628">
        <ele>993</ele>
        <time>2011-06-30T06:30:19Z</time>
      </trkpt>
      <trkpt lat="45.1797" lon="5.61631">
        <ele>993</ele>
        <time>2011-06-30T06:30:20Z</time>
      </trkpt>
      <trkpt lat="45.17977" lon="5.61636">
        <ele>992</ele>
        <time>2011-06-30T06:30:21Z</time>
      </trkpt>
      <trkpt lat="45.17985" lon="5.6164">
        <ele>992</ele>
        <time>2011-06-30T06:30:22Z</time>
      </trkpt>
      <trkpt lat="45.17992" lon="5.61644">
        <ele>992</ele>
        <time>2011-06-30T06:30:23Z</time>
      </trkpt>
      <trkpt lat="45.17999" lon="5.61648">
        <ele>992</ele>
        <time>2011-06-30T06:30:24Z</time>
      </trkpt>
      <trkpt lat="45.18008" lon="5.6165">
        <ele>991</ele>
        <time>2011-06-30T06:30:25Z</time>
      </trkpt>
      <trkpt lat="45.18017" lon="5.61653">
        <ele>989</ele>
        <time>2011-06-30T06:30:26Z</time>
      </trkpt>
      <trkpt lat="45.18025" lon="5.61657">
        <ele>988</ele>
        <time>2011-06-30T06:30:27Z</time>
      </trkpt>
      <trkpt lat="45.18034" lon="5.61659">
        <ele>987</ele>
        <time>2011-06-30T06:30:28Z</time>
      </trkpt>
      <trkpt lat="45.18043" lon="5.61662">
        <ele>986</ele>
        <time>2011-06-30T06:30:29Z</time>
      </trkpt>
      <trkpt lat="45.18052" lon="5.61664">
        <ele>986</ele>
        <time>2011-06-30T06:30:30Z</time>
      </trkpt>
      <trkpt lat="45.1806" lon="5.61669">
        <ele>985</ele>
        <time>2011-06-30T06:30:31Z</time>
      </trkpt>
      <trkpt lat="45.18068" lon="5.61673">
        <ele>985</ele>
        <time>2011-06-30T06:30:32Z</time>
      </trkpt>
      <trkpt lat="45.18076" lon="5.61675">
        <ele>985</ele>
        <time>2011-06-30T06:30:33Z</time>
      </trkpt>
      <trkpt lat="45.18084" lon="5.61677">
        <ele>984</ele>
        <time>2011-06-30T06:30:34Z</time>
      </trkpt>
      <trkpt lat="45.18092" lon="5.61679">
        <ele>984</ele>
        <time>2011-06-30T06:30:35Z</time>
      </trkpt>
      <trkpt lat="45.181" lon="5.61682">
        <ele>984</ele>
        <time>2011-06-30T06:30:36Z</time>
      </trkpt>
      <trkpt lat="45.18107" lon="5.61685">
        <ele>983</ele>
        <time>2011-06-30T06:30:37Z</time>
      </trkpt>
      <trkpt lat="45.18113" lon="5.61687">
        <ele>983</ele>
        <time>2011-06-30T06:30:38Z</time>
      </trkpt>
      <trkpt lat="45.1812" lon="5.61688">
        <ele>983</ele>
        <time>2011-06-30T06:30:39Z</time>
      </trkpt>
      <trkpt lat="45.18127" lon="5.61691">
        <ele>983</ele>
        <time>2011-06-30T06:30:40Z</time>
      </trkpt>
      <trkpt lat="45.18134" lon="5.61692">
        <ele>983</ele>
        <time>2011-06-30T06:30:41Z</time>
      </trkpt>
      <trkpt lat="45.1814" lon="5.61695">
        <ele>983</ele>
        <time>2011-06-30T06:30:42Z</time>
      </trkpt>
      <trkpt lat="45.18147" lon="5.61698">
        <ele>983</ele>
        <time>2011-06-30T06:30:43Z</time>
      </trkpt>
      <trkpt lat="45.18153" lon="5.617">
        <ele>982</ele>
        <time>2011-06-30T06:30:44Z</time>
      </trkpt>
      <trkpt lat="45.1816" lon="5.61701">
        <ele>982</ele>
        <time>2011-06-30T06:30:45Z</time>
      </trkpt>
      <trkpt lat="45.18167" lon="5.61702">
        <ele>982</ele>
        <time>2011-06-30T06:30:46Z</time>
      </trkpt>
      <trkpt lat="45.18174" lon="5.61702">
        <ele>982</ele>
        <time>2011-06-30T06:30:47Z</time>
      </trkpt>
      <trkpt lat="45.1818" lon="5.61703">
        <ele>982</ele>
        <time>2011-06-30T06:30:48Z</time>
      </trkpt>
      <trkpt lat="45.18187" lon="5.61703">
        <ele>981</ele>
        <time>2011-06-30T06:30:49Z</time>
      </trkpt>
      <trkpt lat="45.18194" lon="5.61703">
        <ele>980</ele>
        <time>2011-06-30T06:30:50Z</time>
      </trkpt>
      <trkpt lat="45.182" lon="5.61704">
        <ele>979</ele>
        <time>2011-06-30T06:30:51Z</time>
      </trkpt>
      <trkpt lat="45.18207" lon="5.61706">
        <ele>979</ele>
        <time>2011-06-30T06:30:52Z</time>
      </trkpt>
      <trkpt lat="45.18214" lon="5.61709">
        <ele>979</ele>
        <time>2011-06-30T06:30:53Z</time>
      </trkpt>
      <trkpt lat="45.18221" lon="5.61714">
        <ele>978</ele>
        <time>2011-06-30T06:30:54Z</time>
      </trkpt>
      <trkpt lat="45.18228" lon="5.6172">
        <ele>978</ele>
        <time>2011-06-30T06:30:55Z</time>
      </trkpt>
      <trkpt lat="45.18235" lon="5.61728">
        <ele>977</ele>
        <time>2011-06-30T06:30:56Z</time>
      </trkpt>
      <trkpt lat="45.18242" lon="5.61734">
        <ele>977</ele>
        <time>2011-06-30T06:30:57Z</time>
      </trkpt>
      <trkpt lat="45.18248" lon="5.61744">
        <ele>976</ele>
        <time>2011-06-30T06:30:58Z</time>
      </trkpt>
      <trkpt lat="45.18255" lon="5.61754">
        <ele>976</ele>
        <time>2011-06-30T06:30:59Z</time>
      </trkpt>
      <trkpt lat="45.18263" lon="5.61762">
        <ele>976</ele>
        <time>2011-06-30T06:31:00Z</time>
      </trkpt>
      <trkpt lat="45.18271" lon="5.61769">
        <ele>975</ele>
        <time>2011-06-30T06:31:01Z</time>
      </trkpt>
      <trkpt lat="45.18278" lon="5.61775">
        <ele>974</ele>
        <time>2011-06-30T06:31:02Z</time>
      </trkpt>
      <trkpt lat="45.18283" lon="5.61778">
        <ele>974</ele>
        <time>2011-06-30T06:31:03Z</time>
      </trkpt>
      <trkpt lat="45.18289" lon="5.6179">
        <ele>973</ele>
        <time>2011-06-30T06:31:05Z</time>
      </trkpt>
      <trkpt lat="45.18292" lon="5.61797">
        <ele>973</ele>
        <time>2011-06-30T06:31:06Z</time>
      </trkpt>
      <trkpt lat="45.18295" lon="5.61803">
        <ele>974</ele>
        <time>2011-06-30T06:31:07Z</time>
      </trkpt>
      <trkpt lat="45.18299" lon="5.61806">
        <ele>974</ele>
        <time>2011-06-30T06:31:08Z</time>
      </trkpt>
      <trkpt lat="45.18308" lon="5.61812">
        <ele>973</ele>
        <time>2011-06-30T06:31:10Z</time>
      </trkpt>
      <trkpt lat="45.18312" lon="5.61814">
        <ele>973</ele>
        <time>2011-06-30T06:31:11Z</time>
      </trkpt>
      <trkpt lat="45.18319" lon="5.61816">
        <ele>972</ele>
        <time>2011-06-30T06:31:13Z</time>
      </trkpt>
      <trkpt lat="45.18324" lon="5.61818">
        <ele>973</ele>
        <time>2011-06-30T06:31:14Z</time>
      </trkpt>
      <trkpt lat="45.18332" lon="5.61822">
        <ele>973</ele>
        <time>2011-06-30T06:31:16Z</time>
      </trkpt>
      <trkpt lat="45.1834" lon="5.61826">
        <ele>973</ele>
        <time>2011-06-30T06:31:18Z</time>
      </trkpt>
      <trkpt lat="45.18345" lon="5.61828">
        <ele>974</ele>
        <time>2011-06-30T06:31:19Z</time>
      </trkpt>
      <trkpt lat="45.18349" lon="5.6183">
        <ele>974</ele>
        <time>2011-06-30T06:31:20Z</time>
      </trkpt>
      <trkpt lat="45.18357" lon="5.61835">
        <ele>973</ele>
        <time>2011-06-30T06:31:22Z</time>
      </trkpt>
      <trkpt lat="45.18361" lon="5.61838">
        <ele>973</ele>
        <time>2011-06-30T06:31:23Z</time>
      </trkpt>
      <trkpt lat="45.18366" lon="5.61841">
        <ele>973</ele>
        <time>2011-06-30T06:31:24Z</time>
      </trkpt>
      <trkpt lat="45.1837" lon="5.61845">
        <ele>972</ele>
        <time>2011-06-30T06:31:25Z</time>
      </trkpt>
      <trkpt lat="45.18376" lon="5.61848">
        <ele>972</ele>
        <time>2011-06-30T06:31:26Z</time>
      </trkpt>
      <trkpt lat="45.18381" lon="5.61851">
        <ele>972</ele>
        <time>2011-06-30T06:31:27Z</time>
      </trkpt>
      <trkpt lat="45.18386" lon="5.61855">
        <ele>972</ele>
        <time>2011-06-30T06:31:28Z</time>
      </trkpt>
      <trkpt lat="45.18391" lon="5.61857">
        <ele>972</ele>
        <time>2011-06-30T06:31:29Z</time>
      </trkpt>
      <trkpt lat="45.18396" lon="5.61861">
        <ele>972</ele>
        <time>2011-06-30T06:31:30Z</time>
      </trkpt>
      <trkpt lat="45.18402" lon="5.61865">
        <ele>972</ele>
        <time>2011-06-30T06:31:31Z</time>
      </trkpt>
      <trkpt lat="45.18407" lon="5.61869">
        <ele>972</ele>
        <time>2011-06-30T06:31:32Z</time>
      </trkpt>
      <trkpt lat="45.18412" lon="5.61872">
        <ele>972</ele>
        <time>2011-06-30T06:31:33Z</time>
      </trkpt>
      <trkpt lat="45.18418" lon="5.61876">
        <ele>972</ele>
        <time>2011-06-30T06:31:34Z</time>
      </trkpt>
      <trkpt lat="45.18425" lon="5.61878">
        <ele>971</ele>
        <time>2011-06-30T06:31:35Z</time>
      </trkpt>
      <trkpt lat="45.18432" lon="5.6188">
        <ele>971</ele>
        <time>2011-06-30T06:31:36Z</time>
      </trkpt>
      <trkpt lat="45.18438" lon="5.61882">
        <ele>970</ele>
        <time>2011-06-30T06:31:37Z</time>
      </trkpt>
      <trkpt lat="45.18444" lon="5.61882">
        <ele>970</ele>
        <time>2011-06-30T06:31:38Z</time>
      </trkpt>
      <trkpt lat="45.18451" lon="5.61882">
        <ele>970</ele>
        <time>2011-06-30T06:31:39Z</time>
      </trkpt>
      <trkpt lat="45.18457" lon="5.6188">
        <ele>970</ele>
        <time>2011-06-30T06:31:40Z</time>
      </trkpt>
      <trkpt lat="45.18462" lon="5.61879">
        <ele>970</ele>
        <time>2011-06-30T06:31:41Z</time>
      </trkpt>
      <trkpt lat="45.18468" lon="5.61876">
        <ele>970</ele>
        <time>2011-06-30T06:31:42Z</time>
      </trkpt>
      <trkpt lat="45.18472" lon="5.61873">
        <ele>970</ele>
        <time>2011-06-30T06:31:43Z</time>
      </trkpt>
      <trkpt lat="45.18477" lon="5.6187">
        <ele>969</ele>
        <time>2011-06-30T06:31:44Z</time>
      </trkpt>
      <trkpt lat="45.18481" lon="5.61866">
        <ele>969</ele>
        <time>2011-06-30T06:31:45Z</time>
      </trkpt>
      <trkpt lat="45.18485" lon="5.61862">
        <ele>969</ele>
        <time>2011-06-30T06:31:46Z</time>
      </trkpt>
      <trkpt lat="45.18491" lon="5.61854">
        <ele>969</ele>
        <time>2011-06-30T06:31:48Z</time>
      </trkpt>
      <trkpt lat="45.18496" lon="5.61845">
        <ele>969</ele>
        <time>2011-06-30T06:31:50Z</time>
      </trkpt>
      <trkpt lat="45.18501" lon="5.61835">
        <ele>969</ele>
        <time>2011-06-30T06:31:52Z</time>
      </trkpt>
      <trkpt lat="45.18506" lon="5.61824">
        <ele>969</ele>
        <time>2011-06-30T06:31:54Z</time>
      </trkpt>
      <trkpt lat="45.18509" lon="5.61818">
        <ele>969</ele>
        <time>2011-06-30T06:31:55Z</time>
      </trkpt>
      <trkpt lat="45.18511" lon="5.61812">
        <ele>969</ele>
        <time>2011-06-30T06:31:56Z</time>
      </trkpt>
      <trkpt lat="45.18514" lon="5.61805">
        <ele>969</ele>
        <time>2011-06-30T06:31:57Z</time>
      </trkpt>
      <trkpt lat="45.18516" lon="5.61799">
        <ele>969</ele>
        <time>2011-06-30T06:31:58Z</time>
      </trkpt>
      <trkpt lat="45.18519" lon="5.61793">
        <ele>969</ele>
        <time>2011-06-30T06:31:59Z</time>
      </trkpt>
      <trkpt lat="45.18522" lon="5.61787">
        <ele>969</ele>
        <time>2011-06-30T06:32:00Z</time>
      </trkpt>
      <trkpt lat="45.18525" lon="5.61781">
        <ele>969</ele>
        <time>2011-06-30T06:32:01Z</time>
      </trkpt>
      <trkpt lat="45.18527" lon="5.61775">
        <ele>969</ele>
        <time>2011-06-30T06:32:02Z</time>
      </trkpt>
      <trkpt lat="45.18535" lon="5.61756">
        <ele>969</ele>
        <time>2011-06-30T06:32:05Z</time>
      </trkpt>
      <trkpt lat="45.18539" lon="5.6175">
        <ele>969</ele>
        <time>2011-06-30T06:32:06Z</time>
      </trkpt>
      <trkpt lat="45.18541" lon="5.61743">
        <ele>968</ele>
        <time>2011-06-30T06:32:07Z</time>
      </trkpt>
      <trkpt lat="45.18545" lon="5.61738">
        <ele>968</ele>
        <time>2011-06-30T06:32:08Z</time>
      </trkpt>
      <trkpt lat="45.18549" lon="5.61732">
        <ele>969</ele>
        <time>2011-06-30T06:32:09Z</time>
      </trkpt>
      <trkpt lat="45.18553" lon="5.61728">
        <ele>969</ele>
        <time>2011-06-30T06:32:10Z</time>
      </trkpt>
      <trkpt lat="45.18557" lon="5.61723">
        <ele>969</ele>
        <time>2011-06-30T06:32:11Z</time>
      </trkpt>
      <trkpt lat="45.18561" lon="5.61719">
        <ele>969</ele>
        <time>2011-06-30T06:32:12Z</time>
      </trkpt>
      <trkpt lat="45.18566" lon="5.61715">
        <ele>968</ele>
        <time>2011-06-30T06:32:13Z</time>
      </trkpt>
      <trkpt lat="45.18571" lon="5.6171">
        <ele>968</ele>
        <time>2011-06-30T06:32:14Z</time>
      </trkpt>
      <trkpt lat="45.18575" lon="5.61706">
        <ele>968</ele>
        <time>2011-06-30T06:32:15Z</time>
      </trkpt>
      <trkpt lat="45.18579" lon="5.61702">
        <ele>968</ele>
        <time>2011-06-30T06:32:16Z</time>
      </trkpt>
      <trkpt lat="45.18583" lon="5.61697">
        <ele>968</ele>
        <time>2011-06-30T06:32:17Z</time>
      </trkpt>
      <trkpt lat="45.18586" lon="5.61693">
        <ele>967</ele>
        <time>2011-06-30T06:32:18Z</time>
      </trkpt>
      <trkpt lat="45.1859" lon="5.61689">
        <ele>968</ele>
        <time>2011-06-30T06:32:19Z</time>
      </trkpt>
      <trkpt lat="45.18597" lon="5.61681">
        <ele>968</ele>
        <time>2011-06-30T06:32:21Z</time>
      </trkpt>
      <trkpt lat="45.18605" lon="5.61673">
        <ele>968</ele>
        <time>2011-06-30T06:32:23Z</time>
      </trkpt>
      <trkpt lat="45.18609" lon="5.6167">
        <ele>969</ele>
        <time>2011-06-30T06:32:24Z</time>
      </trkpt>
      <trkpt lat="45.18612" lon="5.61666">
        <ele>969</ele>
        <time>2011-06-30T06:32:25Z</time>
      </trkpt>
      <trkpt lat="45.18617" lon="5.61663">
        <ele>969</ele>
        <time>2011-06-30T06:32:27Z</time>
      </trkpt>
      <trkpt lat="45.18622" lon="5.61659">
        <ele>967</ele>
        <time>2011-06-30T06:32:44Z</time>
      </trkpt>
      <trkpt lat="45.18628" lon="5.61657">
        <ele>969</ele>
        <time>2011-06-30T06:32:46Z</time>
      </trkpt>
      <trkpt lat="45.18635" lon="5.61652">
        <ele>969</ele>
        <time>2011-06-30T06:32:48Z</time>
      </trkpt>
      <trkpt lat="45.18639" lon="5.61648">
        <ele>969</ele>
        <time>2011-06-30T06:32:49Z</time>
      </trkpt>
      <trkpt lat="45.18643" lon="5.61643">
        <ele>969</ele>
        <time>2011-06-30T06:32:50Z</time>
      </trkpt>
      <trkpt lat="45.18647" lon="5.61637">
        <ele>969</ele>
        <time>2011-06-30T06:32:51Z</time>
      </trkpt>
      <trkpt lat="45.18649" lon="5.61631">
        <ele>969</ele>
        <time>2011-06-30T06:32:52Z</time>
      </trkpt>
      <trkpt lat="45.18653" lon="5.61624">
        <ele>969</ele>
        <time>2011-06-30T06:32:53Z</time>
      </trkpt>
      <trkpt lat="45.18657" lon="5.61617">
        <ele>969</ele>
        <time>2011-06-30T06:32:54Z</time>
      </trkpt>
      <trkpt lat="45.18661" lon="5.6161">
        <ele>969</ele>
        <time>2011-06-30T06:32:55Z</time>
      </trkpt>
      <trkpt lat="45.18664" lon="5.61604">
        <ele>968</ele>
        <time>2011-06-30T06:32:56Z</time>
      </trkpt>
      <trkpt lat="45.18668" lon="5.61597">
        <ele>968</ele>
        <time>2011-06-30T06:32:57Z</time>
      </trkpt>
      <trkpt lat="45.18678" lon="5.61575">
        <ele>968</ele>
        <time>2011-06-30T06:33:00Z</time>
      </trkpt>
      <trkpt lat="45.1868" lon="5.61567">
        <ele>968</ele>
        <time>2011-06-30T06:33:01Z</time>
      </trkpt>
      <trkpt lat="45.18683" lon="5.61558">
        <ele>968</ele>
        <time>2011-06-30T06:33:02Z</time>
      </trkpt>
      <trkpt lat="45.18684" lon="5.61551">
        <ele>968</ele>
        <time>2011-06-30T06:33:03Z</time>
      </trkpt>
      <trkpt lat="45.18687" lon="5.61536">
        <ele>968</ele>
        <time>2011-06-30T06:33:05Z</time>
      </trkpt>
      <trkpt lat="45.18688" lon="5.61528">
        <ele>968</ele>
        <time>2011-06-30T06:33:06Z</time>
      </trkpt>
      <trkpt lat="45.1869" lon="5.6152">
        <ele>968</ele>
        <time>2011-06-30T06:33:07Z</time>
      </trkpt>
      <trkpt lat="45.18692" lon="5.61512">
        <ele>969</ele>
        <time>2011-06-30T06:33:08Z</time>
      </trkpt>
      <trkpt lat="45.18694" lon="5.61505">
        <ele>969</ele>
        <time>2011-06-30T06:33:09Z</time>
      </trkpt>
      <trkpt lat="45.18698" lon="5.615">
        <ele>969</ele>
        <time>2011-06-30T06:33:10Z</time>
      </trkpt>
      <trkpt lat="45.18705" lon="5.61495">
        <ele>969</ele>
        <time>2011-06-30T06:33:12Z</time>
      </trkpt>
      <trkpt lat="45.1871" lon="5.61494">
        <ele>969</ele>
        <time>2011-06-30T06:33:13Z</time>
      </trkpt>
      <trkpt lat="45.18717" lon="5.61497">
        <ele>970</ele>
        <time>2011-06-30T06:33:15Z</time>
      </trkpt>
      <trkpt lat="45.18724" lon="5.61502">
        <ele>970</ele>
        <time>2011-06-30T06:33:17Z</time>
      </trkpt>
      <trkpt lat="45.18731" lon="5.61507">
        <ele>970</ele>
        <time>2011-06-30T06:33:19Z</time>
      </trkpt>
      <trkpt lat="45.18737" lon="5.61515">
        <ele>970</ele>
        <time>2011-06-30T06:33:21Z</time>
      </trkpt>
      <trkpt lat="45.18742" lon="5.61525">
        <ele>971</ele>
        <time>2011-06-30T06:33:23Z</time>
      </trkpt>
      <trkpt lat="45.18748" lon="5.61534">
        <ele>971</ele>
        <time>2011-06-30T06:33:25Z</time>
      </trkpt>
      <trkpt lat="45.18753" lon="5.61544">
        <ele>971</ele>
        <time>2011-06-30T06:33:27Z</time>
      </trkpt>
      <trkpt lat="45.18756" lon="5.61549">
        <ele>971</ele>
        <time>2011-06-30T06:33:28Z</time>
      </trkpt>
      <trkpt lat="45.1876" lon="5.6156">
        <ele>972</ele>
        <time>2011-06-30T06:33:30Z</time>
      </trkpt>
      <trkpt lat="45.18765" lon="5.61569">
        <ele>972</ele>
        <time>2011-06-30T06:33:32Z</time>
      </trkpt>
      <trkpt lat="45.18769" lon="5.61579">
        <ele>972</ele>
        <time>2011-06-30T06:33:34Z</time>
      </trkpt>
      <trkpt lat="45.18771" lon="5.61585">
        <ele>972</ele>
        <time>2011-06-30T06:33:35Z</time>
      </trkpt>
      <trkpt lat="45.18773" lon="5.61591">
        <ele>972</ele>
        <time>2011-06-30T06:33:36Z</time>
      </trkpt>
      <trkpt lat="45.18774" lon="5.61597">
        <ele>972</ele>
        <time>2011-06-30T06:33:37Z</time>
      </trkpt>
      <trkpt lat="45.18775" lon="5.61604">
        <ele>972</ele>
        <time>2011-06-30T06:33:38Z</time>
      </trkpt>
      <trkpt lat="45.18776" lon="5.61612">
        <ele>972</ele>
        <time>2011-06-30T06:33:39Z</time>
      </trkpt>
      <trkpt lat="45.18778" lon="5.61619">
        <ele>971</ele>
        <time>2011-06-30T06:33:40Z</time>
      </trkpt>
      <trkpt lat="45.18779" lon="5.61627">
        <ele>971</ele>
        <time>2011-06-30T06:33:41Z</time>
      </trkpt>
      <trkpt lat="45.1878" lon="5.61634">
        <ele>972</ele>
        <time>2011-06-30T06:33:42Z</time>
      </trkpt>
      <trkpt lat="45.18781" lon="5.61642">
        <ele>972</ele>
        <time>2011-06-30T06:33:43Z</time>
      </trkpt>
      <trkpt lat="45.18782" lon="5.61649">
        <ele>971</ele>
        <time>2011-06-30T06:33:44Z</time>
      </trkpt>
      <trkpt lat="45.18784" lon="5.61656">
        <ele>971</ele>
        <time>2011-06-30T06:33:45Z</time>
      </trkpt>
      <trkpt lat="45.18786" lon="5.61663">
        <ele>971</ele>
        <time>2011-06-30T06:33:46Z</time>
      </trkpt>
      <trkpt lat="45.18788" lon="5.6167">
        <ele>971</ele>
        <time>2011-06-30T06:33:47Z</time>
      </trkpt>
      <trkpt lat="45.1879" lon="5.61678">
        <ele>971</ele>
        <time>2011-06-30T06:33:48Z</time>
      </trkpt>
      <trkpt lat="45.18792" lon="5.61684">
        <ele>972</ele>
        <time>2011-06-30T06:33:49Z</time>
      </trkpt>
      <trkpt lat="45.18795" lon="5.61691">
        <ele>972</ele>
        <time>2011-06-30T06:33:50Z</time>
      </trkpt>
      <trkpt lat="45.18796" lon="5.61698">
        <ele>972</ele>
        <time>2011-06-30T06:33:51Z</time>
      </trkpt>
      <trkpt lat="45.18798" lon="5.61704">
        <ele>973</ele>
        <time>2011-06-30T06:33:52Z</time>
      </trkpt>
      <trkpt lat="45.188" lon="5.61712">
        <ele>973</ele>
        <time>2011-06-30T06:33:53Z</time>
      </trkpt>
      <trkpt lat="45.18801" lon="5.61719">
        <ele>973</ele>
        <time>2011-06-30T06:33:54Z</time>
      </trkpt>
      <trkpt lat="45.18803" lon="5.61725">
        <ele>973</ele>
        <time>2011-06-30T06:33:55Z</time>
      </trkpt>
      <trkpt lat="45.18804" lon="5.61732">
        <ele>973</ele>
        <time>2011-06-30T06:33:56Z</time>
      </trkpt>
      <trkpt lat="45.18806" lon="5.61739">
        <ele>972</ele>
        <time>2011-06-30T06:33:57Z</time>
      </trkpt>
      <trkpt lat="45.18806" lon="5.61745">
        <ele>972</ele>
        <time>2011-06-30T06:33:58Z</time>
      </trkpt>
      <trkpt lat="45.18808" lon="5.61752">
        <ele>972</ele>
        <time>2011-06-30T06:33:59Z</time>
      </trkpt>
      <trkpt lat="45.18809" lon="5.61758">
        <ele>972</ele>
        <time>2011-06-30T06:34:00Z</time>
      </trkpt>
      <trkpt lat="45.1881" lon="5.61765">
        <ele>972</ele>
        <time>2011-06-30T06:34:01Z</time>
      </trkpt>
      <trkpt lat="45.18811" lon="5.61772">
        <ele>972</ele>
        <time>2011-06-30T06:34:02Z</time>
      </trkpt>
      <trkpt lat="45.18812" lon="5.61778">
        <ele>972</ele>
        <time>2011-06-30T06:34:03Z</time>
      </trkpt>
      <trkpt lat="45.18813" lon="5.61791">
        <ele>973</ele>
        <time>2011-06-30T06:34:05Z</time>
      </trkpt>
      <trkpt lat="45.18814" lon="5.61798">
        <ele>973</ele>
        <time>2011-06-30T06:34:06Z</time>
      </trkpt>
      <trkpt lat="45.18816" lon="5.6181">
        <ele>972</ele>
        <time>2011-06-30T06:34:08Z</time>
      </trkpt>
      <trkpt lat="45.18816" lon="5.61816">
        <ele>973</ele>
        <time>2011-06-30T06:34:09Z</time>
      </trkpt>
      <trkpt lat="45.18818" lon="5.61827">
        <ele>974</ele>
        <time>2011-06-30T06:34:11Z</time>
      </trkpt>
      <trkpt lat="45.1882" lon="5.61837">
        <ele>975</ele>
        <time>2011-06-30T06:34:13Z</time>
      </trkpt>
      <trkpt lat="45.18823" lon="5.61848">
        <ele>974</ele>
        <time>2011-06-30T06:34:15Z</time>
      </trkpt>
      <trkpt lat="45.18825" lon="5.61858">
        <ele>974</ele>
        <time>2011-06-30T06:34:17Z</time>
      </trkpt>
      <trkpt lat="45.18827" lon="5.61864">
        <ele>974</ele>
        <time>2011-06-30T06:34:18Z</time>
      </trkpt>
      <trkpt lat="45.1883" lon="5.61871">
        <ele>974</ele>
        <time>2011-06-30T06:34:19Z</time>
      </trkpt>
      <trkpt lat="45.18832" lon="5.61878">
        <ele>974</ele>
        <time>2011-06-30T06:34:20Z</time>
      </trkpt>
      <trkpt lat="45.18833" lon="5.61886">
        <ele>974</ele>
        <time>2011-06-30T06:34:21Z</time>
      </trkpt>
      <trkpt lat="45.18836" lon="5.61894">
        <ele>974</ele>
        <time>2011-06-30T06:34:22Z</time>
      </trkpt>
      <trkpt lat="45.18839" lon="5.61902">
        <ele>973</ele>
        <time>2011-06-30T06:34:23Z</time>
      </trkpt>
      <trkpt lat="45.18842" lon="5.61912">
        <ele>973</ele>
        <time>2011-06-30T06:34:24Z</time>
      </trkpt>
      <trkpt lat="45.18847" lon="5.6192">
        <ele>972</ele>
        <time>2011-06-30T06:34:25Z</time>
      </trkpt>
      <trkpt lat="45.18851" lon="5.61929">
        <ele>973</ele>
        <time>2011-06-30T06:34:26Z</time>
      </trkpt>
      <trkpt lat="45.18858" lon="5.61936">
        <ele>971</ele>
        <time>2011-06-30T06:34:27Z</time>
      </trkpt>
      <trkpt lat="45.18864" lon="5.61942">
        <ele>970</ele>
        <time>2011-06-30T06:34:28Z</time>
      </trkpt>
      <trkpt lat="45.1887" lon="5.6195">
        <ele>970</ele>
        <time>2011-06-30T06:34:29Z</time>
      </trkpt>
      <trkpt lat="45.18877" lon="5.61956">
        <ele>970</ele>
        <time>2011-06-30T06:34:30Z</time>
      </trkpt>
      <trkpt lat="45.18885" lon="5.61963">
        <ele>969</ele>
        <time>2011-06-30T06:34:31Z</time>
      </trkpt>
      <trkpt lat="45.18892" lon="5.61968">
        <ele>968</ele>
        <time>2011-06-30T06:34:32Z</time>
      </trkpt>
      <trkpt lat="45.189" lon="5.6197">
        <ele>967</ele>
        <time>2011-06-30T06:34:33Z</time>
      </trkpt>
      <trkpt lat="45.18908" lon="5.61973">
        <ele>967</ele>
        <time>2011-06-30T06:34:34Z</time>
      </trkpt>
      <trkpt lat="45.18916" lon="5.61975">
        <ele>967</ele>
        <time>2011-06-30T06:34:35Z</time>
      </trkpt>
      <trkpt lat="45.18924" lon="5.61976">
        <ele>966</ele>
        <time>2011-06-30T06:34:36Z</time>
      </trkpt>
      <trkpt lat="45.18932" lon="5.61977">
        <ele>967</ele>
        <time>2011-06-30T06:34:37Z</time>
      </trkpt>
      <trkpt lat="45.18939" lon="5.61978">
        <ele>967</ele>
        <time>2011-06-30T06:34:38Z</time>
      </trkpt>
      <trkpt lat="45.18946" lon="5.61977">
        <ele>967</ele>
        <time>2011-06-30T06:34:39Z</time>
      </trkpt>
      <trkpt lat="45.18953" lon="5.61977">
        <ele>966</ele>
        <time>2011-06-30T06:34:40Z</time>
      </trkpt>
      <trkpt lat="45.18959" lon="5.61976">
        <ele>966</ele>
        <time>2011-06-30T06:34:41Z</time>
      </trkpt>
      <trkpt lat="45.18965" lon="5.61976">
        <ele>966</ele>
        <time>2011-06-30T06:34:42Z</time>
      </trkpt>
      <trkpt lat="45.18971" lon="5.61975">
        <ele>966</ele>
        <time>2011-06-30T06:34:43Z</time>
      </trkpt>
      <trkpt lat="45.18977" lon="5.61974">
        <ele>966</ele>
        <time>2011-06-30T06:34:44Z</time>
      </trkpt>
      <trkpt lat="45.18982" lon="5.61973">
        <ele>966</ele>
        <time>2011-06-30T06:34:45Z</time>
      </trkpt>
      <trkpt lat="45.18988" lon="5.61972">
        <ele>966</ele>
        <time>2011-06-30T06:34:46Z</time>
      </trkpt>
      <trkpt lat="45.19004" lon="5.61969">
        <ele>966</ele>
        <time>2011-06-30T06:34:49Z</time>
      </trkpt>
      <trkpt lat="45.19009" lon="5.61968">
        <ele>966</ele>
        <time>2011-06-30T06:34:50Z</time>
      </trkpt>
      <trkpt lat="45.19014" lon="5.61967">
        <ele>966</ele>
        <time>2011-06-30T06:34:51Z</time>
      </trkpt>
      <trkpt lat="45.19019" lon="5.61966">
        <ele>967</ele>
        <time>2011-06-30T06:34:52Z</time>
      </trkpt>
      <trkpt lat="45.19024" lon="5.61965">
        <ele>967</ele>
        <time>2011-06-30T06:34:53Z</time>
      </trkpt>
      <trkpt lat="45.19029" lon="5.61964">
        <ele>966</ele>
        <time>2011-06-30T06:34:54Z</time>
      </trkpt>
      <trkpt lat="45.19034" lon="5.61964">
        <ele>967</ele>
        <time>2011-06-30T06:34:55Z</time>
      </trkpt>
      <trkpt lat="45.19043" lon="5.61962">
        <ele>968</ele>
        <time>2011-06-30T06:34:57Z</time>
      </trkpt>
      <trkpt lat="45.19048" lon="5.61961">
        <ele>969</ele>
        <time>2011-06-30T06:34:58Z</time>
      </trkpt>
      <trkpt lat="45.19053" lon="5.61961">
        <ele>969</ele>
        <time>2011-06-30T06:34:59Z</time>
      </trkpt>
      <trkpt lat="45.19058" lon="5.6196">
        <ele>969</ele>
        <time>2011-06-30T06:35:00Z</time>
      </trkpt>
      <trkpt lat="45.19064" lon="5.6196">
        <ele>969</ele>
        <time>2011-06-30T06:35:01Z</time>
      </trkpt>
      <trkpt lat="45.19069" lon="5.61958">
        <ele>969</ele>
        <time>2011-06-30T06:35:02Z</time>
      </trkpt>
      <trkpt lat="45.19074" lon="5.61958">
        <ele>969</ele>
        <time>2011-06-30T06:35:03Z</time>
      </trkpt>
      <trkpt lat="45.19083" lon="5.61956">
        <ele>970</ele>
        <time>2011-06-30T06:35:05Z</time>
      </trkpt>
      <trkpt lat="45.19092" lon="5.61954">
        <ele>970</ele>
        <time>2011-06-30T06:35:07Z</time>
      </trkpt>
      <trkpt lat="45.19097" lon="5.61953">
        <ele>970</ele>
        <time>2011-06-30T06:35:08Z</time>
      </trkpt>
      <trkpt lat="45.19102" lon="5.61952">
        <ele>970</ele>
        <time>2011-06-30T06:35:09Z</time>
      </trkpt>
      <trkpt lat="45.1911" lon="5.61951">
        <ele>971</ele>
        <time>2011-06-30T06:35:11Z</time>
      </trkpt>
      <trkpt lat="45.19118" lon="5.61951">
        <ele>971</ele>
        <time>2011-06-30T06:35:13Z</time>
      </trkpt>
      <trkpt lat="45.19126" lon="5.6195">
        <ele>972</ele>
        <time>2011-06-30T06:35:15Z</time>
      </trkpt>
      <trkpt lat="45.19134" lon="5.61951">
        <ele>972</ele>
        <time>2011-06-30T06:35:17Z</time>
      </trkpt>
      <trkpt lat="45.1914" lon="5.61951">
        <ele>973</ele>
        <time>2011-06-30T06:35:19Z</time>
      </trkpt>
      <trkpt lat="45.19148" lon="5.61951">
        <ele>973</ele>
        <time>2011-06-30T06:35:21Z</time>
      </trkpt>
      <trkpt lat="45.19155" lon="5.61952">
        <ele>974</ele>
        <time>2011-06-30T06:35:23Z</time>
      </trkpt>
      <trkpt lat="45.19163" lon="5.61952">
        <ele>974</ele>
        <time>2011-06-30T06:35:25Z</time>
      </trkpt>
      <trkpt lat="45.1917" lon="5.61952">
        <ele>975</ele>
        <time>2011-06-30T06:35:27Z</time>
      </trkpt>
      <trkpt lat="45.19177" lon="5.61952">
        <ele>976</ele>
        <time>2011-06-30T06:35:29Z</time>
      </trkpt>
      <trkpt lat="45.19184" lon="5.61953">
        <ele>976</ele>
        <time>2011-06-30T06:35:31Z</time>
      </trkpt>
      <trkpt lat="45.19191" lon="5.61953">
        <ele>976</ele>
        <time>2011-06-30T06:35:33Z</time>
      </trkpt>
      <trkpt lat="45.19196" lon="5.61953">
        <ele>977</ele>
        <time>2011-06-30T06:35:35Z</time>
      </trkpt>
      <trkpt lat="45.19204" lon="5.61953">
        <ele>977</ele>
        <time>2011-06-30T06:35:37Z</time>
      </trkpt>
      <trkpt lat="45.1921" lon="5.61953">
        <ele>978</ele>
        <time>2011-06-30T06:35:39Z</time>
      </trkpt>
      <trkpt lat="45.19216" lon="5.61954">
        <ele>978</ele>
        <time>2011-06-30T06:35:41Z</time>
      </trkpt>
      <trkpt lat="45.19222" lon="5.61955">
        <ele>978</ele>
        <time>2011-06-30T06:35:43Z</time>
      </trkpt>
      <trkpt lat="45.19229" lon="5.61956">
        <ele>979</ele>
        <time>2011-06-30T06:35:45Z</time>
      </trkpt>
      <trkpt lat="45.19236" lon="5.61956">
        <ele>979</ele>
        <time>2011-06-30T06:35:47Z</time>
      </trkpt>
      <trkpt lat="45.19242" lon="5.61956">
        <ele>979</ele>
        <time>2011-06-30T06:35:49Z</time>
      </trkpt>
      <trkpt lat="45.19248" lon="5.61956">
        <ele>980</ele>
        <time>2011-06-30T06:35:51Z</time>
      </trkpt>
      <trkpt lat="45.19254" lon="5.61955">
        <ele>980</ele>
        <time>2011-06-30T06:35:53Z</time>
      </trkpt>
      <trkpt lat="45.1926" lon="5.61956">
        <ele>981</ele>
        <time>2011-06-30T06:35:55Z</time>
      </trkpt>
      <trkpt lat="45.19265" lon="5.61956">
        <ele>982</ele>
        <time>2011-06-30T06:35:57Z</time>
      </trkpt>
      <trkpt lat="45.19271" lon="5.61959">
        <ele>982</ele>
        <time>2011-06-30T06:35:59Z</time>
      </trkpt>
      <trkpt lat="45.19276" lon="5.61963">
        <ele>983</ele>
        <time>2011-06-30T06:36:01Z</time>
      </trkpt>
      <trkpt lat="45.19282" lon="5.61967">
        <ele>982</ele>
        <time>2011-06-30T06:36:03Z</time>
      </trkpt>
      <trkpt lat="45.19287" lon="5.6197">
        <ele>983</ele>
        <time>2011-06-30T06:36:05Z</time>
      </trkpt>
      <trkpt lat="45.19292" lon="5.61974">
        <ele>983</ele>
        <time>2011-06-30T06:36:07Z</time>
      </trkpt>
      <trkpt lat="45.193" lon="5.61978">
        <ele>984</ele>
        <time>2011-06-30T06:36:10Z</time>
      </trkpt>
      <trkpt lat="45.19304" lon="5.6198">
        <ele>984</ele>
        <time>2011-06-30T06:36:12Z</time>
      </trkpt>
      <trkpt lat="45.19309" lon="5.61984">
        <ele>985</ele>
        <time>2011-06-30T06:36:14Z</time>
      </trkpt>
      <trkpt lat="45.19314" lon="5.61987">
        <ele>986</ele>
        <time>2011-06-30T06:36:16Z</time>
      </trkpt>
      <trkpt lat="45.19318" lon="5.6199">
        <ele>987</ele>
        <time>2011-06-30T06:36:18Z</time>
      </trkpt>
      <trkpt lat="45.19324" lon="5.61994">
        <ele>986</ele>
        <time>2011-06-30T06:36:20Z</time>
      </trkpt>
      <trkpt lat="45.19329" lon="5.61998">
        <ele>987</ele>
        <time>2011-06-30T06:36:22Z</time>
      </trkpt>
      <trkpt lat="45.19334" lon="5.62002">
        <ele>987</ele>
        <time>2011-06-30T06:36:24Z</time>
      </trkpt>
      <trkpt lat="45.19338" lon="5.62006">
        <ele>988</ele>
        <time>2011-06-30T06:36:26Z</time>
      </trkpt>
      <trkpt lat="45.19343" lon="5.6201">
        <ele>988</ele>
        <time>2011-06-30T06:36:28Z</time>
      </trkpt>
      <trkpt lat="45.19348" lon="5.62014">
        <ele>987</ele>
        <time>2011-06-30T06:36:30Z</time>
      </trkpt>
      <trkpt lat="45.19354" lon="5.62019">
        <ele>987</ele>
        <time>2011-06-30T06:36:33Z</time>
      </trkpt>
      <trkpt lat="45.19366" lon="5.62023">
        <ele>986</ele>
        <time>2011-06-30T06:40:56Z</time>
      </trkpt>
      <trkpt lat="45.19366" lon="5.62023">
        <ele>986</ele>
        <time>2011-06-30T06:40:56Z</time>
      </trkpt>
      <trkpt lat="45.19366" lon="5.62023">
        <ele>986</ele>
        <time>2011-06-30T06:41:01Z</time>
      </trkpt>
      <trkpt lat="45.19369" lon="5.62029">
        <ele>986</ele>
        <time>2011-06-30T06:42:42Z</time>
      </trkpt>
      <trkpt lat="45.19378" lon="5.62043">
        <ele>986</ele>
        <time>2011-06-30T06:44:10Z</time>
      </trkpt>
      <trkpt lat="45.19376" lon="5.62062">
        <ele>997</ele>
        <time>2011-06-30T06:58:43Z</time>
      </trkpt>
      <trkpt lat="45.19364" lon="5.62065">
        <ele>978</ele>
        <time>2011-06-30T06:58:47Z</time>
      </trkpt>
      <trkpt lat="45.19375" lon="5.62062">
        <ele>978</ele>
        <time>2011-06-30T06:58:51Z</time>
      </trkpt>
      <trkpt lat="45.19376" lon="5.62056">
        <ele>982</ele>
        <time>2011-06-30T06:58:55Z</time>
      </trkpt>
      <trkpt lat="45.19379" lon="5.62048">
        <ele>984</ele>
        <time>2011-06-30T06:59:01Z</time>
      </trkpt>
      <trkpt lat="45.19379" lon="5.62036">
        <ele>983</ele>
        <time>2011-06-30T06:59:07Z</time>
      </trkpt>
      <trkpt lat="45.19375" lon="5.62039">
        <ele>984</ele>
        <time>2011-06-30T06:59:09Z</time>
      </trkpt>
      <trkpt lat="45.1937" lon="5.62039">
        <ele>986</ele>
        <time>2011-06-30T06:59:13Z</time>
      </trkpt>
      <trkpt lat="45.19371" lon="5.62032">
        <ele>988</ele>
        <time>2011-06-30T06:59:29Z</time>
      </trkpt>
      <trkpt lat="45.19383" lon="5.62037">
        <ele>991</ele>
        <time>2011-06-30T07:02:10Z</time>
      </trkpt>
      <trkpt lat="45.19378" lon="5.62035">
        <ele>989</ele>
        <time>2011-06-30T07:02:14Z</time>
      </trkpt>
      <trkpt lat="45.1937" lon="5.62028">
        <ele>988</ele>
        <time>2011-06-30T07:02:21Z</time>
      </trkpt>
      <trkpt lat="45.19364" lon="5.62028">
        <ele>986</ele>
        <time>2011-06-30T07:02:24Z</time>
      </trkpt>
      <trkpt lat="45.19362" lon="5.62022">
        <ele>988</ele>
        <time>2011-06-30T07:02:30Z</time>
      </trkpt>
      <trkpt lat="45.19363" lon="5.62013">
        <ele>988</ele>
        <time>2011-06-30T07:02:46Z</time>
      </trkpt>
      <trkpt lat="45.19356" lon="5.6202">
        <ele>988</ele>
        <time>2011-06-30T07:02:52Z</time>
      </trkpt>
      <trkpt lat="45.19354" lon="5.62025">
        <ele>985</ele>
        <time>2011-06-30T07:02:55Z</time>
      </trkpt>
      <trkpt lat="45.19359" lon="5.62026">
        <ele>987</ele>
        <time>2011-06-30T07:02:58Z</time>
      </trkpt>
      <trkpt lat="45.19368" lon="5.62013">
        <ele>998</ele>
        <time>2011-06-30T07:03:09Z</time>
      </trkpt>
      <trkpt lat="45.19361" lon="5.62025">
        <ele>987</ele>
        <time>2011-06-30T07:03:10Z</time>
      </trkpt>
      <trkpt lat="45.19366" lon="5.62023">
        <ele>988</ele>
        <time>2011-06-30T07:03:25Z</time>
      </trkpt>
      <trkpt lat="45.19371" lon="5.62022">
        <ele>990</ele>
        <time>2011-06-30T07:03:28Z</time>
      </trkpt>
      <trkpt lat="45.19376" lon="5.62025">
        <ele>989</ele>
        <time>2011-06-30T07:03:31Z</time>
      </trkpt>
      <trkpt lat="45.19382" lon="5.62025">
        <ele>989</ele>
        <time>2011-06-30T07:03:35Z</time>
      </trkpt>
      <trkpt lat="45.19387" lon="5.62024">
        <ele>991</ele>
        <time>2011-06-30T07:03:39Z</time>
      </trkpt>
      <trkpt lat="45.19393" lon="5.62024">
        <ele>991</ele>
        <time>2011-06-30T07:03:43Z</time>
      </trkpt>
      <trkpt lat="45.19398" lon="5.62025">
        <ele>991</ele>
        <time>2011-06-30T07:03:46Z</time>
      </trkpt>
      <trkpt lat="45.19404" lon="5.62026">
        <ele>992</ele>
        <time>2011-06-30T07:03:51Z</time>
      </trkpt>
      <trkpt lat="45.19408" lon="5.62028">
        <ele>991</ele>
        <time>2011-06-30T07:03:54Z</time>
      </trkpt>
      <trkpt lat="45.1941" lon="5.62036">
        <ele>989</ele>
        <time>2011-06-30T07:04:28Z</time>
      </trkpt>
      <trkpt lat="45.19413" lon="5.62046">
        <ele>989</ele>
        <time>2011-06-30T07:04:32Z</time>
      </trkpt>
      <trkpt lat="45.19435" lon="5.62063">
        <ele>988</ele>
        <time>2011-06-30T07:04:35Z</time>
      </trkpt>
      <trkpt lat="45.19442" lon="5.62076">
        <ele>988</ele>
        <time>2011-06-30T07:04:37Z</time>
      </trkpt>
      <trkpt lat="45.19446" lon="5.62094">
        <ele>986</ele>
        <time>2011-06-30T07:04:39Z</time>
      </trkpt>
      <trkpt lat="45.19458" lon="5.6211">
        <ele>983</ele>
        <time>2011-06-30T07:04:41Z</time>
      </trkpt>
      <trkpt lat="45.19466" lon="5.62121">
        <ele>979</ele>
        <time>2011-06-30T07:04:43Z</time>
      </trkpt>
      <trkpt lat="45.1948" lon="5.62126">
        <ele>978</ele>
        <time>2011-06-30T07:04:45Z</time>
      </trkpt>
      <trkpt lat="45.1949" lon="5.62131">
        <ele>976</ele>
        <time>2011-06-30T07:04:47Z</time>
      </trkpt>
      <trkpt lat="45.195" lon="5.62139">
        <ele>977</ele>
        <time>2011-06-30T07:04:49Z</time>
      </trkpt>
      <trkpt lat="45.19515" lon="5.62144">
        <ele>976</ele>
        <time>2011-06-30T07:04:51Z</time>
      </trkpt>
      <trkpt lat="45.19529" lon="5.62153">
        <ele>975</ele>
        <time>2011-06-30T07:04:53Z</time>
      </trkpt>
      <trkpt lat="45.1954" lon="5.62157">
        <ele>974</ele>
        <time>2011-06-30T07:04:55Z</time>
      </trkpt>
      <trkpt lat="45.19551" lon="5.62162">
        <ele>973</ele>
        <time>2011-06-30T07:04:57Z</time>
      </trkpt>
      <trkpt lat="45.19563" lon="5.6217">
        <ele>972</ele>
        <time>2011-06-30T07:04:59Z</time>
      </trkpt>
      <trkpt lat="45.19572" lon="5.62175">
        <ele>971</ele>
        <time>2011-06-30T07:05:01Z</time>
      </trkpt>
      <trkpt lat="45.19582" lon="5.62184">
        <ele>969</ele>
        <time>2011-06-30T07:05:03Z</time>
      </trkpt>
      <trkpt lat="45.19593" lon="5.622">
        <ele>967</ele>
        <time>2011-06-30T07:05:06Z</time>
      </trkpt>
      <trkpt lat="45.19596" lon="5.62211">
        <ele>965</ele>
        <time>2011-06-30T07:05:08Z</time>
      </trkpt>
      <trkpt lat="45.19598" lon="5.62224">
        <ele>962</ele>
        <time>2011-06-30T07:05:10Z</time>
      </trkpt>
      <trkpt lat="45.19603" lon="5.62234">
        <ele>958</ele>
        <time>2011-06-30T07:05:12Z</time>
      </trkpt>
      <trkpt lat="45.19607" lon="5.6224">
        <ele>957</ele>
        <time>2011-06-30T07:05:13Z</time>
      </trkpt>
      <trkpt lat="45.19611" lon="5.62242">
        <ele>955</ele>
        <time>2011-06-30T07:05:14Z</time>
      </trkpt>
      <trkpt lat="45.19614" lon="5.62247">
        <ele>954</ele>
        <time>2011-06-30T07:05:15Z</time>
      </trkpt>
      <trkpt lat="45.19619" lon="5.62253">
        <ele>954</ele>
        <time>2011-06-30T07:05:16Z</time>
      </trkpt>
      <trkpt lat="45.19624" lon="5.62256">
        <ele>953</ele>
        <time>2011-06-30T07:05:17Z</time>
      </trkpt>
      <trkpt lat="45.19629" lon="5.6226">
        <ele>952</ele>
        <time>2011-06-30T07:05:18Z</time>
      </trkpt>
      <trkpt lat="45.19635" lon="5.62263">
        <ele>952</ele>
        <time>2011-06-30T07:05:19Z</time>
      </trkpt>
      <trkpt lat="45.19641" lon="5.62266">
        <ele>951</ele>
        <time>2011-06-30T07:05:20Z</time>
      </trkpt>
      <trkpt lat="45.19649" lon="5.62268">
        <ele>950</ele>
        <time>2011-06-30T07:05:21Z</time>
      </trkpt>
      <trkpt lat="45.19655" lon="5.62271">
        <ele>949</ele>
        <time>2011-06-30T07:05:22Z</time>
      </trkpt>
      <trkpt lat="45.19661" lon="5.62274">
        <ele>949</ele>
        <time>2011-06-30T07:05:23Z</time>
      </trkpt>
      <trkpt lat="45.19669" lon="5.62281">
        <ele>947</ele>
        <time>2011-06-30T07:05:25Z</time>
      </trkpt>
      <trkpt lat="45.19674" lon="5.62284">
        <ele>947</ele>
        <time>2011-06-30T07:05:26Z</time>
      </trkpt>
      <trkpt lat="45.19679" lon="5.62288">
        <ele>946</ele>
        <time>2011-06-30T07:05:27Z</time>
      </trkpt>
      <trkpt lat="45.19684" lon="5.62292">
        <ele>945</ele>
        <time>2011-06-30T07:05:28Z</time>
      </trkpt>
      <trkpt lat="45.19688" lon="5.62297">
        <ele>945</ele>
        <time>2011-06-30T07:05:29Z</time>
      </trkpt>
      <trkpt lat="45.19691" lon="5.62305">
        <ele>945</ele>
        <time>2011-06-30T07:05:30Z</time>
      </trkpt>
      <trkpt lat="45.19695" lon="5.62312">
        <ele>944</ele>
        <time>2011-06-30T07:05:31Z</time>
      </trkpt>
      <trkpt lat="45.19702" lon="5.62317">
        <ele>944</ele>
        <time>2011-06-30T07:05:32Z</time>
      </trkpt>
      <trkpt lat="45.19712" lon="5.62322">
        <ele>943</ele>
        <time>2011-06-30T07:05:33Z</time>
      </trkpt>
      <trkpt lat="45.19718" lon="5.6233">
        <ele>941</ele>
        <time>2011-06-30T07:05:34Z</time>
      </trkpt>
      <trkpt lat="45.19723" lon="5.62336">
        <ele>940</ele>
        <time>2011-06-30T07:05:35Z</time>
      </trkpt>
      <trkpt lat="45.19726" lon="5.6234">
        <ele>939</ele>
        <time>2011-06-30T07:05:36Z</time>
      </trkpt>
      <trkpt lat="45.1973" lon="5.62346">
        <ele>937</ele>
        <time>2011-06-30T07:05:37Z</time>
      </trkpt>
      <trkpt lat="45.19734" lon="5.62353">
        <ele>935</ele>
        <time>2011-06-30T07:05:38Z</time>
      </trkpt>
      <trkpt lat="45.19737" lon="5.6236">
        <ele>934</ele>
        <time>2011-06-30T07:05:39Z</time>
      </trkpt>
      <trkpt lat="45.19742" lon="5.62366">
        <ele>934</ele>
        <time>2011-06-30T07:05:40Z</time>
      </trkpt>
      <trkpt lat="45.19746" lon="5.62372">
        <ele>933</ele>
        <time>2011-06-30T07:05:41Z</time>
      </trkpt>
      <trkpt lat="45.19751" lon="5.62379">
        <ele>932</ele>
        <time>2011-06-30T07:05:42Z</time>
      </trkpt>
      <trkpt lat="45.19756" lon="5.62385">
        <ele>930</ele>
        <time>2011-06-30T07:05:43Z</time>
      </trkpt>
      <trkpt lat="45.19761" lon="5.62391">
        <ele>930</ele>
        <time>2011-06-30T07:05:44Z</time>
      </trkpt>
      <trkpt lat="45.19765" lon="5.62396">
        <ele>929</ele>
        <time>2011-06-30T07:05:45Z</time>
      </trkpt>
      <trkpt lat="45.19769" lon="5.624">
        <ele>928</ele>
        <time>2011-06-30T07:05:46Z</time>
      </trkpt>
      <trkpt lat="45.19776" lon="5.62406">
        <ele>925</ele>
        <time>2011-06-30T07:05:48Z</time>
      </trkpt>
      <trkpt lat="45.19781" lon="5.62409">
        <ele>925</ele>
        <time>2011-06-30T07:05:49Z</time>
      </trkpt>
      <trkpt lat="45.19786" lon="5.62413">
        <ele>924</ele>
        <time>2011-06-30T07:05:50Z</time>
      </trkpt>
      <trkpt lat="45.1979" lon="5.62419">
        <ele>923</ele>
        <time>2011-06-30T07:05:51Z</time>
      </trkpt>
      <trkpt lat="45.19794" lon="5.62422">
        <ele>922</ele>
        <time>2011-06-30T07:05:52Z</time>
      </trkpt>
      <trkpt lat="45.19798" lon="5.62426">
        <ele>922</ele>
        <time>2011-06-30T07:05:53Z</time>
      </trkpt>
      <trkpt lat="45.19804" lon="5.62431">
        <ele>922</ele>
        <time>2011-06-30T07:05:54Z</time>
      </trkpt>
      <trkpt lat="45.19808" lon="5.62438">
        <ele>921</ele>
        <time>2011-06-30T07:05:55Z</time>
      </trkpt>
      <trkpt lat="45.19816" lon="5.62439">
        <ele>920</ele>
        <time>2011-06-30T07:05:56Z</time>
      </trkpt>
      <trkpt lat="45.1982" lon="5.62447">
        <ele>918</ele>
        <time>2011-06-30T07:05:57Z</time>
      </trkpt>
      <trkpt lat="45.19826" lon="5.62451">
        <ele>918</ele>
        <time>2011-06-30T07:05:58Z</time>
      </trkpt>
      <trkpt lat="45.19832" lon="5.62454">
        <ele>918</ele>
        <time>2011-06-30T07:05:59Z</time>
      </trkpt>
      <trkpt lat="45.19836" lon="5.62459">
        <ele>917</ele>
        <time>2011-06-30T07:06:00Z</time>
      </trkpt>
      <trkpt lat="45.1984" lon="5.62464">
        <ele>918</ele>
        <time>2011-06-30T07:06:01Z</time>
      </trkpt>
      <trkpt lat="45.19846" lon="5.62465">
        <ele>917</ele>
        <time>2011-06-30T07:06:02Z</time>
      </trkpt>
      <trkpt lat="45.19858" lon="5.62478">
        <ele>914</ele>
        <time>2011-06-30T07:06:05Z</time>
      </trkpt>
      <trkpt lat="45.19863" lon="5.62483">
        <ele>914</ele>
        <time>2011-06-30T07:06:06Z</time>
      </trkpt>
      <trkpt lat="45.19867" lon="5.62496">
        <ele>913</ele>
        <time>2011-06-30T07:06:08Z</time>
      </trkpt>
      <trkpt lat="45.19872" lon="5.62502">
        <ele>912</ele>
        <time>2011-06-30T07:06:09Z</time>
      </trkpt>
      <trkpt lat="45.19877" lon="5.62509">
        <ele>909</ele>
        <time>2011-06-30T07:06:11Z</time>
      </trkpt>
      <trkpt lat="45.1988" lon="5.62519">
        <ele>908</ele>
        <time>2011-06-30T07:06:13Z</time>
      </trkpt>
      <trkpt lat="45.19888" lon="5.62521">
        <ele>907</ele>
        <time>2011-06-30T07:06:15Z</time>
      </trkpt>
      <trkpt lat="45.19893" lon="5.62522">
        <ele>906</ele>
        <time>2011-06-30T07:06:16Z</time>
      </trkpt>
      <trkpt lat="45.199" lon="5.62523">
        <ele>906</ele>
        <time>2011-06-30T07:06:18Z</time>
      </trkpt>
      <trkpt lat="45.19907" lon="5.62527">
        <ele>905</ele>
        <time>2011-06-30T07:06:20Z</time>
      </trkpt>
      <trkpt lat="45.19912" lon="5.6253">
        <ele>904</ele>
        <time>2011-06-30T07:06:21Z</time>
      </trkpt>
      <trkpt lat="45.19916" lon="5.62535">
        <ele>904</ele>
        <time>2011-06-30T07:06:22Z</time>
      </trkpt>
      <trkpt lat="45.19923" lon="5.62541">
        <ele>903</ele>
        <time>2011-06-30T07:06:23Z</time>
      </trkpt>
      <trkpt lat="45.1993" lon="5.62548">
        <ele>901</ele>
        <time>2011-06-30T07:06:24Z</time>
      </trkpt>
      <trkpt lat="45.19935" lon="5.62554">
        <ele>901</ele>
        <time>2011-06-30T07:06:25Z</time>
      </trkpt>
      <trkpt lat="45.1994" lon="5.6256">
        <ele>899</ele>
        <time>2011-06-30T07:06:26Z</time>
      </trkpt>
      <trkpt lat="45.19945" lon="5.62564">
        <ele>899</ele>
        <time>2011-06-30T07:06:27Z</time>
      </trkpt>
      <trkpt lat="45.1995" lon="5.62567">
        <ele>898</ele>
        <time>2011-06-30T07:06:28Z</time>
      </trkpt>
      <trkpt lat="45.19954" lon="5.62569">
        <ele>897</ele>
        <time>2011-06-30T07:06:29Z</time>
      </trkpt>
      <trkpt lat="45.19959" lon="5.62573">
        <ele>896</ele>
        <time>2011-06-30T07:06:30Z</time>
      </trkpt>
      <trkpt lat="45.19964" lon="5.62583">
        <ele>895</ele>
        <time>2011-06-30T07:06:32Z</time>
      </trkpt>
      <trkpt lat="45.1997" lon="5.62593">
        <ele>893</ele>
        <time>2011-06-30T07:06:34Z</time>
      </trkpt>
      <trkpt lat="45.19978" lon="5.62601">
        <ele>892</ele>
        <time>2011-06-30T07:06:36Z</time>
      </trkpt>
      <trkpt lat="45.19983" lon="5.6261">
        <ele>889</ele>
        <time>2011-06-30T07:06:38Z</time>
      </trkpt>
      <trkpt lat="45.19989" lon="5.62614">
        <ele>888</ele>
        <time>2011-06-30T07:06:39Z</time>
      </trkpt>
      <trkpt lat="45.19996" lon="5.62616">
        <ele>887</ele>
        <time>2011-06-30T07:06:40Z</time>
      </trkpt>
      <trkpt lat="45.2" lon="5.62623">
        <ele>885</ele>
        <time>2011-06-30T07:06:41Z</time>
      </trkpt>
      <trkpt lat="45.20006" lon="5.62626">
        <ele>884</ele>
        <time>2011-06-30T07:06:42Z</time>
      </trkpt>
      <trkpt lat="45.2001" lon="5.62631">
        <ele>882</ele>
        <time>2011-06-30T07:06:43Z</time>
      </trkpt>
      <trkpt lat="45.20015" lon="5.62635">
        <ele>879</ele>
        <time>2011-06-30T07:06:44Z</time>
      </trkpt>
      <trkpt lat="45.2002" lon="5.62641">
        <ele>879</ele>
        <time>2011-06-30T07:06:45Z</time>
      </trkpt>
      <trkpt lat="45.20024" lon="5.62645">
        <ele>878</ele>
        <time>2011-06-30T07:06:46Z</time>
      </trkpt>
      <trkpt lat="45.20029" lon="5.6265">
        <ele>878</ele>
        <time>2011-06-30T07:06:47Z</time>
      </trkpt>
      <trkpt lat="45.20032" lon="5.62656">
        <ele>878</ele>
        <time>2011-06-30T07:06:48Z</time>
      </trkpt>
      <trkpt lat="45.20038" lon="5.62659">
        <ele>876</ele>
        <time>2011-06-30T07:06:50Z</time>
      </trkpt>
      <trkpt lat="45.20042" lon="5.62663">
        <ele>875</ele>
        <time>2011-06-30T07:06:52Z</time>
      </trkpt>
      <trkpt lat="45.20039" lon="5.62668">
        <ele>870</ele>
        <time>2011-06-30T07:06:57Z</time>
      </trkpt>
      <trkpt lat="45.20068" lon="5.62722">
        <ele>857</ele>
        <time>2011-06-30T07:07:27Z</time>
      </trkpt>
      <trkpt lat="45.20087" lon="5.62733">
        <ele>855</ele>
        <time>2011-06-30T07:07:30Z</time>
      </trkpt>
      <trkpt lat="45.201" lon="5.62733">
        <ele>851</ele>
        <time>2011-06-30T07:07:33Z</time>
      </trkpt>
      <trkpt lat="45.20109" lon="5.6274">
        <ele>851</ele>
        <time>2011-06-30T07:07:35Z</time>
      </trkpt>
      <trkpt lat="45.20114" lon="5.6274">
        <ele>846</ele>
        <time>2011-06-30T07:07:37Z</time>
      </trkpt>
      <trkpt lat="45.20123" lon="5.62747">
        <ele>842</ele>
        <time>2011-06-30T07:07:39Z</time>
      </trkpt>
      <trkpt lat="45.20134" lon="5.62751">
        <ele>839</ele>
        <time>2011-06-30T07:07:41Z</time>
      </trkpt>
      <trkpt lat="45.2014" lon="5.62757">
        <ele>833</ele>
        <time>2011-06-30T07:07:43Z</time>
      </trkpt>
      <trkpt lat="45.20151" lon="5.62765">
        <ele>830</ele>
        <time>2011-06-30T07:07:45Z</time>
      </trkpt>
      <trkpt lat="45.2016" lon="5.6277">
        <ele>828</ele>
        <time>2011-06-30T07:07:47Z</time>
      </trkpt>
      <trkpt lat="45.20168" lon="5.62772">
        <ele>827</ele>
        <time>2011-06-30T07:07:49Z</time>
      </trkpt>
      <trkpt lat="45.20178" lon="5.62775">
        <ele>825</ele>
        <time>2011-06-30T07:07:51Z</time>
      </trkpt>
      <trkpt lat="45.20187" lon="5.62779">
        <ele>824</ele>
        <time>2011-06-30T07:07:53Z</time>
      </trkpt>
      <trkpt lat="45.20192" lon="5.62783">
        <ele>823</ele>
        <time>2011-06-30T07:07:55Z</time>
      </trkpt>
      <trkpt lat="45.20199" lon="5.62784">
        <ele>823</ele>
        <time>2011-06-30T07:07:57Z</time>
      </trkpt>
      <trkpt lat="45.20203" lon="5.62788">
        <ele>823</ele>
        <time>2011-06-30T07:07:59Z</time>
      </trkpt>
      <trkpt lat="45.20209" lon="5.62792">
        <ele>823</ele>
        <time>2011-06-30T07:08:01Z</time>
      </trkpt>
      <trkpt lat="45.20219" lon="5.62795">
        <ele>822</ele>
        <time>2011-06-30T07:08:03Z</time>
      </trkpt>
      <trkpt lat="45.20231" lon="5.62797">
        <ele>821</ele>
        <time>2011-06-30T07:08:06Z</time>
      </trkpt>
      <trkpt lat="45.20237" lon="5.628">
        <ele>819</ele>
        <time>2011-06-30T07:08:07Z</time>
      </trkpt>
      <trkpt lat="45.20243" lon="5.62806">
        <ele>816</ele>
        <time>2011-06-30T07:08:09Z</time>
      </trkpt>
      <trkpt lat="45.2025" lon="5.6281">
        <ele>816</ele>
        <time>2011-06-30T07:08:11Z</time>
      </trkpt>
      <trkpt lat="45.20258" lon="5.62818">
        <ele>815</ele>
        <time>2011-06-30T07:08:13Z</time>
      </trkpt>
      <trkpt lat="45.20265" lon="5.62823">
        <ele>815</ele>
        <time>2011-06-30T07:08:15Z</time>
      </trkpt>
      <trkpt lat="45.2027" lon="5.62828">
        <ele>814</ele>
        <time>2011-06-30T07:08:17Z</time>
      </trkpt>
      <trkpt lat="45.20274" lon="5.62832">
        <ele>813</ele>
        <time>2011-06-30T07:08:18Z</time>
      </trkpt>
      <trkpt lat="45.2028" lon="5.62837">
        <ele>813</ele>
        <time>2011-06-30T07:08:20Z</time>
      </trkpt>
      <trkpt lat="45.20284" lon="5.62841">
        <ele>812</ele>
        <time>2011-06-30T07:08:21Z</time>
      </trkpt>
      <trkpt lat="45.20291" lon="5.62846">
        <ele>812</ele>
        <time>2011-06-30T07:08:23Z</time>
      </trkpt>
      <trkpt lat="45.20297" lon="5.62849">
        <ele>811</ele>
        <time>2011-06-30T07:08:25Z</time>
      </trkpt>
      <trkpt lat="45.20302" lon="5.62853">
        <ele>813</ele>
        <time>2011-06-30T07:08:27Z</time>
      </trkpt>
      <trkpt lat="45.20308" lon="5.62853">
        <ele>813</ele>
        <time>2011-06-30T07:08:29Z</time>
      </trkpt>
      <trkpt lat="45.20313" lon="5.62854">
        <ele>813</ele>
        <time>2011-06-30T07:08:31Z</time>
      </trkpt>
      <trkpt lat="45.20321" lon="5.62857">
        <ele>813</ele>
        <time>2011-06-30T07:08:34Z</time>
      </trkpt>
      <trkpt lat="45.20326" lon="5.62858">
        <ele>813</ele>
        <time>2011-06-30T07:08:36Z</time>
      </trkpt>
      <trkpt lat="45.20332" lon="5.62859">
        <ele>813</ele>
        <time>2011-06-30T07:08:38Z</time>
      </trkpt>
      <trkpt lat="45.20339" lon="5.6286">
        <ele>812</ele>
        <time>2011-06-30T07:08:40Z</time>
      </trkpt>
      <trkpt lat="45.20346" lon="5.62863">
        <ele>812</ele>
        <time>2011-06-30T07:08:42Z</time>
      </trkpt>
      <trkpt lat="45.20353" lon="5.62866">
        <ele>812</ele>
        <time>2011-06-30T07:08:44Z</time>
      </trkpt>
      <trkpt lat="45.20362" lon="5.62873">
        <ele>810</ele>
        <time>2011-06-30T07:08:46Z</time>
      </trkpt>
      <trkpt lat="45.20366" lon="5.62876">
        <ele>809</ele>
        <time>2011-06-30T07:08:47Z</time>
      </trkpt>
      <trkpt lat="45.20374" lon="5.6288">
        <ele>807</ele>
        <time>2011-06-30T07:08:49Z</time>
      </trkpt>
      <trkpt lat="45.20382" lon="5.62883">
        <ele>805</ele>
        <time>2011-06-30T07:08:51Z</time>
      </trkpt>
      <trkpt lat="45.20387" lon="5.62885">
        <ele>804</ele>
        <time>2011-06-30T07:08:53Z</time>
      </trkpt>
      <trkpt lat="45.20392" lon="5.62885">
        <ele>804</ele>
        <time>2011-06-30T07:08:56Z</time>
      </trkpt>
      <trkpt lat="45.20385" lon="5.62882">
        <ele>807</ele>
        <time>2011-06-30T07:09:26Z</time>
      </trkpt>
      <trkpt lat="45.20375" lon="5.62892">
        <ele>807</ele>
        <time>2011-06-30T07:09:29Z</time>
      </trkpt>
      <trkpt lat="45.20353" lon="5.62906">
        <ele>806</ele>
        <time>2011-06-30T07:09:32Z</time>
      </trkpt>
      <trkpt lat="45.2032" lon="5.62901">
        <ele>799</ele>
        <time>2011-06-30T07:09:35Z</time>
      </trkpt>
      <trkpt lat="45.20308" lon="5.62892">
        <ele>797</ele>
        <time>2011-06-30T07:09:37Z</time>
      </trkpt>
      <trkpt lat="45.20287" lon="5.62886">
        <ele>795</ele>
        <time>2011-06-30T07:09:39Z</time>
      </trkpt>
      <trkpt lat="45.20269" lon="5.62885">
        <ele>793</ele>
        <time>2011-06-30T07:09:41Z</time>
      </trkpt>
      <trkpt lat="45.20253" lon="5.62881">
        <ele>793</ele>
        <time>2011-06-30T07:09:43Z</time>
      </trkpt>
      <trkpt lat="45.20229" lon="5.62886">
        <ele>792</ele>
        <time>2011-06-30T07:09:46Z</time>
      </trkpt>
      <trkpt lat="45.20214" lon="5.62891">
        <ele>792</ele>
        <time>2011-06-30T07:09:48Z</time>
      </trkpt>
      <trkpt lat="45.20181" lon="5.62904">
        <ele>789</ele>
        <time>2011-06-30T07:09:50Z</time>
      </trkpt>
      <trkpt lat="45.2016" lon="5.62911">
        <ele>788</ele>
        <time>2011-06-30T07:09:52Z</time>
      </trkpt>
      <trkpt lat="45.20138" lon="5.62912">
        <ele>785</ele>
        <time>2011-06-30T07:09:54Z</time>
      </trkpt>
      <trkpt lat="45.20122" lon="5.62909">
        <ele>786</ele>
        <time>2011-06-30T07:09:56Z</time>
      </trkpt>
      <trkpt lat="45.20103" lon="5.62907">
        <ele>786</ele>
        <time>2011-06-30T07:09:58Z</time>
      </trkpt>
      <trkpt lat="45.2008" lon="5.62906">
        <ele>784</ele>
        <time>2011-06-30T07:10:00Z</time>
      </trkpt>
      <trkpt lat="45.20059" lon="5.62906">
        <ele>784</ele>
        <time>2011-06-30T07:10:02Z</time>
      </trkpt>
      <trkpt lat="45.20023" lon="5.62898">
        <ele>782</ele>
        <time>2011-06-30T07:10:06Z</time>
      </trkpt>
      <trkpt lat="45.20017" lon="5.62889">
        <ele>781</ele>
        <time>2011-06-30T07:10:07Z</time>
      </trkpt>
      <trkpt lat="45.20008" lon="5.62884">
        <ele>778</ele>
        <time>2011-06-30T07:10:08Z</time>
      </trkpt>
      <trkpt lat="45.19999" lon="5.62877">
        <ele>776</ele>
        <time>2011-06-30T07:10:09Z</time>
      </trkpt>
      <trkpt lat="45.19988" lon="5.62874">
        <ele>775</ele>
        <time>2011-06-30T07:10:10Z</time>
      </trkpt>
      <trkpt lat="45.19978" lon="5.6287">
        <ele>774</ele>
        <time>2011-06-30T07:10:11Z</time>
      </trkpt>
      <trkpt lat="45.19969" lon="5.62865">
        <ele>775</ele>
        <time>2011-06-30T07:10:12Z</time>
      </trkpt>
      <trkpt lat="45.19962" lon="5.62859">
        <ele>774</ele>
        <time>2011-06-30T07:10:13Z</time>
      </trkpt>
      <trkpt lat="45.19957" lon="5.62853">
        <ele>774</ele>
        <time>2011-06-30T07:10:14Z</time>
      </trkpt>
      <trkpt lat="45.1995" lon="5.6285">
        <ele>774</ele>
        <time>2011-06-30T07:10:15Z</time>
      </trkpt>
      <trkpt lat="45.19944" lon="5.62845">
        <ele>774</ele>
        <time>2011-06-30T07:10:16Z</time>
      </trkpt>
      <trkpt lat="45.19938" lon="5.62842">
        <ele>774</ele>
        <time>2011-06-30T07:10:17Z</time>
      </trkpt>
      <trkpt lat="45.19931" lon="5.6284">
        <ele>774</ele>
        <time>2011-06-30T07:10:18Z</time>
      </trkpt>
      <trkpt lat="45.19926" lon="5.62838">
        <ele>774</ele>
        <time>2011-06-30T07:10:19Z</time>
      </trkpt>
      <trkpt lat="45.19921" lon="5.62837">
        <ele>775</ele>
        <time>2011-06-30T07:10:20Z</time>
      </trkpt>
      <trkpt lat="45.19915" lon="5.62835">
        <ele>774</ele>
        <time>2011-06-30T07:10:21Z</time>
      </trkpt>
      <trkpt lat="45.1991" lon="5.62834">
        <ele>774</ele>
        <time>2011-06-30T07:10:22Z</time>
      </trkpt>
      <trkpt lat="45.19902" lon="5.62832">
        <ele>774</ele>
        <time>2011-06-30T07:10:24Z</time>
      </trkpt>
      <trkpt lat="45.19896" lon="5.62832">
        <ele>774</ele>
        <time>2011-06-30T07:10:26Z</time>
      </trkpt>
      <trkpt lat="45.19891" lon="5.6283">
        <ele>773</ele>
        <time>2011-06-30T07:10:33Z</time>
      </trkpt>
      <trkpt lat="45.19884" lon="5.62827">
        <ele>774</ele>
        <time>2011-06-30T07:10:36Z</time>
      </trkpt>
      <trkpt lat="45.19878" lon="5.62823">
        <ele>774</ele>
        <time>2011-06-30T07:10:38Z</time>
      </trkpt>
      <trkpt lat="45.19871" lon="5.62821">
        <ele>773</ele>
        <time>2011-06-30T07:10:40Z</time>
      </trkpt>
      <trkpt lat="45.19866" lon="5.62816">
        <ele>773</ele>
        <time>2011-06-30T07:10:42Z</time>
      </trkpt>
      <trkpt lat="45.1986" lon="5.62814">
        <ele>774</ele>
        <time>2011-06-30T07:10:44Z</time>
      </trkpt>
      <trkpt lat="45.19855" lon="5.6281">
        <ele>775</ele>
        <time>2011-06-30T07:10:46Z</time>
      </trkpt>
      <trkpt lat="45.19851" lon="5.62806">
        <ele>775</ele>
        <time>2011-06-30T07:10:48Z</time>
      </trkpt>
      <trkpt lat="45.19846" lon="5.62802">
        <ele>775</ele>
        <time>2011-06-30T07:10:50Z</time>
      </trkpt>
      <trkpt lat="45.1984" lon="5.62799">
        <ele>774</ele>
        <time>2011-06-30T07:10:52Z</time>
      </trkpt>
      <trkpt lat="45.19836" lon="5.62793">
        <ele>775</ele>
        <time>2011-06-30T07:10:54Z</time>
      </trkpt>
      <trkpt lat="45.19832" lon="5.62789">
        <ele>776</ele>
        <time>2011-06-30T07:10:56Z</time>
      </trkpt>
      <trkpt lat="45.19829" lon="5.62783">
        <ele>778</ele>
        <time>2011-06-30T07:10:58Z</time>
      </trkpt>
      <trkpt lat="45.19825" lon="5.62778">
        <ele>777</ele>
        <time>2011-06-30T07:11:00Z</time>
      </trkpt>
      <trkpt lat="45.1982" lon="5.62775">
        <ele>777</ele>
        <time>2011-06-30T07:11:02Z</time>
      </trkpt>
      <trkpt lat="45.19814" lon="5.62767">
        <ele>777</ele>
        <time>2011-06-30T07:11:05Z</time>
      </trkpt>
      <trkpt lat="45.1981" lon="5.62763">
        <ele>777</ele>
        <time>2011-06-30T07:11:07Z</time>
      </trkpt>
      <trkpt lat="45.19806" lon="5.62758">
        <ele>777</ele>
        <time>2011-06-30T07:11:09Z</time>
      </trkpt>
      <trkpt lat="45.19802" lon="5.62759">
        <ele>776</ele>
        <time>2011-06-30T07:11:10Z</time>
      </trkpt>
      <trkpt lat="45.19797" lon="5.62757">
        <ele>775</ele>
        <time>2011-06-30T07:11:12Z</time>
      </trkpt>
      <trkpt lat="45.19791" lon="5.62756">
        <ele>775</ele>
        <time>2011-06-30T07:11:14Z</time>
      </trkpt>
      <trkpt lat="45.19786" lon="5.62755">
        <ele>776</ele>
        <time>2011-06-30T07:11:16Z</time>
      </trkpt>
      <trkpt lat="45.1978" lon="5.62754">
        <ele>776</ele>
        <time>2011-06-30T07:11:18Z</time>
      </trkpt>
      <trkpt lat="45.19775" lon="5.62751">
        <ele>776</ele>
        <time>2011-06-30T07:11:20Z</time>
      </trkpt>
      <trkpt lat="45.1977" lon="5.6275">
        <ele>777</ele>
        <time>2011-06-30T07:11:22Z</time>
      </trkpt>
      <trkpt lat="45.19764" lon="5.62746">
        <ele>778</ele>
        <time>2011-06-30T07:11:25Z</time>
      </trkpt>
      <trkpt lat="45.19758" lon="5.62747">
        <ele>777</ele>
        <time>2011-06-30T07:11:27Z</time>
      </trkpt>
      <trkpt lat="45.19753" lon="5.62746">
        <ele>777</ele>
        <time>2011-06-30T07:11:29Z</time>
      </trkpt>
      <trkpt lat="45.19748" lon="5.62745">
        <ele>778</ele>
        <time>2011-06-30T07:11:31Z</time>
      </trkpt>
      <trkpt lat="45.19744" lon="5.62741">
        <ele>778</ele>
        <time>2011-06-30T07:11:33Z</time>
      </trkpt>
      <trkpt lat="45.19737" lon="5.6274">
        <ele>780</ele>
        <time>2011-06-30T07:11:35Z</time>
      </trkpt>
      <trkpt lat="45.19731" lon="5.62739">
        <ele>782</ele>
        <time>2011-06-30T07:11:37Z</time>
      </trkpt>
      <trkpt lat="45.19726" lon="5.62736">
        <ele>782</ele>
        <time>2011-06-30T07:11:39Z</time>
      </trkpt>
      <trkpt lat="45.19718" lon="5.62733">
        <ele>782</ele>
        <time>2011-06-30T07:11:41Z</time>
      </trkpt>
      <trkpt lat="45.19714" lon="5.62734">
        <ele>782</ele>
        <time>2011-06-30T07:11:43Z</time>
      </trkpt>
      <trkpt lat="45.19708" lon="5.62734">
        <ele>782</ele>
        <time>2011-06-30T07:11:45Z</time>
      </trkpt>
      <trkpt lat="45.19703" lon="5.62734">
        <ele>782</ele>
        <time>2011-06-30T07:11:47Z</time>
      </trkpt>
      <trkpt lat="45.19698" lon="5.6273">
        <ele>783</ele>
        <time>2011-06-30T07:11:50Z</time>
      </trkpt>
      <trkpt lat="45.19698" lon="5.6273">
        <ele>783</ele>
        <time>2011-06-30T07:11:50Z</time>
      </trkpt>
      <trkpt lat="45.19698" lon="5.6273">
        <ele>783</ele>
        <time>2011-06-30T07:11:56Z</time>
      </trkpt>
      <trkpt lat="45.19692" lon="5.62725">
        <ele>780</ele>
        <time>2011-06-30T07:12:32Z</time>
      </trkpt>
      <trkpt lat="45.19676" lon="5.62727">
        <ele>781</ele>
        <time>2011-06-30T07:12:34Z</time>
      </trkpt>
      <trkpt lat="45.19662" lon="5.62734">
        <ele>780</ele>
        <time>2011-06-30T07:12:36Z</time>
      </trkpt>
      <trkpt lat="45.19654" lon="5.62734">
        <ele>780</ele>
        <time>2011-06-30T07:12:38Z</time>
      </trkpt>
      <trkpt lat="45.19648" lon="5.62734">
        <ele>781</ele>
        <time>2011-06-30T07:12:39Z</time>
      </trkpt>
      <trkpt lat="45.19624" lon="5.62733">
        <ele>779</ele>
        <time>2011-06-30T07:12:42Z</time>
      </trkpt>
      <trkpt lat="45.1961" lon="5.62733">
        <ele>776</ele>
        <time>2011-06-30T07:12:44Z</time>
      </trkpt>
      <trkpt lat="45.19597" lon="5.62735">
        <ele>775</ele>
        <time>2011-06-30T07:12:46Z</time>
      </trkpt>
      <trkpt lat="45.19592" lon="5.62737">
        <ele>775</ele>
        <time>2011-06-30T07:12:47Z</time>
      </trkpt>
      <trkpt lat="45.19573" lon="5.62749">
        <ele>775</ele>
        <time>2011-06-30T07:12:50Z</time>
      </trkpt>
      <trkpt lat="45.19564" lon="5.6275">
        <ele>774</ele>
        <time>2011-06-30T07:12:52Z</time>
      </trkpt>
      <trkpt lat="45.19562" lon="5.62758">
        <ele>772</ele>
        <time>2011-06-30T07:13:01Z</time>
      </trkpt>
      <trkpt lat="45.19567" lon="5.62781">
        <ele>770</ele>
        <time>2011-06-30T07:13:07Z</time>
      </trkpt>
      <trkpt lat="45.19573" lon="5.6277">
        <ele>770</ele>
        <time>2011-06-30T07:13:08Z</time>
      </trkpt>
      <trkpt lat="45.1958" lon="5.62771">
        <ele>767</ele>
        <time>2011-06-30T07:13:11Z</time>
      </trkpt>
      <trkpt lat="45.19586" lon="5.62769">
        <ele>766</ele>
        <time>2011-06-30T07:13:12Z</time>
      </trkpt>
      <trkpt lat="45.19592" lon="5.62775">
        <ele>765</ele>
        <time>2011-06-30T07:13:14Z</time>
      </trkpt>
      <trkpt lat="45.19597" lon="5.62776">
        <ele>766</ele>
        <time>2011-06-30T07:13:16Z</time>
      </trkpt>
      <trkpt lat="45.19601" lon="5.6278">
        <ele>763</ele>
        <time>2011-06-30T07:13:19Z</time>
      </trkpt>
      <trkpt lat="45.19607" lon="5.62782">
        <ele>763</ele>
        <time>2011-06-30T07:13:22Z</time>
      </trkpt>
      <trkpt lat="45.19613" lon="5.62784">
        <ele>764</ele>
        <time>2011-06-30T07:13:24Z</time>
      </trkpt>
      <trkpt lat="45.19619" lon="5.62787">
        <ele>764</ele>
        <time>2011-06-30T07:13:26Z</time>
      </trkpt>
      <trkpt lat="45.19626" lon="5.62792">
        <ele>763</ele>
        <time>2011-06-30T07:13:28Z</time>
      </trkpt>
      <trkpt lat="45.19634" lon="5.62796">
        <ele>764</ele>
        <time>2011-06-30T07:13:30Z</time>
      </trkpt>
      <trkpt lat="45.19638" lon="5.62798">
        <ele>765</ele>
        <time>2011-06-30T07:13:31Z</time>
      </trkpt>
      <trkpt lat="45.19646" lon="5.62803">
        <ele>764</ele>
        <time>2011-06-30T07:13:33Z</time>
      </trkpt>
      <trkpt lat="45.19652" lon="5.62811">
        <ele>762</ele>
        <time>2011-06-30T07:13:35Z</time>
      </trkpt>
      <trkpt lat="45.19657" lon="5.62815">
        <ele>762</ele>
        <time>2011-06-30T07:13:36Z</time>
      </trkpt>
      <trkpt lat="45.19661" lon="5.6282">
        <ele>761</ele>
        <time>2011-06-30T07:13:37Z</time>
      </trkpt>
      <trkpt lat="45.19665" lon="5.62824">
        <ele>761</ele>
        <time>2011-06-30T07:13:38Z</time>
      </trkpt>
      <trkpt lat="45.19672" lon="5.62831">
        <ele>761</ele>
        <time>2011-06-30T07:13:40Z</time>
      </trkpt>
      <trkpt lat="45.19678" lon="5.62834">
        <ele>760</ele>
        <time>2011-06-30T07:13:41Z</time>
      </trkpt>
      <trkpt lat="45.19685" lon="5.62832">
        <ele>760</ele>
        <time>2011-06-30T07:13:42Z</time>
      </trkpt>
      <trkpt lat="45.1969" lon="5.62832">
        <ele>759</ele>
        <time>2011-06-30T07:13:43Z</time>
      </trkpt>
      <trkpt lat="45.19695" lon="5.62832">
        <ele>759</ele>
        <time>2011-06-30T07:13:44Z</time>
      </trkpt>
      <trkpt lat="45.19703" lon="5.62835">
        <ele>757</ele>
        <time>2011-06-30T07:13:45Z</time>
      </trkpt>
      <trkpt lat="45.19709" lon="5.62838">
        <ele>756</ele>
        <time>2011-06-30T07:13:46Z</time>
      </trkpt>
      <trkpt lat="45.19715" lon="5.6284">
        <ele>755</ele>
        <time>2011-06-30T07:13:47Z</time>
      </trkpt>
      <trkpt lat="45.1972" lon="5.62844">
        <ele>754</ele>
        <time>2011-06-30T07:13:48Z</time>
      </trkpt>
      <trkpt lat="45.19725" lon="5.6285">
        <ele>752</ele>
        <time>2011-06-30T07:13:49Z</time>
      </trkpt>
      <trkpt lat="45.1973" lon="5.62856">
        <ele>751</ele>
        <time>2011-06-30T07:13:50Z</time>
      </trkpt>
      <trkpt lat="45.19736" lon="5.62861">
        <ele>751</ele>
        <time>2011-06-30T07:13:51Z</time>
      </trkpt>
      <trkpt lat="45.19743" lon="5.62867">
        <ele>751</ele>
        <time>2011-06-30T07:13:52Z</time>
      </trkpt>
      <trkpt lat="45.19749" lon="5.62872">
        <ele>750</ele>
        <time>2011-06-30T07:13:53Z</time>
      </trkpt>
      <trkpt lat="45.19755" lon="5.62876">
        <ele>749</ele>
        <time>2011-06-30T07:13:54Z</time>
      </trkpt>
      <trkpt lat="45.19762" lon="5.62882">
        <ele>748</ele>
        <time>2011-06-30T07:13:55Z</time>
      </trkpt>
      <trkpt lat="45.19767" lon="5.62887">
        <ele>748</ele>
        <time>2011-06-30T07:13:56Z</time>
      </trkpt>
      <trkpt lat="45.19774" lon="5.62892">
        <ele>748</ele>
        <time>2011-06-30T07:13:57Z</time>
      </trkpt>
      <trkpt lat="45.19779" lon="5.62896">
        <ele>748</ele>
        <time>2011-06-30T07:13:58Z</time>
      </trkpt>
      <trkpt lat="45.19784" lon="5.629">
        <ele>747</ele>
        <time>2011-06-30T07:13:59Z</time>
      </trkpt>
      <trkpt lat="45.1979" lon="5.62905">
        <ele>747</ele>
        <time>2011-06-30T07:14:00Z</time>
      </trkpt>
      <trkpt lat="45.19794" lon="5.62912">
        <ele>746</ele>
        <time>2011-06-30T07:14:01Z</time>
      </trkpt>
      <trkpt lat="45.198" lon="5.62917">
        <ele>746</ele>
        <time>2011-06-30T07:14:02Z</time>
      </trkpt>
      <trkpt lat="45.19808" lon="5.62931">
        <ele>746</ele>
        <time>2011-06-30T07:14:04Z</time>
      </trkpt>
      <trkpt lat="45.19814" lon="5.62937">
        <ele>745</ele>
        <time>2011-06-30T07:14:05Z</time>
      </trkpt>
      <trkpt lat="45.1982" lon="5.62941">
        <ele>745</ele>
        <time>2011-06-30T07:14:06Z</time>
      </trkpt>
      <trkpt lat="45.19825" lon="5.62945">
        <ele>745</ele>
        <time>2011-06-30T07:14:07Z</time>
      </trkpt>
      <trkpt lat="45.1983" lon="5.62948">
        <ele>744</ele>
        <time>2011-06-30T07:14:08Z</time>
      </trkpt>
      <trkpt lat="45.19835" lon="5.62951">
        <ele>744</ele>
        <time>2011-06-30T07:14:09Z</time>
      </trkpt>
      <trkpt lat="45.19841" lon="5.62956">
        <ele>744</ele>
        <time>2011-06-30T07:14:10Z</time>
      </trkpt>
      <trkpt lat="45.1985" lon="5.62964">
        <ele>743</ele>
        <time>2011-06-30T07:14:12Z</time>
      </trkpt>
      <trkpt lat="45.19857" lon="5.62968">
        <ele>743</ele>
        <time>2011-06-30T07:14:13Z</time>
      </trkpt>
      <trkpt lat="45.19861" lon="5.62973">
        <ele>742</ele>
        <time>2011-06-30T07:14:14Z</time>
      </trkpt>
      <trkpt lat="45.19865" lon="5.62978">
        <ele>741</ele>
        <time>2011-06-30T07:14:15Z</time>
      </trkpt>
      <trkpt lat="45.19871" lon="5.62982">
        <ele>738</ele>
        <time>2011-06-30T07:14:17Z</time>
      </trkpt>
      <trkpt lat="45.19927" lon="5.63032">
        <ele>738</ele>
        <time>2011-06-30T07:15:12Z</time>
      </trkpt>
      <trkpt lat="45.19944" lon="5.63047">
        <ele>737</ele>
        <time>2011-06-30T07:15:15Z</time>
      </trkpt>
      <trkpt lat="45.19965" lon="5.63072">
        <ele>728</ele>
        <time>2011-06-30T07:15:18Z</time>
      </trkpt>
      <trkpt lat="45.19984" lon="5.63093">
        <ele>721</ele>
        <time>2011-06-30T07:15:20Z</time>
      </trkpt>
      <trkpt lat="45.19992" lon="5.63102">
        <ele>721</ele>
        <time>2011-06-30T07:15:21Z</time>
      </trkpt>
      <trkpt lat="45.20023" lon="5.63132">
        <ele>713</ele>
        <time>2011-06-30T07:15:24Z</time>
      </trkpt>
      <trkpt lat="45.20059" lon="5.63157">
        <ele>711</ele>
        <time>2011-06-30T07:15:27Z</time>
      </trkpt>
      <trkpt lat="45.20094" lon="5.63178">
        <ele>711</ele>
        <time>2011-06-30T07:15:30Z</time>
      </trkpt>
      <trkpt lat="45.2013" lon="5.63188">
        <ele>709</ele>
        <time>2011-06-30T07:15:33Z</time>
      </trkpt>
      <trkpt lat="45.20147" lon="5.63199">
        <ele>705</ele>
        <time>2011-06-30T07:15:37Z</time>
      </trkpt>
      <trkpt lat="45.20154" lon="5.63184">
        <ele>700</ele>
        <time>2011-06-30T07:15:40Z</time>
      </trkpt>
      <trkpt lat="45.20147" lon="5.63189">
        <ele>697</ele>
        <time>2011-06-30T07:15:43Z</time>
      </trkpt>
      <trkpt lat="45.20135" lon="5.63183">
        <ele>697</ele>
        <time>2011-06-30T07:15:46Z</time>
      </trkpt>
      <trkpt lat="45.20114" lon="5.6318">
        <ele>697</ele>
        <time>2011-06-30T07:15:51Z</time>
      </trkpt>
      <trkpt lat="45.20089" lon="5.63172">
        <ele>696</ele>
        <time>2011-06-30T07:15:54Z</time>
      </trkpt>
      <trkpt lat="45.2007" lon="5.63175">
        <ele>695</ele>
        <time>2011-06-30T07:15:57Z</time>
      </trkpt>
      <trkpt lat="45.20054" lon="5.63184">
        <ele>694</ele>
        <time>2011-06-30T07:16:00Z</time>
      </trkpt>
      <trkpt lat="45.19968" lon="5.63183">
        <ele>686</ele>
        <time>2011-06-30T07:16:09Z</time>
      </trkpt>
      <trkpt lat="45.19959" lon="5.63178">
        <ele>686</ele>
        <time>2011-06-30T07:16:10Z</time>
      </trkpt>
      <trkpt lat="45.1995" lon="5.63177">
        <ele>686</ele>
        <time>2011-06-30T07:16:11Z</time>
      </trkpt>
      <trkpt lat="45.19938" lon="5.63177">
        <ele>683</ele>
        <time>2011-06-30T07:16:12Z</time>
      </trkpt>
      <trkpt lat="45.19929" lon="5.63173">
        <ele>683</ele>
        <time>2011-06-30T07:16:13Z</time>
      </trkpt>
      <trkpt lat="45.19924" lon="5.63166">
        <ele>683</ele>
        <time>2011-06-30T07:16:14Z</time>
      </trkpt>
      <trkpt lat="45.19917" lon="5.63164">
        <ele>683</ele>
        <time>2011-06-30T07:16:15Z</time>
      </trkpt>
      <trkpt lat="45.19909" lon="5.63163">
        <ele>683</ele>
        <time>2011-06-30T07:16:16Z</time>
      </trkpt>
      <trkpt lat="45.19902" lon="5.63165">
        <ele>683</ele>
        <time>2011-06-30T07:16:17Z</time>
      </trkpt>
      <trkpt lat="45.19897" lon="5.63166">
        <ele>683</ele>
        <time>2011-06-30T07:16:18Z</time>
      </trkpt>
      <trkpt lat="45.19909" lon="5.63145">
        <ele>680</ele>
        <time>2011-06-30T07:16:19Z</time>
      </trkpt>
      <trkpt lat="45.19906" lon="5.63154">
        <ele>680</ele>
        <time>2011-06-30T07:16:20Z</time>
      </trkpt>
      <trkpt lat="45.19913" lon="5.63169">
        <ele>680</ele>
        <time>2011-06-30T07:16:22Z</time>
      </trkpt>
      <trkpt lat="45.19918" lon="5.6318">
        <ele>677</ele>
        <time>2011-06-30T07:16:23Z</time>
      </trkpt>
      <trkpt lat="45.19923" lon="5.63189">
        <ele>675</ele>
        <time>2011-06-30T07:16:24Z</time>
      </trkpt>
      <trkpt lat="45.19929" lon="5.63195">
        <ele>674</ele>
        <time>2011-06-30T07:16:25Z</time>
      </trkpt>
      <trkpt lat="45.19936" lon="5.63198">
        <ele>674</ele>
        <time>2011-06-30T07:16:26Z</time>
      </trkpt>
      <trkpt lat="45.19943" lon="5.632">
        <ele>672</ele>
        <time>2011-06-30T07:16:27Z</time>
      </trkpt>
      <trkpt lat="45.19951" lon="5.63202">
        <ele>672</ele>
        <time>2011-06-30T07:16:28Z</time>
      </trkpt>
      <trkpt lat="45.19958" lon="5.63203">
        <ele>670</ele>
        <time>2011-06-30T07:16:29Z</time>
      </trkpt>
      <trkpt lat="45.19965" lon="5.63207">
        <ele>669</ele>
        <time>2011-06-30T07:16:30Z</time>
      </trkpt>
      <trkpt lat="45.19973" lon="5.63211">
        <ele>669</ele>
        <time>2011-06-30T07:16:31Z</time>
      </trkpt>
      <trkpt lat="45.1998" lon="5.63214">
        <ele>668</ele>
        <time>2011-06-30T07:16:32Z</time>
      </trkpt>
      <trkpt lat="45.19988" lon="5.63219">
        <ele>668</ele>
        <time>2011-06-30T07:16:33Z</time>
      </trkpt>
      <trkpt lat="45.19995" lon="5.63223">
        <ele>666</ele>
        <time>2011-06-30T07:16:34Z</time>
      </trkpt>
      <trkpt lat="45.20003" lon="5.63227">
        <ele>665</ele>
        <time>2011-06-30T07:16:35Z</time>
      </trkpt>
      <trkpt lat="45.20011" lon="5.63231">
        <ele>665</ele>
        <time>2011-06-30T07:16:36Z</time>
      </trkpt>
      <trkpt lat="45.20018" lon="5.63234">
        <ele>664</ele>
        <time>2011-06-30T07:16:37Z</time>
      </trkpt>
      <trkpt lat="45.20026" lon="5.63237">
        <ele>663</ele>
        <time>2011-06-30T07:16:38Z</time>
      </trkpt>
      <trkpt lat="45.20033" lon="5.6324">
        <ele>663</ele>
        <time>2011-06-30T07:16:39Z</time>
      </trkpt>
      <trkpt lat="45.20039" lon="5.63244">
        <ele>663</ele>
        <time>2011-06-30T07:16:40Z</time>
      </trkpt>
      <trkpt lat="45.20045" lon="5.63247">
        <ele>663</ele>
        <time>2011-06-30T07:16:41Z</time>
      </trkpt>
      <trkpt lat="45.20051" lon="5.63252">
        <ele>662</ele>
        <time>2011-06-30T07:16:42Z</time>
      </trkpt>
      <trkpt lat="45.20058" lon="5.63254">
        <ele>662</ele>
        <time>2011-06-30T07:16:43Z</time>
      </trkpt>
      <trkpt lat="45.20064" lon="5.63256">
        <ele>661</ele>
        <time>2011-06-30T07:16:44Z</time>
      </trkpt>
      <trkpt lat="45.2007" lon="5.63259">
        <ele>661</ele>
        <time>2011-06-30T07:16:45Z</time>
      </trkpt>
      <trkpt lat="45.20076" lon="5.6326">
        <ele>661</ele>
        <time>2011-06-30T07:16:46Z</time>
      </trkpt>
      <trkpt lat="45.20082" lon="5.63262">
        <ele>661</ele>
        <time>2011-06-30T07:16:47Z</time>
      </trkpt>
      <trkpt lat="45.20086" lon="5.63265">
        <ele>661</ele>
        <time>2011-06-30T07:16:48Z</time>
      </trkpt>
      <trkpt lat="45.20092" lon="5.63268">
        <ele>661</ele>
        <time>2011-06-30T07:16:49Z</time>
      </trkpt>
      <trkpt lat="45.20098" lon="5.63271">
        <ele>661</ele>
        <time>2011-06-30T07:16:50Z</time>
      </trkpt>
      <trkpt lat="45.20104" lon="5.63274">
        <ele>660</ele>
        <time>2011-06-30T07:16:51Z</time>
      </trkpt>
      <trkpt lat="45.2011" lon="5.63278">
        <ele>660</ele>
        <time>2011-06-30T07:16:52Z</time>
      </trkpt>
      <trkpt lat="45.20118" lon="5.63283">
        <ele>660</ele>
        <time>2011-06-30T07:16:53Z</time>
      </trkpt>
      <trkpt lat="45.20124" lon="5.63288">
        <ele>660</ele>
        <time>2011-06-30T07:16:54Z</time>
      </trkpt>
      <trkpt lat="45.2013" lon="5.63293">
        <ele>660</ele>
        <time>2011-06-30T07:16:55Z</time>
      </trkpt>
      <trkpt lat="45.20137" lon="5.63296">
        <ele>660</ele>
        <time>2011-06-30T07:16:56Z</time>
      </trkpt>
      <trkpt lat="45.20144" lon="5.633">
        <ele>660</ele>
        <time>2011-06-30T07:16:57Z</time>
      </trkpt>
      <trkpt lat="45.20151" lon="5.63304">
        <ele>660</ele>
        <time>2011-06-30T07:16:58Z</time>
      </trkpt>
      <trkpt lat="45.20158" lon="5.63308">
        <ele>660</ele>
        <time>2011-06-30T07:16:59Z</time>
      </trkpt>
      <trkpt lat="45.20166" lon="5.63313">
        <ele>660</ele>
        <time>2011-06-30T07:17:00Z</time>
      </trkpt>
      <trkpt lat="45.20172" lon="5.63319">
        <ele>660</ele>
        <time>2011-06-30T07:17:01Z</time>
      </trkpt>
      <trkpt lat="45.20181" lon="5.63323">
        <ele>658</ele>
        <time>2011-06-30T07:17:02Z</time>
      </trkpt>
      <trkpt lat="45.20191" lon="5.63337">
        <ele>657</ele>
        <time>2011-06-30T07:17:04Z</time>
      </trkpt>
      <trkpt lat="45.20196" lon="5.63341">
        <ele>657</ele>
        <time>2011-06-30T07:17:05Z</time>
      </trkpt>
      <trkpt lat="45.20201" lon="5.63347">
        <ele>657</ele>
        <time>2011-06-30T07:17:06Z</time>
      </trkpt>
      <trkpt lat="45.20206" lon="5.63352">
        <ele>656</ele>
        <time>2011-06-30T07:17:07Z</time>
      </trkpt>
      <trkpt lat="45.20212" lon="5.63357">
        <ele>656</ele>
        <time>2011-06-30T07:17:08Z</time>
      </trkpt>
      <trkpt lat="45.20218" lon="5.63359">
        <ele>655</ele>
        <time>2011-06-30T07:17:09Z</time>
      </trkpt>
      <trkpt lat="45.20224" lon="5.63362">
        <ele>653</ele>
        <time>2011-06-30T07:17:10Z</time>
      </trkpt>
      <trkpt lat="45.2023" lon="5.63367">
        <ele>652</ele>
        <time>2011-06-30T07:17:11Z</time>
      </trkpt>
      <trkpt lat="45.20236" lon="5.63369">
        <ele>651</ele>
        <time>2011-06-30T07:17:12Z</time>
      </trkpt>
      <trkpt lat="45.2024" lon="5.63374">
        <ele>650</ele>
        <time>2011-06-30T07:17:13Z</time>
      </trkpt>
      <trkpt lat="45.20244" lon="5.63383">
        <ele>650</ele>
        <time>2011-06-30T07:17:14Z</time>
      </trkpt>
      <trkpt lat="45.20247" lon="5.63393">
        <ele>650</ele>
        <time>2011-06-30T07:17:15Z</time>
      </trkpt>
      <trkpt lat="45.20251" lon="5.63401">
        <ele>649</ele>
        <time>2011-06-30T07:17:16Z</time>
      </trkpt>
      <trkpt lat="45.20254" lon="5.63413">
        <ele>648</ele>
        <time>2011-06-30T07:17:17Z</time>
      </trkpt>
      <trkpt lat="45.20256" lon="5.63428">
        <ele>648</ele>
        <time>2011-06-30T07:17:18Z</time>
      </trkpt>
      <trkpt lat="45.20256" lon="5.6344">
        <ele>646</ele>
        <time>2011-06-30T07:17:19Z</time>
      </trkpt>
      <trkpt lat="45.20258" lon="5.63453">
        <ele>645</ele>
        <time>2011-06-30T07:17:20Z</time>
      </trkpt>
      <trkpt lat="45.20262" lon="5.63467">
        <ele>644</ele>
        <time>2011-06-30T07:17:21Z</time>
      </trkpt>
      <trkpt lat="45.20267" lon="5.63478">
        <ele>641</ele>
        <time>2011-06-30T07:17:22Z</time>
      </trkpt>
      <trkpt lat="45.20273" lon="5.6349">
        <ele>640</ele>
        <time>2011-06-30T07:17:23Z</time>
      </trkpt>
      <trkpt lat="45.20275" lon="5.63501">
        <ele>637</ele>
        <time>2011-06-30T07:17:24Z</time>
      </trkpt>
      <trkpt lat="45.2028" lon="5.6351">
        <ele>636</ele>
        <time>2011-06-30T07:17:25Z</time>
      </trkpt>
      <trkpt lat="45.20282" lon="5.63522">
        <ele>634</ele>
        <time>2011-06-30T07:17:26Z</time>
      </trkpt>
      <trkpt lat="45.20286" lon="5.63532">
        <ele>632</ele>
        <time>2011-06-30T07:17:27Z</time>
      </trkpt>
      <trkpt lat="45.2029" lon="5.63542">
        <ele>630</ele>
        <time>2011-06-30T07:17:28Z</time>
      </trkpt>
      <trkpt lat="45.20295" lon="5.63552">
        <ele>628</ele>
        <time>2011-06-30T07:17:29Z</time>
      </trkpt>
      <trkpt lat="45.203" lon="5.63562">
        <ele>627</ele>
        <time>2011-06-30T07:17:30Z</time>
      </trkpt>
      <trkpt lat="45.20305" lon="5.63572">
        <ele>626</ele>
        <time>2011-06-30T07:17:31Z</time>
      </trkpt>
      <trkpt lat="45.20311" lon="5.63582">
        <ele>625</ele>
        <time>2011-06-30T07:17:32Z</time>
      </trkpt>
      <trkpt lat="45.20317" lon="5.63592">
        <ele>624</ele>
        <time>2011-06-30T07:17:33Z</time>
      </trkpt>
      <trkpt lat="45.20322" lon="5.63601">
        <ele>624</ele>
        <time>2011-06-30T07:17:34Z</time>
      </trkpt>
      <trkpt lat="45.20328" lon="5.63609">
        <ele>623</ele>
        <time>2011-06-30T07:17:35Z</time>
      </trkpt>
      <trkpt lat="45.20333" lon="5.63617">
        <ele>622</ele>
        <time>2011-06-30T07:17:36Z</time>
      </trkpt>
      <trkpt lat="45.20336" lon="5.63626">
        <ele>622</ele>
        <time>2011-06-30T07:17:37Z</time>
      </trkpt>
      <trkpt lat="45.20339" lon="5.63634">
        <ele>622</ele>
        <time>2011-06-30T07:17:38Z</time>
      </trkpt>
      <trkpt lat="45.2034" lon="5.63644">
        <ele>622</ele>
        <time>2011-06-30T07:17:39Z</time>
      </trkpt>
      <trkpt lat="45.20339" lon="5.63653">
        <ele>622</ele>
        <time>2011-06-30T07:17:40Z</time>
      </trkpt>
      <trkpt lat="45.20339" lon="5.63664">
        <ele>622</ele>
        <time>2011-06-30T07:17:41Z</time>
      </trkpt>
      <trkpt lat="45.20338" lon="5.63673">
        <ele>621</ele>
        <time>2011-06-30T07:17:42Z</time>
      </trkpt>
      <trkpt lat="45.20338" lon="5.63684">
        <ele>619</ele>
        <time>2011-06-30T07:17:43Z</time>
      </trkpt>
      <trkpt lat="45.20339" lon="5.63693">
        <ele>618</ele>
        <time>2011-06-30T07:17:44Z</time>
      </trkpt>
      <trkpt lat="45.20341" lon="5.63702">
        <ele>618</ele>
        <time>2011-06-30T07:17:45Z</time>
      </trkpt>
      <trkpt lat="45.20344" lon="5.6371">
        <ele>617</ele>
        <time>2011-06-30T07:17:46Z</time>
      </trkpt>
      <trkpt lat="45.20349" lon="5.63717">
        <ele>616</ele>
        <time>2011-06-30T07:17:47Z</time>
      </trkpt>
      <trkpt lat="45.20353" lon="5.63722">
        <ele>615</ele>
        <time>2011-06-30T07:17:48Z</time>
      </trkpt>
      <trkpt lat="45.20358" lon="5.63729">
        <ele>615</ele>
        <time>2011-06-30T07:17:49Z</time>
      </trkpt>
      <trkpt lat="45.20363" lon="5.63736">
        <ele>613</ele>
        <time>2011-06-30T07:17:50Z</time>
      </trkpt>
      <trkpt lat="45.20369" lon="5.63743">
        <ele>613</ele>
        <time>2011-06-30T07:17:51Z</time>
      </trkpt>
      <trkpt lat="45.20374" lon="5.63752">
        <ele>612</ele>
        <time>2011-06-30T07:17:52Z</time>
      </trkpt>
      <trkpt lat="45.20379" lon="5.6376">
        <ele>611</ele>
        <time>2011-06-30T07:17:53Z</time>
      </trkpt>
      <trkpt lat="45.20384" lon="5.63766">
        <ele>610</ele>
        <time>2011-06-30T07:17:54Z</time>
      </trkpt>
      <trkpt lat="45.20389" lon="5.63773">
        <ele>610</ele>
        <time>2011-06-30T07:17:55Z</time>
      </trkpt>
      <trkpt lat="45.20394" lon="5.63779">
        <ele>610</ele>
        <time>2011-06-30T07:17:56Z</time>
      </trkpt>
      <trkpt lat="45.204" lon="5.63787">
        <ele>610</ele>
        <time>2011-06-30T07:17:57Z</time>
      </trkpt>
      <trkpt lat="45.20406" lon="5.63793">
        <ele>609</ele>
        <time>2011-06-30T07:17:58Z</time>
      </trkpt>
      <trkpt lat="45.2041" lon="5.63799">
        <ele>609</ele>
        <time>2011-06-30T07:17:59Z</time>
      </trkpt>
      <trkpt lat="45.20416" lon="5.63805">
        <ele>609</ele>
        <time>2011-06-30T07:18:00Z</time>
      </trkpt>
      <trkpt lat="45.20422" lon="5.6381">
        <ele>608</ele>
        <time>2011-06-30T07:18:01Z</time>
      </trkpt>
      <trkpt lat="45.20427" lon="5.63816">
        <ele>608</ele>
        <time>2011-06-30T07:18:02Z</time>
      </trkpt>
      <trkpt lat="45.2044" lon="5.63828">
        <ele>608</ele>
        <time>2011-06-30T07:18:04Z</time>
      </trkpt>
      <trkpt lat="45.20445" lon="5.63835">
        <ele>608</ele>
        <time>2011-06-30T07:18:05Z</time>
      </trkpt>
      <trkpt lat="45.20451" lon="5.63843">
        <ele>608</ele>
        <time>2011-06-30T07:18:06Z</time>
      </trkpt>
      <trkpt lat="45.20457" lon="5.63851">
        <ele>607</ele>
        <time>2011-06-30T07:18:07Z</time>
      </trkpt>
      <trkpt lat="45.20461" lon="5.6386">
        <ele>605</ele>
        <time>2011-06-30T07:18:08Z</time>
      </trkpt>
      <trkpt lat="45.20465" lon="5.6387">
        <ele>602</ele>
        <time>2011-06-30T07:18:09Z</time>
      </trkpt>
      <trkpt lat="45.2047" lon="5.63879">
        <ele>601</ele>
        <time>2011-06-30T07:18:10Z</time>
      </trkpt>
      <trkpt lat="45.20474" lon="5.63889">
        <ele>600</ele>
        <time>2011-06-30T07:18:11Z</time>
      </trkpt>
      <trkpt lat="45.20479" lon="5.63899">
        <ele>598</ele>
        <time>2011-06-30T07:18:12Z</time>
      </trkpt>
      <trkpt lat="45.20483" lon="5.63909">
        <ele>598</ele>
        <time>2011-06-30T07:18:13Z</time>
      </trkpt>
      <trkpt lat="45.20488" lon="5.63919">
        <ele>597</ele>
        <time>2011-06-30T07:18:14Z</time>
      </trkpt>
      <trkpt lat="45.20492" lon="5.63928">
        <ele>596</ele>
        <time>2011-06-30T07:18:15Z</time>
      </trkpt>
      <trkpt lat="45.20497" lon="5.63939">
        <ele>594</ele>
        <time>2011-06-30T07:18:16Z</time>
      </trkpt>
      <trkpt lat="45.20502" lon="5.63947">
        <ele>592</ele>
        <time>2011-06-30T07:18:17Z</time>
      </trkpt>
      <trkpt lat="45.20506" lon="5.63955">
        <ele>591</ele>
        <time>2011-06-30T07:18:18Z</time>
      </trkpt>
      <trkpt lat="45.20511" lon="5.63964">
        <ele>590</ele>
        <time>2011-06-30T07:18:19Z</time>
      </trkpt>
      <trkpt lat="45.20517" lon="5.63974">
        <ele>590</ele>
        <time>2011-06-30T07:18:20Z</time>
      </trkpt>
      <trkpt lat="45.20523" lon="5.63982">
        <ele>588</ele>
        <time>2011-06-30T07:18:21Z</time>
      </trkpt>
      <trkpt lat="45.20528" lon="5.6399">
        <ele>587</ele>
        <time>2011-06-30T07:18:22Z</time>
      </trkpt>
      <trkpt lat="45.20533" lon="5.63999">
        <ele>586</ele>
        <time>2011-06-30T07:18:23Z</time>
      </trkpt>
      <trkpt lat="45.20538" lon="5.64007">
        <ele>585</ele>
        <time>2011-06-30T07:18:24Z</time>
      </trkpt>
      <trkpt lat="45.20541" lon="5.64017">
        <ele>585</ele>
        <time>2011-06-30T07:18:25Z</time>
      </trkpt>
      <trkpt lat="45.20545" lon="5.64026">
        <ele>584</ele>
        <time>2011-06-30T07:18:26Z</time>
      </trkpt>
      <trkpt lat="45.20548" lon="5.64033">
        <ele>583</ele>
        <time>2011-06-30T07:18:27Z</time>
      </trkpt>
      <trkpt lat="45.20553" lon="5.6404">
        <ele>582</ele>
        <time>2011-06-30T07:18:28Z</time>
      </trkpt>
      <trkpt lat="45.20556" lon="5.64048">
        <ele>581</ele>
        <time>2011-06-30T07:18:29Z</time>
      </trkpt>
      <trkpt lat="45.20561" lon="5.64056">
        <ele>579</ele>
        <time>2011-06-30T07:18:30Z</time>
      </trkpt>
      <trkpt lat="45.20564" lon="5.64065">
        <ele>578</ele>
        <time>2011-06-30T07:18:31Z</time>
      </trkpt>
      <trkpt lat="45.20568" lon="5.64074">
        <ele>576</ele>
        <time>2011-06-30T07:18:32Z</time>
      </trkpt>
      <trkpt lat="45.20571" lon="5.64083">
        <ele>575</ele>
        <time>2011-06-30T07:18:33Z</time>
      </trkpt>
      <trkpt lat="45.20575" lon="5.64092">
        <ele>573</ele>
        <time>2011-06-30T07:18:34Z</time>
      </trkpt>
      <trkpt lat="45.2058" lon="5.64101">
        <ele>572</ele>
        <time>2011-06-30T07:18:35Z</time>
      </trkpt>
      <trkpt lat="45.20584" lon="5.6411">
        <ele>572</ele>
        <time>2011-06-30T07:18:36Z</time>
      </trkpt>
      <trkpt lat="45.20588" lon="5.6412">
        <ele>572</ele>
        <time>2011-06-30T07:18:37Z</time>
      </trkpt>
      <trkpt lat="45.20592" lon="5.64128">
        <ele>572</ele>
        <time>2011-06-30T07:18:38Z</time>
      </trkpt>
      <trkpt lat="45.20597" lon="5.64136">
        <ele>572</ele>
        <time>2011-06-30T07:18:39Z</time>
      </trkpt>
      <trkpt lat="45.20602" lon="5.64143">
        <ele>572</ele>
        <time>2011-06-30T07:18:40Z</time>
      </trkpt>
      <trkpt lat="45.20607" lon="5.6415">
        <ele>571</ele>
        <time>2011-06-30T07:18:41Z</time>
      </trkpt>
      <trkpt lat="45.20612" lon="5.64156">
        <ele>572</ele>
        <time>2011-06-30T07:18:42Z</time>
      </trkpt>
      <trkpt lat="45.20616" lon="5.64161">
        <ele>572</ele>
        <time>2011-06-30T07:18:43Z</time>
      </trkpt>
      <trkpt lat="45.2062" lon="5.64166">
        <ele>572</ele>
        <time>2011-06-30T07:18:44Z</time>
      </trkpt>
      <trkpt lat="45.20624" lon="5.64167">
        <ele>572</ele>
        <time>2011-06-30T07:18:45Z</time>
      </trkpt>
      <trkpt lat="45.2063" lon="5.64171">
        <ele>572</ele>
        <time>2011-06-30T07:18:46Z</time>
      </trkpt>
      <trkpt lat="45.20635" lon="5.64174">
        <ele>572</ele>
        <time>2011-06-30T07:18:47Z</time>
      </trkpt>
      <trkpt lat="45.20643" lon="5.64178">
        <ele>572</ele>
        <time>2011-06-30T07:18:48Z</time>
      </trkpt>
      <trkpt lat="45.20649" lon="5.64181">
        <ele>572</ele>
        <time>2011-06-30T07:18:49Z</time>
      </trkpt>
      <trkpt lat="45.20655" lon="5.64183">
        <ele>572</ele>
        <time>2011-06-30T07:18:50Z</time>
      </trkpt>
      <trkpt lat="45.20662" lon="5.64186">
        <ele>572</ele>
        <time>2011-06-30T07:18:51Z</time>
      </trkpt>
      <trkpt lat="45.20668" lon="5.64189">
        <ele>572</ele>
        <time>2011-06-30T07:18:52Z</time>
      </trkpt>
      <trkpt lat="45.20678" lon="5.64192">
        <ele>572</ele>
        <time>2011-06-30T07:18:53Z</time>
      </trkpt>
      <trkpt lat="45.20684" lon="5.64196">
        <ele>572</ele>
        <time>2011-06-30T07:18:54Z</time>
      </trkpt>
      <trkpt lat="45.20692" lon="5.64199">
        <ele>572</ele>
        <time>2011-06-30T07:18:55Z</time>
      </trkpt>
      <trkpt lat="45.207" lon="5.64202">
        <ele>572</ele>
        <time>2011-06-30T07:18:56Z</time>
      </trkpt>
      <trkpt lat="45.20706" lon="5.64203">
        <ele>572</ele>
        <time>2011-06-30T07:18:57Z</time>
      </trkpt>
      <trkpt lat="45.20712" lon="5.64205">
        <ele>572</ele>
        <time>2011-06-30T07:18:58Z</time>
      </trkpt>
      <trkpt lat="45.2072" lon="5.64208">
        <ele>572</ele>
        <time>2011-06-30T07:18:59Z</time>
      </trkpt>
      <trkpt lat="45.20725" lon="5.64207">
        <ele>572</ele>
        <time>2011-06-30T07:19:00Z</time>
      </trkpt>
      <trkpt lat="45.20731" lon="5.64218">
        <ele>572</ele>
        <time>2011-06-30T07:19:02Z</time>
      </trkpt>
      <trkpt lat="45.20738" lon="5.64229">
        <ele>571</ele>
        <time>2011-06-30T07:19:04Z</time>
      </trkpt>
      <trkpt lat="45.20741" lon="5.64234">
        <ele>571</ele>
        <time>2011-06-30T07:19:05Z</time>
      </trkpt>
      <trkpt lat="45.20739" lon="5.64244">
        <ele>570</ele>
        <time>2011-06-30T07:19:06Z</time>
      </trkpt>
      <trkpt lat="45.20745" lon="5.64242">
        <ele>570</ele>
        <time>2011-06-30T07:19:07Z</time>
      </trkpt>
      <trkpt lat="45.2075" lon="5.64243">
        <ele>570</ele>
        <time>2011-06-30T07:19:09Z</time>
      </trkpt>
      <trkpt lat="45.20745" lon="5.64243">
        <ele>570</ele>
        <time>2011-06-30T07:19:23Z</time>
      </trkpt>
      <trkpt lat="45.2075" lon="5.64242">
        <ele>570</ele>
        <time>2011-06-30T07:20:01Z</time>
      </trkpt>
      <trkpt lat="45.20744" lon="5.64246">
        <ele>569</ele>
        <time>2011-06-30T07:20:05Z</time>
      </trkpt>
      <trkpt lat="45.20739" lon="5.64249">
        <ele>568</ele>
        <time>2011-06-30T07:20:06Z</time>
      </trkpt>
      <trkpt lat="45.20742" lon="5.64257">
        <ele>567</ele>
        <time>2011-06-30T07:20:24Z</time>
      </trkpt>
      <trkpt lat="45.20778" lon="5.6426">
        <ele>566</ele>
        <time>2011-06-30T07:20:28Z</time>
      </trkpt>
      <trkpt lat="45.20793" lon="5.64273">
        <ele>566</ele>
        <time>2011-06-30T07:20:32Z</time>
      </trkpt>
      <trkpt lat="45.20828" lon="5.64242">
        <ele>552</ele>
        <time>2011-06-30T07:20:35Z</time>
      </trkpt>
      <trkpt lat="45.20849" lon="5.64242">
        <ele>547</ele>
        <time>2011-06-30T07:20:38Z</time>
      </trkpt>
      <trkpt lat="45.20858" lon="5.64247">
        <ele>546</ele>
        <time>2011-06-30T07:20:40Z</time>
      </trkpt>
      <trkpt lat="45.20871" lon="5.64256">
        <ele>545</ele>
        <time>2011-06-30T07:20:42Z</time>
      </trkpt>
      <trkpt lat="45.20893" lon="5.64259">
        <ele>541</ele>
        <time>2011-06-30T07:20:45Z</time>
      </trkpt>
      <trkpt lat="45.20912" lon="5.64258">
        <ele>539</ele>
        <time>2011-06-30T07:20:48Z</time>
      </trkpt>
      <trkpt lat="45.20932" lon="5.64255">
        <ele>538</ele>
        <time>2011-06-30T07:20:51Z</time>
      </trkpt>
      <trkpt lat="45.20954" lon="5.64246">
        <ele>538</ele>
        <time>2011-06-30T07:20:54Z</time>
      </trkpt>
      <trkpt lat="45.20976" lon="5.64241">
        <ele>536</ele>
        <time>2011-06-30T07:20:57Z</time>
      </trkpt>
      <trkpt lat="45.20989" lon="5.64237">
        <ele>537</ele>
        <time>2011-06-30T07:21:00Z</time>
      </trkpt>
      <trkpt lat="45.20993" lon="5.64231">
        <ele>536</ele>
        <time>2011-06-30T07:21:03Z</time>
      </trkpt>
      <trkpt lat="45.20998" lon="5.64229">
        <ele>535</ele>
        <time>2011-06-30T07:21:08Z</time>
      </trkpt>
      <trkpt lat="45.21001" lon="5.64224">
        <ele>535</ele>
        <time>2011-06-30T07:21:10Z</time>
      </trkpt>
      <trkpt lat="45.20996" lon="5.64223">
        <ele>534</ele>
        <time>2011-06-30T07:21:21Z</time>
      </trkpt>
      <trkpt lat="45.20988" lon="5.64228">
        <ele>531</ele>
        <time>2011-06-30T07:21:25Z</time>
      </trkpt>
      <trkpt lat="45.20984" lon="5.64232">
        <ele>530</ele>
        <time>2011-06-30T07:21:30Z</time>
      </trkpt>
      <trkpt lat="45.20989" lon="5.64245">
        <ele>526</ele>
        <time>2011-06-30T07:22:49Z</time>
      </trkpt>
      <trkpt lat="45.20988" lon="5.64262">
        <ele>520</ele>
        <time>2011-06-30T07:22:52Z</time>
      </trkpt>
      <trkpt lat="45.20987" lon="5.64272">
        <ele>518</ele>
        <time>2011-06-30T07:22:54Z</time>
      </trkpt>
      <trkpt lat="45.20989" lon="5.64278">
        <ele>520</ele>
        <time>2011-06-30T07:22:57Z</time>
      </trkpt>
      <trkpt lat="45.20986" lon="5.64287">
        <ele>520</ele>
        <time>2011-06-30T07:23:01Z</time>
      </trkpt>
      <trkpt lat="45.20989" lon="5.64282">
        <ele>518</ele>
        <time>2011-06-30T07:23:22Z</time>
      </trkpt>
      <trkpt lat="45.20996" lon="5.64279">
        <ele>505</ele>
        <time>2011-06-30T07:23:52Z</time>
      </trkpt>
      <trkpt lat="45.21002" lon="5.64282">
        <ele>503</ele>
        <time>2011-06-30T07:23:53Z</time>
      </trkpt>
      <trkpt lat="45.21008" lon="5.64285">
        <ele>503</ele>
        <time>2011-06-30T07:23:54Z</time>
      </trkpt>
      <trkpt lat="45.21015" lon="5.64288">
        <ele>501</ele>
        <time>2011-06-30T07:23:55Z</time>
      </trkpt>
      <trkpt lat="45.21021" lon="5.64291">
        <ele>501</ele>
        <time>2011-06-30T07:23:56Z</time>
      </trkpt>
      <trkpt lat="45.2103" lon="5.64296">
        <ele>500</ele>
        <time>2011-06-30T07:23:57Z</time>
      </trkpt>
      <trkpt lat="45.21041" lon="5.64302">
        <ele>498</ele>
        <time>2011-06-30T07:23:58Z</time>
      </trkpt>
      <trkpt lat="45.2105" lon="5.64307">
        <ele>494</ele>
        <time>2011-06-30T07:23:59Z</time>
      </trkpt>
      <trkpt lat="45.21057" lon="5.64312">
        <ele>492</ele>
        <time>2011-06-30T07:24:00Z</time>
      </trkpt>
      <trkpt lat="45.21064" lon="5.64317">
        <ele>491</ele>
        <time>2011-06-30T07:24:01Z</time>
      </trkpt>
      <trkpt lat="45.21069" lon="5.64323">
        <ele>491</ele>
        <time>2011-06-30T07:24:02Z</time>
      </trkpt>
      <trkpt lat="45.21075" lon="5.64345">
        <ele>489</ele>
        <time>2011-06-30T07:24:04Z</time>
      </trkpt>
      <trkpt lat="45.21078" lon="5.64356">
        <ele>487</ele>
        <time>2011-06-30T07:24:05Z</time>
      </trkpt>
      <trkpt lat="45.21079" lon="5.64365">
        <ele>484</ele>
        <time>2011-06-30T07:24:06Z</time>
      </trkpt>
      <trkpt lat="45.2108" lon="5.64375">
        <ele>482</ele>
        <time>2011-06-30T07:24:07Z</time>
      </trkpt>
      <trkpt lat="45.21082" lon="5.64386">
        <ele>481</ele>
        <time>2011-06-30T07:24:08Z</time>
      </trkpt>
      <trkpt lat="45.21082" lon="5.64398">
        <ele>481</ele>
        <time>2011-06-30T07:24:09Z</time>
      </trkpt>
      <trkpt lat="45.21083" lon="5.6441">
        <ele>481</ele>
        <time>2011-06-30T07:24:10Z</time>
      </trkpt>
      <trkpt lat="45.2108" lon="5.64424">
        <ele>479</ele>
        <time>2011-06-30T07:24:11Z</time>
      </trkpt>
      <trkpt lat="45.21078" lon="5.64438">
        <ele>478</ele>
        <time>2011-06-30T07:24:12Z</time>
      </trkpt>
      <trkpt lat="45.21076" lon="5.6445">
        <ele>478</ele>
        <time>2011-06-30T07:24:13Z</time>
      </trkpt>
      <trkpt lat="45.21076" lon="5.64464">
        <ele>478</ele>
        <time>2011-06-30T07:24:14Z</time>
      </trkpt>
      <trkpt lat="45.2107" lon="5.64474">
        <ele>477</ele>
        <time>2011-06-30T07:24:15Z</time>
      </trkpt>
      <trkpt lat="45.21068" lon="5.64486">
        <ele>476</ele>
        <time>2011-06-30T07:24:16Z</time>
      </trkpt>
      <trkpt lat="45.21065" lon="5.64498">
        <ele>477</ele>
        <time>2011-06-30T07:24:17Z</time>
      </trkpt>
      <trkpt lat="45.21062" lon="5.64508">
        <ele>476</ele>
        <time>2011-06-30T07:24:18Z</time>
      </trkpt>
      <trkpt lat="45.21057" lon="5.6452">
        <ele>476</ele>
        <time>2011-06-30T07:24:19Z</time>
      </trkpt>
      <trkpt lat="45.21052" lon="5.6453">
        <ele>476</ele>
        <time>2011-06-30T07:24:20Z</time>
      </trkpt>
      <trkpt lat="45.21048" lon="5.64541">
        <ele>475</ele>
        <time>2011-06-30T07:24:21Z</time>
      </trkpt>
      <trkpt lat="45.21041" lon="5.64551">
        <ele>474</ele>
        <time>2011-06-30T07:24:22Z</time>
      </trkpt>
      <trkpt lat="45.21035" lon="5.64561">
        <ele>473</ele>
        <time>2011-06-30T07:24:23Z</time>
      </trkpt>
      <trkpt lat="45.21032" lon="5.64571">
        <ele>473</ele>
        <time>2011-06-30T07:24:24Z</time>
      </trkpt>
      <trkpt lat="45.21028" lon="5.64583">
        <ele>473</ele>
        <time>2011-06-30T07:24:25Z</time>
      </trkpt>
      <trkpt lat="45.21027" lon="5.64596">
        <ele>473</ele>
        <time>2011-06-30T07:24:26Z</time>
      </trkpt>
      <trkpt lat="45.21026" lon="5.64609">
        <ele>472</ele>
        <time>2011-06-30T07:24:27Z</time>
      </trkpt>
      <trkpt lat="45.21026" lon="5.64624">
        <ele>471</ele>
        <time>2011-06-30T07:24:28Z</time>
      </trkpt>
      <trkpt lat="45.21027" lon="5.64639">
        <ele>470</ele>
        <time>2011-06-30T07:24:29Z</time>
      </trkpt>
      <trkpt lat="45.21028" lon="5.64656">
        <ele>469</ele>
        <time>2011-06-30T07:24:30Z</time>
      </trkpt>
      <trkpt lat="45.21028" lon="5.6467">
        <ele>468</ele>
        <time>2011-06-30T07:24:31Z</time>
      </trkpt>
      <trkpt lat="45.21031" lon="5.64684">
        <ele>467</ele>
        <time>2011-06-30T07:24:32Z</time>
      </trkpt>
      <trkpt lat="45.21034" lon="5.64705">
        <ele>465</ele>
        <time>2011-06-30T07:24:34Z</time>
      </trkpt>
      <trkpt lat="45.21034" lon="5.64713">
        <ele>464</ele>
        <time>2011-06-30T07:24:35Z</time>
      </trkpt>
      <trkpt lat="45.21034" lon="5.64723">
        <ele>464</ele>
        <time>2011-06-30T07:24:36Z</time>
      </trkpt>
      <trkpt lat="45.21033" lon="5.64732">
        <ele>463</ele>
        <time>2011-06-30T07:24:37Z</time>
      </trkpt>
      <trkpt lat="45.21031" lon="5.64741">
        <ele>463</ele>
        <time>2011-06-30T07:24:38Z</time>
      </trkpt>
      <trkpt lat="45.21027" lon="5.64751">
        <ele>463</ele>
        <time>2011-06-30T07:24:39Z</time>
      </trkpt>
      <trkpt lat="45.21023" lon="5.64764">
        <ele>463</ele>
        <time>2011-06-30T07:24:40Z</time>
      </trkpt>
      <trkpt lat="45.21019" lon="5.64776">
        <ele>463</ele>
        <time>2011-06-30T07:24:41Z</time>
      </trkpt>
      <trkpt lat="45.21013" lon="5.64789">
        <ele>463</ele>
        <time>2011-06-30T07:24:42Z</time>
      </trkpt>
      <trkpt lat="45.21008" lon="5.64803">
        <ele>463</ele>
        <time>2011-06-30T07:24:43Z</time>
      </trkpt>
      <trkpt lat="45.21008" lon="5.64817">
        <ele>463</ele>
        <time>2011-06-30T07:24:44Z</time>
      </trkpt>
      <trkpt lat="45.21006" lon="5.6483">
        <ele>463</ele>
        <time>2011-06-30T07:24:45Z</time>
      </trkpt>
      <trkpt lat="45.21005" lon="5.64842">
        <ele>463</ele>
        <time>2011-06-30T07:24:46Z</time>
      </trkpt>
      <trkpt lat="45.21006" lon="5.64854">
        <ele>463</ele>
        <time>2011-06-30T07:24:47Z</time>
      </trkpt>
      <trkpt lat="45.21016" lon="5.6487">
        <ele>463</ele>
        <time>2011-06-30T07:24:48Z</time>
      </trkpt>
      <trkpt lat="45.21022" lon="5.64876">
        <ele>459</ele>
        <time>2011-06-30T07:24:50Z</time>
      </trkpt>
      <trkpt lat="45.21028" lon="5.64879">
        <ele>458</ele>
        <time>2011-06-30T07:24:51Z</time>
      </trkpt>
      <trkpt lat="45.21041" lon="5.64879">
        <ele>458</ele>
        <time>2011-06-30T07:24:52Z</time>
      </trkpt>
      <trkpt lat="45.21057" lon="5.64881">
        <ele>457</ele>
        <time>2011-06-30T07:24:53Z</time>
      </trkpt>
      <trkpt lat="45.21066" lon="5.64885">
        <ele>455</ele>
        <time>2011-06-30T07:24:54Z</time>
      </trkpt>
      <trkpt lat="45.2108" lon="5.64895">
        <ele>449</ele>
        <time>2011-06-30T07:24:55Z</time>
      </trkpt>
      <trkpt lat="45.21088" lon="5.64902">
        <ele>450</ele>
        <time>2011-06-30T07:24:56Z</time>
      </trkpt>
      <trkpt lat="45.21098" lon="5.64907">
        <ele>449</ele>
        <time>2011-06-30T07:24:57Z</time>
      </trkpt>
      <trkpt lat="45.21105" lon="5.64917">
        <ele>449</ele>
        <time>2011-06-30T07:24:58Z</time>
      </trkpt>
      <trkpt lat="45.21112" lon="5.64929">
        <ele>449</ele>
        <time>2011-06-30T07:24:59Z</time>
      </trkpt>
      <trkpt lat="45.21123" lon="5.64942">
        <ele>450</ele>
        <time>2011-06-30T07:25:00Z</time>
      </trkpt>
      <trkpt lat="45.21131" lon="5.64952">
        <ele>449</ele>
        <time>2011-06-30T07:25:01Z</time>
      </trkpt>
      <trkpt lat="45.21142" lon="5.64952">
        <ele>449</ele>
        <time>2011-06-30T07:25:02Z</time>
      </trkpt>
      <trkpt lat="45.21162" lon="5.64948">
        <ele>448</ele>
        <time>2011-06-30T07:25:04Z</time>
      </trkpt>
      <trkpt lat="45.21175" lon="5.64952">
        <ele>448</ele>
        <time>2011-06-30T07:25:05Z</time>
      </trkpt>
      <trkpt lat="45.21184" lon="5.64957">
        <ele>448</ele>
        <time>2011-06-30T07:25:06Z</time>
      </trkpt>
      <trkpt lat="45.21193" lon="5.64964">
        <ele>448</ele>
        <time>2011-06-30T07:25:07Z</time>
      </trkpt>
      <trkpt lat="45.21202" lon="5.64975">
        <ele>447</ele>
        <time>2011-06-30T07:25:08Z</time>
      </trkpt>
      <trkpt lat="45.21212" lon="5.64989">
        <ele>445</ele>
        <time>2011-06-30T07:25:09Z</time>
      </trkpt>
      <trkpt lat="45.21218" lon="5.65">
        <ele>445</ele>
        <time>2011-06-30T07:25:10Z</time>
      </trkpt>
      <trkpt lat="45.21222" lon="5.65016">
        <ele>445</ele>
        <time>2011-06-30T07:25:11Z</time>
      </trkpt>
      <trkpt lat="45.21232" lon="5.6503">
        <ele>442</ele>
        <time>2011-06-30T07:25:12Z</time>
      </trkpt>
      <trkpt lat="45.21242" lon="5.65051">
        <ele>438</ele>
        <time>2011-06-30T07:25:13Z</time>
      </trkpt>
      <trkpt lat="45.21249" lon="5.6507">
        <ele>435</ele>
        <time>2011-06-30T07:25:14Z</time>
      </trkpt>
      <trkpt lat="45.21246" lon="5.65093">
        <ele>434</ele>
        <time>2011-06-30T07:25:15Z</time>
      </trkpt>
      <trkpt lat="45.21238" lon="5.65122">
        <ele>430</ele>
        <time>2011-06-30T07:25:16Z</time>
      </trkpt>
      <trkpt lat="45.21219" lon="5.65147">
        <ele>420</ele>
        <time>2011-06-30T07:25:17Z</time>
      </trkpt>
      <trkpt lat="45.21215" lon="5.65166">
        <ele>411</ele>
        <time>2011-06-30T07:25:18Z</time>
      </trkpt>
      <trkpt lat="45.21214" lon="5.65179">
        <ele>407</ele>
        <time>2011-06-30T07:25:19Z</time>
      </trkpt>
      <trkpt lat="45.21214" lon="5.6519">
        <ele>405</ele>
        <time>2011-06-30T07:25:20Z</time>
      </trkpt>
      <trkpt lat="45.21215" lon="5.65203">
        <ele>406</ele>
        <time>2011-06-30T07:25:21Z</time>
      </trkpt>
      <trkpt lat="45.21216" lon="5.65214">
        <ele>405</ele>
        <time>2011-06-30T07:25:22Z</time>
      </trkpt>
      <trkpt lat="45.21217" lon="5.65224">
        <ele>405</ele>
        <time>2011-06-30T07:25:23Z</time>
      </trkpt>
      <trkpt lat="45.2122" lon="5.65229">
        <ele>405</ele>
        <time>2011-06-30T07:25:24Z</time>
      </trkpt>
      <trkpt lat="45.21227" lon="5.65237">
        <ele>405</ele>
        <time>2011-06-30T07:25:26Z</time>
      </trkpt>
      <trkpt lat="45.21229" lon="5.65244">
        <ele>405</ele>
        <time>2011-06-30T07:25:27Z</time>
      </trkpt>
      <trkpt lat="45.21234" lon="5.65241">
        <ele>404</ele>
        <time>2011-06-30T07:25:29Z</time>
      </trkpt>
      <trkpt lat="45.21232" lon="5.6525">
        <ele>403</ele>
        <time>2011-06-30T07:25:32Z</time>
      </trkpt>
      <trkpt lat="45.21223" lon="5.65252">
        <ele>401</ele>
        <time>2011-06-30T07:25:34Z</time>
      </trkpt>
      <trkpt lat="45.2122" lon="5.65259">
        <ele>401</ele>
        <time>2011-06-30T07:25:37Z</time>
      </trkpt>
      <trkpt lat="45.21215" lon="5.65268">
        <ele>400</ele>
        <time>2011-06-30T07:25:40Z</time>
      </trkpt>
      <trkpt lat="45.2121" lon="5.65273">
        <ele>400</ele>
        <time>2011-06-30T07:25:41Z</time>
      </trkpt>
      <trkpt lat="45.21206" lon="5.65281">
        <ele>400</ele>
        <time>2011-06-30T07:25:43Z</time>
      </trkpt>
      <trkpt lat="45.21201" lon="5.65289">
        <ele>400</ele>
        <time>2011-06-30T07:25:45Z</time>
      </trkpt>
      <trkpt lat="45.21197" lon="5.65294">
        <ele>400</ele>
        <time>2011-06-30T07:25:46Z</time>
      </trkpt>
      <trkpt lat="45.21195" lon="5.65308">
        <ele>399</ele>
        <time>2011-06-30T07:25:48Z</time>
      </trkpt>
      <trkpt lat="45.21194" lon="5.65314">
        <ele>399</ele>
        <time>2011-06-30T07:25:49Z</time>
      </trkpt>
      <trkpt lat="45.21191" lon="5.6532">
        <ele>398</ele>
        <time>2011-06-30T07:25:50Z</time>
      </trkpt>
      <trkpt lat="45.2119" lon="5.65328">
        <ele>398</ele>
        <time>2011-06-30T07:25:51Z</time>
      </trkpt>
      <trkpt lat="45.21187" lon="5.65339">
        <ele>398</ele>
        <time>2011-06-30T07:25:53Z</time>
      </trkpt>
      <trkpt lat="45.21186" lon="5.65351">
        <ele>398</ele>
        <time>2011-06-30T07:25:55Z</time>
      </trkpt>
      <trkpt lat="45.21187" lon="5.65361">
        <ele>398</ele>
        <time>2011-06-30T07:25:57Z</time>
      </trkpt>
      <trkpt lat="45.21185" lon="5.65373">
        <ele>398</ele>
        <time>2011-06-30T07:25:59Z</time>
      </trkpt>
      <trkpt lat="45.21184" lon="5.6538">
        <ele>398</ele>
        <time>2011-06-30T07:26:00Z</time>
      </trkpt>
      <trkpt lat="45.21181" lon="5.65388">
        <ele>398</ele>
        <time>2011-06-30T07:26:02Z</time>
      </trkpt>
      <trkpt lat="45.21178" lon="5.65399">
        <ele>397</ele>
        <time>2011-06-30T07:26:04Z</time>
      </trkpt>
      <trkpt lat="45.21174" lon="5.65412">
        <ele>397</ele>
        <time>2011-06-30T07:26:06Z</time>
      </trkpt>
      <trkpt lat="45.21173" lon="5.65424">
        <ele>397</ele>
        <time>2011-06-30T07:26:08Z</time>
      </trkpt>
      <trkpt lat="45.21168" lon="5.65433">
        <ele>397</ele>
        <time>2011-06-30T07:26:10Z</time>
      </trkpt>
      <trkpt lat="45.21165" lon="5.65439">
        <ele>397</ele>
        <time>2011-06-30T07:26:11Z</time>
      </trkpt>
      <trkpt lat="45.21162" lon="5.65447">
        <ele>397</ele>
        <time>2011-06-30T07:26:12Z</time>
      </trkpt>
      <trkpt lat="45.21157" lon="5.65454">
        <ele>397</ele>
        <time>2011-06-30T07:26:13Z</time>
      </trkpt>
      <trkpt lat="45.21153" lon="5.65463">
        <ele>397</ele>
        <time>2011-06-30T07:26:15Z</time>
      </trkpt>
      <trkpt lat="45.2115" lon="5.6547">
        <ele>397</ele>
        <time>2011-06-30T07:26:16Z</time>
      </trkpt>
      <trkpt lat="45.21145" lon="5.65477">
        <ele>397</ele>
        <time>2011-06-30T07:26:17Z</time>
      </trkpt>
      <trkpt lat="45.21147" lon="5.65488">
        <ele>397</ele>
        <time>2011-06-30T07:26:18Z</time>
      </trkpt>
      <trkpt lat="45.21141" lon="5.6549">
        <ele>397</ele>
        <time>2011-06-30T07:26:19Z</time>
      </trkpt>
      <trkpt lat="45.21136" lon="5.65493">
        <ele>397</ele>
        <time>2011-06-30T07:26:20Z</time>
      </trkpt>
      <trkpt lat="45.21133" lon="5.655">
        <ele>397</ele>
        <time>2011-06-30T07:26:21Z</time>
      </trkpt>
      <trkpt lat="45.21129" lon="5.65508">
        <ele>396</ele>
        <time>2011-06-30T07:26:22Z</time>
      </trkpt>
      <trkpt lat="45.21125" lon="5.65517">
        <ele>395</ele>
        <time>2011-06-30T07:26:23Z</time>
      </trkpt>
      <trkpt lat="45.21122" lon="5.65526">
        <ele>394</ele>
        <time>2011-06-30T07:26:24Z</time>
      </trkpt>
      <trkpt lat="45.21116" lon="5.65541">
        <ele>392</ele>
        <time>2011-06-30T07:26:25Z</time>
      </trkpt>
      <trkpt lat="45.2111" lon="5.65549">
        <ele>392</ele>
        <time>2011-06-30T07:26:26Z</time>
      </trkpt>
      <trkpt lat="45.21101" lon="5.65555">
        <ele>391</ele>
        <time>2011-06-30T07:26:27Z</time>
      </trkpt>
      <trkpt lat="45.21094" lon="5.65565">
        <ele>391</ele>
        <time>2011-06-30T07:26:28Z</time>
      </trkpt>
      <trkpt lat="45.21085" lon="5.65579">
        <ele>389</ele>
        <time>2011-06-30T07:26:29Z</time>
      </trkpt>
      <trkpt lat="45.21081" lon="5.65587">
        <ele>388</ele>
        <time>2011-06-30T07:26:30Z</time>
      </trkpt>
      <trkpt lat="45.21088" lon="5.65575">
        <ele>386</ele>
        <time>2011-06-30T07:26:31Z</time>
      </trkpt>
      <trkpt lat="45.2108" lon="5.65586">
        <ele>385</ele>
        <time>2011-06-30T07:26:33Z</time>
      </trkpt>
      <trkpt lat="45.21078" lon="5.65594">
        <ele>385</ele>
        <time>2011-06-30T07:26:34Z</time>
      </trkpt>
      <trkpt lat="45.21075" lon="5.65601">
        <ele>382</ele>
        <time>2011-06-30T07:26:36Z</time>
      </trkpt>
      <trkpt lat="45.21073" lon="5.6561">
        <ele>380</ele>
        <time>2011-06-30T07:26:38Z</time>
      </trkpt>
      <trkpt lat="45.21069" lon="5.65618">
        <ele>379</ele>
        <time>2011-06-30T07:26:40Z</time>
      </trkpt>
      <trkpt lat="45.21064" lon="5.65626">
        <ele>377</ele>
        <time>2011-06-30T07:26:42Z</time>
      </trkpt>
      <trkpt lat="45.21057" lon="5.65635">
        <ele>375</ele>
        <time>2011-06-30T07:26:44Z</time>
      </trkpt>
      <trkpt lat="45.21051" lon="5.6564">
        <ele>371</ele>
        <time>2011-06-30T07:26:46Z</time>
      </trkpt>
      <trkpt lat="45.21047" lon="5.65645">
        <ele>370</ele>
        <time>2011-06-30T07:26:47Z</time>
      </trkpt>
      <trkpt lat="45.21044" lon="5.65653">
        <ele>368</ele>
        <time>2011-06-30T07:26:48Z</time>
      </trkpt>
      <trkpt lat="45.21036" lon="5.65657">
        <ele>365</ele>
        <time>2011-06-30T07:26:50Z</time>
      </trkpt>
      <trkpt lat="45.21027" lon="5.65666">
        <ele>361</ele>
        <time>2011-06-30T07:26:52Z</time>
      </trkpt>
      <trkpt lat="45.21016" lon="5.6567">
        <ele>355</ele>
        <time>2011-06-30T07:26:53Z</time>
      </trkpt>
      <trkpt lat="45.21008" lon="5.65672">
        <ele>351</ele>
        <time>2011-06-30T07:26:54Z</time>
      </trkpt>
      <trkpt lat="45.21001" lon="5.65674">
        <ele>348</ele>
        <time>2011-06-30T07:26:55Z</time>
      </trkpt>
      <trkpt lat="45.20994" lon="5.65674">
        <ele>345</ele>
        <time>2011-06-30T07:26:56Z</time>
      </trkpt>
      <trkpt lat="45.20986" lon="5.65674">
        <ele>339</ele>
        <time>2011-06-30T07:26:58Z</time>
      </trkpt>
      <trkpt lat="45.20981" lon="5.65671">
        <ele>337</ele>
        <time>2011-06-30T07:26:59Z</time>
      </trkpt>
      <trkpt lat="45.20976" lon="5.65674">
        <ele>335</ele>
        <time>2011-06-30T07:27:00Z</time>
      </trkpt>
      <trkpt lat="45.20968" lon="5.65674">
        <ele>334</ele>
        <time>2011-06-30T07:27:02Z</time>
      </trkpt>
      <trkpt lat="45.20959" lon="5.65675">
        <ele>333</ele>
        <time>2011-06-30T07:27:04Z</time>
      </trkpt>
      <trkpt lat="45.20949" lon="5.65682">
        <ele>331</ele>
        <time>2011-06-30T07:27:06Z</time>
      </trkpt>
      <trkpt lat="45.20944" lon="5.65681">
        <ele>328</ele>
        <time>2011-06-30T07:27:09Z</time>
      </trkpt>
      <trkpt lat="45.20944" lon="5.65675">
        <ele>327</ele>
        <time>2011-06-30T07:27:10Z</time>
      </trkpt>
      <trkpt lat="45.20934" lon="5.6568">
        <ele>324</ele>
        <time>2011-06-30T07:27:12Z</time>
      </trkpt>
      <trkpt lat="45.20929" lon="5.65679">
        <ele>323</ele>
        <time>2011-06-30T07:27:13Z</time>
      </trkpt>
      <trkpt lat="45.20922" lon="5.65671">
        <ele>318</ele>
        <time>2011-06-30T07:27:15Z</time>
      </trkpt>
      <trkpt lat="45.20916" lon="5.65671">
        <ele>315</ele>
        <time>2011-06-30T07:27:16Z</time>
      </trkpt>
      <trkpt lat="45.20909" lon="5.65669">
        <ele>311</ele>
        <time>2011-06-30T07:27:17Z</time>
      </trkpt>
      <trkpt lat="45.20902" lon="5.6567">
        <ele>309</ele>
        <time>2011-06-30T07:27:19Z</time>
      </trkpt>
      <trkpt lat="45.20898" lon="5.65674">
        <ele>304</ele>
        <time>2011-06-30T07:27:29Z</time>
      </trkpt>
      <trkpt lat="45.20898" lon="5.65674">
        <ele>304</ele>
        <time>2011-06-30T07:27:29Z</time>
      </trkpt>
      <trkpt lat="45.20898" lon="5.65674">
        <ele>304</ele>
        <time>2011-06-30T07:27:30Z</time>
      </trkpt>
      <trkpt lat="45.209" lon="5.65662">
        <ele>296</ele>
        <time>2011-06-30T07:27:36Z</time>
      </trkpt>
      <trkpt lat="45.20901" lon="5.65654">
        <ele>293</ele>
        <time>2011-06-30T07:27:38Z</time>
      </trkpt>
      <trkpt lat="45.20897" lon="5.65657">
        <ele>293</ele>
        <time>2011-06-30T07:27:51Z</time>
      </trkpt>
      <trkpt lat="45.20898" lon="5.65664">
        <ele>292</ele>
        <time>2011-06-30T07:27:52Z</time>
      </trkpt>
      <trkpt lat="45.20895" lon="5.6567">
        <ele>292</ele>
        <time>2011-06-30T07:27:53Z</time>
      </trkpt>
      <trkpt lat="45.20892" lon="5.65684">
        <ele>283</ele>
        <time>2011-06-30T07:27:55Z</time>
      </trkpt>
      <trkpt lat="45.20893" lon="5.65691">
        <ele>282</ele>
        <time>2011-06-30T07:27:56Z</time>
      </trkpt>
      <trkpt lat="45.20893" lon="5.65699">
        <ele>282</ele>
        <time>2011-06-30T07:27:57Z</time>
      </trkpt>
      <trkpt lat="45.20893" lon="5.65707">
        <ele>281</ele>
        <time>2011-06-30T07:27:58Z</time>
      </trkpt>
      <trkpt lat="45.20894" lon="5.65715">
        <ele>280</ele>
        <time>2011-06-30T07:27:59Z</time>
      </trkpt>
      <trkpt lat="45.20894" lon="5.65721">
        <ele>280</ele>
        <time>2011-06-30T07:28:00Z</time>
      </trkpt>
      <trkpt lat="45.20896" lon="5.65728">
        <ele>280</ele>
        <time>2011-06-30T07:28:01Z</time>
      </trkpt>
      <trkpt lat="45.20898" lon="5.65738">
        <ele>280</ele>
        <time>2011-06-30T07:28:02Z</time>
      </trkpt>
      <trkpt lat="45.209" lon="5.6575">
        <ele>280</ele>
        <time>2011-06-30T07:28:04Z</time>
      </trkpt>
      <trkpt lat="45.20896" lon="5.6576">
        <ele>279</ele>
        <time>2011-06-30T07:28:06Z</time>
      </trkpt>
      <trkpt lat="45.20894" lon="5.65766">
        <ele>279</ele>
        <time>2011-06-30T07:28:07Z</time>
      </trkpt>
      <trkpt lat="45.20892" lon="5.65773">
        <ele>278</ele>
        <time>2011-06-30T07:28:08Z</time>
      </trkpt>
      <trkpt lat="45.20888" lon="5.65779">
        <ele>278</ele>
        <time>2011-06-30T07:28:09Z</time>
      </trkpt>
      <trkpt lat="45.20883" lon="5.65785">
        <ele>278</ele>
        <time>2011-06-30T07:28:10Z</time>
      </trkpt>
      <trkpt lat="45.20878" lon="5.65791">
        <ele>278</ele>
        <time>2011-06-30T07:28:11Z</time>
      </trkpt>
      <trkpt lat="45.20874" lon="5.65796">
        <ele>278</ele>
        <time>2011-06-30T07:28:12Z</time>
      </trkpt>
      <trkpt lat="45.20869" lon="5.65802">
        <ele>278</ele>
        <time>2011-06-30T07:28:13Z</time>
      </trkpt>
      <trkpt lat="45.20863" lon="5.65809">
        <ele>278</ele>
        <time>2011-06-30T07:28:14Z</time>
      </trkpt>
      <trkpt lat="45.20856" lon="5.65814">
        <ele>278</ele>
        <time>2011-06-30T07:28:15Z</time>
      </trkpt>
      <trkpt lat="45.20848" lon="5.65816">
        <ele>277</ele>
        <time>2011-06-30T07:28:16Z</time>
      </trkpt>
      <trkpt lat="45.20841" lon="5.6582">
        <ele>276</ele>
        <time>2011-06-30T07:28:17Z</time>
      </trkpt>
      <trkpt lat="45.2084" lon="5.6583">
        <ele>275</ele>
        <time>2011-06-30T07:28:18Z</time>
      </trkpt>
      <trkpt lat="45.20835" lon="5.6584">
        <ele>272</ele>
        <time>2011-06-30T07:28:20Z</time>
      </trkpt>
      <trkpt lat="45.20833" lon="5.6585">
        <ele>272</ele>
        <time>2011-06-30T07:28:21Z</time>
      </trkpt>
      <trkpt lat="45.20832" lon="5.65859">
        <ele>272</ele>
        <time>2011-06-30T07:28:22Z</time>
      </trkpt>
      <trkpt lat="45.2083" lon="5.65867">
        <ele>274</ele>
        <time>2011-06-30T07:28:23Z</time>
      </trkpt>
      <trkpt lat="45.20829" lon="5.65877">
        <ele>273</ele>
        <time>2011-06-30T07:28:24Z</time>
      </trkpt>
      <trkpt lat="45.20829" lon="5.65887">
        <ele>273</ele>
        <time>2011-06-30T07:28:25Z</time>
      </trkpt>
      <trkpt lat="45.20828" lon="5.65897">
        <ele>273</ele>
        <time>2011-06-30T07:28:26Z</time>
      </trkpt>
      <trkpt lat="45.20827" lon="5.65907">
        <ele>273</ele>
        <time>2011-06-30T07:28:27Z</time>
      </trkpt>
      <trkpt lat="45.20824" lon="5.65916">
        <ele>272</ele>
        <time>2011-06-30T07:28:28Z</time>
      </trkpt>
      <trkpt lat="45.2082" lon="5.65926">
        <ele>271</ele>
        <time>2011-06-30T07:28:29Z</time>
      </trkpt>
      <trkpt lat="45.20817" lon="5.65935">
        <ele>271</ele>
        <time>2011-06-30T07:28:30Z</time>
      </trkpt>
      <trkpt lat="45.20814" lon="5.65945">
        <ele>271</ele>
        <time>2011-06-30T07:28:31Z</time>
      </trkpt>
      <trkpt lat="45.20812" lon="5.65956">
        <ele>271</ele>
        <time>2011-06-30T07:28:32Z</time>
      </trkpt>
      <trkpt lat="45.2081" lon="5.65966">
        <ele>270</ele>
        <time>2011-06-30T07:28:33Z</time>
      </trkpt>
      <trkpt lat="45.20808" lon="5.65976">
        <ele>270</ele>
        <time>2011-06-30T07:28:34Z</time>
      </trkpt>
      <trkpt lat="45.20806" lon="5.65984">
        <ele>271</ele>
        <time>2011-06-30T07:28:35Z</time>
      </trkpt>
      <trkpt lat="45.20805" lon="5.65994">
        <ele>270</ele>
        <time>2011-06-30T07:28:36Z</time>
      </trkpt>
      <trkpt lat="45.20805" lon="5.66002">
        <ele>270</ele>
        <time>2011-06-30T07:28:37Z</time>
      </trkpt>
      <trkpt lat="45.20808" lon="5.66011">
        <ele>270</ele>
        <time>2011-06-30T07:28:38Z</time>
      </trkpt>
      <trkpt lat="45.20811" lon="5.6602">
        <ele>270</ele>
        <time>2011-06-30T07:28:39Z</time>
      </trkpt>
      <trkpt lat="45.20814" lon="5.66029">
        <ele>270</ele>
        <time>2011-06-30T07:28:40Z</time>
      </trkpt>
      <trkpt lat="45.20817" lon="5.66037">
        <ele>270</ele>
        <time>2011-06-30T07:28:41Z</time>
      </trkpt>
      <trkpt lat="45.2082" lon="5.66044">
        <ele>270</ele>
        <time>2011-06-30T07:28:42Z</time>
      </trkpt>
      <trkpt lat="45.20824" lon="5.66052">
        <ele>270</ele>
        <time>2011-06-30T07:28:43Z</time>
      </trkpt>
      <trkpt lat="45.20828" lon="5.66059">
        <ele>270</ele>
        <time>2011-06-30T07:28:44Z</time>
      </trkpt>
      <trkpt lat="45.20831" lon="5.66066">
        <ele>270</ele>
        <time>2011-06-30T07:28:45Z</time>
      </trkpt>
      <trkpt lat="45.20839" lon="5.66071">
        <ele>270</ele>
        <time>2011-06-30T07:28:46Z</time>
      </trkpt>
      <trkpt lat="45.20844" lon="5.66075">
        <ele>270</ele>
        <time>2011-06-30T07:28:47Z</time>
      </trkpt>
      <trkpt lat="45.2085" lon="5.6608">
        <ele>269</ele>
        <time>2011-06-30T07:28:48Z</time>
      </trkpt>
      <trkpt lat="45.20856" lon="5.66083">
        <ele>269</ele>
        <time>2011-06-30T07:28:49Z</time>
      </trkpt>
      <trkpt lat="45.20862" lon="5.66086">
        <ele>269</ele>
        <time>2011-06-30T07:28:50Z</time>
      </trkpt>
      <trkpt lat="45.20869" lon="5.66087">
        <ele>269</ele>
        <time>2011-06-30T07:28:51Z</time>
      </trkpt>
      <trkpt lat="45.20875" lon="5.66089">
        <ele>268</ele>
        <time>2011-06-30T07:28:52Z</time>
      </trkpt>
      <trkpt lat="45.20881" lon="5.66091">
        <ele>268</ele>
        <time>2011-06-30T07:28:53Z</time>
      </trkpt>
      <trkpt lat="45.20887" lon="5.66092">
        <ele>268</ele>
        <time>2011-06-30T07:28:54Z</time>
      </trkpt>
      <trkpt lat="45.20893" lon="5.66094">
        <ele>268</ele>
        <time>2011-06-30T07:28:55Z</time>
      </trkpt>
      <trkpt lat="45.20901" lon="5.66095">
        <ele>268</ele>
        <time>2011-06-30T07:28:56Z</time>
      </trkpt>
      <trkpt lat="45.20908" lon="5.66095">
        <ele>268</ele>
        <time>2011-06-30T07:28:57Z</time>
      </trkpt>
      <trkpt lat="45.20914" lon="5.66097">
        <ele>268</ele>
        <time>2011-06-30T07:28:58Z</time>
      </trkpt>
      <trkpt lat="45.20919" lon="5.66098">
        <ele>268</ele>
        <time>2011-06-30T07:28:59Z</time>
      </trkpt>
      <trkpt lat="45.20926" lon="5.661">
        <ele>268</ele>
        <time>2011-06-30T07:29:00Z</time>
      </trkpt>
      <trkpt lat="45.20931" lon="5.66104">
        <ele>268</ele>
        <time>2011-06-30T07:29:01Z</time>
      </trkpt>
      <trkpt lat="45.20937" lon="5.66109">
        <ele>268</ele>
        <time>2011-06-30T07:29:02Z</time>
      </trkpt>
      <trkpt lat="45.20946" lon="5.66117">
        <ele>266</ele>
        <time>2011-06-30T07:29:04Z</time>
      </trkpt>
      <trkpt lat="45.20952" lon="5.66122">
        <ele>267</ele>
        <time>2011-06-30T07:29:05Z</time>
      </trkpt>
      <trkpt lat="45.20957" lon="5.66125">
        <ele>266</ele>
        <time>2011-06-30T07:29:06Z</time>
      </trkpt>
      <trkpt lat="45.20961" lon="5.6613">
        <ele>267</ele>
        <time>2011-06-30T07:29:07Z</time>
      </trkpt>
      <trkpt lat="45.20961" lon="5.66141">
        <ele>266</ele>
        <time>2011-06-30T07:29:09Z</time>
      </trkpt>
      <trkpt lat="45.20962" lon="5.66153">
        <ele>266</ele>
        <time>2011-06-30T07:29:11Z</time>
      </trkpt>
      <trkpt lat="45.20962" lon="5.66159">
        <ele>266</ele>
        <time>2011-06-30T07:29:12Z</time>
      </trkpt>
      <trkpt lat="45.20962" lon="5.66166">
        <ele>266</ele>
        <time>2011-06-30T07:29:13Z</time>
      </trkpt>
      <trkpt lat="45.20961" lon="5.66172">
        <ele>266</ele>
        <time>2011-06-30T07:29:14Z</time>
      </trkpt>
      <trkpt lat="45.20962" lon="5.66179">
        <ele>266</ele>
        <time>2011-06-30T07:29:15Z</time>
      </trkpt>
      <trkpt lat="45.20964" lon="5.66188">
        <ele>266</ele>
        <time>2011-06-30T07:29:16Z</time>
      </trkpt>
      <trkpt lat="45.20965" lon="5.66194">
        <ele>265</ele>
        <time>2011-06-30T07:29:17Z</time>
      </trkpt>
      <trkpt lat="45.20968" lon="5.66201">
        <ele>263</ele>
        <time>2011-06-30T07:29:18Z</time>
      </trkpt>
      <trkpt lat="45.20972" lon="5.66207">
        <ele>264</ele>
        <time>2011-06-30T07:29:20Z</time>
      </trkpt>
      <trkpt lat="45.20979" lon="5.66208">
        <ele>263</ele>
        <time>2011-06-30T07:29:22Z</time>
      </trkpt>
      <trkpt lat="45.20986" lon="5.66207">
        <ele>264</ele>
        <time>2011-06-30T07:29:24Z</time>
      </trkpt>
      <trkpt lat="45.20994" lon="5.66209">
        <ele>265</ele>
        <time>2011-06-30T07:29:26Z</time>
      </trkpt>
      <trkpt lat="45.21003" lon="5.66209">
        <ele>265</ele>
        <time>2011-06-30T07:29:28Z</time>
      </trkpt>
      <trkpt lat="45.21012" lon="5.66208">
        <ele>265</ele>
        <time>2011-06-30T07:29:30Z</time>
      </trkpt>
      <trkpt lat="45.2102" lon="5.66206">
        <ele>265</ele>
        <time>2011-06-30T07:29:32Z</time>
      </trkpt>
      <trkpt lat="45.21029" lon="5.66204">
        <ele>264</ele>
        <time>2011-06-30T07:29:34Z</time>
      </trkpt>
      <trkpt lat="45.21036" lon="5.66202">
        <ele>264</ele>
        <time>2011-06-30T07:29:36Z</time>
      </trkpt>
      <trkpt lat="45.21044" lon="5.66201">
        <ele>264</ele>
        <time>2011-06-30T07:29:38Z</time>
      </trkpt>
      <trkpt lat="45.21052" lon="5.662">
        <ele>263</ele>
        <time>2011-06-30T07:29:40Z</time>
      </trkpt>
      <trkpt lat="45.21061" lon="5.66198">
        <ele>263</ele>
        <time>2011-06-30T07:29:42Z</time>
      </trkpt>
      <trkpt lat="45.2107" lon="5.66196">
        <ele>262</ele>
        <time>2011-06-30T07:29:44Z</time>
      </trkpt>
      <trkpt lat="45.21075" lon="5.66194">
        <ele>262</ele>
        <time>2011-06-30T07:29:45Z</time>
      </trkpt>
      <trkpt lat="45.21083" lon="5.66194">
        <ele>262</ele>
        <time>2011-06-30T07:29:47Z</time>
      </trkpt>
      <trkpt lat="45.21089" lon="5.66196">
        <ele>262</ele>
        <time>2011-06-30T07:29:49Z</time>
      </trkpt>
      <trkpt lat="45.21096" lon="5.66196">
        <ele>262</ele>
        <time>2011-06-30T07:29:52Z</time>
      </trkpt>
      <trkpt lat="45.21101" lon="5.66197">
        <ele>262</ele>
        <time>2011-06-30T07:29:54Z</time>
      </trkpt>
      <trkpt lat="45.2111" lon="5.66199">
        <ele>262</ele>
        <time>2011-06-30T07:29:56Z</time>
      </trkpt>
      <trkpt lat="45.2112" lon="5.66197">
        <ele>262</ele>
        <time>2011-06-30T07:29:58Z</time>
      </trkpt>
      <trkpt lat="45.21126" lon="5.66196">
        <ele>262</ele>
        <time>2011-06-30T07:29:59Z</time>
      </trkpt>
      <trkpt lat="45.21132" lon="5.66196">
        <ele>261</ele>
        <time>2011-06-30T07:30:00Z</time>
      </trkpt>
      <trkpt lat="45.21138" lon="5.66198">
        <ele>261</ele>
        <time>2011-06-30T07:30:01Z</time>
      </trkpt>
      <trkpt lat="45.21142" lon="5.662">
        <ele>262</ele>
        <time>2011-06-30T07:30:02Z</time>
      </trkpt>
      <trkpt lat="45.21149" lon="5.66208">
        <ele>262</ele>
        <time>2011-06-30T07:30:04Z</time>
      </trkpt>
      <trkpt lat="45.21154" lon="5.66218">
        <ele>261</ele>
        <time>2011-06-30T07:30:06Z</time>
      </trkpt>
      <trkpt lat="45.21159" lon="5.66226">
        <ele>261</ele>
        <time>2011-06-30T07:30:08Z</time>
      </trkpt>
      <trkpt lat="45.21163" lon="5.66233">
        <ele>262</ele>
        <time>2011-06-30T07:30:10Z</time>
      </trkpt>
      <trkpt lat="45.21167" lon="5.66241">
        <ele>262</ele>
        <time>2011-06-30T07:30:12Z</time>
      </trkpt>
      <trkpt lat="45.21172" lon="5.66247">
        <ele>261</ele>
        <time>2011-06-30T07:30:14Z</time>
      </trkpt>
      <trkpt lat="45.21176" lon="5.66253">
        <ele>261</ele>
        <time>2011-06-30T07:30:16Z</time>
      </trkpt>
      <trkpt lat="45.2118" lon="5.66261">
        <ele>262</ele>
        <time>2011-06-30T07:30:18Z</time>
      </trkpt>
      <trkpt lat="45.21184" lon="5.66268">
        <ele>262</ele>
        <time>2011-06-30T07:30:20Z</time>
      </trkpt>
      <trkpt lat="45.21189" lon="5.66274">
        <ele>262</ele>
        <time>2011-06-30T07:30:22Z</time>
      </trkpt>
      <trkpt lat="45.21192" lon="5.66282">
        <ele>262</ele>
        <time>2011-06-30T07:30:24Z</time>
      </trkpt>
      <trkpt lat="45.21192" lon="5.66292">
        <ele>262</ele>
        <time>2011-06-30T07:30:26Z</time>
      </trkpt>
      <trkpt lat="45.2119" lon="5.66298">
        <ele>262</ele>
        <time>2011-06-30T07:30:28Z</time>
      </trkpt>
      <trkpt lat="45.21189" lon="5.66306">
        <ele>261</ele>
        <time>2011-06-30T07:30:30Z</time>
      </trkpt>
      <trkpt lat="45.21187" lon="5.66314">
        <ele>261</ele>
        <time>2011-06-30T07:30:32Z</time>
      </trkpt>
      <trkpt lat="45.21188" lon="5.66325">
        <ele>260</ele>
        <time>2011-06-30T07:30:34Z</time>
      </trkpt>
      <trkpt lat="45.2119" lon="5.66335">
        <ele>260</ele>
        <time>2011-06-30T07:30:36Z</time>
      </trkpt>
      <trkpt lat="45.21196" lon="5.66338">
        <ele>260</ele>
        <time>2011-06-30T07:30:37Z</time>
      </trkpt>
      <trkpt lat="45.21202" lon="5.66347">
        <ele>260</ele>
        <time>2011-06-30T07:30:39Z</time>
      </trkpt>
      <trkpt lat="45.21209" lon="5.66355">
        <ele>260</ele>
        <time>2011-06-30T07:30:41Z</time>
      </trkpt>
      <trkpt lat="45.21211" lon="5.6636">
        <ele>260</ele>
        <time>2011-06-30T07:30:42Z</time>
      </trkpt>
      <trkpt lat="45.21214" lon="5.66366">
        <ele>260</ele>
        <time>2011-06-30T07:30:43Z</time>
      </trkpt>
      <trkpt lat="45.21218" lon="5.66376">
        <ele>262</ele>
        <time>2011-06-30T07:30:45Z</time>
      </trkpt>
      <trkpt lat="45.2122" lon="5.66382">
        <ele>262</ele>
        <time>2011-06-30T07:30:46Z</time>
      </trkpt>
      <trkpt lat="45.21225" lon="5.66393">
        <ele>263</ele>
        <time>2011-06-30T07:30:48Z</time>
      </trkpt>
      <trkpt lat="45.21228" lon="5.66399">
        <ele>263</ele>
        <time>2011-06-30T07:30:49Z</time>
      </trkpt>
      <trkpt lat="45.21231" lon="5.66406">
        <ele>262</ele>
        <time>2011-06-30T07:30:50Z</time>
      </trkpt>
      <trkpt lat="45.21232" lon="5.66413">
        <ele>262</ele>
        <time>2011-06-30T07:30:51Z</time>
      </trkpt>
      <trkpt lat="45.21234" lon="5.66419">
        <ele>261</ele>
        <time>2011-06-30T07:30:52Z</time>
      </trkpt>
      <trkpt lat="45.21237" lon="5.66425">
        <ele>261</ele>
        <time>2011-06-30T07:30:53Z</time>
      </trkpt>
      <trkpt lat="45.2124" lon="5.66432">
        <ele>261</ele>
        <time>2011-06-30T07:30:54Z</time>
      </trkpt>
      <trkpt lat="45.21244" lon="5.6644">
        <ele>261</ele>
        <time>2011-06-30T07:30:55Z</time>
      </trkpt>
      <trkpt lat="45.21247" lon="5.66446">
        <ele>260</ele>
        <time>2011-06-30T07:30:56Z</time>
      </trkpt>
      <trkpt lat="45.2125" lon="5.66452">
        <ele>260</ele>
        <time>2011-06-30T07:30:57Z</time>
      </trkpt>
      <trkpt lat="45.21253" lon="5.66459">
        <ele>260</ele>
        <time>2011-06-30T07:30:58Z</time>
      </trkpt>
      <trkpt lat="45.21256" lon="5.66465">
        <ele>261</ele>
        <time>2011-06-30T07:30:59Z</time>
      </trkpt>
      <trkpt lat="45.21258" lon="5.66471">
        <ele>261</ele>
        <time>2011-06-30T07:31:00Z</time>
      </trkpt>
      <trkpt lat="45.21262" lon="5.66478">
        <ele>261</ele>
        <time>2011-06-30T07:31:01Z</time>
      </trkpt>
      <trkpt lat="45.21266" lon="5.66485">
        <ele>261</ele>
        <time>2011-06-30T07:31:02Z</time>
      </trkpt>
      <trkpt lat="45.21272" lon="5.66498">
        <ele>261</ele>
        <time>2011-06-30T07:31:04Z</time>
      </trkpt>
      <trkpt lat="45.21275" lon="5.66504">
        <ele>260</ele>
        <time>2011-06-30T07:31:05Z</time>
      </trkpt>
      <trkpt lat="45.21277" lon="5.6651">
        <ele>260</ele>
        <time>2011-06-30T07:31:06Z</time>
      </trkpt>
      <trkpt lat="45.21281" lon="5.66517">
        <ele>261</ele>
        <time>2011-06-30T07:31:07Z</time>
      </trkpt>
      <trkpt lat="45.21283" lon="5.66523">
        <ele>261</ele>
        <time>2011-06-30T07:31:08Z</time>
      </trkpt>
      <trkpt lat="45.21285" lon="5.66531">
        <ele>260</ele>
        <time>2011-06-30T07:31:09Z</time>
      </trkpt>
      <trkpt lat="45.21288" lon="5.66537">
        <ele>260</ele>
        <time>2011-06-30T07:31:10Z</time>
      </trkpt>
      <trkpt lat="45.21291" lon="5.66543">
        <ele>260</ele>
        <time>2011-06-30T07:31:11Z</time>
      </trkpt>
      <trkpt lat="45.21294" lon="5.66554">
        <ele>260</ele>
        <time>2011-06-30T07:31:13Z</time>
      </trkpt>
      <trkpt lat="45.21297" lon="5.6656">
        <ele>260</ele>
        <time>2011-06-30T07:31:14Z</time>
      </trkpt>
      <trkpt lat="45.21299" lon="5.66566">
        <ele>260</ele>
        <time>2011-06-30T07:31:15Z</time>
      </trkpt>
      <trkpt lat="45.21301" lon="5.66573">
        <ele>260</ele>
        <time>2011-06-30T07:31:16Z</time>
      </trkpt>
      <trkpt lat="45.21302" lon="5.66579">
        <ele>260</ele>
        <time>2011-06-30T07:31:17Z</time>
      </trkpt>
      <trkpt lat="45.21304" lon="5.66586">
        <ele>260</ele>
        <time>2011-06-30T07:31:18Z</time>
      </trkpt>
      <trkpt lat="45.21306" lon="5.66591">
        <ele>260</ele>
        <time>2011-06-30T07:31:19Z</time>
      </trkpt>
      <trkpt lat="45.21309" lon="5.66597">
        <ele>260</ele>
        <time>2011-06-30T07:31:20Z</time>
      </trkpt>
      <trkpt lat="45.21312" lon="5.66605">
        <ele>260</ele>
        <time>2011-06-30T07:31:21Z</time>
      </trkpt>
      <trkpt lat="45.21315" lon="5.66612">
        <ele>260</ele>
        <time>2011-06-30T07:31:22Z</time>
      </trkpt>
      <trkpt lat="45.21319" lon="5.66619">
        <ele>259</ele>
        <time>2011-06-30T07:31:23Z</time>
      </trkpt>
      <trkpt lat="45.21321" lon="5.66626">
        <ele>259</ele>
        <time>2011-06-30T07:31:24Z</time>
      </trkpt>
      <trkpt lat="45.21323" lon="5.66632">
        <ele>259</ele>
        <time>2011-06-30T07:31:25Z</time>
      </trkpt>
      <trkpt lat="45.21325" lon="5.66639">
        <ele>259</ele>
        <time>2011-06-30T07:31:26Z</time>
      </trkpt>
      <trkpt lat="45.21328" lon="5.66644">
        <ele>259</ele>
        <time>2011-06-30T07:31:27Z</time>
      </trkpt>
      <trkpt lat="45.21332" lon="5.66652">
        <ele>258</ele>
        <time>2011-06-30T07:31:28Z</time>
      </trkpt>
      <trkpt lat="45.21334" lon="5.66659">
        <ele>258</ele>
        <time>2011-06-30T07:31:29Z</time>
      </trkpt>
      <trkpt lat="45.21336" lon="5.66666">
        <ele>258</ele>
        <time>2011-06-30T07:31:30Z</time>
      </trkpt>
      <trkpt lat="45.21336" lon="5.66675">
        <ele>258</ele>
        <time>2011-06-30T07:31:31Z</time>
      </trkpt>
      <trkpt lat="45.21337" lon="5.66684">
        <ele>258</ele>
        <time>2011-06-30T07:31:32Z</time>
      </trkpt>
      <trkpt lat="45.21335" lon="5.66695">
        <ele>259</ele>
        <time>2011-06-30T07:31:33Z</time>
      </trkpt>
      <trkpt lat="45.21335" lon="5.66705">
        <ele>258</ele>
        <time>2011-06-30T07:31:34Z</time>
      </trkpt>
      <trkpt lat="45.21333" lon="5.66715">
        <ele>258</ele>
        <time>2011-06-30T07:31:35Z</time>
      </trkpt>
      <trkpt lat="45.21333" lon="5.66726">
        <ele>258</ele>
        <time>2011-06-30T07:31:36Z</time>
      </trkpt>
      <trkpt lat="45.21332" lon="5.66736">
        <ele>258</ele>
        <time>2011-06-30T07:31:37Z</time>
      </trkpt>
      <trkpt lat="45.2133" lon="5.66746">
        <ele>258</ele>
        <time>2011-06-30T07:31:38Z</time>
      </trkpt>
      <trkpt lat="45.21328" lon="5.66756">
        <ele>258</ele>
        <time>2011-06-30T07:31:39Z</time>
      </trkpt>
      <trkpt lat="45.21326" lon="5.66764">
        <ele>257</ele>
        <time>2011-06-30T07:31:40Z</time>
      </trkpt>
      <trkpt lat="45.21326" lon="5.66773">
        <ele>257</ele>
        <time>2011-06-30T07:31:41Z</time>
      </trkpt>
      <trkpt lat="45.21328" lon="5.66781">
        <ele>257</ele>
        <time>2011-06-30T07:31:42Z</time>
      </trkpt>
      <trkpt lat="45.21334" lon="5.66789">
        <ele>256</ele>
        <time>2011-06-30T07:31:44Z</time>
      </trkpt>
      <trkpt lat="45.21338" lon="5.66794">
        <ele>256</ele>
        <time>2011-06-30T07:31:45Z</time>
      </trkpt>
      <trkpt lat="45.21343" lon="5.66805">
        <ele>256</ele>
        <time>2011-06-30T07:31:47Z</time>
      </trkpt>
      <trkpt lat="45.21346" lon="5.66818">
        <ele>256</ele>
        <time>2011-06-30T07:31:49Z</time>
      </trkpt>
      <trkpt lat="45.21346" lon="5.66825">
        <ele>254</ele>
        <time>2011-06-30T07:31:50Z</time>
      </trkpt>
      <trkpt lat="45.21348" lon="5.66833">
        <ele>254</ele>
        <time>2011-06-30T07:31:51Z</time>
      </trkpt>
      <trkpt lat="45.21349" lon="5.6684">
        <ele>254</ele>
        <time>2011-06-30T07:31:52Z</time>
      </trkpt>
      <trkpt lat="45.2135" lon="5.66846">
        <ele>255</ele>
        <time>2011-06-30T07:31:53Z</time>
      </trkpt>
      <trkpt lat="45.2135" lon="5.66853">
        <ele>255</ele>
        <time>2011-06-30T07:31:54Z</time>
      </trkpt>
      <trkpt lat="45.21351" lon="5.66865">
        <ele>255</ele>
        <time>2011-06-30T07:31:56Z</time>
      </trkpt>
      <trkpt lat="45.21353" lon="5.66877">
        <ele>256</ele>
        <time>2011-06-30T07:31:58Z</time>
      </trkpt>
      <trkpt lat="45.21354" lon="5.66884">
        <ele>256</ele>
        <time>2011-06-30T07:31:59Z</time>
      </trkpt>
      <trkpt lat="45.21356" lon="5.66892">
        <ele>256</ele>
        <time>2011-06-30T07:32:00Z</time>
      </trkpt>
      <trkpt lat="45.21357" lon="5.669">
        <ele>257</ele>
        <time>2011-06-30T07:32:01Z</time>
      </trkpt>
      <trkpt lat="45.21358" lon="5.66907">
        <ele>257</ele>
        <time>2011-06-30T07:32:02Z</time>
      </trkpt>
      <trkpt lat="45.2136" lon="5.66924">
        <ele>256</ele>
        <time>2011-06-30T07:32:04Z</time>
      </trkpt>
      <trkpt lat="45.21363" lon="5.66933">
        <ele>256</ele>
        <time>2011-06-30T07:32:05Z</time>
      </trkpt>
      <trkpt lat="45.21365" lon="5.66941">
        <ele>255</ele>
        <time>2011-06-30T07:32:06Z</time>
      </trkpt>
      <trkpt lat="45.21367" lon="5.6695">
        <ele>254</ele>
        <time>2011-06-30T07:32:07Z</time>
      </trkpt>
      <trkpt lat="45.21368" lon="5.66958">
        <ele>255</ele>
        <time>2011-06-30T07:32:08Z</time>
      </trkpt>
      <trkpt lat="45.21369" lon="5.66965">
        <ele>255</ele>
        <time>2011-06-30T07:32:09Z</time>
      </trkpt>
      <trkpt lat="45.2137" lon="5.66973">
        <ele>256</ele>
        <time>2011-06-30T07:32:10Z</time>
      </trkpt>
      <trkpt lat="45.2137" lon="5.6698">
        <ele>256</ele>
        <time>2011-06-30T07:32:11Z</time>
      </trkpt>
      <trkpt lat="45.21371" lon="5.66989">
        <ele>255</ele>
        <time>2011-06-30T07:32:12Z</time>
      </trkpt>
      <trkpt lat="45.21371" lon="5.66997">
        <ele>256</ele>
        <time>2011-06-30T07:32:13Z</time>
      </trkpt>
      <trkpt lat="45.21372" lon="5.67004">
        <ele>256</ele>
        <time>2011-06-30T07:32:14Z</time>
      </trkpt>
      <trkpt lat="45.21374" lon="5.67014">
        <ele>256</ele>
        <time>2011-06-30T07:32:15Z</time>
      </trkpt>
      <trkpt lat="45.21374" lon="5.67022">
        <ele>257</ele>
        <time>2011-06-30T07:32:16Z</time>
      </trkpt>
      <trkpt lat="45.21374" lon="5.67029">
        <ele>258</ele>
        <time>2011-06-30T07:32:17Z</time>
      </trkpt>
      <trkpt lat="45.21377" lon="5.67036">
        <ele>258</ele>
        <time>2011-06-30T07:32:18Z</time>
      </trkpt>
      <trkpt lat="45.21378" lon="5.67044">
        <ele>258</ele>
        <time>2011-06-30T07:32:19Z</time>
      </trkpt>
      <trkpt lat="45.21379" lon="5.67052">
        <ele>257</ele>
        <time>2011-06-30T07:32:20Z</time>
      </trkpt>
      <trkpt lat="45.2138" lon="5.67059">
        <ele>258</ele>
        <time>2011-06-30T07:32:21Z</time>
      </trkpt>
      <trkpt lat="45.21382" lon="5.67067">
        <ele>258</ele>
        <time>2011-06-30T07:32:22Z</time>
      </trkpt>
      <trkpt lat="45.21383" lon="5.67074">
        <ele>258</ele>
        <time>2011-06-30T07:32:23Z</time>
      </trkpt>
      <trkpt lat="45.21384" lon="5.67082">
        <ele>258</ele>
        <time>2011-06-30T07:32:24Z</time>
      </trkpt>
      <trkpt lat="45.21385" lon="5.67089">
        <ele>258</ele>
        <time>2011-06-30T07:32:25Z</time>
      </trkpt>
      <trkpt lat="45.21386" lon="5.67097">
        <ele>258</ele>
        <time>2011-06-30T07:32:26Z</time>
      </trkpt>
      <trkpt lat="45.21388" lon="5.67104">
        <ele>258</ele>
        <time>2011-06-30T07:32:27Z</time>
      </trkpt>
      <trkpt lat="45.2139" lon="5.67111">
        <ele>259</ele>
        <time>2011-06-30T07:32:28Z</time>
      </trkpt>
      <trkpt lat="45.21391" lon="5.67118">
        <ele>259</ele>
        <time>2011-06-30T07:32:29Z</time>
      </trkpt>
      <trkpt lat="45.21393" lon="5.67125">
        <ele>258</ele>
        <time>2011-06-30T07:32:30Z</time>
      </trkpt>
      <trkpt lat="45.21394" lon="5.67133">
        <ele>258</ele>
        <time>2011-06-30T07:32:31Z</time>
      </trkpt>
      <trkpt lat="45.21395" lon="5.67139">
        <ele>258</ele>
        <time>2011-06-30T07:32:32Z</time>
      </trkpt>
      <trkpt lat="45.21396" lon="5.67147">
        <ele>258</ele>
        <time>2011-06-30T07:32:33Z</time>
      </trkpt>
      <trkpt lat="45.21397" lon="5.67154">
        <ele>258</ele>
        <time>2011-06-30T07:32:34Z</time>
      </trkpt>
      <trkpt lat="45.21399" lon="5.67161">
        <ele>257</ele>
        <time>2011-06-30T07:32:35Z</time>
      </trkpt>
      <trkpt lat="45.214" lon="5.67168">
        <ele>257</ele>
        <time>2011-06-30T07:32:36Z</time>
      </trkpt>
      <trkpt lat="45.21401" lon="5.67175">
        <ele>257</ele>
        <time>2011-06-30T07:32:37Z</time>
      </trkpt>
      <trkpt lat="45.21402" lon="5.67183">
        <ele>258</ele>
        <time>2011-06-30T07:32:38Z</time>
      </trkpt>
      <trkpt lat="45.21402" lon="5.6719">
        <ele>258</ele>
        <time>2011-06-30T07:32:39Z</time>
      </trkpt>
      <trkpt lat="45.21404" lon="5.67198">
        <ele>257</ele>
        <time>2011-06-30T07:32:40Z</time>
      </trkpt>
      <trkpt lat="45.21404" lon="5.67206">
        <ele>257</ele>
        <time>2011-06-30T07:32:41Z</time>
      </trkpt>
      <trkpt lat="45.21406" lon="5.67214">
        <ele>257</ele>
        <time>2011-06-30T07:32:42Z</time>
      </trkpt>
      <trkpt lat="45.21407" lon="5.67222">
        <ele>257</ele>
        <time>2011-06-30T07:32:43Z</time>
      </trkpt>
      <trkpt lat="45.21409" lon="5.67228">
        <ele>258</ele>
        <time>2011-06-30T07:32:44Z</time>
      </trkpt>
      <trkpt lat="45.21413" lon="5.67233">
        <ele>258</ele>
        <time>2011-06-30T07:32:45Z</time>
      </trkpt>
      <trkpt lat="45.21417" lon="5.67236">
        <ele>257</ele>
        <time>2011-06-30T07:32:46Z</time>
      </trkpt>
      <trkpt lat="45.21424" lon="5.67236">
        <ele>257</ele>
        <time>2011-06-30T07:32:47Z</time>
      </trkpt>
      <trkpt lat="45.2143" lon="5.67236">
        <ele>258</ele>
        <time>2011-06-30T07:32:48Z</time>
      </trkpt>
      <trkpt lat="45.21435" lon="5.67236">
        <ele>258</ele>
        <time>2011-06-30T07:32:49Z</time>
      </trkpt>
      <trkpt lat="45.21441" lon="5.67237">
        <ele>258</ele>
        <time>2011-06-30T07:32:50Z</time>
      </trkpt>
      <trkpt lat="45.21447" lon="5.67237">
        <ele>258</ele>
        <time>2011-06-30T07:32:51Z</time>
      </trkpt>
      <trkpt lat="45.21453" lon="5.67237">
        <ele>257</ele>
        <time>2011-06-30T07:32:52Z</time>
      </trkpt>
      <trkpt lat="45.21458" lon="5.67237">
        <ele>258</ele>
        <time>2011-06-30T07:32:53Z</time>
      </trkpt>
      <trkpt lat="45.21464" lon="5.67236">
        <ele>258</ele>
        <time>2011-06-30T07:32:54Z</time>
      </trkpt>
      <trkpt lat="45.21469" lon="5.67235">
        <ele>258</ele>
        <time>2011-06-30T07:32:55Z</time>
      </trkpt>
      <trkpt lat="45.21474" lon="5.67234">
        <ele>258</ele>
        <time>2011-06-30T07:32:56Z</time>
      </trkpt>
      <trkpt lat="45.21479" lon="5.67232">
        <ele>258</ele>
        <time>2011-06-30T07:32:57Z</time>
      </trkpt>
      <trkpt lat="45.21484" lon="5.6723">
        <ele>258</ele>
        <time>2011-06-30T07:32:58Z</time>
      </trkpt>
      <trkpt lat="45.21489" lon="5.67228">
        <ele>258</ele>
        <time>2011-06-30T07:32:59Z</time>
      </trkpt>
      <trkpt lat="45.21493" lon="5.67226">
        <ele>259</ele>
        <time>2011-06-30T07:33:00Z</time>
      </trkpt>
      <trkpt lat="45.21498" lon="5.67224">
        <ele>259</ele>
        <time>2011-06-30T07:33:01Z</time>
      </trkpt>
      <trkpt lat="45.21504" lon="5.67223">
        <ele>259</ele>
        <time>2011-06-30T07:33:02Z</time>
      </trkpt>
      <trkpt lat="45.21514" lon="5.67218">
        <ele>259</ele>
        <time>2011-06-30T07:33:04Z</time>
      </trkpt>
      <trkpt lat="45.2152" lon="5.67215">
        <ele>259</ele>
        <time>2011-06-30T07:33:05Z</time>
      </trkpt>
      <trkpt lat="45.21525" lon="5.67215">
        <ele>259</ele>
        <time>2011-06-30T07:33:06Z</time>
      </trkpt>
      <trkpt lat="45.21531" lon="5.67213">
        <ele>259</ele>
        <time>2011-06-30T07:33:07Z</time>
      </trkpt>
      <trkpt lat="45.21536" lon="5.67209">
        <ele>259</ele>
        <time>2011-06-30T07:33:08Z</time>
      </trkpt>
      <trkpt lat="45.21542" lon="5.67206">
        <ele>259</ele>
        <time>2011-06-30T07:33:09Z</time>
      </trkpt>
      <trkpt lat="45.21547" lon="5.67204">
        <ele>259</ele>
        <time>2011-06-30T07:33:10Z</time>
      </trkpt>
      <trkpt lat="45.21553" lon="5.67204">
        <ele>259</ele>
        <time>2011-06-30T07:33:11Z</time>
      </trkpt>
      <trkpt lat="45.21557" lon="5.67206">
        <ele>259</ele>
        <time>2011-06-30T07:33:12Z</time>
      </trkpt>
      <trkpt lat="45.21561" lon="5.6721">
        <ele>258</ele>
        <time>2011-06-30T07:33:13Z</time>
      </trkpt>
      <trkpt lat="45.21565" lon="5.67214">
        <ele>258</ele>
        <time>2011-06-30T07:33:14Z</time>
      </trkpt>
      <trkpt lat="45.2157" lon="5.67217">
        <ele>258</ele>
        <time>2011-06-30T07:33:15Z</time>
      </trkpt>
      <trkpt lat="45.21574" lon="5.67222">
        <ele>259</ele>
        <time>2011-06-30T07:33:16Z</time>
      </trkpt>
      <trkpt lat="45.2158" lon="5.67228">
        <ele>260</ele>
        <time>2011-06-30T07:33:18Z</time>
      </trkpt>
      <trkpt lat="45.21586" lon="5.67235">
        <ele>261</ele>
        <time>2011-06-30T07:33:20Z</time>
      </trkpt>
      <trkpt lat="45.21588" lon="5.67243">
        <ele>261</ele>
        <time>2011-06-30T07:33:22Z</time>
      </trkpt>
      <trkpt lat="45.21586" lon="5.67251">
        <ele>261</ele>
        <time>2011-06-30T07:33:24Z</time>
      </trkpt>
      <trkpt lat="45.21584" lon="5.67257">
        <ele>261</ele>
        <time>2011-06-30T07:33:26Z</time>
      </trkpt>
      <trkpt lat="45.21579" lon="5.67264">
        <ele>260</ele>
        <time>2011-06-30T07:33:28Z</time>
      </trkpt>
      <trkpt lat="45.21576" lon="5.67269">
        <ele>259</ele>
        <time>2011-06-30T07:33:30Z</time>
      </trkpt>
      <trkpt lat="45.21571" lon="5.67274">
        <ele>259</ele>
        <time>2011-06-30T07:33:32Z</time>
      </trkpt>
      <trkpt lat="45.21564" lon="5.67278">
        <ele>260</ele>
        <time>2011-06-30T07:33:34Z</time>
      </trkpt>
      <trkpt lat="45.2156" lon="5.67284">
        <ele>262</ele>
        <time>2011-06-30T07:33:36Z</time>
      </trkpt>
      <trkpt lat="45.21555" lon="5.67291">
        <ele>262</ele>
        <time>2011-06-30T07:33:38Z</time>
      </trkpt>
      <trkpt lat="45.21549" lon="5.67297">
        <ele>263</ele>
        <time>2011-06-30T07:33:40Z</time>
      </trkpt>
      <trkpt lat="45.21544" lon="5.67304">
        <ele>263</ele>
        <time>2011-06-30T07:33:42Z</time>
      </trkpt>
      <trkpt lat="45.21536" lon="5.67314">
        <ele>263</ele>
        <time>2011-06-30T07:33:44Z</time>
      </trkpt>
      <trkpt lat="45.21534" lon="5.67321">
        <ele>262</ele>
        <time>2011-06-30T07:33:45Z</time>
      </trkpt>
      <trkpt lat="45.21531" lon="5.67326">
        <ele>261</ele>
        <time>2011-06-30T07:33:46Z</time>
      </trkpt>
      <trkpt lat="45.21525" lon="5.67334">
        <ele>261</ele>
        <time>2011-06-30T07:33:48Z</time>
      </trkpt>
      <trkpt lat="45.21518" lon="5.67341">
        <ele>261</ele>
        <time>2011-06-30T07:33:50Z</time>
      </trkpt>
      <trkpt lat="45.21511" lon="5.67348">
        <ele>261</ele>
        <time>2011-06-30T07:33:52Z</time>
      </trkpt>
      <trkpt lat="45.21506" lon="5.67353">
        <ele>262</ele>
        <time>2011-06-30T07:33:53Z</time>
      </trkpt>
      <trkpt lat="45.21498" lon="5.67362">
        <ele>263</ele>
        <time>2011-06-30T07:33:55Z</time>
      </trkpt>
      <trkpt lat="45.21494" lon="5.67364">
        <ele>263</ele>
        <time>2011-06-30T07:33:56Z</time>
      </trkpt>
      <trkpt lat="45.21488" lon="5.67371">
        <ele>264</ele>
        <time>2011-06-30T07:33:58Z</time>
      </trkpt>
      <trkpt lat="45.21482" lon="5.67379">
        <ele>264</ele>
        <time>2011-06-30T07:34:00Z</time>
      </trkpt>
      <trkpt lat="45.21478" lon="5.67385">
        <ele>263</ele>
        <time>2011-06-30T07:34:01Z</time>
      </trkpt>
      <trkpt lat="45.21475" lon="5.6739">
        <ele>264</ele>
        <time>2011-06-30T07:34:02Z</time>
      </trkpt>
      <trkpt lat="45.21466" lon="5.67398">
        <ele>264</ele>
        <time>2011-06-30T07:34:04Z</time>
      </trkpt>
      <trkpt lat="45.2146" lon="5.67408">
        <ele>266</ele>
        <time>2011-06-30T07:34:06Z</time>
      </trkpt>
      <trkpt lat="45.21455" lon="5.67414">
        <ele>266</ele>
        <time>2011-06-30T07:34:07Z</time>
      </trkpt>
      <trkpt lat="45.21451" lon="5.67421">
        <ele>267</ele>
        <time>2011-06-30T07:34:08Z</time>
      </trkpt>
      <trkpt lat="45.21447" lon="5.67426">
        <ele>267</ele>
        <time>2011-06-30T07:34:09Z</time>
      </trkpt>
      <trkpt lat="45.21443" lon="5.67432">
        <ele>267</ele>
        <time>2011-06-30T07:34:10Z</time>
      </trkpt>
      <trkpt lat="45.21439" lon="5.67437">
        <ele>267</ele>
        <time>2011-06-30T07:34:11Z</time>
      </trkpt>
      <trkpt lat="45.21435" lon="5.67443">
        <ele>268</ele>
        <time>2011-06-30T07:34:12Z</time>
      </trkpt>
      <trkpt lat="45.21428" lon="5.67452">
        <ele>268</ele>
        <time>2011-06-30T07:34:14Z</time>
      </trkpt>
      <trkpt lat="45.21424" lon="5.67457">
        <ele>268</ele>
        <time>2011-06-30T07:34:15Z</time>
      </trkpt>
      <trkpt lat="45.21421" lon="5.67462">
        <ele>267</ele>
        <time>2011-06-30T07:34:16Z</time>
      </trkpt>
      <trkpt lat="45.21414" lon="5.67474">
        <ele>268</ele>
        <time>2011-06-30T07:34:18Z</time>
      </trkpt>
      <trkpt lat="45.21411" lon="5.6748">
        <ele>267</ele>
        <time>2011-06-30T07:34:19Z</time>
      </trkpt>
      <trkpt lat="45.21407" lon="5.67486">
        <ele>267</ele>
        <time>2011-06-30T07:34:20Z</time>
      </trkpt>
      <trkpt lat="45.21403" lon="5.6749">
        <ele>268</ele>
        <time>2011-06-30T07:34:21Z</time>
      </trkpt>
      <trkpt lat="45.21398" lon="5.67495">
        <ele>268</ele>
        <time>2011-06-30T07:34:22Z</time>
      </trkpt>
      <trkpt lat="45.21394" lon="5.67501">
        <ele>269</ele>
        <time>2011-06-30T07:34:23Z</time>
      </trkpt>
      <trkpt lat="45.21388" lon="5.67507">
        <ele>270</ele>
        <time>2011-06-30T07:34:24Z</time>
      </trkpt>
      <trkpt lat="45.21383" lon="5.67513">
        <ele>270</ele>
        <time>2011-06-30T07:34:25Z</time>
      </trkpt>
      <trkpt lat="45.21377" lon="5.67519">
        <ele>270</ele>
        <time>2011-06-30T07:34:26Z</time>
      </trkpt>
      <trkpt lat="45.21372" lon="5.67527">
        <ele>271</ele>
        <time>2011-06-30T07:34:27Z</time>
      </trkpt>
      <trkpt lat="45.21367" lon="5.67533">
        <ele>271</ele>
        <time>2011-06-30T07:34:28Z</time>
      </trkpt>
      <trkpt lat="45.21363" lon="5.6754">
        <ele>271</ele>
        <time>2011-06-30T07:34:29Z</time>
      </trkpt>
      <trkpt lat="45.21358" lon="5.67547">
        <ele>271</ele>
        <time>2011-06-30T07:34:30Z</time>
      </trkpt>
      <trkpt lat="45.21355" lon="5.67554">
        <ele>271</ele>
        <time>2011-06-30T07:34:31Z</time>
      </trkpt>
      <trkpt lat="45.21349" lon="5.6756">
        <ele>271</ele>
        <time>2011-06-30T07:34:32Z</time>
      </trkpt>
      <trkpt lat="45.21344" lon="5.67568">
        <ele>271</ele>
        <time>2011-06-30T07:34:33Z</time>
      </trkpt>
      <trkpt lat="45.21338" lon="5.67574">
        <ele>272</ele>
        <time>2011-06-30T07:34:34Z</time>
      </trkpt>
      <trkpt lat="45.21333" lon="5.6758">
        <ele>271</ele>
        <time>2011-06-30T07:34:35Z</time>
      </trkpt>
      <trkpt lat="45.21327" lon="5.67586">
        <ele>271</ele>
        <time>2011-06-30T07:34:36Z</time>
      </trkpt>
      <trkpt lat="45.21322" lon="5.67594">
        <ele>271</ele>
        <time>2011-06-30T07:34:37Z</time>
      </trkpt>
      <trkpt lat="45.21317" lon="5.67602">
        <ele>271</ele>
        <time>2011-06-30T07:34:38Z</time>
      </trkpt>
      <trkpt lat="45.21313" lon="5.67609">
        <ele>271</ele>
        <time>2011-06-30T07:34:39Z</time>
      </trkpt>
      <trkpt lat="45.21308" lon="5.67618">
        <ele>271</ele>
        <time>2011-06-30T07:34:40Z</time>
      </trkpt>
      <trkpt lat="45.21303" lon="5.67624">
        <ele>272</ele>
        <time>2011-06-30T07:34:41Z</time>
      </trkpt>
      <trkpt lat="45.21297" lon="5.67631">
        <ele>272</ele>
        <time>2011-06-30T07:34:42Z</time>
      </trkpt>
      <trkpt lat="45.21292" lon="5.67638">
        <ele>272</ele>
        <time>2011-06-30T07:34:43Z</time>
      </trkpt>
      <trkpt lat="45.21288" lon="5.67644">
        <ele>272</ele>
        <time>2011-06-30T07:34:44Z</time>
      </trkpt>
      <trkpt lat="45.21283" lon="5.67649">
        <ele>272</ele>
        <time>2011-06-30T07:34:45Z</time>
      </trkpt>
      <trkpt lat="45.21277" lon="5.67656">
        <ele>272</ele>
        <time>2011-06-30T07:34:46Z</time>
      </trkpt>
      <trkpt lat="45.21272" lon="5.67662">
        <ele>272</ele>
        <time>2011-06-30T07:34:47Z</time>
      </trkpt>
      <trkpt lat="45.21267" lon="5.67668">
        <ele>272</ele>
        <time>2011-06-30T07:34:48Z</time>
      </trkpt>
      <trkpt lat="45.21262" lon="5.67676">
        <ele>273</ele>
        <time>2011-06-30T07:34:49Z</time>
      </trkpt>
      <trkpt lat="45.21257" lon="5.67681">
        <ele>273</ele>
        <time>2011-06-30T07:34:50Z</time>
      </trkpt>
      <trkpt lat="45.21253" lon="5.67689">
        <ele>273</ele>
        <time>2011-06-30T07:34:51Z</time>
      </trkpt>
      <trkpt lat="45.21248" lon="5.67696">
        <ele>272</ele>
        <time>2011-06-30T07:34:52Z</time>
      </trkpt>
      <trkpt lat="45.21244" lon="5.67706">
        <ele>271</ele>
        <time>2011-06-30T07:34:53Z</time>
      </trkpt>
      <trkpt lat="45.21239" lon="5.67713">
        <ele>271</ele>
        <time>2011-06-30T07:34:54Z</time>
      </trkpt>
      <trkpt lat="45.21234" lon="5.67722">
        <ele>270</ele>
        <time>2011-06-30T07:34:55Z</time>
      </trkpt>
      <trkpt lat="45.2123" lon="5.67728">
        <ele>271</ele>
        <time>2011-06-30T07:34:56Z</time>
      </trkpt>
      <trkpt lat="45.21225" lon="5.67734">
        <ele>271</ele>
        <time>2011-06-30T07:34:57Z</time>
      </trkpt>
      <trkpt lat="45.2122" lon="5.6774">
        <ele>270</ele>
        <time>2011-06-30T07:34:58Z</time>
      </trkpt>
      <trkpt lat="45.21216" lon="5.67745">
        <ele>270</ele>
        <time>2011-06-30T07:34:59Z</time>
      </trkpt>
      <trkpt lat="45.21211" lon="5.67752">
        <ele>270</ele>
        <time>2011-06-30T07:35:00Z</time>
      </trkpt>
      <trkpt lat="45.21207" lon="5.67758">
        <ele>270</ele>
        <time>2011-06-30T07:35:01Z</time>
      </trkpt>
      <trkpt lat="45.21203" lon="5.67764">
        <ele>271</ele>
        <time>2011-06-30T07:35:02Z</time>
      </trkpt>
      <trkpt lat="45.21193" lon="5.67774">
        <ele>271</ele>
        <time>2011-06-30T07:35:04Z</time>
      </trkpt>
      <trkpt lat="45.21186" lon="5.67778">
        <ele>271</ele>
        <time>2011-06-30T07:35:05Z</time>
      </trkpt>
      <trkpt lat="45.21182" lon="5.67783">
        <ele>271</ele>
        <time>2011-06-30T07:35:06Z</time>
      </trkpt>
      <trkpt lat="45.21176" lon="5.6779">
        <ele>271</ele>
        <time>2011-06-30T07:35:07Z</time>
      </trkpt>
      <trkpt lat="45.21171" lon="5.67796">
        <ele>271</ele>
        <time>2011-06-30T07:35:08Z</time>
      </trkpt>
      <trkpt lat="45.21167" lon="5.67803">
        <ele>271</ele>
        <time>2011-06-30T07:35:09Z</time>
      </trkpt>
      <trkpt lat="45.21163" lon="5.67812">
        <ele>271</ele>
        <time>2011-06-30T07:35:10Z</time>
      </trkpt>
      <trkpt lat="45.21157" lon="5.67819">
        <ele>271</ele>
        <time>2011-06-30T07:35:11Z</time>
      </trkpt>
      <trkpt lat="45.21152" lon="5.67828">
        <ele>272</ele>
        <time>2011-06-30T07:35:12Z</time>
      </trkpt>
      <trkpt lat="45.21147" lon="5.67835">
        <ele>272</ele>
        <time>2011-06-30T07:35:13Z</time>
      </trkpt>
      <trkpt lat="45.21142" lon="5.67842">
        <ele>273</ele>
        <time>2011-06-30T07:35:14Z</time>
      </trkpt>
      <trkpt lat="45.21138" lon="5.6785">
        <ele>273</ele>
        <time>2011-06-30T07:35:15Z</time>
      </trkpt>
      <trkpt lat="45.21134" lon="5.67858">
        <ele>272</ele>
        <time>2011-06-30T07:35:16Z</time>
      </trkpt>
      <trkpt lat="45.21128" lon="5.67865">
        <ele>272</ele>
        <time>2011-06-30T07:35:17Z</time>
      </trkpt>
      <trkpt lat="45.21123" lon="5.67871">
        <ele>272</ele>
        <time>2011-06-30T07:35:18Z</time>
      </trkpt>
      <trkpt lat="45.21118" lon="5.67877">
        <ele>272</ele>
        <time>2011-06-30T07:35:19Z</time>
      </trkpt>
      <trkpt lat="45.21113" lon="5.67882">
        <ele>272</ele>
        <time>2011-06-30T07:35:20Z</time>
      </trkpt>
      <trkpt lat="45.21108" lon="5.67888">
        <ele>272</ele>
        <time>2011-06-30T07:35:21Z</time>
      </trkpt>
      <trkpt lat="45.21103" lon="5.67894">
        <ele>272</ele>
        <time>2011-06-30T07:35:22Z</time>
      </trkpt>
      <trkpt lat="45.21098" lon="5.67901">
        <ele>273</ele>
        <time>2011-06-30T07:35:23Z</time>
      </trkpt>
      <trkpt lat="45.21093" lon="5.67908">
        <ele>272</ele>
        <time>2011-06-30T07:35:24Z</time>
      </trkpt>
      <trkpt lat="45.21088" lon="5.67914">
        <ele>273</ele>
        <time>2011-06-30T07:35:25Z</time>
      </trkpt>
      <trkpt lat="45.21085" lon="5.67923">
        <ele>273</ele>
        <time>2011-06-30T07:35:26Z</time>
      </trkpt>
      <trkpt lat="45.2108" lon="5.67931">
        <ele>272</ele>
        <time>2011-06-30T07:35:27Z</time>
      </trkpt>
      <trkpt lat="45.21075" lon="5.67938">
        <ele>272</ele>
        <time>2011-06-30T07:35:28Z</time>
      </trkpt>
      <trkpt lat="45.2107" lon="5.67946">
        <ele>272</ele>
        <time>2011-06-30T07:35:29Z</time>
      </trkpt>
      <trkpt lat="45.21065" lon="5.67952">
        <ele>272</ele>
        <time>2011-06-30T07:35:30Z</time>
      </trkpt>
      <trkpt lat="45.2106" lon="5.67958">
        <ele>271</ele>
        <time>2011-06-30T07:35:31Z</time>
      </trkpt>
      <trkpt lat="45.21055" lon="5.67965">
        <ele>271</ele>
        <time>2011-06-30T07:35:32Z</time>
      </trkpt>
      <trkpt lat="45.2105" lon="5.67972">
        <ele>271</ele>
        <time>2011-06-30T07:35:33Z</time>
      </trkpt>
      <trkpt lat="45.21045" lon="5.67979">
        <ele>270</ele>
        <time>2011-06-30T07:35:34Z</time>
      </trkpt>
      <trkpt lat="45.21042" lon="5.67984">
        <ele>270</ele>
        <time>2011-06-30T07:35:35Z</time>
      </trkpt>
      <trkpt lat="45.21034" lon="5.67997">
        <ele>271</ele>
        <time>2011-06-30T07:35:37Z</time>
      </trkpt>
      <trkpt lat="45.21029" lon="5.68002">
        <ele>271</ele>
        <time>2011-06-30T07:35:38Z</time>
      </trkpt>
      <trkpt lat="45.21025" lon="5.68009">
        <ele>271</ele>
        <time>2011-06-30T07:35:39Z</time>
      </trkpt>
      <trkpt lat="45.21022" lon="5.68015">
        <ele>271</ele>
        <time>2011-06-30T07:35:40Z</time>
      </trkpt>
      <trkpt lat="45.21017" lon="5.68021">
        <ele>271</ele>
        <time>2011-06-30T07:35:41Z</time>
      </trkpt>
      <trkpt lat="45.2101" lon="5.68026">
        <ele>271</ele>
        <time>2011-06-30T07:35:42Z</time>
      </trkpt>
      <trkpt lat="45.21004" lon="5.68032">
        <ele>271</ele>
        <time>2011-06-30T07:35:43Z</time>
      </trkpt>
      <trkpt lat="45.20997" lon="5.68039">
        <ele>272</ele>
        <time>2011-06-30T07:35:44Z</time>
      </trkpt>
      <trkpt lat="45.20992" lon="5.68045">
        <ele>272</ele>
        <time>2011-06-30T07:35:45Z</time>
      </trkpt>
      <trkpt lat="45.20987" lon="5.68053">
        <ele>272</ele>
        <time>2011-06-30T07:35:46Z</time>
      </trkpt>
      <trkpt lat="45.20982" lon="5.68059">
        <ele>272</ele>
        <time>2011-06-30T07:35:47Z</time>
      </trkpt>
      <trkpt lat="45.20977" lon="5.68064">
        <ele>272</ele>
        <time>2011-06-30T07:35:48Z</time>
      </trkpt>
      <trkpt lat="45.20973" lon="5.6807">
        <ele>271</ele>
        <time>2011-06-30T07:35:49Z</time>
      </trkpt>
      <trkpt lat="45.20968" lon="5.68079">
        <ele>271</ele>
        <time>2011-06-30T07:35:50Z</time>
      </trkpt>
      <trkpt lat="45.20964" lon="5.68086">
        <ele>271</ele>
        <time>2011-06-30T07:35:51Z</time>
      </trkpt>
      <trkpt lat="45.20959" lon="5.68092">
        <ele>271</ele>
        <time>2011-06-30T07:35:52Z</time>
      </trkpt>
      <trkpt lat="45.20954" lon="5.68098">
        <ele>271</ele>
        <time>2011-06-30T07:35:53Z</time>
      </trkpt>
      <trkpt lat="45.2095" lon="5.68105">
        <ele>271</ele>
        <time>2011-06-30T07:35:54Z</time>
      </trkpt>
      <trkpt lat="45.20946" lon="5.68111">
        <ele>271</ele>
        <time>2011-06-30T07:35:55Z</time>
      </trkpt>
      <trkpt lat="45.20941" lon="5.68117">
        <ele>270</ele>
        <time>2011-06-30T07:35:56Z</time>
      </trkpt>
      <trkpt lat="45.20937" lon="5.68123">
        <ele>271</ele>
        <time>2011-06-30T07:35:57Z</time>
      </trkpt>
      <trkpt lat="45.20932" lon="5.68131">
        <ele>270</ele>
        <time>2011-06-30T07:35:58Z</time>
      </trkpt>
      <trkpt lat="45.20928" lon="5.68138">
        <ele>270</ele>
        <time>2011-06-30T07:35:59Z</time>
      </trkpt>
      <trkpt lat="45.20924" lon="5.68143">
        <ele>271</ele>
        <time>2011-06-30T07:36:00Z</time>
      </trkpt>
      <trkpt lat="45.2092" lon="5.6815">
        <ele>271</ele>
        <time>2011-06-30T07:36:01Z</time>
      </trkpt>
      <trkpt lat="45.20915" lon="5.68156">
        <ele>271</ele>
        <time>2011-06-30T07:36:02Z</time>
      </trkpt>
      <trkpt lat="45.20904" lon="5.68169">
        <ele>271</ele>
        <time>2011-06-30T07:36:04Z</time>
      </trkpt>
      <trkpt lat="45.20899" lon="5.68176">
        <ele>271</ele>
        <time>2011-06-30T07:36:05Z</time>
      </trkpt>
      <trkpt lat="45.20895" lon="5.68182">
        <ele>271</ele>
        <time>2011-06-30T07:36:06Z</time>
      </trkpt>
      <trkpt lat="45.2089" lon="5.68188">
        <ele>272</ele>
        <time>2011-06-30T07:36:07Z</time>
      </trkpt>
      <trkpt lat="45.20884" lon="5.68194">
        <ele>272</ele>
        <time>2011-06-30T07:36:08Z</time>
      </trkpt>
      <trkpt lat="45.2088" lon="5.68202">
        <ele>271</ele>
        <time>2011-06-30T07:36:09Z</time>
      </trkpt>
      <trkpt lat="45.20874" lon="5.68212">
        <ele>270</ele>
        <time>2011-06-30T07:36:10Z</time>
      </trkpt>
      <trkpt lat="45.20871" lon="5.68222">
        <ele>269</ele>
        <time>2011-06-30T07:36:11Z</time>
      </trkpt>
      <trkpt lat="45.20866" lon="5.68229">
        <ele>269</ele>
        <time>2011-06-30T07:36:12Z</time>
      </trkpt>
      <trkpt lat="45.20862" lon="5.68235">
        <ele>270</ele>
        <time>2011-06-30T07:36:13Z</time>
      </trkpt>
      <trkpt lat="45.20857" lon="5.68242">
        <ele>270</ele>
        <time>2011-06-30T07:36:14Z</time>
      </trkpt>
      <trkpt lat="45.20852" lon="5.68247">
        <ele>271</ele>
        <time>2011-06-30T07:36:15Z</time>
      </trkpt>
      <trkpt lat="45.20847" lon="5.68255">
        <ele>270</ele>
        <time>2011-06-30T07:36:16Z</time>
      </trkpt>
      <trkpt lat="45.20843" lon="5.68264">
        <ele>270</ele>
        <time>2011-06-30T07:36:17Z</time>
      </trkpt>
      <trkpt lat="45.20839" lon="5.6827">
        <ele>269</ele>
        <time>2011-06-30T07:36:18Z</time>
      </trkpt>
      <trkpt lat="45.20833" lon="5.68278">
        <ele>270</ele>
        <time>2011-06-30T07:36:19Z</time>
      </trkpt>
      <trkpt lat="45.20828" lon="5.68285">
        <ele>270</ele>
        <time>2011-06-30T07:36:20Z</time>
      </trkpt>
      <trkpt lat="45.20824" lon="5.68292">
        <ele>270</ele>
        <time>2011-06-30T07:36:21Z</time>
      </trkpt>
      <trkpt lat="45.2082" lon="5.683">
        <ele>270</ele>
        <time>2011-06-30T07:36:22Z</time>
      </trkpt>
      <trkpt lat="45.20817" lon="5.68308">
        <ele>269</ele>
        <time>2011-06-30T07:36:23Z</time>
      </trkpt>
      <trkpt lat="45.20812" lon="5.68315">
        <ele>269</ele>
        <time>2011-06-30T07:36:24Z</time>
      </trkpt>
      <trkpt lat="45.20807" lon="5.68321">
        <ele>269</ele>
        <time>2011-06-30T07:36:25Z</time>
      </trkpt>
      <trkpt lat="45.20802" lon="5.68328">
        <ele>269</ele>
        <time>2011-06-30T07:36:26Z</time>
      </trkpt>
      <trkpt lat="45.20796" lon="5.68335">
        <ele>269</ele>
        <time>2011-06-30T07:36:27Z</time>
      </trkpt>
      <trkpt lat="45.20791" lon="5.68344">
        <ele>269</ele>
        <time>2011-06-30T07:36:28Z</time>
      </trkpt>
      <trkpt lat="45.20784" lon="5.68353">
        <ele>269</ele>
        <time>2011-06-30T07:36:29Z</time>
      </trkpt>
      <trkpt lat="45.20778" lon="5.68362">
        <ele>268</ele>
        <time>2011-06-30T07:36:30Z</time>
      </trkpt>
      <trkpt lat="45.20772" lon="5.68369">
        <ele>268</ele>
        <time>2011-06-30T07:36:31Z</time>
      </trkpt>
      <trkpt lat="45.20767" lon="5.68379">
        <ele>268</ele>
        <time>2011-06-30T07:36:32Z</time>
      </trkpt>
      <trkpt lat="45.20761" lon="5.68389">
        <ele>268</ele>
        <time>2011-06-30T07:36:33Z</time>
      </trkpt>
      <trkpt lat="45.20755" lon="5.68396">
        <ele>268</ele>
        <time>2011-06-30T07:36:34Z</time>
      </trkpt>
      <trkpt lat="45.2075" lon="5.68403">
        <ele>268</ele>
        <time>2011-06-30T07:36:35Z</time>
      </trkpt>
      <trkpt lat="45.20746" lon="5.68409">
        <ele>268</ele>
        <time>2011-06-30T07:36:36Z</time>
      </trkpt>
      <trkpt lat="45.20739" lon="5.68417">
        <ele>268</ele>
        <time>2011-06-30T07:36:38Z</time>
      </trkpt>
      <trkpt lat="45.20734" lon="5.6842">
        <ele>268</ele>
        <time>2011-06-30T07:36:39Z</time>
      </trkpt>
      <trkpt lat="45.20738" lon="5.68412">
        <ele>269</ele>
        <time>2011-06-30T07:36:43Z</time>
      </trkpt>
      <trkpt lat="45.20742" lon="5.68407">
        <ele>270</ele>
        <time>2011-06-30T07:36:45Z</time>
      </trkpt>
      <trkpt lat="45.20747" lon="5.684">
        <ele>270</ele>
        <time>2011-06-30T07:36:47Z</time>
      </trkpt>
      <trkpt lat="45.20751" lon="5.68393">
        <ele>272</ele>
        <time>2011-06-30T07:36:49Z</time>
      </trkpt>
      <trkpt lat="45.20754" lon="5.68386">
        <ele>271</ele>
        <time>2011-06-30T07:36:51Z</time>
      </trkpt>
      <trkpt lat="45.20756" lon="5.68378">
        <ele>271</ele>
        <time>2011-06-30T07:36:53Z</time>
      </trkpt>
      <trkpt lat="45.20758" lon="5.68372">
        <ele>270</ele>
        <time>2011-06-30T07:36:54Z</time>
      </trkpt>
      <trkpt lat="45.20757" lon="5.68364">
        <ele>270</ele>
        <time>2011-06-30T07:36:56Z</time>
      </trkpt>
      <trkpt lat="45.20753" lon="5.68357">
        <ele>271</ele>
        <time>2011-06-30T07:36:58Z</time>
      </trkpt>
      <trkpt lat="45.20752" lon="5.68349">
        <ele>270</ele>
        <time>2011-06-30T07:37:00Z</time>
      </trkpt>
      <trkpt lat="45.2075" lon="5.68341">
        <ele>269</ele>
        <time>2011-06-30T07:37:02Z</time>
      </trkpt>
      <trkpt lat="45.20751" lon="5.68334">
        <ele>269</ele>
        <time>2011-06-30T07:37:05Z</time>
      </trkpt>
      <trkpt lat="45.20754" lon="5.68339">
        <ele>269</ele>
        <time>2011-06-30T07:37:08Z</time>
      </trkpt>
      <trkpt lat="45.20759" lon="5.68344">
        <ele>269</ele>
        <time>2011-06-30T07:37:10Z</time>
      </trkpt>
      <trkpt lat="45.20762" lon="5.68349">
        <ele>270</ele>
        <time>2011-06-30T07:37:12Z</time>
      </trkpt>
      <trkpt lat="45.20767" lon="5.68356">
        <ele>271</ele>
        <time>2011-06-30T07:37:14Z</time>
      </trkpt>
      <trkpt lat="45.20772" lon="5.68363">
        <ele>270</ele>
        <time>2011-06-30T07:37:16Z</time>
      </trkpt>
      <trkpt lat="45.20777" lon="5.6837">
        <ele>271</ele>
        <time>2011-06-30T07:37:18Z</time>
      </trkpt>
      <trkpt lat="45.20782" lon="5.68379">
        <ele>270</ele>
        <time>2011-06-30T07:37:20Z</time>
      </trkpt>
      <trkpt lat="45.20787" lon="5.68387">
        <ele>270</ele>
        <time>2011-06-30T07:37:22Z</time>
      </trkpt>
      <trkpt lat="45.20793" lon="5.68395">
        <ele>270</ele>
        <time>2011-06-30T07:37:24Z</time>
      </trkpt>
      <trkpt lat="45.20799" lon="5.68404">
        <ele>271</ele>
        <time>2011-06-30T07:37:26Z</time>
      </trkpt>
      <trkpt lat="45.20805" lon="5.68413">
        <ele>271</ele>
        <time>2011-06-30T07:37:28Z</time>
      </trkpt>
      <trkpt lat="45.20811" lon="5.68423">
        <ele>270</ele>
        <time>2011-06-30T07:37:30Z</time>
      </trkpt>
      <trkpt lat="45.20818" lon="5.68432">
        <ele>271</ele>
        <time>2011-06-30T07:37:32Z</time>
      </trkpt>
      <trkpt lat="45.20825" lon="5.68442">
        <ele>270</ele>
        <time>2011-06-30T07:37:34Z</time>
      </trkpt>
      <trkpt lat="45.20828" lon="5.68446">
        <ele>270</ele>
        <time>2011-06-30T07:37:35Z</time>
      </trkpt>
      <trkpt lat="45.20831" lon="5.68451">
        <ele>271</ele>
        <time>2011-06-30T07:37:36Z</time>
      </trkpt>
      <trkpt lat="45.20834" lon="5.68456">
        <ele>271</ele>
        <time>2011-06-30T07:37:37Z</time>
      </trkpt>
      <trkpt lat="45.20838" lon="5.68461">
        <ele>271</ele>
        <time>2011-06-30T07:37:38Z</time>
      </trkpt>
      <trkpt lat="45.20841" lon="5.68466">
        <ele>271</ele>
        <time>2011-06-30T07:37:39Z</time>
      </trkpt>
      <trkpt lat="45.20848" lon="5.68476">
        <ele>271</ele>
        <time>2011-06-30T07:37:41Z</time>
      </trkpt>
      <trkpt lat="45.2085" lon="5.68481">
        <ele>271</ele>
        <time>2011-06-30T07:37:42Z</time>
      </trkpt>
      <trkpt lat="45.20854" lon="5.68486">
        <ele>271</ele>
        <time>2011-06-30T07:37:43Z</time>
      </trkpt>
      <trkpt lat="45.20858" lon="5.68492">
        <ele>271</ele>
        <time>2011-06-30T07:37:44Z</time>
      </trkpt>
      <trkpt lat="45.20863" lon="5.68496">
        <ele>271</ele>
        <time>2011-06-30T07:37:45Z</time>
      </trkpt>
      <trkpt lat="45.20867" lon="5.68502">
        <ele>271</ele>
        <time>2011-06-30T07:37:46Z</time>
      </trkpt>
      <trkpt lat="45.2087" lon="5.68508">
        <ele>271</ele>
        <time>2011-06-30T07:37:47Z</time>
      </trkpt>
      <trkpt lat="45.20874" lon="5.68513">
        <ele>271</ele>
        <time>2011-06-30T07:37:48Z</time>
      </trkpt>
      <trkpt lat="45.20878" lon="5.68518">
        <ele>271</ele>
        <time>2011-06-30T07:37:49Z</time>
      </trkpt>
      <trkpt lat="45.20883" lon="5.68524">
        <ele>271</ele>
        <time>2011-06-30T07:37:50Z</time>
      </trkpt>
      <trkpt lat="45.20885" lon="5.6853">
        <ele>271</ele>
        <time>2011-06-30T07:37:51Z</time>
      </trkpt>
      <trkpt lat="45.20888" lon="5.68536">
        <ele>270</ele>
        <time>2011-06-30T07:37:52Z</time>
      </trkpt>
      <trkpt lat="45.20889" lon="5.68544">
        <ele>269</ele>
        <time>2011-06-30T07:37:53Z</time>
      </trkpt>
      <trkpt lat="45.20888" lon="5.68551">
        <ele>269</ele>
        <time>2011-06-30T07:37:54Z</time>
      </trkpt>
      <trkpt lat="45.20886" lon="5.68557">
        <ele>269</ele>
        <time>2011-06-30T07:37:55Z</time>
      </trkpt>
      <trkpt lat="45.20881" lon="5.68562">
        <ele>269</ele>
        <time>2011-06-30T07:37:56Z</time>
      </trkpt>
      <trkpt lat="45.20874" lon="5.68568">
        <ele>269</ele>
        <time>2011-06-30T07:37:57Z</time>
      </trkpt>
      <trkpt lat="45.20868" lon="5.68572">
        <ele>269</ele>
        <time>2011-06-30T07:37:58Z</time>
      </trkpt>
      <trkpt lat="45.20862" lon="5.68578">
        <ele>269</ele>
        <time>2011-06-30T07:37:59Z</time>
      </trkpt>
      <trkpt lat="45.20855" lon="5.68584">
        <ele>269</ele>
        <time>2011-06-30T07:38:00Z</time>
      </trkpt>
      <trkpt lat="45.20849" lon="5.68589">
        <ele>270</ele>
        <time>2011-06-30T07:38:01Z</time>
      </trkpt>
      <trkpt lat="45.20842" lon="5.68596">
        <ele>269</ele>
        <time>2011-06-30T07:38:02Z</time>
      </trkpt>
      <trkpt lat="45.20828" lon="5.68604">
        <ele>269</ele>
        <time>2011-06-30T07:38:04Z</time>
      </trkpt>
      <trkpt lat="45.20822" lon="5.68604">
        <ele>269</ele>
        <time>2011-06-30T07:38:05Z</time>
      </trkpt>
      <trkpt lat="45.20816" lon="5.68601">
        <ele>269</ele>
        <time>2011-06-30T07:38:06Z</time>
      </trkpt>
      <trkpt lat="45.20812" lon="5.68596">
        <ele>269</ele>
        <time>2011-06-30T07:38:08Z</time>
      </trkpt>
      <trkpt lat="45.20818" lon="5.68589">
        <ele>269</ele>
        <time>2011-06-30T07:38:09Z</time>
      </trkpt>
      <trkpt lat="45.20826" lon="5.68579">
        <ele>269</ele>
        <time>2011-06-30T07:38:10Z</time>
      </trkpt>
      <trkpt lat="45.20833" lon="5.68572">
        <ele>269</ele>
        <time>2011-06-30T07:38:11Z</time>
      </trkpt>
      <trkpt lat="45.20838" lon="5.68565">
        <ele>269</ele>
        <time>2011-06-30T07:38:12Z</time>
      </trkpt>
      <trkpt lat="45.20843" lon="5.68558">
        <ele>269</ele>
        <time>2011-06-30T07:38:13Z</time>
      </trkpt>
      <trkpt lat="45.20849" lon="5.68549">
        <ele>269</ele>
        <time>2011-06-30T07:38:14Z</time>
      </trkpt>
      <trkpt lat="45.20854" lon="5.68542">
        <ele>269</ele>
        <time>2011-06-30T07:38:15Z</time>
      </trkpt>
      <trkpt lat="45.20861" lon="5.68534">
        <ele>270</ele>
        <time>2011-06-30T07:38:16Z</time>
      </trkpt>
      <trkpt lat="45.20866" lon="5.68528">
        <ele>270</ele>
        <time>2011-06-30T07:38:17Z</time>
      </trkpt>
      <trkpt lat="45.2087" lon="5.68522">
        <ele>270</ele>
        <time>2011-06-30T07:38:18Z</time>
      </trkpt>
      <trkpt lat="45.20876" lon="5.68515">
        <ele>270</ele>
        <time>2011-06-30T07:38:19Z</time>
      </trkpt>
      <trkpt lat="45.20881" lon="5.68508">
        <ele>270</ele>
        <time>2011-06-30T07:38:20Z</time>
      </trkpt>
      <trkpt lat="45.20886" lon="5.68501">
        <ele>270</ele>
        <time>2011-06-30T07:38:21Z</time>
      </trkpt>
      <trkpt lat="45.2089" lon="5.68494">
        <ele>270</ele>
        <time>2011-06-30T07:38:22Z</time>
      </trkpt>
      <trkpt lat="45.20895" lon="5.68488">
        <ele>270</ele>
        <time>2011-06-30T07:38:23Z</time>
      </trkpt>
      <trkpt lat="45.20899" lon="5.68483">
        <ele>270</ele>
        <time>2011-06-30T07:38:24Z</time>
      </trkpt>
      <trkpt lat="45.20904" lon="5.68476">
        <ele>270</ele>
        <time>2011-06-30T07:38:25Z</time>
      </trkpt>
      <trkpt lat="45.20907" lon="5.68471">
        <ele>270</ele>
        <time>2011-06-30T07:38:26Z</time>
      </trkpt>
      <trkpt lat="45.20912" lon="5.6847">
        <ele>270</ele>
        <time>2011-06-30T07:38:27Z</time>
      </trkpt>
      <trkpt lat="45.2092" lon="5.6847">
        <ele>270</ele>
        <time>2011-06-30T07:38:29Z</time>
      </trkpt>
      <trkpt lat="45.20927" lon="5.68476">
        <ele>270</ele>
        <time>2011-06-30T07:38:31Z</time>
      </trkpt>
      <trkpt lat="45.20932" lon="5.68482">
        <ele>269</ele>
        <time>2011-06-30T07:38:33Z</time>
      </trkpt>
      <trkpt lat="45.20937" lon="5.6849">
        <ele>269</ele>
        <time>2011-06-30T07:38:35Z</time>
      </trkpt>
      <trkpt lat="45.20943" lon="5.68496">
        <ele>270</ele>
        <time>2011-06-30T07:38:37Z</time>
      </trkpt>
      <trkpt lat="45.20949" lon="5.68498">
        <ele>271</ele>
        <time>2011-06-30T07:38:39Z</time>
      </trkpt>
      <trkpt lat="45.20954" lon="5.68499">
        <ele>273</ele>
        <time>2011-06-30T07:38:41Z</time>
      </trkpt>
      <trkpt lat="45.20961" lon="5.68496">
        <ele>273</ele>
        <time>2011-06-30T07:38:44Z</time>
      </trkpt>
      <trkpt lat="45.20967" lon="5.68494">
        <ele>273</ele>
        <time>2011-06-30T07:38:47Z</time>
      </trkpt>
      <trkpt lat="45.20972" lon="5.68491">
        <ele>272</ele>
        <time>2011-06-30T07:38:49Z</time>
      </trkpt>
      <trkpt lat="45.20976" lon="5.68488">
        <ele>272</ele>
        <time>2011-06-30T07:38:51Z</time>
      </trkpt>
      <trkpt lat="45.2098" lon="5.68484">
        <ele>272</ele>
        <time>2011-06-30T07:38:53Z</time>
      </trkpt>
      <trkpt lat="45.20985" lon="5.68482">
        <ele>272</ele>
        <time>2011-06-30T07:38:55Z</time>
      </trkpt>
      <trkpt lat="45.2099" lon="5.68479">
        <ele>272</ele>
        <time>2011-06-30T07:38:58Z</time>
      </trkpt>
      <trkpt lat="45.20995" lon="5.68474">
        <ele>272</ele>
        <time>2011-06-30T07:39:01Z</time>
      </trkpt>
      <trkpt lat="45.21001" lon="5.68469">
        <ele>271</ele>
        <time>2011-06-30T07:39:04Z</time>
      </trkpt>
      <trkpt lat="45.21005" lon="5.68465">
        <ele>270</ele>
        <time>2011-06-30T07:39:06Z</time>
      </trkpt>
      <trkpt lat="45.21011" lon="5.68461">
        <ele>270</ele>
        <time>2011-06-30T07:39:09Z</time>
      </trkpt>
      <trkpt lat="45.21017" lon="5.68457">
        <ele>270</ele>
        <time>2011-06-30T07:39:11Z</time>
      </trkpt>
      <trkpt lat="45.21023" lon="5.68453">
        <ele>270</ele>
        <time>2011-06-30T07:39:13Z</time>
      </trkpt>
      <trkpt lat="45.21028" lon="5.68448">
        <ele>270</ele>
        <time>2011-06-30T07:39:15Z</time>
      </trkpt>
      <trkpt lat="45.21036" lon="5.68443">
        <ele>270</ele>
        <time>2011-06-30T07:39:17Z</time>
      </trkpt>
      <trkpt lat="45.2104" lon="5.6844">
        <ele>269</ele>
        <time>2011-06-30T07:39:18Z</time>
      </trkpt>
      <trkpt lat="45.21045" lon="5.68438">
        <ele>269</ele>
        <time>2011-06-30T07:39:19Z</time>
      </trkpt>
      <trkpt lat="45.21049" lon="5.68435">
        <ele>269</ele>
        <time>2011-06-30T07:39:20Z</time>
      </trkpt>
      <trkpt lat="45.21053" lon="5.68432">
        <ele>269</ele>
        <time>2011-06-30T07:39:21Z</time>
      </trkpt>
      <trkpt lat="45.21058" lon="5.68429">
        <ele>269</ele>
        <time>2011-06-30T07:39:22Z</time>
      </trkpt>
      <trkpt lat="45.21064" lon="5.68426">
        <ele>269</ele>
        <time>2011-06-30T07:39:23Z</time>
      </trkpt>
      <trkpt lat="45.21069" lon="5.68422">
        <ele>269</ele>
        <time>2011-06-30T07:39:24Z</time>
      </trkpt>
      <trkpt lat="45.21075" lon="5.6842">
        <ele>269</ele>
        <time>2011-06-30T07:39:25Z</time>
      </trkpt>
      <trkpt lat="45.2108" lon="5.68419">
        <ele>268</ele>
        <time>2011-06-30T07:39:26Z</time>
      </trkpt>
      <trkpt lat="45.21086" lon="5.6842">
        <ele>269</ele>
        <time>2011-06-30T07:39:27Z</time>
      </trkpt>
      <trkpt lat="45.21092" lon="5.68422">
        <ele>268</ele>
        <time>2011-06-30T07:39:28Z</time>
      </trkpt>
      <trkpt lat="45.21099" lon="5.68424">
        <ele>268</ele>
        <time>2011-06-30T07:39:29Z</time>
      </trkpt>
      <trkpt lat="45.21106" lon="5.68425">
        <ele>268</ele>
        <time>2011-06-30T07:39:30Z</time>
      </trkpt>
      <trkpt lat="45.21113" lon="5.68427">
        <ele>267</ele>
        <time>2011-06-30T07:39:31Z</time>
      </trkpt>
      <trkpt lat="45.2112" lon="5.68428">
        <ele>267</ele>
        <time>2011-06-30T07:39:32Z</time>
      </trkpt>
      <trkpt lat="45.21127" lon="5.68431">
        <ele>266</ele>
        <time>2011-06-30T07:39:33Z</time>
      </trkpt>
      <trkpt lat="45.21132" lon="5.68436">
        <ele>265</ele>
        <time>2011-06-30T07:39:34Z</time>
      </trkpt>
      <trkpt lat="45.21137" lon="5.68443">
        <ele>264</ele>
        <time>2011-06-30T07:39:35Z</time>
      </trkpt>
      <trkpt lat="45.21141" lon="5.68451">
        <ele>264</ele>
        <time>2011-06-30T07:39:36Z</time>
      </trkpt>
      <trkpt lat="45.21141" lon="5.68458">
        <ele>264</ele>
        <time>2011-06-30T07:39:37Z</time>
      </trkpt>
      <trkpt lat="45.2114" lon="5.68466">
        <ele>264</ele>
        <time>2011-06-30T07:39:38Z</time>
      </trkpt>
      <trkpt lat="45.21138" lon="5.68476">
        <ele>265</ele>
        <time>2011-06-30T07:39:39Z</time>
      </trkpt>
      <trkpt lat="45.21137" lon="5.68485">
        <ele>265</ele>
        <time>2011-06-30T07:39:40Z</time>
      </trkpt>
      <trkpt lat="45.21135" lon="5.68495">
        <ele>265</ele>
        <time>2011-06-30T07:39:41Z</time>
      </trkpt>
      <trkpt lat="45.21133" lon="5.68504">
        <ele>265</ele>
        <time>2011-06-30T07:39:42Z</time>
      </trkpt>
      <trkpt lat="45.21132" lon="5.68514">
        <ele>265</ele>
        <time>2011-06-30T07:39:43Z</time>
      </trkpt>
      <trkpt lat="45.2113" lon="5.68523">
        <ele>265</ele>
        <time>2011-06-30T07:39:44Z</time>
      </trkpt>
      <trkpt lat="45.21129" lon="5.68532">
        <ele>265</ele>
        <time>2011-06-30T07:39:45Z</time>
      </trkpt>
      <trkpt lat="45.21126" lon="5.68544">
        <ele>265</ele>
        <time>2011-06-30T07:39:46Z</time>
      </trkpt>
      <trkpt lat="45.21122" lon="5.68553">
        <ele>265</ele>
        <time>2011-06-30T07:39:47Z</time>
      </trkpt>
      <trkpt lat="45.2112" lon="5.68561">
        <ele>265</ele>
        <time>2011-06-30T07:39:48Z</time>
      </trkpt>
      <trkpt lat="45.21114" lon="5.68572">
        <ele>263</ele>
        <time>2011-06-30T07:39:49Z</time>
      </trkpt>
      <trkpt lat="45.21113" lon="5.68582">
        <ele>263</ele>
        <time>2011-06-30T07:39:50Z</time>
      </trkpt>
      <trkpt lat="45.21111" lon="5.68589">
        <ele>263</ele>
        <time>2011-06-30T07:39:51Z</time>
      </trkpt>
      <trkpt lat="45.21109" lon="5.68598">
        <ele>263</ele>
        <time>2011-06-30T07:39:52Z</time>
      </trkpt>
      <trkpt lat="45.21107" lon="5.68607">
        <ele>262</ele>
        <time>2011-06-30T07:39:53Z</time>
      </trkpt>
      <trkpt lat="45.21105" lon="5.68616">
        <ele>263</ele>
        <time>2011-06-30T07:39:54Z</time>
      </trkpt>
      <trkpt lat="45.21104" lon="5.68624">
        <ele>263</ele>
        <time>2011-06-30T07:39:55Z</time>
      </trkpt>
      <trkpt lat="45.21102" lon="5.68633">
        <ele>263</ele>
        <time>2011-06-30T07:39:56Z</time>
      </trkpt>
      <trkpt lat="45.211" lon="5.68642">
        <ele>262</ele>
        <time>2011-06-30T07:39:57Z</time>
      </trkpt>
      <trkpt lat="45.21099" lon="5.68651">
        <ele>262</ele>
        <time>2011-06-30T07:39:58Z</time>
      </trkpt>
      <trkpt lat="45.21097" lon="5.68659">
        <ele>262</ele>
        <time>2011-06-30T07:39:59Z</time>
      </trkpt>
      <trkpt lat="45.21094" lon="5.68667">
        <ele>261</ele>
        <time>2011-06-30T07:40:00Z</time>
      </trkpt>
      <trkpt lat="45.21093" lon="5.68676">
        <ele>261</ele>
        <time>2011-06-30T07:40:01Z</time>
      </trkpt>
      <trkpt lat="45.21091" lon="5.68684">
        <ele>262</ele>
        <time>2011-06-30T07:40:02Z</time>
      </trkpt>
      <trkpt lat="45.21087" lon="5.68701">
        <ele>261</ele>
        <time>2011-06-30T07:40:04Z</time>
      </trkpt>
      <trkpt lat="45.21085" lon="5.68709">
        <ele>261</ele>
        <time>2011-06-30T07:40:05Z</time>
      </trkpt>
      <trkpt lat="45.21083" lon="5.68717">
        <ele>260</ele>
        <time>2011-06-30T07:40:06Z</time>
      </trkpt>
      <trkpt lat="45.21082" lon="5.68726">
        <ele>260</ele>
        <time>2011-06-30T07:40:07Z</time>
      </trkpt>
      <trkpt lat="45.21079" lon="5.68735">
        <ele>260</ele>
        <time>2011-06-30T07:40:08Z</time>
      </trkpt>
      <trkpt lat="45.21078" lon="5.68743">
        <ele>259</ele>
        <time>2011-06-30T07:40:09Z</time>
      </trkpt>
      <trkpt lat="45.21076" lon="5.68752">
        <ele>259</ele>
        <time>2011-06-30T07:40:10Z</time>
      </trkpt>
      <trkpt lat="45.21075" lon="5.68761">
        <ele>258</ele>
        <time>2011-06-30T07:40:11Z</time>
      </trkpt>
      <trkpt lat="45.21073" lon="5.6877">
        <ele>259</ele>
        <time>2011-06-30T07:40:12Z</time>
      </trkpt>
      <trkpt lat="45.21071" lon="5.68778">
        <ele>258</ele>
        <time>2011-06-30T07:40:13Z</time>
      </trkpt>
      <trkpt lat="45.21068" lon="5.68786">
        <ele>258</ele>
        <time>2011-06-30T07:40:14Z</time>
      </trkpt>
      <trkpt lat="45.21066" lon="5.68795">
        <ele>259</ele>
        <time>2011-06-30T07:40:15Z</time>
      </trkpt>
      <trkpt lat="45.21064" lon="5.68804">
        <ele>258</ele>
        <time>2011-06-30T07:40:16Z</time>
      </trkpt>
      <trkpt lat="45.21063" lon="5.68813">
        <ele>258</ele>
        <time>2011-06-30T07:40:17Z</time>
      </trkpt>
      <trkpt lat="45.21062" lon="5.68822">
        <ele>258</ele>
        <time>2011-06-30T07:40:18Z</time>
      </trkpt>
      <trkpt lat="45.21059" lon="5.6883">
        <ele>258</ele>
        <time>2011-06-30T07:40:19Z</time>
      </trkpt>
      <trkpt lat="45.21058" lon="5.6884">
        <ele>258</ele>
        <time>2011-06-30T07:40:20Z</time>
      </trkpt>
      <trkpt lat="45.21056" lon="5.68849">
        <ele>259</ele>
        <time>2011-06-30T07:40:21Z</time>
      </trkpt>
      <trkpt lat="45.21055" lon="5.68857">
        <ele>260</ele>
        <time>2011-06-30T07:40:22Z</time>
      </trkpt>
      <trkpt lat="45.21054" lon="5.68866">
        <ele>260</ele>
        <time>2011-06-30T07:40:23Z</time>
      </trkpt>
      <trkpt lat="45.21053" lon="5.68876">
        <ele>260</ele>
        <time>2011-06-30T07:40:24Z</time>
      </trkpt>
      <trkpt lat="45.21051" lon="5.68884">
        <ele>260</ele>
        <time>2011-06-30T07:40:25Z</time>
      </trkpt>
      <trkpt lat="45.21049" lon="5.68892">
        <ele>261</ele>
        <time>2011-06-30T07:40:26Z</time>
      </trkpt>
      <trkpt lat="45.21047" lon="5.68901">
        <ele>261</ele>
        <time>2011-06-30T07:40:27Z</time>
      </trkpt>
      <trkpt lat="45.21046" lon="5.6891">
        <ele>261</ele>
        <time>2011-06-30T07:40:28Z</time>
      </trkpt>
      <trkpt lat="45.21044" lon="5.68919">
        <ele>261</ele>
        <time>2011-06-30T07:40:29Z</time>
      </trkpt>
      <trkpt lat="45.21042" lon="5.68929">
        <ele>261</ele>
        <time>2011-06-30T07:40:30Z</time>
      </trkpt>
      <trkpt lat="45.21042" lon="5.68938">
        <ele>261</ele>
        <time>2011-06-30T07:40:31Z</time>
      </trkpt>
      <trkpt lat="45.2104" lon="5.68947">
        <ele>261</ele>
        <time>2011-06-30T07:40:32Z</time>
      </trkpt>
      <trkpt lat="45.21039" lon="5.68956">
        <ele>260</ele>
        <time>2011-06-30T07:40:33Z</time>
      </trkpt>
      <trkpt lat="45.21038" lon="5.68966">
        <ele>260</ele>
        <time>2011-06-30T07:40:34Z</time>
      </trkpt>
      <trkpt lat="45.21036" lon="5.68975">
        <ele>260</ele>
        <time>2011-06-30T07:40:35Z</time>
      </trkpt>
      <trkpt lat="45.21035" lon="5.68984">
        <ele>260</ele>
        <time>2011-06-30T07:40:36Z</time>
      </trkpt>
      <trkpt lat="45.21034" lon="5.68992">
        <ele>260</ele>
        <time>2011-06-30T07:40:37Z</time>
      </trkpt>
      <trkpt lat="45.21033" lon="5.69001">
        <ele>260</ele>
        <time>2011-06-30T07:40:38Z</time>
      </trkpt>
      <trkpt lat="45.21032" lon="5.6901">
        <ele>261</ele>
        <time>2011-06-30T07:40:39Z</time>
      </trkpt>
      <trkpt lat="45.21031" lon="5.6902">
        <ele>261</ele>
        <time>2011-06-30T07:40:40Z</time>
      </trkpt>
      <trkpt lat="45.2103" lon="5.69029">
        <ele>261</ele>
        <time>2011-06-30T07:40:41Z</time>
      </trkpt>
      <trkpt lat="45.21028" lon="5.69038">
        <ele>261</ele>
        <time>2011-06-30T07:40:42Z</time>
      </trkpt>
      <trkpt lat="45.21026" lon="5.69047">
        <ele>261</ele>
        <time>2011-06-30T07:40:43Z</time>
      </trkpt>
      <trkpt lat="45.21025" lon="5.69055">
        <ele>262</ele>
        <time>2011-06-30T07:40:44Z</time>
      </trkpt>
      <trkpt lat="45.21024" lon="5.69064">
        <ele>263</ele>
        <time>2011-06-30T07:40:45Z</time>
      </trkpt>
      <trkpt lat="45.21023" lon="5.69073">
        <ele>263</ele>
        <time>2011-06-30T07:40:46Z</time>
      </trkpt>
      <trkpt lat="45.21022" lon="5.69082">
        <ele>263</ele>
        <time>2011-06-30T07:40:47Z</time>
      </trkpt>
      <trkpt lat="45.21021" lon="5.69091">
        <ele>263</ele>
        <time>2011-06-30T07:40:48Z</time>
      </trkpt>
      <trkpt lat="45.2102" lon="5.691">
        <ele>263</ele>
        <time>2011-06-30T07:40:49Z</time>
      </trkpt>
      <trkpt lat="45.2102" lon="5.69108">
        <ele>263</ele>
        <time>2011-06-30T07:40:50Z</time>
      </trkpt>
      <trkpt lat="45.21018" lon="5.69117">
        <ele>263</ele>
        <time>2011-06-30T07:40:51Z</time>
      </trkpt>
      <trkpt lat="45.21017" lon="5.69124">
        <ele>263</ele>
        <time>2011-06-30T07:40:52Z</time>
      </trkpt>
      <trkpt lat="45.21016" lon="5.69134">
        <ele>263</ele>
        <time>2011-06-30T07:40:53Z</time>
      </trkpt>
      <trkpt lat="45.21015" lon="5.69141">
        <ele>263</ele>
        <time>2011-06-30T07:40:54Z</time>
      </trkpt>
      <trkpt lat="45.21013" lon="5.6915">
        <ele>263</ele>
        <time>2011-06-30T07:40:55Z</time>
      </trkpt>
      <trkpt lat="45.21013" lon="5.69158">
        <ele>263</ele>
        <time>2011-06-30T07:40:56Z</time>
      </trkpt>
      <trkpt lat="45.21011" lon="5.69165">
        <ele>264</ele>
        <time>2011-06-30T07:40:57Z</time>
      </trkpt>
      <trkpt lat="45.2101" lon="5.69173">
        <ele>264</ele>
        <time>2011-06-30T07:40:58Z</time>
      </trkpt>
      <trkpt lat="45.2101" lon="5.69184">
        <ele>263</ele>
        <time>2011-06-30T07:40:59Z</time>
      </trkpt>
      <trkpt lat="45.21009" lon="5.69203">
        <ele>263</ele>
        <time>2011-06-30T07:41:01Z</time>
      </trkpt>
      <trkpt lat="45.21006" lon="5.69229">
        <ele>263</ele>
        <time>2011-06-30T07:41:04Z</time>
      </trkpt>
      <trkpt lat="45.21004" lon="5.69247">
        <ele>263</ele>
        <time>2011-06-30T07:41:06Z</time>
      </trkpt>
      <trkpt lat="45.21003" lon="5.69256">
        <ele>262</ele>
        <time>2011-06-30T07:41:07Z</time>
      </trkpt>
      <trkpt lat="45.21003" lon="5.69264">
        <ele>262</ele>
        <time>2011-06-30T07:41:08Z</time>
      </trkpt>
      <trkpt lat="45.21002" lon="5.69274">
        <ele>262</ele>
        <time>2011-06-30T07:41:09Z</time>
      </trkpt>
      <trkpt lat="45.21001" lon="5.69282">
        <ele>262</ele>
        <time>2011-06-30T07:41:10Z</time>
      </trkpt>
      <trkpt lat="45.21" lon="5.69291">
        <ele>263</ele>
        <time>2011-06-30T07:41:11Z</time>
      </trkpt>
      <trkpt lat="45.20998" lon="5.693">
        <ele>263</ele>
        <time>2011-06-30T07:41:12Z</time>
      </trkpt>
      <trkpt lat="45.20997" lon="5.69308">
        <ele>263</ele>
        <time>2011-06-30T07:41:13Z</time>
      </trkpt>
      <trkpt lat="45.20995" lon="5.69317">
        <ele>263</ele>
        <time>2011-06-30T07:41:14Z</time>
      </trkpt>
      <trkpt lat="45.20994" lon="5.69326">
        <ele>263</ele>
        <time>2011-06-30T07:41:15Z</time>
      </trkpt>
      <trkpt lat="45.20992" lon="5.69334">
        <ele>263</ele>
        <time>2011-06-30T07:41:16Z</time>
      </trkpt>
      <trkpt lat="45.20992" lon="5.69342">
        <ele>263</ele>
        <time>2011-06-30T07:41:17Z</time>
      </trkpt>
      <trkpt lat="45.20991" lon="5.69349">
        <ele>263</ele>
        <time>2011-06-30T07:41:18Z</time>
      </trkpt>
      <trkpt lat="45.20988" lon="5.69358">
        <ele>263</ele>
        <time>2011-06-30T07:41:19Z</time>
      </trkpt>
      <trkpt lat="45.20987" lon="5.69369">
        <ele>263</ele>
        <time>2011-06-30T07:41:20Z</time>
      </trkpt>
      <trkpt lat="45.20984" lon="5.69378">
        <ele>263</ele>
        <time>2011-06-30T07:41:21Z</time>
      </trkpt>
      <trkpt lat="45.20983" lon="5.69386">
        <ele>263</ele>
        <time>2011-06-30T07:41:22Z</time>
      </trkpt>
      <trkpt lat="45.2098" lon="5.69394">
        <ele>263</ele>
        <time>2011-06-30T07:41:23Z</time>
      </trkpt>
      <trkpt lat="45.20977" lon="5.69401">
        <ele>263</ele>
        <time>2011-06-30T07:41:24Z</time>
      </trkpt>
      <trkpt lat="45.20975" lon="5.69408">
        <ele>263</ele>
        <time>2011-06-30T07:41:25Z</time>
      </trkpt>
      <trkpt lat="45.20973" lon="5.69415">
        <ele>263</ele>
        <time>2011-06-30T07:41:26Z</time>
      </trkpt>
      <trkpt lat="45.2097" lon="5.69423">
        <ele>263</ele>
        <time>2011-06-30T07:41:27Z</time>
      </trkpt>
      <trkpt lat="45.20966" lon="5.69431">
        <ele>263</ele>
        <time>2011-06-30T07:41:28Z</time>
      </trkpt>
      <trkpt lat="45.20962" lon="5.69438">
        <ele>263</ele>
        <time>2011-06-30T07:41:29Z</time>
      </trkpt>
      <trkpt lat="45.20959" lon="5.69445">
        <ele>263</ele>
        <time>2011-06-30T07:41:30Z</time>
      </trkpt>
      <trkpt lat="45.20956" lon="5.69451">
        <ele>263</ele>
        <time>2011-06-30T07:41:31Z</time>
      </trkpt>
      <trkpt lat="45.20954" lon="5.69459">
        <ele>264</ele>
        <time>2011-06-30T07:41:32Z</time>
      </trkpt>
      <trkpt lat="45.20952" lon="5.69466">
        <ele>264</ele>
        <time>2011-06-30T07:41:33Z</time>
      </trkpt>
      <trkpt lat="45.2095" lon="5.69473">
        <ele>264</ele>
        <time>2011-06-30T07:41:34Z</time>
      </trkpt>
      <trkpt lat="45.20947" lon="5.69481">
        <ele>264</ele>
        <time>2011-06-30T07:41:35Z</time>
      </trkpt>
      <trkpt lat="45.20944" lon="5.69492">
        <ele>264</ele>
        <time>2011-06-30T07:41:36Z</time>
      </trkpt>
      <trkpt lat="45.2094" lon="5.69498">
        <ele>265</ele>
        <time>2011-06-30T07:41:37Z</time>
      </trkpt>
      <trkpt lat="45.20938" lon="5.69508">
        <ele>265</ele>
        <time>2011-06-30T07:41:38Z</time>
      </trkpt>
      <trkpt lat="45.20936" lon="5.69517">
        <ele>265</ele>
        <time>2011-06-30T07:41:39Z</time>
      </trkpt>
      <trkpt lat="45.20933" lon="5.69525">
        <ele>266</ele>
        <time>2011-06-30T07:41:40Z</time>
      </trkpt>
      <trkpt lat="45.20931" lon="5.69533">
        <ele>266</ele>
        <time>2011-06-30T07:41:41Z</time>
      </trkpt>
      <trkpt lat="45.20928" lon="5.69542">
        <ele>266</ele>
        <time>2011-06-30T07:41:42Z</time>
      </trkpt>
      <trkpt lat="45.20924" lon="5.6955">
        <ele>265</ele>
        <time>2011-06-30T07:41:43Z</time>
      </trkpt>
      <trkpt lat="45.2092" lon="5.69557">
        <ele>265</ele>
        <time>2011-06-30T07:41:44Z</time>
      </trkpt>
      <trkpt lat="45.20915" lon="5.69563">
        <ele>264</ele>
        <time>2011-06-30T07:41:45Z</time>
      </trkpt>
      <trkpt lat="45.20908" lon="5.69567">
        <ele>264</ele>
        <time>2011-06-30T07:41:46Z</time>
      </trkpt>
      <trkpt lat="45.20902" lon="5.69572">
        <ele>264</ele>
        <time>2011-06-30T07:41:47Z</time>
      </trkpt>
      <trkpt lat="45.20895" lon="5.69578">
        <ele>264</ele>
        <time>2011-06-30T07:41:48Z</time>
      </trkpt>
      <trkpt lat="45.20889" lon="5.69585">
        <ele>264</ele>
        <time>2011-06-30T07:41:49Z</time>
      </trkpt>
      <trkpt lat="45.20883" lon="5.69592">
        <ele>264</ele>
        <time>2011-06-30T07:41:50Z</time>
      </trkpt>
      <trkpt lat="45.20877" lon="5.69599">
        <ele>263</ele>
        <time>2011-06-30T07:41:51Z</time>
      </trkpt>
      <trkpt lat="45.2087" lon="5.69604">
        <ele>264</ele>
        <time>2011-06-30T07:41:52Z</time>
      </trkpt>
      <trkpt lat="45.20863" lon="5.69607">
        <ele>264</ele>
        <time>2011-06-30T07:41:53Z</time>
      </trkpt>
      <trkpt lat="45.20856" lon="5.69611">
        <ele>263</ele>
        <time>2011-06-30T07:41:54Z</time>
      </trkpt>
      <trkpt lat="45.2085" lon="5.69615">
        <ele>264</ele>
        <time>2011-06-30T07:41:55Z</time>
      </trkpt>
      <trkpt lat="45.20843" lon="5.69621">
        <ele>264</ele>
        <time>2011-06-30T07:41:56Z</time>
      </trkpt>
      <trkpt lat="45.20838" lon="5.69628">
        <ele>264</ele>
        <time>2011-06-30T07:41:57Z</time>
      </trkpt>
      <trkpt lat="45.20832" lon="5.69635">
        <ele>264</ele>
        <time>2011-06-30T07:41:58Z</time>
      </trkpt>
      <trkpt lat="45.20826" lon="5.6964">
        <ele>264</ele>
        <time>2011-06-30T07:41:59Z</time>
      </trkpt>
      <trkpt lat="45.2082" lon="5.69648">
        <ele>264</ele>
        <time>2011-06-30T07:42:00Z</time>
      </trkpt>
      <trkpt lat="45.20814" lon="5.69655">
        <ele>264</ele>
        <time>2011-06-30T07:42:01Z</time>
      </trkpt>
      <trkpt lat="45.20808" lon="5.69662">
        <ele>264</ele>
        <time>2011-06-30T07:42:02Z</time>
      </trkpt>
      <trkpt lat="45.20798" lon="5.69677">
        <ele>265</ele>
        <time>2011-06-30T07:42:04Z</time>
      </trkpt>
      <trkpt lat="45.20793" lon="5.69684">
        <ele>265</ele>
        <time>2011-06-30T07:42:05Z</time>
      </trkpt>
      <trkpt lat="45.20788" lon="5.69693">
        <ele>264</ele>
        <time>2011-06-30T07:42:06Z</time>
      </trkpt>
      <trkpt lat="45.20782" lon="5.697">
        <ele>264</ele>
        <time>2011-06-30T07:42:07Z</time>
      </trkpt>
      <trkpt lat="45.20776" lon="5.69707">
        <ele>264</ele>
        <time>2011-06-30T07:42:08Z</time>
      </trkpt>
      <trkpt lat="45.2077" lon="5.69714">
        <ele>264</ele>
        <time>2011-06-30T07:42:09Z</time>
      </trkpt>
      <trkpt lat="45.20764" lon="5.69721">
        <ele>264</ele>
        <time>2011-06-30T07:42:10Z</time>
      </trkpt>
      <trkpt lat="45.20758" lon="5.69728">
        <ele>265</ele>
        <time>2011-06-30T07:42:11Z</time>
      </trkpt>
      <trkpt lat="45.20753" lon="5.69736">
        <ele>265</ele>
        <time>2011-06-30T07:42:12Z</time>
      </trkpt>
      <trkpt lat="45.20748" lon="5.69744">
        <ele>266</ele>
        <time>2011-06-30T07:42:13Z</time>
      </trkpt>
      <trkpt lat="45.20744" lon="5.6975">
        <ele>266</ele>
        <time>2011-06-30T07:42:14Z</time>
      </trkpt>
      <trkpt lat="45.20738" lon="5.69758">
        <ele>267</ele>
        <time>2011-06-30T07:42:15Z</time>
      </trkpt>
      <trkpt lat="45.20732" lon="5.69765">
        <ele>268</ele>
        <time>2011-06-30T07:42:16Z</time>
      </trkpt>
      <trkpt lat="45.20728" lon="5.69771">
        <ele>269</ele>
        <time>2011-06-30T07:42:17Z</time>
      </trkpt>
      <trkpt lat="45.20724" lon="5.69778">
        <ele>270</ele>
        <time>2011-06-30T07:42:18Z</time>
      </trkpt>
      <trkpt lat="45.2072" lon="5.69784">
        <ele>270</ele>
        <time>2011-06-30T07:42:19Z</time>
      </trkpt>
      <trkpt lat="45.20716" lon="5.69789">
        <ele>269</ele>
        <time>2011-06-30T07:42:20Z</time>
      </trkpt>
      <trkpt lat="45.20711" lon="5.69796">
        <ele>268</ele>
        <time>2011-06-30T07:42:21Z</time>
      </trkpt>
      <trkpt lat="45.20704" lon="5.698">
        <ele>268</ele>
        <time>2011-06-30T07:42:22Z</time>
      </trkpt>
      <trkpt lat="45.20698" lon="5.69804">
        <ele>268</ele>
        <time>2011-06-30T07:42:23Z</time>
      </trkpt>
      <trkpt lat="45.20691" lon="5.69807">
        <ele>267</ele>
        <time>2011-06-30T07:42:24Z</time>
      </trkpt>
      <trkpt lat="45.20685" lon="5.6981">
        <ele>267</ele>
        <time>2011-06-30T07:42:25Z</time>
      </trkpt>
      <trkpt lat="45.20678" lon="5.69814">
        <ele>268</ele>
        <time>2011-06-30T07:42:26Z</time>
      </trkpt>
      <trkpt lat="45.20673" lon="5.69819">
        <ele>268</ele>
        <time>2011-06-30T07:42:27Z</time>
      </trkpt>
      <trkpt lat="45.20667" lon="5.69826">
        <ele>268</ele>
        <time>2011-06-30T07:42:28Z</time>
      </trkpt>
      <trkpt lat="45.20663" lon="5.69832">
        <ele>268</ele>
        <time>2011-06-30T07:42:29Z</time>
      </trkpt>
      <trkpt lat="45.20657" lon="5.69838">
        <ele>268</ele>
        <time>2011-06-30T07:42:30Z</time>
      </trkpt>
      <trkpt lat="45.20652" lon="5.69845">
        <ele>267</ele>
        <time>2011-06-30T07:42:31Z</time>
      </trkpt>
      <trkpt lat="45.20648" lon="5.6985">
        <ele>267</ele>
        <time>2011-06-30T07:42:32Z</time>
      </trkpt>
      <trkpt lat="45.20643" lon="5.69852">
        <ele>267</ele>
        <time>2011-06-30T07:42:33Z</time>
      </trkpt>
      <trkpt lat="45.2064" lon="5.69857">
        <ele>266</ele>
        <time>2011-06-30T07:42:34Z</time>
      </trkpt>
      <trkpt lat="45.20636" lon="5.69862">
        <ele>266</ele>
        <time>2011-06-30T07:42:35Z</time>
      </trkpt>
      <trkpt lat="45.20631" lon="5.69866">
        <ele>265</ele>
        <time>2011-06-30T07:42:36Z</time>
      </trkpt>
      <trkpt lat="45.20627" lon="5.69871">
        <ele>265</ele>
        <time>2011-06-30T07:42:37Z</time>
      </trkpt>
      <trkpt lat="45.20622" lon="5.69874">
        <ele>266</ele>
        <time>2011-06-30T07:42:38Z</time>
      </trkpt>
      <trkpt lat="45.20618" lon="5.69878">
        <ele>266</ele>
        <time>2011-06-30T07:42:39Z</time>
      </trkpt>
      <trkpt lat="45.20613" lon="5.69882">
        <ele>266</ele>
        <time>2011-06-30T07:42:40Z</time>
      </trkpt>
      <trkpt lat="45.20606" lon="5.69888">
        <ele>266</ele>
        <time>2011-06-30T07:42:42Z</time>
      </trkpt>
      <trkpt lat="45.20602" lon="5.69886">
        <ele>266</ele>
        <time>2011-06-30T07:42:50Z</time>
      </trkpt>
    </trkseg>
  </trk>
</gpx>